<?xml version="1.0" encoding="UTF-8" standalone="no" ?>
<gpx xmlns="http://www.topografix.com/GPX/1/1" xmlns:xsi="http://www.w3.org/2001/XMLSchema-instance" xsi:schemaLocation="http://www.topografix.com/GPX/1/1 http://www.topografix.com/GPX/1/1/gpx.xsd" version="1.1" creator="VisuGPX - https://www.visugpx.com">
  <metadata>
    <name>Villeneuve vers la montagne de Lure</name>
    <desc><![CDATA[Avec Yves Alberti]]></desc>
  </metadata>
  <trk>
    <name><![CDATA[Actuel: 26 AVR 2016 08:53]]></name>
    <trkseg>
      <trkpt lat="43.89846" lon="5.86514">
        <ele>467.04</ele>
        <time>2016-04-26T06:53:42Z</time>
      </trkpt>
      <trkpt lat="43.89836" lon="5.86522">
        <ele>401.69</ele>
        <time>2016-04-26T06:53:43Z</time>
      </trkpt>
      <trkpt lat="43.89841" lon="5.86502">
        <ele>401.04</ele>
        <time>2016-04-26T06:54:09Z</time>
      </trkpt>
      <trkpt lat="43.89843" lon="5.865">
        <ele>401.16</ele>
        <time>2016-04-26T06:54:21Z</time>
      </trkpt>
      <trkpt lat="43.89847" lon="5.86499">
        <ele>401.2</ele>
        <time>2016-04-26T06:54:33Z</time>
      </trkpt>
      <trkpt lat="43.8985" lon="5.86493">
        <ele>401.27</ele>
        <time>2016-04-26T06:54:46Z</time>
      </trkpt>
      <trkpt lat="43.89829" lon="5.86502">
        <ele>401.34</ele>
        <time>2016-04-26T06:55:01Z</time>
      </trkpt>
      <trkpt lat="43.8983" lon="5.86516">
        <ele>402.24</ele>
        <time>2016-04-26T06:55:19Z</time>
      </trkpt>
      <trkpt lat="43.89841" lon="5.86528">
        <ele>403.32</ele>
        <time>2016-04-26T06:55:29Z</time>
      </trkpt>
      <trkpt lat="43.89842" lon="5.8653">
        <ele>403.42</ele>
        <time>2016-04-26T06:55:30Z</time>
      </trkpt>
      <trkpt lat="43.89844" lon="5.86533">
        <ele>403.52</ele>
        <time>2016-04-26T06:55:31Z</time>
      </trkpt>
      <trkpt lat="43.89845" lon="5.86534">
        <ele>403.58</ele>
        <time>2016-04-26T06:55:32Z</time>
      </trkpt>
      <trkpt lat="43.89846" lon="5.86536">
        <ele>403.62</ele>
        <time>2016-04-26T06:55:33Z</time>
      </trkpt>
      <trkpt lat="43.89847" lon="5.86537">
        <ele>403.64</ele>
        <time>2016-04-26T06:55:34Z</time>
      </trkpt>
      <trkpt lat="43.89849" lon="5.86538">
        <ele>403.67</ele>
        <time>2016-04-26T06:55:35Z</time>
      </trkpt>
      <trkpt lat="43.8985" lon="5.86539">
        <ele>403.67</ele>
        <time>2016-04-26T06:55:36Z</time>
      </trkpt>
      <trkpt lat="43.89852" lon="5.86544">
        <ele>403.99</ele>
        <time>2016-04-26T06:55:39Z</time>
      </trkpt>
      <trkpt lat="43.89852" lon="5.86547">
        <ele>404</ele>
        <time>2016-04-26T06:55:40Z</time>
      </trkpt>
      <trkpt lat="43.89851" lon="5.8655">
        <ele>404.01</ele>
        <time>2016-04-26T06:55:41Z</time>
      </trkpt>
      <trkpt lat="43.8985" lon="5.86553">
        <ele>404.09</ele>
        <time>2016-04-26T06:55:42Z</time>
      </trkpt>
      <trkpt lat="43.89849" lon="5.86558">
        <ele>404</ele>
        <time>2016-04-26T06:55:43Z</time>
      </trkpt>
      <trkpt lat="43.8983" lon="5.86601">
        <ele>400.63</ele>
        <time>2016-04-26T06:55:50Z</time>
      </trkpt>
      <trkpt lat="43.89812" lon="5.86636">
        <ele>396.93</ele>
        <time>2016-04-26T06:55:54Z</time>
      </trkpt>
      <trkpt lat="43.89798" lon="5.86662">
        <ele>393.6</ele>
        <time>2016-04-26T06:55:57Z</time>
      </trkpt>
      <trkpt lat="43.89788" lon="5.86681">
        <ele>389.8</ele>
        <time>2016-04-26T06:56:00Z</time>
      </trkpt>
      <trkpt lat="43.89779" lon="5.86696">
        <ele>386.45</ele>
        <time>2016-04-26T06:56:04Z</time>
      </trkpt>
      <trkpt lat="43.89776" lon="5.86695">
        <ele>385.92</ele>
        <time>2016-04-26T06:56:05Z</time>
      </trkpt>
      <trkpt lat="43.89773" lon="5.86694">
        <ele>385.53</ele>
        <time>2016-04-26T06:56:06Z</time>
      </trkpt>
      <trkpt lat="43.8977" lon="5.86692">
        <ele>385.33</ele>
        <time>2016-04-26T06:56:07Z</time>
      </trkpt>
      <trkpt lat="43.89767" lon="5.86689">
        <ele>385.28</ele>
        <time>2016-04-26T06:56:08Z</time>
      </trkpt>
      <trkpt lat="43.89739" lon="5.86661">
        <ele>385.37</ele>
        <time>2016-04-26T06:56:16Z</time>
      </trkpt>
      <trkpt lat="43.89711" lon="5.8663">
        <ele>385.12</ele>
        <time>2016-04-26T06:56:23Z</time>
      </trkpt>
      <trkpt lat="43.89677" lon="5.86581">
        <ele>384.88</ele>
        <time>2016-04-26T06:56:33Z</time>
      </trkpt>
      <trkpt lat="43.8965" lon="5.8655">
        <ele>385.18</ele>
        <time>2016-04-26T06:56:40Z</time>
      </trkpt>
      <trkpt lat="43.89617" lon="5.86516">
        <ele>385.04</ele>
        <time>2016-04-26T06:56:48Z</time>
      </trkpt>
      <trkpt lat="43.89596" lon="5.86496">
        <ele>385.31</ele>
        <time>2016-04-26T06:56:53Z</time>
      </trkpt>
      <trkpt lat="43.89592" lon="5.8649">
        <ele>385.49</ele>
        <time>2016-04-26T06:56:54Z</time>
      </trkpt>
      <trkpt lat="43.8959" lon="5.86485">
        <ele>385.63</ele>
        <time>2016-04-26T06:56:55Z</time>
      </trkpt>
      <trkpt lat="43.89589" lon="5.86479">
        <ele>385.68</ele>
        <time>2016-04-26T06:56:56Z</time>
      </trkpt>
      <trkpt lat="43.89588" lon="5.86473">
        <ele>385.69</ele>
        <time>2016-04-26T06:56:57Z</time>
      </trkpt>
      <trkpt lat="43.89588" lon="5.86467">
        <ele>385.71</ele>
        <time>2016-04-26T06:56:58Z</time>
      </trkpt>
      <trkpt lat="43.89589" lon="5.86461">
        <ele>385.74</ele>
        <time>2016-04-26T06:56:59Z</time>
      </trkpt>
      <trkpt lat="43.89589" lon="5.86454">
        <ele>385.74</ele>
        <time>2016-04-26T06:57:00Z</time>
      </trkpt>
      <trkpt lat="43.89591" lon="5.86424">
        <ele>385.04</ele>
        <time>2016-04-26T06:57:05Z</time>
      </trkpt>
      <trkpt lat="43.89591" lon="5.86417">
        <ele>384.95</ele>
        <time>2016-04-26T06:57:06Z</time>
      </trkpt>
      <trkpt lat="43.89589" lon="5.86412">
        <ele>384.92</ele>
        <time>2016-04-26T06:57:07Z</time>
      </trkpt>
      <trkpt lat="43.89584" lon="5.86404">
        <ele>384.94</ele>
        <time>2016-04-26T06:57:09Z</time>
      </trkpt>
      <trkpt lat="43.89541" lon="5.86388">
        <ele>387.24</ele>
        <time>2016-04-26T06:57:22Z</time>
      </trkpt>
      <trkpt lat="43.89506" lon="5.86419">
        <ele>390.36</ele>
        <time>2016-04-26T06:57:37Z</time>
      </trkpt>
      <trkpt lat="43.89492" lon="5.86428">
        <ele>391.88</ele>
        <time>2016-04-26T06:57:43Z</time>
      </trkpt>
      <trkpt lat="43.89489" lon="5.86427">
        <ele>392.19</ele>
        <time>2016-04-26T06:57:44Z</time>
      </trkpt>
      <trkpt lat="43.89487" lon="5.86426">
        <ele>392.47</ele>
        <time>2016-04-26T06:57:45Z</time>
      </trkpt>
      <trkpt lat="43.89486" lon="5.86424">
        <ele>392.72</ele>
        <time>2016-04-26T06:57:46Z</time>
      </trkpt>
      <trkpt lat="43.89486" lon="5.86421">
        <ele>392.98</ele>
        <time>2016-04-26T06:57:47Z</time>
      </trkpt>
      <trkpt lat="43.89486" lon="5.86418">
        <ele>393.15</ele>
        <time>2016-04-26T06:57:48Z</time>
      </trkpt>
      <trkpt lat="43.89487" lon="5.86415">
        <ele>393.38</ele>
        <time>2016-04-26T06:57:49Z</time>
      </trkpt>
      <trkpt lat="43.89489" lon="5.86411">
        <ele>393.65</ele>
        <time>2016-04-26T06:57:50Z</time>
      </trkpt>
      <trkpt lat="43.89504" lon="5.86361">
        <ele>396.81</ele>
        <time>2016-04-26T06:58:05Z</time>
      </trkpt>
      <trkpt lat="43.89522" lon="5.86322">
        <ele>399.83</ele>
        <time>2016-04-26T06:58:19Z</time>
      </trkpt>
      <trkpt lat="43.89534" lon="5.86288">
        <ele>402.85</ele>
        <time>2016-04-26T06:58:31Z</time>
      </trkpt>
      <trkpt lat="43.89532" lon="5.86245">
        <ele>406</ele>
        <time>2016-04-26T06:58:45Z</time>
      </trkpt>
      <trkpt lat="43.89508" lon="5.86207">
        <ele>409.19</ele>
        <time>2016-04-26T06:59:00Z</time>
      </trkpt>
      <trkpt lat="43.89492" lon="5.8618">
        <ele>412.22</ele>
        <time>2016-04-26T06:59:12Z</time>
      </trkpt>
      <trkpt lat="43.8948" lon="5.86149">
        <ele>415.36</ele>
        <time>2016-04-26T06:59:24Z</time>
      </trkpt>
      <trkpt lat="43.8947" lon="5.86121">
        <ele>418.54</ele>
        <time>2016-04-26T06:59:35Z</time>
      </trkpt>
      <trkpt lat="43.8947" lon="5.86118">
        <ele>418.92</ele>
        <time>2016-04-26T06:59:36Z</time>
      </trkpt>
      <trkpt lat="43.89471" lon="5.86115">
        <ele>419.25</ele>
        <time>2016-04-26T06:59:37Z</time>
      </trkpt>
      <trkpt lat="43.89505" lon="5.86067">
        <ele>422.09</ele>
        <time>2016-04-26T06:59:56Z</time>
      </trkpt>
      <trkpt lat="43.89553" lon="5.8604">
        <ele>422.33</ele>
        <time>2016-04-26T07:00:10Z</time>
      </trkpt>
      <trkpt lat="43.89581" lon="5.86026">
        <ele>421.19</ele>
        <time>2016-04-26T07:00:15Z</time>
      </trkpt>
      <trkpt lat="43.89587" lon="5.86024">
        <ele>420.91</ele>
        <time>2016-04-26T07:00:16Z</time>
      </trkpt>
      <trkpt lat="43.89602" lon="5.86023">
        <ele>420.51</ele>
        <time>2016-04-26T07:00:18Z</time>
      </trkpt>
      <trkpt lat="43.89609" lon="5.86023">
        <ele>420.35</ele>
        <time>2016-04-26T07:00:19Z</time>
      </trkpt>
      <trkpt lat="43.89635" lon="5.86029">
        <ele>420.26</ele>
        <time>2016-04-26T07:00:23Z</time>
      </trkpt>
      <trkpt lat="43.89651" lon="5.86039">
        <ele>420.6</ele>
        <time>2016-04-26T07:00:26Z</time>
      </trkpt>
      <trkpt lat="43.89656" lon="5.86044">
        <ele>420.69</ele>
        <time>2016-04-26T07:00:27Z</time>
      </trkpt>
      <trkpt lat="43.89659" lon="5.86049">
        <ele>420.76</ele>
        <time>2016-04-26T07:00:28Z</time>
      </trkpt>
      <trkpt lat="43.89672" lon="5.8607">
        <ele>420.55</ele>
        <time>2016-04-26T07:00:32Z</time>
      </trkpt>
      <trkpt lat="43.89679" lon="5.86078">
        <ele>421.17</ele>
        <time>2016-04-26T07:00:34Z</time>
      </trkpt>
      <trkpt lat="43.89711" lon="5.86131">
        <ele>422.74</ele>
        <time>2016-04-26T07:00:47Z</time>
      </trkpt>
      <trkpt lat="43.89713" lon="5.86136">
        <ele>422.85</ele>
        <time>2016-04-26T07:00:48Z</time>
      </trkpt>
      <trkpt lat="43.89747" lon="5.86187">
        <ele>425.02</ele>
        <time>2016-04-26T07:01:01Z</time>
      </trkpt>
      <trkpt lat="43.8978" lon="5.86239">
        <ele>427.64</ele>
        <time>2016-04-26T07:01:15Z</time>
      </trkpt>
      <trkpt lat="43.89792" lon="5.86261">
        <ele>427.7</ele>
        <time>2016-04-26T07:01:20Z</time>
      </trkpt>
      <trkpt lat="43.89795" lon="5.86265">
        <ele>427.74</ele>
        <time>2016-04-26T07:01:21Z</time>
      </trkpt>
      <trkpt lat="43.89837" lon="5.86309">
        <ele>427.7</ele>
        <time>2016-04-26T07:01:32Z</time>
      </trkpt>
      <trkpt lat="43.8984" lon="5.86313">
        <ele>427.73</ele>
        <time>2016-04-26T07:01:33Z</time>
      </trkpt>
      <trkpt lat="43.89844" lon="5.86317">
        <ele>427.83</ele>
        <time>2016-04-26T07:01:34Z</time>
      </trkpt>
      <trkpt lat="43.89858" lon="5.86331">
        <ele>428.21</ele>
        <time>2016-04-26T07:01:38Z</time>
      </trkpt>
      <trkpt lat="43.89863" lon="5.86334">
        <ele>428.32</ele>
        <time>2016-04-26T07:01:39Z</time>
      </trkpt>
      <trkpt lat="43.89867" lon="5.86336">
        <ele>428.4</ele>
        <time>2016-04-26T07:01:40Z</time>
      </trkpt>
      <trkpt lat="43.89871" lon="5.86338">
        <ele>428.44</ele>
        <time>2016-04-26T07:01:41Z</time>
      </trkpt>
      <trkpt lat="43.89875" lon="5.86339">
        <ele>428.4</ele>
        <time>2016-04-26T07:01:42Z</time>
      </trkpt>
      <trkpt lat="43.89894" lon="5.86345">
        <ele>428.69</ele>
        <time>2016-04-26T07:01:46Z</time>
      </trkpt>
      <trkpt lat="43.89912" lon="5.86354">
        <ele>428.95</ele>
        <time>2016-04-26T07:01:50Z</time>
      </trkpt>
      <trkpt lat="43.89957" lon="5.86378">
        <ele>430.75</ele>
        <time>2016-04-26T07:02:01Z</time>
      </trkpt>
      <trkpt lat="43.89976" lon="5.86387">
        <ele>431.23</ele>
        <time>2016-04-26T07:02:06Z</time>
      </trkpt>
      <trkpt lat="43.90012" lon="5.86409">
        <ele>431.3</ele>
        <time>2016-04-26T07:02:14Z</time>
      </trkpt>
      <trkpt lat="43.90056" lon="5.86453">
        <ele>430.4</ele>
        <time>2016-04-26T07:02:23Z</time>
      </trkpt>
      <trkpt lat="43.90083" lon="5.86472">
        <ele>429.91</ele>
        <time>2016-04-26T07:02:28Z</time>
      </trkpt>
      <trkpt lat="43.90134" lon="5.86484">
        <ele>429.75</ele>
        <time>2016-04-26T07:02:37Z</time>
      </trkpt>
      <trkpt lat="43.90182" lon="5.86495">
        <ele>430.89</ele>
        <time>2016-04-26T07:02:47Z</time>
      </trkpt>
      <trkpt lat="43.90231" lon="5.86505">
        <ele>432.9</ele>
        <time>2016-04-26T07:02:59Z</time>
      </trkpt>
      <trkpt lat="43.90279" lon="5.86512">
        <ele>435.19</ele>
        <time>2016-04-26T07:03:11Z</time>
      </trkpt>
      <trkpt lat="43.90327" lon="5.86489">
        <ele>436.91</ele>
        <time>2016-04-26T07:03:24Z</time>
      </trkpt>
      <trkpt lat="43.90335" lon="5.86483">
        <ele>437.31</ele>
        <time>2016-04-26T07:03:26Z</time>
      </trkpt>
      <trkpt lat="43.9038" lon="5.86449">
        <ele>438.85</ele>
        <time>2016-04-26T07:03:38Z</time>
      </trkpt>
      <trkpt lat="43.90426" lon="5.86432">
        <ele>440.04</ele>
        <time>2016-04-26T07:03:49Z</time>
      </trkpt>
      <trkpt lat="43.90444" lon="5.86426">
        <ele>440.3</ele>
        <time>2016-04-26T07:03:53Z</time>
      </trkpt>
      <trkpt lat="43.90493" lon="5.86401">
        <ele>442.44</ele>
        <time>2016-04-26T07:04:05Z</time>
      </trkpt>
      <trkpt lat="43.90498" lon="5.86398">
        <ele>442.52</ele>
        <time>2016-04-26T07:04:06Z</time>
      </trkpt>
      <trkpt lat="43.90545" lon="5.86369">
        <ele>443.27</ele>
        <time>2016-04-26T07:04:18Z</time>
      </trkpt>
      <trkpt lat="43.90592" lon="5.86337">
        <ele>444.29</ele>
        <time>2016-04-26T07:04:32Z</time>
      </trkpt>
      <trkpt lat="43.90622" lon="5.86281">
        <ele>445.55</ele>
        <time>2016-04-26T07:04:47Z</time>
      </trkpt>
      <trkpt lat="43.9064" lon="5.86218">
        <ele>446.87</ele>
        <time>2016-04-26T07:05:01Z</time>
      </trkpt>
      <trkpt lat="43.90656" lon="5.86155">
        <ele>449.03</ele>
        <time>2016-04-26T07:05:17Z</time>
      </trkpt>
      <trkpt lat="43.90656" lon="5.86083">
        <ele>451.72</ele>
        <time>2016-04-26T07:05:33Z</time>
      </trkpt>
      <trkpt lat="43.90646" lon="5.86009">
        <ele>454.76</ele>
        <time>2016-04-26T07:05:50Z</time>
      </trkpt>
      <trkpt lat="43.90636" lon="5.85938">
        <ele>457.7</ele>
        <time>2016-04-26T07:06:06Z</time>
      </trkpt>
      <trkpt lat="43.90619" lon="5.85876">
        <ele>459.75</ele>
        <time>2016-04-26T07:06:20Z</time>
      </trkpt>
      <trkpt lat="43.90609" lon="5.85811">
        <ele>460.88</ele>
        <time>2016-04-26T07:06:33Z</time>
      </trkpt>
      <trkpt lat="43.90608" lon="5.85805">
        <ele>460.88</ele>
        <time>2016-04-26T07:06:34Z</time>
      </trkpt>
      <trkpt lat="43.90608" lon="5.85799">
        <ele>460.88</ele>
        <time>2016-04-26T07:06:35Z</time>
      </trkpt>
      <trkpt lat="43.90609" lon="5.85793">
        <ele>460.86</ele>
        <time>2016-04-26T07:06:36Z</time>
      </trkpt>
      <trkpt lat="43.90611" lon="5.85787">
        <ele>460.84</ele>
        <time>2016-04-26T07:06:37Z</time>
      </trkpt>
      <trkpt lat="43.90613" lon="5.85782">
        <ele>460.98</ele>
        <time>2016-04-26T07:06:38Z</time>
      </trkpt>
      <trkpt lat="43.90617" lon="5.85779">
        <ele>461.15</ele>
        <time>2016-04-26T07:06:39Z</time>
      </trkpt>
      <trkpt lat="43.90623" lon="5.85777">
        <ele>461.22</ele>
        <time>2016-04-26T07:06:40Z</time>
      </trkpt>
      <trkpt lat="43.90627" lon="5.85777">
        <ele>461.22</ele>
        <time>2016-04-26T07:06:41Z</time>
      </trkpt>
      <trkpt lat="43.90632" lon="5.85777">
        <ele>461.29</ele>
        <time>2016-04-26T07:06:42Z</time>
      </trkpt>
      <trkpt lat="43.90655" lon="5.85772">
        <ele>461.7</ele>
        <time>2016-04-26T07:06:48Z</time>
      </trkpt>
      <trkpt lat="43.90657" lon="5.85767">
        <ele>461.76</ele>
        <time>2016-04-26T07:06:49Z</time>
      </trkpt>
      <trkpt lat="43.90658" lon="5.85762">
        <ele>461.88</ele>
        <time>2016-04-26T07:06:50Z</time>
      </trkpt>
      <trkpt lat="43.90659" lon="5.85757">
        <ele>462.1</ele>
        <time>2016-04-26T07:06:51Z</time>
      </trkpt>
      <trkpt lat="43.9066" lon="5.85752">
        <ele>462.27</ele>
        <time>2016-04-26T07:06:52Z</time>
      </trkpt>
      <trkpt lat="43.9066" lon="5.85746">
        <ele>462.35</ele>
        <time>2016-04-26T07:06:53Z</time>
      </trkpt>
      <trkpt lat="43.90659" lon="5.85742">
        <ele>462.46</ele>
        <time>2016-04-26T07:06:54Z</time>
      </trkpt>
      <trkpt lat="43.90658" lon="5.85736">
        <ele>462.55</ele>
        <time>2016-04-26T07:06:55Z</time>
      </trkpt>
      <trkpt lat="43.90653" lon="5.85708">
        <ele>462.83</ele>
        <time>2016-04-26T07:07:00Z</time>
      </trkpt>
      <trkpt lat="43.90651" lon="5.85703">
        <ele>462.87</ele>
        <time>2016-04-26T07:07:01Z</time>
      </trkpt>
      <trkpt lat="43.90648" lon="5.85678">
        <ele>463.17</ele>
        <time>2016-04-26T07:07:05Z</time>
      </trkpt>
      <trkpt lat="43.90649" lon="5.85631">
        <ele>464.04</ele>
        <time>2016-04-26T07:07:14Z</time>
      </trkpt>
      <trkpt lat="43.90651" lon="5.85627">
        <ele>464.21</ele>
        <time>2016-04-26T07:07:15Z</time>
      </trkpt>
      <trkpt lat="43.90654" lon="5.85624">
        <ele>464.4</ele>
        <time>2016-04-26T07:07:16Z</time>
      </trkpt>
      <trkpt lat="43.90657" lon="5.85621">
        <ele>464.63</ele>
        <time>2016-04-26T07:07:17Z</time>
      </trkpt>
      <trkpt lat="43.9066" lon="5.85619">
        <ele>464.91</ele>
        <time>2016-04-26T07:07:18Z</time>
      </trkpt>
      <trkpt lat="43.90663" lon="5.85617">
        <ele>465.18</ele>
        <time>2016-04-26T07:07:19Z</time>
      </trkpt>
      <trkpt lat="43.90706" lon="5.85585">
        <ele>468.22</ele>
        <time>2016-04-26T07:07:34Z</time>
      </trkpt>
      <trkpt lat="43.90725" lon="5.85525">
        <ele>471.16</ele>
        <time>2016-04-26T07:07:50Z</time>
      </trkpt>
      <trkpt lat="43.9072" lon="5.85466">
        <ele>474.3</ele>
        <time>2016-04-26T07:08:05Z</time>
      </trkpt>
      <trkpt lat="43.90726" lon="5.85415">
        <ele>477.58</ele>
        <time>2016-04-26T07:08:18Z</time>
      </trkpt>
      <trkpt lat="43.90747" lon="5.85358">
        <ele>479.94</ele>
        <time>2016-04-26T07:08:32Z</time>
      </trkpt>
      <trkpt lat="43.9075" lon="5.85357">
        <ele>480.12</ele>
        <time>2016-04-26T07:08:33Z</time>
      </trkpt>
      <trkpt lat="43.90799" lon="5.85359">
        <ele>482.26</ele>
        <time>2016-04-26T07:08:47Z</time>
      </trkpt>
      <trkpt lat="43.90843" lon="5.85332">
        <ele>483.9</ele>
        <time>2016-04-26T07:09:00Z</time>
      </trkpt>
      <trkpt lat="43.90881" lon="5.85283">
        <ele>484.01</ele>
        <time>2016-04-26T07:09:11Z</time>
      </trkpt>
      <trkpt lat="43.90903" lon="5.85258">
        <ele>484.24</ele>
        <time>2016-04-26T07:09:17Z</time>
      </trkpt>
      <trkpt lat="43.90907" lon="5.85255">
        <ele>484.17</ele>
        <time>2016-04-26T07:09:18Z</time>
      </trkpt>
      <trkpt lat="43.90911" lon="5.85253">
        <ele>484.17</ele>
        <time>2016-04-26T07:09:19Z</time>
      </trkpt>
      <trkpt lat="43.90957" lon="5.85229">
        <ele>485.65</ele>
        <time>2016-04-26T07:09:30Z</time>
      </trkpt>
      <trkpt lat="43.91002" lon="5.85204">
        <ele>487.64</ele>
        <time>2016-04-26T07:09:43Z</time>
      </trkpt>
      <trkpt lat="43.91038" lon="5.85158">
        <ele>489.05</ele>
        <time>2016-04-26T07:09:55Z</time>
      </trkpt>
      <trkpt lat="43.91048" lon="5.85147">
        <ele>489.42</ele>
        <time>2016-04-26T07:09:58Z</time>
      </trkpt>
      <trkpt lat="43.91052" lon="5.85144">
        <ele>489.67</ele>
        <time>2016-04-26T07:09:59Z</time>
      </trkpt>
      <trkpt lat="43.91055" lon="5.8514">
        <ele>489.87</ele>
        <time>2016-04-26T07:10:00Z</time>
      </trkpt>
      <trkpt lat="43.91059" lon="5.85137">
        <ele>489.89</ele>
        <time>2016-04-26T07:10:01Z</time>
      </trkpt>
      <trkpt lat="43.91062" lon="5.85134">
        <ele>489.74</ele>
        <time>2016-04-26T07:10:02Z</time>
      </trkpt>
      <trkpt lat="43.91108" lon="5.85106">
        <ele>490.33</ele>
        <time>2016-04-26T07:10:13Z</time>
      </trkpt>
      <trkpt lat="43.91147" lon="5.85078">
        <ele>491.26</ele>
        <time>2016-04-26T07:10:23Z</time>
      </trkpt>
      <trkpt lat="43.91152" lon="5.85075">
        <ele>491.52</ele>
        <time>2016-04-26T07:10:24Z</time>
      </trkpt>
      <trkpt lat="43.91161" lon="5.85071">
        <ele>491.97</ele>
        <time>2016-04-26T07:10:26Z</time>
      </trkpt>
      <trkpt lat="43.9117" lon="5.85068">
        <ele>492.23</ele>
        <time>2016-04-26T07:10:28Z</time>
      </trkpt>
      <trkpt lat="43.91221" lon="5.85061">
        <ele>491.77</ele>
        <time>2016-04-26T07:10:38Z</time>
      </trkpt>
      <trkpt lat="43.91271" lon="5.8506">
        <ele>491.55</ele>
        <time>2016-04-26T07:10:47Z</time>
      </trkpt>
      <trkpt lat="43.91283" lon="5.85062">
        <ele>491.55</ele>
        <time>2016-04-26T07:10:49Z</time>
      </trkpt>
      <trkpt lat="43.91323" lon="5.85071">
        <ele>491.77</ele>
        <time>2016-04-26T07:10:56Z</time>
      </trkpt>
      <trkpt lat="43.91328" lon="5.85071">
        <ele>491.88</ele>
        <time>2016-04-26T07:10:57Z</time>
      </trkpt>
      <trkpt lat="43.91346" lon="5.85067">
        <ele>491.64</ele>
        <time>2016-04-26T07:11:00Z</time>
      </trkpt>
      <trkpt lat="43.91361" lon="5.85058">
        <ele>491.3</ele>
        <time>2016-04-26T07:11:03Z</time>
      </trkpt>
      <trkpt lat="43.91366" lon="5.85054">
        <ele>491.39</ele>
        <time>2016-04-26T07:11:04Z</time>
      </trkpt>
      <trkpt lat="43.91371" lon="5.8505">
        <ele>491.48</ele>
        <time>2016-04-26T07:11:05Z</time>
      </trkpt>
      <trkpt lat="43.91395" lon="5.85029">
        <ele>491.78</ele>
        <time>2016-04-26T07:11:10Z</time>
      </trkpt>
      <trkpt lat="43.914" lon="5.85023">
        <ele>491.99</ele>
        <time>2016-04-26T07:11:11Z</time>
      </trkpt>
      <trkpt lat="43.91405" lon="5.85017">
        <ele>492.08</ele>
        <time>2016-04-26T07:11:12Z</time>
      </trkpt>
      <trkpt lat="43.91409" lon="5.8501">
        <ele>492.21</ele>
        <time>2016-04-26T07:11:13Z</time>
      </trkpt>
      <trkpt lat="43.91412" lon="5.85002">
        <ele>492.28</ele>
        <time>2016-04-26T07:11:14Z</time>
      </trkpt>
      <trkpt lat="43.91413" lon="5.84994">
        <ele>492.25</ele>
        <time>2016-04-26T07:11:15Z</time>
      </trkpt>
      <trkpt lat="43.91414" lon="5.84987">
        <ele>492.18</ele>
        <time>2016-04-26T07:11:16Z</time>
      </trkpt>
      <trkpt lat="43.91415" lon="5.84979">
        <ele>492.25</ele>
        <time>2016-04-26T07:11:17Z</time>
      </trkpt>
      <trkpt lat="43.91416" lon="5.84964">
        <ele>492.24</ele>
        <time>2016-04-26T07:11:19Z</time>
      </trkpt>
      <trkpt lat="43.91431" lon="5.84895">
        <ele>491.33</ele>
        <time>2016-04-26T07:11:28Z</time>
      </trkpt>
      <trkpt lat="43.9145" lon="5.84826">
        <ele>491.18</ele>
        <time>2016-04-26T07:11:37Z</time>
      </trkpt>
      <trkpt lat="43.91452" lon="5.84819">
        <ele>491.09</ele>
        <time>2016-04-26T07:11:38Z</time>
      </trkpt>
      <trkpt lat="43.91452" lon="5.84811">
        <ele>490.87</ele>
        <time>2016-04-26T07:11:39Z</time>
      </trkpt>
      <trkpt lat="43.91452" lon="5.84803">
        <ele>490.6</ele>
        <time>2016-04-26T07:11:40Z</time>
      </trkpt>
      <trkpt lat="43.91449" lon="5.84796">
        <ele>490.44</ele>
        <time>2016-04-26T07:11:41Z</time>
      </trkpt>
      <trkpt lat="43.91445" lon="5.8479">
        <ele>490.43</ele>
        <time>2016-04-26T07:11:42Z</time>
      </trkpt>
      <trkpt lat="43.9144" lon="5.84785">
        <ele>490.5</ele>
        <time>2016-04-26T07:11:43Z</time>
      </trkpt>
      <trkpt lat="43.91433" lon="5.84781">
        <ele>490.41</ele>
        <time>2016-04-26T07:11:44Z</time>
      </trkpt>
      <trkpt lat="43.91427" lon="5.84778">
        <ele>490.25</ele>
        <time>2016-04-26T07:11:45Z</time>
      </trkpt>
      <trkpt lat="43.9142" lon="5.84775">
        <ele>490.16</ele>
        <time>2016-04-26T07:11:46Z</time>
      </trkpt>
      <trkpt lat="43.91364" lon="5.84758">
        <ele>490.38</ele>
        <time>2016-04-26T07:11:54Z</time>
      </trkpt>
      <trkpt lat="43.91358" lon="5.84754">
        <ele>490.25</ele>
        <time>2016-04-26T07:11:55Z</time>
      </trkpt>
      <trkpt lat="43.91346" lon="5.84746">
        <ele>490.24</ele>
        <time>2016-04-26T07:11:57Z</time>
      </trkpt>
      <trkpt lat="43.91341" lon="5.84741">
        <ele>490.19</ele>
        <time>2016-04-26T07:11:58Z</time>
      </trkpt>
      <trkpt lat="43.91337" lon="5.84735">
        <ele>490.07</ele>
        <time>2016-04-26T07:11:59Z</time>
      </trkpt>
      <trkpt lat="43.91333" lon="5.84727">
        <ele>490.08</ele>
        <time>2016-04-26T07:12:00Z</time>
      </trkpt>
      <trkpt lat="43.9133" lon="5.84719">
        <ele>490.11</ele>
        <time>2016-04-26T07:12:01Z</time>
      </trkpt>
      <trkpt lat="43.91329" lon="5.84711">
        <ele>490.13</ele>
        <time>2016-04-26T07:12:02Z</time>
      </trkpt>
      <trkpt lat="43.91328" lon="5.84702">
        <ele>490.18</ele>
        <time>2016-04-26T07:12:03Z</time>
      </trkpt>
      <trkpt lat="43.91324" lon="5.84634">
        <ele>490.37</ele>
        <time>2016-04-26T07:12:11Z</time>
      </trkpt>
      <trkpt lat="43.91321" lon="5.84559">
        <ele>491.79</ele>
        <time>2016-04-26T07:12:20Z</time>
      </trkpt>
      <trkpt lat="43.91324" lon="5.84506">
        <ele>492.45</ele>
        <time>2016-04-26T07:12:27Z</time>
      </trkpt>
      <trkpt lat="43.91325" lon="5.84499">
        <ele>492.46</ele>
        <time>2016-04-26T07:12:28Z</time>
      </trkpt>
      <trkpt lat="43.91328" lon="5.84485">
        <ele>492.26</ele>
        <time>2016-04-26T07:12:30Z</time>
      </trkpt>
      <trkpt lat="43.91329" lon="5.84477">
        <ele>492.16</ele>
        <time>2016-04-26T07:12:31Z</time>
      </trkpt>
      <trkpt lat="43.91329" lon="5.84469">
        <ele>492.12</ele>
        <time>2016-04-26T07:12:32Z</time>
      </trkpt>
      <trkpt lat="43.91325" lon="5.84395">
        <ele>490.44</ele>
        <time>2016-04-26T07:12:40Z</time>
      </trkpt>
      <trkpt lat="43.91326" lon="5.84384">
        <ele>490.43</ele>
        <time>2016-04-26T07:12:41Z</time>
      </trkpt>
      <trkpt lat="43.91328" lon="5.84374">
        <ele>490.46</ele>
        <time>2016-04-26T07:12:42Z</time>
      </trkpt>
      <trkpt lat="43.91332" lon="5.84364">
        <ele>490.46</ele>
        <time>2016-04-26T07:12:43Z</time>
      </trkpt>
      <trkpt lat="43.91335" lon="5.84354">
        <ele>490.16</ele>
        <time>2016-04-26T07:12:44Z</time>
      </trkpt>
      <trkpt lat="43.91339" lon="5.84345">
        <ele>489.85</ele>
        <time>2016-04-26T07:12:45Z</time>
      </trkpt>
      <trkpt lat="43.91351" lon="5.84313">
        <ele>490.42</ele>
        <time>2016-04-26T07:12:49Z</time>
      </trkpt>
      <trkpt lat="43.91354" lon="5.84305">
        <ele>490.11</ele>
        <time>2016-04-26T07:12:50Z</time>
      </trkpt>
      <trkpt lat="43.91377" lon="5.84247">
        <ele>489.74</ele>
        <time>2016-04-26T07:12:59Z</time>
      </trkpt>
      <trkpt lat="43.91402" lon="5.84189">
        <ele>490.71</ele>
        <time>2016-04-26T07:13:10Z</time>
      </trkpt>
      <trkpt lat="43.91413" lon="5.84164">
        <ele>492.03</ele>
        <time>2016-04-26T07:13:15Z</time>
      </trkpt>
      <trkpt lat="43.91425" lon="5.84132">
        <ele>491.49</ele>
        <time>2016-04-26T07:13:21Z</time>
      </trkpt>
      <trkpt lat="43.91427" lon="5.84125">
        <ele>491.44</ele>
        <time>2016-04-26T07:13:22Z</time>
      </trkpt>
      <trkpt lat="43.91429" lon="5.84119">
        <ele>491.5</ele>
        <time>2016-04-26T07:13:23Z</time>
      </trkpt>
      <trkpt lat="43.9145" lon="5.84074">
        <ele>491.22</ele>
        <time>2016-04-26T07:13:30Z</time>
      </trkpt>
      <trkpt lat="43.91455" lon="5.84069">
        <ele>491.15</ele>
        <time>2016-04-26T07:13:31Z</time>
      </trkpt>
      <trkpt lat="43.9146" lon="5.84065">
        <ele>491.04</ele>
        <time>2016-04-26T07:13:32Z</time>
      </trkpt>
      <trkpt lat="43.91466" lon="5.84063">
        <ele>491.04</ele>
        <time>2016-04-26T07:13:33Z</time>
      </trkpt>
      <trkpt lat="43.91472" lon="5.84062">
        <ele>490.92</ele>
        <time>2016-04-26T07:13:34Z</time>
      </trkpt>
      <trkpt lat="43.91478" lon="5.84063">
        <ele>490.87</ele>
        <time>2016-04-26T07:13:35Z</time>
      </trkpt>
      <trkpt lat="43.91484" lon="5.84065">
        <ele>490.85</ele>
        <time>2016-04-26T07:13:36Z</time>
      </trkpt>
      <trkpt lat="43.91489" lon="5.84068">
        <ele>491.03</ele>
        <time>2016-04-26T07:13:37Z</time>
      </trkpt>
      <trkpt lat="43.91516" lon="5.84081">
        <ele>490.57</ele>
        <time>2016-04-26T07:13:42Z</time>
      </trkpt>
      <trkpt lat="43.91522" lon="5.84082">
        <ele>490.43</ele>
        <time>2016-04-26T07:13:43Z</time>
      </trkpt>
      <trkpt lat="43.91528" lon="5.8408">
        <ele>490.34</ele>
        <time>2016-04-26T07:13:44Z</time>
      </trkpt>
      <trkpt lat="43.91533" lon="5.84077">
        <ele>490.43</ele>
        <time>2016-04-26T07:13:45Z</time>
      </trkpt>
      <trkpt lat="43.91537" lon="5.84071">
        <ele>490.41</ele>
        <time>2016-04-26T07:13:46Z</time>
      </trkpt>
      <trkpt lat="43.9154" lon="5.84064">
        <ele>490.17</ele>
        <time>2016-04-26T07:13:47Z</time>
      </trkpt>
      <trkpt lat="43.91543" lon="5.84057">
        <ele>489.86</ele>
        <time>2016-04-26T07:13:48Z</time>
      </trkpt>
      <trkpt lat="43.91546" lon="5.84049">
        <ele>489.64</ele>
        <time>2016-04-26T07:13:49Z</time>
      </trkpt>
      <trkpt lat="43.91555" lon="5.84021">
        <ele>489.94</ele>
        <time>2016-04-26T07:13:53Z</time>
      </trkpt>
      <trkpt lat="43.91575" lon="5.83953">
        <ele>491</ele>
        <time>2016-04-26T07:14:03Z</time>
      </trkpt>
      <trkpt lat="43.91586" lon="5.83917">
        <ele>491.75</ele>
        <time>2016-04-26T07:14:09Z</time>
      </trkpt>
      <trkpt lat="43.91589" lon="5.83911">
        <ele>491.94</ele>
        <time>2016-04-26T07:14:10Z</time>
      </trkpt>
      <trkpt lat="43.91592" lon="5.83906">
        <ele>492.21</ele>
        <time>2016-04-26T07:14:11Z</time>
      </trkpt>
      <trkpt lat="43.91595" lon="5.83901">
        <ele>492.36</ele>
        <time>2016-04-26T07:14:12Z</time>
      </trkpt>
      <trkpt lat="43.91599" lon="5.83898">
        <ele>492.44</ele>
        <time>2016-04-26T07:14:13Z</time>
      </trkpt>
      <trkpt lat="43.91603" lon="5.83895">
        <ele>492.57</ele>
        <time>2016-04-26T07:14:14Z</time>
      </trkpt>
      <trkpt lat="43.91608" lon="5.83894">
        <ele>492.69</ele>
        <time>2016-04-26T07:14:15Z</time>
      </trkpt>
      <trkpt lat="43.91613" lon="5.83893">
        <ele>492.81</ele>
        <time>2016-04-26T07:14:16Z</time>
      </trkpt>
      <trkpt lat="43.91618" lon="5.83892">
        <ele>493.02</ele>
        <time>2016-04-26T07:14:17Z</time>
      </trkpt>
      <trkpt lat="43.91654" lon="5.8389">
        <ele>493.36</ele>
        <time>2016-04-26T07:14:24Z</time>
      </trkpt>
      <trkpt lat="43.91659" lon="5.83888">
        <ele>493.41</ele>
        <time>2016-04-26T07:14:25Z</time>
      </trkpt>
      <trkpt lat="43.91664" lon="5.83886">
        <ele>493.44</ele>
        <time>2016-04-26T07:14:26Z</time>
      </trkpt>
      <trkpt lat="43.91669" lon="5.83884">
        <ele>493.58</ele>
        <time>2016-04-26T07:14:27Z</time>
      </trkpt>
      <trkpt lat="43.91673" lon="5.83881">
        <ele>493.7</ele>
        <time>2016-04-26T07:14:28Z</time>
      </trkpt>
      <trkpt lat="43.91677" lon="5.83879">
        <ele>493.78</ele>
        <time>2016-04-26T07:14:29Z</time>
      </trkpt>
      <trkpt lat="43.91681" lon="5.83876">
        <ele>493.9</ele>
        <time>2016-04-26T07:14:30Z</time>
      </trkpt>
      <trkpt lat="43.91684" lon="5.83872">
        <ele>494.16</ele>
        <time>2016-04-26T07:14:31Z</time>
      </trkpt>
      <trkpt lat="43.91702" lon="5.83857">
        <ele>495.32</ele>
        <time>2016-04-26T07:14:36Z</time>
      </trkpt>
      <trkpt lat="43.91718" lon="5.83852">
        <ele>496.05</ele>
        <time>2016-04-26T07:14:40Z</time>
      </trkpt>
      <trkpt lat="43.91722" lon="5.83853">
        <ele>496.29</ele>
        <time>2016-04-26T07:14:41Z</time>
      </trkpt>
      <trkpt lat="43.91756" lon="5.83868">
        <ele>498.57</ele>
        <time>2016-04-26T07:14:50Z</time>
      </trkpt>
      <trkpt lat="43.91761" lon="5.83869">
        <ele>498.81</ele>
        <time>2016-04-26T07:14:51Z</time>
      </trkpt>
      <trkpt lat="43.91765" lon="5.83869">
        <ele>499.17</ele>
        <time>2016-04-26T07:14:52Z</time>
      </trkpt>
      <trkpt lat="43.91777" lon="5.83867">
        <ele>499.83</ele>
        <time>2016-04-26T07:14:55Z</time>
      </trkpt>
      <trkpt lat="43.91816" lon="5.83831">
        <ele>502.96</ele>
        <time>2016-04-26T07:15:08Z</time>
      </trkpt>
      <trkpt lat="43.91821" lon="5.83822">
        <ele>503.24</ele>
        <time>2016-04-26T07:15:10Z</time>
      </trkpt>
      <trkpt lat="43.91822" lon="5.83816">
        <ele>503.4</ele>
        <time>2016-04-26T07:15:11Z</time>
      </trkpt>
      <trkpt lat="43.91824" lon="5.83811">
        <ele>503.54</ele>
        <time>2016-04-26T07:15:12Z</time>
      </trkpt>
      <trkpt lat="43.91825" lon="5.83806">
        <ele>503.87</ele>
        <time>2016-04-26T07:15:13Z</time>
      </trkpt>
      <trkpt lat="43.91826" lon="5.83801">
        <ele>504.09</ele>
        <time>2016-04-26T07:15:14Z</time>
      </trkpt>
      <trkpt lat="43.91834" lon="5.83767">
        <ele>505.94</ele>
        <time>2016-04-26T07:15:20Z</time>
      </trkpt>
      <trkpt lat="43.91837" lon="5.83762">
        <ele>506.16</ele>
        <time>2016-04-26T07:15:21Z</time>
      </trkpt>
      <trkpt lat="43.91859" lon="5.8371">
        <ele>506.75</ele>
        <time>2016-04-26T07:15:31Z</time>
      </trkpt>
      <trkpt lat="43.91862" lon="5.83705">
        <ele>506.75</ele>
        <time>2016-04-26T07:15:32Z</time>
      </trkpt>
      <trkpt lat="43.91866" lon="5.83702">
        <ele>506.92</ele>
        <time>2016-04-26T07:15:33Z</time>
      </trkpt>
      <trkpt lat="43.9187" lon="5.83699">
        <ele>507.11</ele>
        <time>2016-04-26T07:15:34Z</time>
      </trkpt>
      <trkpt lat="43.91888" lon="5.83681">
        <ele>508.06</ele>
        <time>2016-04-26T07:15:39Z</time>
      </trkpt>
      <trkpt lat="43.91891" lon="5.83675">
        <ele>508.15</ele>
        <time>2016-04-26T07:15:40Z</time>
      </trkpt>
      <trkpt lat="43.91893" lon="5.83669">
        <ele>508.33</ele>
        <time>2016-04-26T07:15:41Z</time>
      </trkpt>
      <trkpt lat="43.91895" lon="5.83662">
        <ele>508.65</ele>
        <time>2016-04-26T07:15:42Z</time>
      </trkpt>
      <trkpt lat="43.91896" lon="5.83656">
        <ele>509.08</ele>
        <time>2016-04-26T07:15:43Z</time>
      </trkpt>
      <trkpt lat="43.91897" lon="5.8365">
        <ele>509.21</ele>
        <time>2016-04-26T07:15:44Z</time>
      </trkpt>
      <trkpt lat="43.91901" lon="5.83626">
        <ele>509.42</ele>
        <time>2016-04-26T07:15:48Z</time>
      </trkpt>
      <trkpt lat="43.91904" lon="5.83578">
        <ele>510.21</ele>
        <time>2016-04-26T07:15:55Z</time>
      </trkpt>
      <trkpt lat="43.91899" lon="5.83507">
        <ele>511.08</ele>
        <time>2016-04-26T07:16:06Z</time>
      </trkpt>
      <trkpt lat="43.91896" lon="5.83456">
        <ele>512.05</ele>
        <time>2016-04-26T07:16:14Z</time>
      </trkpt>
      <trkpt lat="43.91899" lon="5.83419">
        <ele>512.88</ele>
        <time>2016-04-26T07:16:20Z</time>
      </trkpt>
      <trkpt lat="43.91909" lon="5.83361">
        <ele>514.66</ele>
        <time>2016-04-26T07:16:30Z</time>
      </trkpt>
      <trkpt lat="43.91915" lon="5.83336">
        <ele>515.21</ele>
        <time>2016-04-26T07:16:34Z</time>
      </trkpt>
      <trkpt lat="43.91918" lon="5.83331">
        <ele>515.33</ele>
        <time>2016-04-26T07:16:35Z</time>
      </trkpt>
      <trkpt lat="43.91921" lon="5.83327">
        <ele>515.48</ele>
        <time>2016-04-26T07:16:36Z</time>
      </trkpt>
      <trkpt lat="43.91925" lon="5.83323">
        <ele>515.69</ele>
        <time>2016-04-26T07:16:37Z</time>
      </trkpt>
      <trkpt lat="43.91929" lon="5.83321">
        <ele>515.89</ele>
        <time>2016-04-26T07:16:38Z</time>
      </trkpt>
      <trkpt lat="43.91932" lon="5.83319">
        <ele>516.12</ele>
        <time>2016-04-26T07:16:39Z</time>
      </trkpt>
      <trkpt lat="43.91937" lon="5.83318">
        <ele>516.37</ele>
        <time>2016-04-26T07:16:40Z</time>
      </trkpt>
      <trkpt lat="43.91945" lon="5.83316">
        <ele>516.91</ele>
        <time>2016-04-26T07:16:42Z</time>
      </trkpt>
      <trkpt lat="43.9195" lon="5.83314">
        <ele>517.1</ele>
        <time>2016-04-26T07:16:43Z</time>
      </trkpt>
      <trkpt lat="43.91954" lon="5.83312">
        <ele>517.21</ele>
        <time>2016-04-26T07:16:44Z</time>
      </trkpt>
      <trkpt lat="43.91959" lon="5.83309">
        <ele>517.42</ele>
        <time>2016-04-26T07:16:45Z</time>
      </trkpt>
      <trkpt lat="43.91963" lon="5.83305">
        <ele>517.69</ele>
        <time>2016-04-26T07:16:46Z</time>
      </trkpt>
      <trkpt lat="43.91966" lon="5.833">
        <ele>517.9</ele>
        <time>2016-04-26T07:16:47Z</time>
      </trkpt>
      <trkpt lat="43.91969" lon="5.83294">
        <ele>518.09</ele>
        <time>2016-04-26T07:16:48Z</time>
      </trkpt>
      <trkpt lat="43.91971" lon="5.83288">
        <ele>518.26</ele>
        <time>2016-04-26T07:16:49Z</time>
      </trkpt>
      <trkpt lat="43.91972" lon="5.83282">
        <ele>518.61</ele>
        <time>2016-04-26T07:16:50Z</time>
      </trkpt>
      <trkpt lat="43.91973" lon="5.83276">
        <ele>518.66</ele>
        <time>2016-04-26T07:16:51Z</time>
      </trkpt>
      <trkpt lat="43.91974" lon="5.8327">
        <ele>518.58</ele>
        <time>2016-04-26T07:16:52Z</time>
      </trkpt>
      <trkpt lat="43.91978" lon="5.8324">
        <ele>519.23</ele>
        <time>2016-04-26T07:16:57Z</time>
      </trkpt>
      <trkpt lat="43.91979" lon="5.83235">
        <ele>519.37</ele>
        <time>2016-04-26T07:16:58Z</time>
      </trkpt>
      <trkpt lat="43.91981" lon="5.83229">
        <ele>519.51</ele>
        <time>2016-04-26T07:16:59Z</time>
      </trkpt>
      <trkpt lat="43.91985" lon="5.83207">
        <ele>520.47</ele>
        <time>2016-04-26T07:17:03Z</time>
      </trkpt>
      <trkpt lat="43.91994" lon="5.83164">
        <ele>521.68</ele>
        <time>2016-04-26T07:17:10Z</time>
      </trkpt>
      <trkpt lat="43.92021" lon="5.83104">
        <ele>524.31</ele>
        <time>2016-04-26T07:17:22Z</time>
      </trkpt>
      <trkpt lat="43.9203" lon="5.83089">
        <ele>524.58</ele>
        <time>2016-04-26T07:17:25Z</time>
      </trkpt>
      <trkpt lat="43.92051" lon="5.83056">
        <ele>525.45</ele>
        <time>2016-04-26T07:17:32Z</time>
      </trkpt>
      <trkpt lat="43.92054" lon="5.83051">
        <ele>525.53</ele>
        <time>2016-04-26T07:17:33Z</time>
      </trkpt>
      <trkpt lat="43.92056" lon="5.83045">
        <ele>525.67</ele>
        <time>2016-04-26T07:17:34Z</time>
      </trkpt>
      <trkpt lat="43.92081" lon="5.82983">
        <ele>526.76</ele>
        <time>2016-04-26T07:17:44Z</time>
      </trkpt>
      <trkpt lat="43.92112" lon="5.82932">
        <ele>528.91</ele>
        <time>2016-04-26T07:17:54Z</time>
      </trkpt>
      <trkpt lat="43.92114" lon="5.82927">
        <ele>529.23</ele>
        <time>2016-04-26T07:17:55Z</time>
      </trkpt>
      <trkpt lat="43.92116" lon="5.82921">
        <ele>529.47</ele>
        <time>2016-04-26T07:17:56Z</time>
      </trkpt>
      <trkpt lat="43.92118" lon="5.82916">
        <ele>529.6</ele>
        <time>2016-04-26T07:17:57Z</time>
      </trkpt>
      <trkpt lat="43.92123" lon="5.82882">
        <ele>529.41</ele>
        <time>2016-04-26T07:18:02Z</time>
      </trkpt>
      <trkpt lat="43.92124" lon="5.82845">
        <ele>529.9</ele>
        <time>2016-04-26T07:18:07Z</time>
      </trkpt>
      <trkpt lat="43.92126" lon="5.82839">
        <ele>529.83</ele>
        <time>2016-04-26T07:18:08Z</time>
      </trkpt>
      <trkpt lat="43.92129" lon="5.82833">
        <ele>529.77</ele>
        <time>2016-04-26T07:18:09Z</time>
      </trkpt>
      <trkpt lat="43.92133" lon="5.82829">
        <ele>529.76</ele>
        <time>2016-04-26T07:18:10Z</time>
      </trkpt>
      <trkpt lat="43.92138" lon="5.82826">
        <ele>529.74</ele>
        <time>2016-04-26T07:18:11Z</time>
      </trkpt>
      <trkpt lat="43.92143" lon="5.82823">
        <ele>529.63</ele>
        <time>2016-04-26T07:18:12Z</time>
      </trkpt>
      <trkpt lat="43.92178" lon="5.82797">
        <ele>530.55</ele>
        <time>2016-04-26T07:18:19Z</time>
      </trkpt>
      <trkpt lat="43.92182" lon="5.82792">
        <ele>530.63</ele>
        <time>2016-04-26T07:18:20Z</time>
      </trkpt>
      <trkpt lat="43.92185" lon="5.82786">
        <ele>530.58</ele>
        <time>2016-04-26T07:18:21Z</time>
      </trkpt>
      <trkpt lat="43.92188" lon="5.82779">
        <ele>530.53</ele>
        <time>2016-04-26T07:18:22Z</time>
      </trkpt>
      <trkpt lat="43.92189" lon="5.82773">
        <ele>530.64</ele>
        <time>2016-04-26T07:18:23Z</time>
      </trkpt>
      <trkpt lat="43.92191" lon="5.82767">
        <ele>530.83</ele>
        <time>2016-04-26T07:18:24Z</time>
      </trkpt>
      <trkpt lat="43.92191" lon="5.82761">
        <ele>531.13</ele>
        <time>2016-04-26T07:18:25Z</time>
      </trkpt>
      <trkpt lat="43.92192" lon="5.82754">
        <ele>531.47</ele>
        <time>2016-04-26T07:18:26Z</time>
      </trkpt>
      <trkpt lat="43.92193" lon="5.82748">
        <ele>531.63</ele>
        <time>2016-04-26T07:18:27Z</time>
      </trkpt>
      <trkpt lat="43.92203" lon="5.82677">
        <ele>532.9</ele>
        <time>2016-04-26T07:18:37Z</time>
      </trkpt>
      <trkpt lat="43.92214" lon="5.82603">
        <ele>533.75</ele>
        <time>2016-04-26T07:18:47Z</time>
      </trkpt>
      <trkpt lat="43.9223" lon="5.82535">
        <ele>532.93</ele>
        <time>2016-04-26T07:18:55Z</time>
      </trkpt>
      <trkpt lat="43.92234" lon="5.82517">
        <ele>532.63</ele>
        <time>2016-04-26T07:18:57Z</time>
      </trkpt>
      <trkpt lat="43.92235" lon="5.82508">
        <ele>532.23</ele>
        <time>2016-04-26T07:18:58Z</time>
      </trkpt>
      <trkpt lat="43.92234" lon="5.82499">
        <ele>531.91</ele>
        <time>2016-04-26T07:18:59Z</time>
      </trkpt>
      <trkpt lat="43.9223" lon="5.82489">
        <ele>531.7</ele>
        <time>2016-04-26T07:19:00Z</time>
      </trkpt>
      <trkpt lat="43.92225" lon="5.82482">
        <ele>531.51</ele>
        <time>2016-04-26T07:19:01Z</time>
      </trkpt>
      <trkpt lat="43.9222" lon="5.82474">
        <ele>531.38</ele>
        <time>2016-04-26T07:19:02Z</time>
      </trkpt>
      <trkpt lat="43.92193" lon="5.82437">
        <ele>530.82</ele>
        <time>2016-04-26T07:19:07Z</time>
      </trkpt>
      <trkpt lat="43.92189" lon="5.82428">
        <ele>530.9</ele>
        <time>2016-04-26T07:19:08Z</time>
      </trkpt>
      <trkpt lat="43.92185" lon="5.82418">
        <ele>530.71</ele>
        <time>2016-04-26T07:19:09Z</time>
      </trkpt>
      <trkpt lat="43.92183" lon="5.82408">
        <ele>530.37</ele>
        <time>2016-04-26T07:19:10Z</time>
      </trkpt>
      <trkpt lat="43.9218" lon="5.82398">
        <ele>530.3</ele>
        <time>2016-04-26T07:19:11Z</time>
      </trkpt>
      <trkpt lat="43.92177" lon="5.82388">
        <ele>530.39</ele>
        <time>2016-04-26T07:19:12Z</time>
      </trkpt>
      <trkpt lat="43.92173" lon="5.82378">
        <ele>530.37</ele>
        <time>2016-04-26T07:19:13Z</time>
      </trkpt>
      <trkpt lat="43.92168" lon="5.82369">
        <ele>530.22</ele>
        <time>2016-04-26T07:19:14Z</time>
      </trkpt>
      <trkpt lat="43.92143" lon="5.82324">
        <ele>529.15</ele>
        <time>2016-04-26T07:19:19Z</time>
      </trkpt>
      <trkpt lat="43.9214" lon="5.82314">
        <ele>529.13</ele>
        <time>2016-04-26T07:19:20Z</time>
      </trkpt>
      <trkpt lat="43.92137" lon="5.82303">
        <ele>528.87</ele>
        <time>2016-04-26T07:19:21Z</time>
      </trkpt>
      <trkpt lat="43.92132" lon="5.82256">
        <ele>528.23</ele>
        <time>2016-04-26T07:19:25Z</time>
      </trkpt>
      <trkpt lat="43.92133" lon="5.82244">
        <ele>528.32</ele>
        <time>2016-04-26T07:19:26Z</time>
      </trkpt>
      <trkpt lat="43.92135" lon="5.82232">
        <ele>528.2</ele>
        <time>2016-04-26T07:19:27Z</time>
      </trkpt>
      <trkpt lat="43.92138" lon="5.82221">
        <ele>527.19</ele>
        <time>2016-04-26T07:19:28Z</time>
      </trkpt>
      <trkpt lat="43.92142" lon="5.8221">
        <ele>525.94</ele>
        <time>2016-04-26T07:19:29Z</time>
      </trkpt>
      <trkpt lat="43.92145" lon="5.82199">
        <ele>525.09</ele>
        <time>2016-04-26T07:19:30Z</time>
      </trkpt>
      <trkpt lat="43.92146" lon="5.82186">
        <ele>524.52</ele>
        <time>2016-04-26T07:19:31Z</time>
      </trkpt>
      <trkpt lat="43.92146" lon="5.82174">
        <ele>523.79</ele>
        <time>2016-04-26T07:19:32Z</time>
      </trkpt>
      <trkpt lat="43.92143" lon="5.82161">
        <ele>523.26</ele>
        <time>2016-04-26T07:19:33Z</time>
      </trkpt>
      <trkpt lat="43.92138" lon="5.82149">
        <ele>523.16</ele>
        <time>2016-04-26T07:19:34Z</time>
      </trkpt>
      <trkpt lat="43.9213" lon="5.82139">
        <ele>522.88</ele>
        <time>2016-04-26T07:19:35Z</time>
      </trkpt>
      <trkpt lat="43.92121" lon="5.82131">
        <ele>522.57</ele>
        <time>2016-04-26T07:19:36Z</time>
      </trkpt>
      <trkpt lat="43.92112" lon="5.82125">
        <ele>522.27</ele>
        <time>2016-04-26T07:19:37Z</time>
      </trkpt>
      <trkpt lat="43.92103" lon="5.82119">
        <ele>521.61</ele>
        <time>2016-04-26T07:19:38Z</time>
      </trkpt>
      <trkpt lat="43.92083" lon="5.82109">
        <ele>519.92</ele>
        <time>2016-04-26T07:19:40Z</time>
      </trkpt>
      <trkpt lat="43.92073" lon="5.82104">
        <ele>519.74</ele>
        <time>2016-04-26T07:19:41Z</time>
      </trkpt>
      <trkpt lat="43.92064" lon="5.82096">
        <ele>520.19</ele>
        <time>2016-04-26T07:19:42Z</time>
      </trkpt>
      <trkpt lat="43.92057" lon="5.82086">
        <ele>520.16</ele>
        <time>2016-04-26T07:19:43Z</time>
      </trkpt>
      <trkpt lat="43.92051" lon="5.82074">
        <ele>519.43</ele>
        <time>2016-04-26T07:19:44Z</time>
      </trkpt>
      <trkpt lat="43.92049" lon="5.8206">
        <ele>518.85</ele>
        <time>2016-04-26T07:19:45Z</time>
      </trkpt>
      <trkpt lat="43.92049" lon="5.82045">
        <ele>518.35</ele>
        <time>2016-04-26T07:19:46Z</time>
      </trkpt>
      <trkpt lat="43.9205" lon="5.8203">
        <ele>517.94</ele>
        <time>2016-04-26T07:19:47Z</time>
      </trkpt>
      <trkpt lat="43.92052" lon="5.82016">
        <ele>517.05</ele>
        <time>2016-04-26T07:19:48Z</time>
      </trkpt>
      <trkpt lat="43.92055" lon="5.82003">
        <ele>515.84</ele>
        <time>2016-04-26T07:19:49Z</time>
      </trkpt>
      <trkpt lat="43.9206" lon="5.8199">
        <ele>514.57</ele>
        <time>2016-04-26T07:19:50Z</time>
      </trkpt>
      <trkpt lat="43.92064" lon="5.81978">
        <ele>513.46</ele>
        <time>2016-04-26T07:19:51Z</time>
      </trkpt>
      <trkpt lat="43.92079" lon="5.81947">
        <ele>511.6</ele>
        <time>2016-04-26T07:19:54Z</time>
      </trkpt>
      <trkpt lat="43.92084" lon="5.81941">
        <ele>510.87</ele>
        <time>2016-04-26T07:19:55Z</time>
      </trkpt>
      <trkpt lat="43.92089" lon="5.81938">
        <ele>510.28</ele>
        <time>2016-04-26T07:19:56Z</time>
      </trkpt>
      <trkpt lat="43.92099" lon="5.81943">
        <ele>509.81</ele>
        <time>2016-04-26T07:19:57Z</time>
      </trkpt>
      <trkpt lat="43.92107" lon="5.81948">
        <ele>509.02</ele>
        <time>2016-04-26T07:19:58Z</time>
      </trkpt>
      <trkpt lat="43.92115" lon="5.81954">
        <ele>508.58</ele>
        <time>2016-04-26T07:19:59Z</time>
      </trkpt>
      <trkpt lat="43.92141" lon="5.81967">
        <ele>507.31</ele>
        <time>2016-04-26T07:20:02Z</time>
      </trkpt>
      <trkpt lat="43.92161" lon="5.81973">
        <ele>506.34</ele>
        <time>2016-04-26T07:20:04Z</time>
      </trkpt>
      <trkpt lat="43.92171" lon="5.81973">
        <ele>505.64</ele>
        <time>2016-04-26T07:20:05Z</time>
      </trkpt>
      <trkpt lat="43.9218" lon="5.81968">
        <ele>505.08</ele>
        <time>2016-04-26T07:20:06Z</time>
      </trkpt>
      <trkpt lat="43.92189" lon="5.81962">
        <ele>504.73</ele>
        <time>2016-04-26T07:20:07Z</time>
      </trkpt>
      <trkpt lat="43.92196" lon="5.81953">
        <ele>504.21</ele>
        <time>2016-04-26T07:20:08Z</time>
      </trkpt>
      <trkpt lat="43.92203" lon="5.81943">
        <ele>503.73</ele>
        <time>2016-04-26T07:20:09Z</time>
      </trkpt>
      <trkpt lat="43.92209" lon="5.81932">
        <ele>503.44</ele>
        <time>2016-04-26T07:20:10Z</time>
      </trkpt>
      <trkpt lat="43.92243" lon="5.81875">
        <ele>504.63</ele>
        <time>2016-04-26T07:20:17Z</time>
      </trkpt>
      <trkpt lat="43.92275" lon="5.81825">
        <ele>507.34</ele>
        <time>2016-04-26T07:20:28Z</time>
      </trkpt>
      <trkpt lat="43.92309" lon="5.81772">
        <ele>510.54</ele>
        <time>2016-04-26T07:20:40Z</time>
      </trkpt>
      <trkpt lat="43.92313" lon="5.81768">
        <ele>511.07</ele>
        <time>2016-04-26T07:20:41Z</time>
      </trkpt>
      <trkpt lat="43.92324" lon="5.81755">
        <ele>512.45</ele>
        <time>2016-04-26T07:20:44Z</time>
      </trkpt>
      <trkpt lat="43.92328" lon="5.81752">
        <ele>512.67</ele>
        <time>2016-04-26T07:20:45Z</time>
      </trkpt>
      <trkpt lat="43.92343" lon="5.81741">
        <ele>512.84</ele>
        <time>2016-04-26T07:20:49Z</time>
      </trkpt>
      <trkpt lat="43.92384" lon="5.8173">
        <ele>513.66</ele>
        <time>2016-04-26T07:20:58Z</time>
      </trkpt>
      <trkpt lat="43.92439" lon="5.81735">
        <ele>512.99</ele>
        <time>2016-04-26T07:21:08Z</time>
      </trkpt>
      <trkpt lat="43.92493" lon="5.81739">
        <ele>511.44</ele>
        <time>2016-04-26T07:21:15Z</time>
      </trkpt>
      <trkpt lat="43.92548" lon="5.81743">
        <ele>509.53</ele>
        <time>2016-04-26T07:21:21Z</time>
      </trkpt>
      <trkpt lat="43.92603" lon="5.81743">
        <ele>507.95</ele>
        <time>2016-04-26T07:21:27Z</time>
      </trkpt>
      <trkpt lat="43.9265" lon="5.81742">
        <ele>505.23</ele>
        <time>2016-04-26T07:21:32Z</time>
      </trkpt>
      <trkpt lat="43.92708" lon="5.81741">
        <ele>503.32</ele>
        <time>2016-04-26T07:21:38Z</time>
      </trkpt>
      <trkpt lat="43.92763" lon="5.81735">
        <ele>500.44</ele>
        <time>2016-04-26T07:21:44Z</time>
      </trkpt>
      <trkpt lat="43.92782" lon="5.81734">
        <ele>499.66</ele>
        <time>2016-04-26T07:21:46Z</time>
      </trkpt>
      <trkpt lat="43.92839" lon="5.81741">
        <ele>498.54</ele>
        <time>2016-04-26T07:21:52Z</time>
      </trkpt>
      <trkpt lat="43.92895" lon="5.81758">
        <ele>498.56</ele>
        <time>2016-04-26T07:21:58Z</time>
      </trkpt>
      <trkpt lat="43.92951" lon="5.81777">
        <ele>495.1</ele>
        <time>2016-04-26T07:22:04Z</time>
      </trkpt>
      <trkpt lat="43.93007" lon="5.81795">
        <ele>493.56</ele>
        <time>2016-04-26T07:22:10Z</time>
      </trkpt>
      <trkpt lat="43.93033" lon="5.81809">
        <ele>492.24</ele>
        <time>2016-04-26T07:22:13Z</time>
      </trkpt>
      <trkpt lat="43.93079" lon="5.81851">
        <ele>490.39</ele>
        <time>2016-04-26T07:22:19Z</time>
      </trkpt>
      <trkpt lat="43.93085" lon="5.81855">
        <ele>489.88</ele>
        <time>2016-04-26T07:22:20Z</time>
      </trkpt>
      <trkpt lat="43.93092" lon="5.81855">
        <ele>488.38</ele>
        <time>2016-04-26T07:22:21Z</time>
      </trkpt>
      <trkpt lat="43.93098" lon="5.81851">
        <ele>487.57</ele>
        <time>2016-04-26T07:22:22Z</time>
      </trkpt>
      <trkpt lat="43.93102" lon="5.81844">
        <ele>486.96</ele>
        <time>2016-04-26T07:22:23Z</time>
      </trkpt>
      <trkpt lat="43.93102" lon="5.81835">
        <ele>486.57</ele>
        <time>2016-04-26T07:22:24Z</time>
      </trkpt>
      <trkpt lat="43.93101" lon="5.81826">
        <ele>486.48</ele>
        <time>2016-04-26T07:22:25Z</time>
      </trkpt>
      <trkpt lat="43.93097" lon="5.81817">
        <ele>486.43</ele>
        <time>2016-04-26T07:22:26Z</time>
      </trkpt>
      <trkpt lat="43.93094" lon="5.81808">
        <ele>486.02</ele>
        <time>2016-04-26T07:22:27Z</time>
      </trkpt>
      <trkpt lat="43.93066" lon="5.81735">
        <ele>484.56</ele>
        <time>2016-04-26T07:22:35Z</time>
      </trkpt>
      <trkpt lat="43.93052" lon="5.81695">
        <ele>483.37</ele>
        <time>2016-04-26T07:22:39Z</time>
      </trkpt>
      <trkpt lat="43.93044" lon="5.81647">
        <ele>483.03</ele>
        <time>2016-04-26T07:22:43Z</time>
      </trkpt>
      <trkpt lat="43.93045" lon="5.81596">
        <ele>481.51</ele>
        <time>2016-04-26T07:22:47Z</time>
      </trkpt>
      <trkpt lat="43.93047" lon="5.81518">
        <ele>480.56</ele>
        <time>2016-04-26T07:22:53Z</time>
      </trkpt>
      <trkpt lat="43.93047" lon="5.81443">
        <ele>479</ele>
        <time>2016-04-26T07:22:59Z</time>
      </trkpt>
      <trkpt lat="43.93048" lon="5.81431">
        <ele>478.74</ele>
        <time>2016-04-26T07:23:00Z</time>
      </trkpt>
      <trkpt lat="43.9305" lon="5.8142">
        <ele>478.23</ele>
        <time>2016-04-26T07:23:01Z</time>
      </trkpt>
      <trkpt lat="43.93053" lon="5.8141">
        <ele>477.75</ele>
        <time>2016-04-26T07:23:02Z</time>
      </trkpt>
      <trkpt lat="43.93056" lon="5.814">
        <ele>477.66</ele>
        <time>2016-04-26T07:23:03Z</time>
      </trkpt>
      <trkpt lat="43.9306" lon="5.81391">
        <ele>477.68</ele>
        <time>2016-04-26T07:23:04Z</time>
      </trkpt>
      <trkpt lat="43.93064" lon="5.81382">
        <ele>477.64</ele>
        <time>2016-04-26T07:23:05Z</time>
      </trkpt>
      <trkpt lat="43.93088" lon="5.81321">
        <ele>477.77</ele>
        <time>2016-04-26T07:23:13Z</time>
      </trkpt>
      <trkpt lat="43.93113" lon="5.81259">
        <ele>479.52</ele>
        <time>2016-04-26T07:23:23Z</time>
      </trkpt>
      <trkpt lat="43.93137" lon="5.81198">
        <ele>482.35</ele>
        <time>2016-04-26T07:23:35Z</time>
      </trkpt>
      <trkpt lat="43.93162" lon="5.81139">
        <ele>485.5</ele>
        <time>2016-04-26T07:23:47Z</time>
      </trkpt>
      <trkpt lat="43.93189" lon="5.81075">
        <ele>486.12</ele>
        <time>2016-04-26T07:23:59Z</time>
      </trkpt>
      <trkpt lat="43.93215" lon="5.81015">
        <ele>485.69</ele>
        <time>2016-04-26T07:24:07Z</time>
      </trkpt>
      <trkpt lat="43.93241" lon="5.80955">
        <ele>483.16</ele>
        <time>2016-04-26T07:24:14Z</time>
      </trkpt>
      <trkpt lat="43.9327" lon="5.80895">
        <ele>481.71</ele>
        <time>2016-04-26T07:24:21Z</time>
      </trkpt>
      <trkpt lat="43.93302" lon="5.80834">
        <ele>481.49</ele>
        <time>2016-04-26T07:24:29Z</time>
      </trkpt>
      <trkpt lat="43.93332" lon="5.8078">
        <ele>481.77</ele>
        <time>2016-04-26T07:24:37Z</time>
      </trkpt>
      <trkpt lat="43.93363" lon="5.80727">
        <ele>481.86</ele>
        <time>2016-04-26T07:24:45Z</time>
      </trkpt>
      <trkpt lat="43.93386" lon="5.80683">
        <ele>478.74</ele>
        <time>2016-04-26T07:24:51Z</time>
      </trkpt>
      <trkpt lat="43.93413" lon="5.80618">
        <ele>477.99</ele>
        <time>2016-04-26T07:24:59Z</time>
      </trkpt>
      <trkpt lat="43.93436" lon="5.80547">
        <ele>478.3</ele>
        <time>2016-04-26T07:25:07Z</time>
      </trkpt>
      <trkpt lat="43.93461" lon="5.80481">
        <ele>477.49</ele>
        <time>2016-04-26T07:25:15Z</time>
      </trkpt>
      <trkpt lat="43.93489" lon="5.80415">
        <ele>479.63</ele>
        <time>2016-04-26T07:25:23Z</time>
      </trkpt>
      <trkpt lat="43.93523" lon="5.8036">
        <ele>478.4</ele>
        <time>2016-04-26T07:25:31Z</time>
      </trkpt>
      <trkpt lat="43.93562" lon="5.80315">
        <ele>479.18</ele>
        <time>2016-04-26T07:25:39Z</time>
      </trkpt>
      <trkpt lat="43.93602" lon="5.80283">
        <ele>478.53</ele>
        <time>2016-04-26T07:25:47Z</time>
      </trkpt>
      <trkpt lat="43.93647" lon="5.8025">
        <ele>479.5</ele>
        <time>2016-04-26T07:25:56Z</time>
      </trkpt>
      <trkpt lat="43.93688" lon="5.80211">
        <ele>479.36</ele>
        <time>2016-04-26T07:26:05Z</time>
      </trkpt>
      <trkpt lat="43.93723" lon="5.80167">
        <ele>479.92</ele>
        <time>2016-04-26T07:26:14Z</time>
      </trkpt>
      <trkpt lat="43.93758" lon="5.80114">
        <ele>480.11</ele>
        <time>2016-04-26T07:26:24Z</time>
      </trkpt>
      <trkpt lat="43.93761" lon="5.80107">
        <ele>480.26</ele>
        <time>2016-04-26T07:26:25Z</time>
      </trkpt>
      <trkpt lat="43.93782" lon="5.80043">
        <ele>480.71</ele>
        <time>2016-04-26T07:26:35Z</time>
      </trkpt>
      <trkpt lat="43.93808" lon="5.79982">
        <ele>482.18</ele>
        <time>2016-04-26T07:26:45Z</time>
      </trkpt>
      <trkpt lat="43.93834" lon="5.79927">
        <ele>482.99</ele>
        <time>2016-04-26T07:26:56Z</time>
      </trkpt>
      <trkpt lat="43.93846" lon="5.79902">
        <ele>483.98</ele>
        <time>2016-04-26T07:27:01Z</time>
      </trkpt>
      <trkpt lat="43.93878" lon="5.79853">
        <ele>486.73</ele>
        <time>2016-04-26T07:27:11Z</time>
      </trkpt>
      <trkpt lat="43.93892" lon="5.79834">
        <ele>487.3</ele>
        <time>2016-04-26T07:27:15Z</time>
      </trkpt>
      <trkpt lat="43.93932" lon="5.79799">
        <ele>489.04</ele>
        <time>2016-04-26T07:27:26Z</time>
      </trkpt>
      <trkpt lat="43.93975" lon="5.79769">
        <ele>491.07</ele>
        <time>2016-04-26T07:27:39Z</time>
      </trkpt>
      <trkpt lat="43.94014" lon="5.79741">
        <ele>493.2</ele>
        <time>2016-04-26T07:27:50Z</time>
      </trkpt>
      <trkpt lat="43.94017" lon="5.79739">
        <ele>493.47</ele>
        <time>2016-04-26T07:27:51Z</time>
      </trkpt>
      <trkpt lat="43.94061" lon="5.79708">
        <ele>495.82</ele>
        <time>2016-04-26T07:28:04Z</time>
      </trkpt>
      <trkpt lat="43.94106" lon="5.79675">
        <ele>498.46</ele>
        <time>2016-04-26T07:28:17Z</time>
      </trkpt>
      <trkpt lat="43.94148" lon="5.79644">
        <ele>500.19</ele>
        <time>2016-04-26T07:28:30Z</time>
      </trkpt>
      <trkpt lat="43.94192" lon="5.79603">
        <ele>502.32</ele>
        <time>2016-04-26T07:28:43Z</time>
      </trkpt>
      <trkpt lat="43.94233" lon="5.79564">
        <ele>503.75</ele>
        <time>2016-04-26T07:28:56Z</time>
      </trkpt>
      <trkpt lat="43.94272" lon="5.79523">
        <ele>504.96</ele>
        <time>2016-04-26T07:29:08Z</time>
      </trkpt>
      <trkpt lat="43.94303" lon="5.79467">
        <ele>506.65</ele>
        <time>2016-04-26T07:29:21Z</time>
      </trkpt>
      <trkpt lat="43.9433" lon="5.79406">
        <ele>508.58</ele>
        <time>2016-04-26T07:29:33Z</time>
      </trkpt>
      <trkpt lat="43.94363" lon="5.79352">
        <ele>510.61</ele>
        <time>2016-04-26T07:29:45Z</time>
      </trkpt>
      <trkpt lat="43.94402" lon="5.79305">
        <ele>512.61</ele>
        <time>2016-04-26T07:29:59Z</time>
      </trkpt>
      <trkpt lat="43.94441" lon="5.79267">
        <ele>515.8</ele>
        <time>2016-04-26T07:30:11Z</time>
      </trkpt>
      <trkpt lat="43.94481" lon="5.79227">
        <ele>518.36</ele>
        <time>2016-04-26T07:30:23Z</time>
      </trkpt>
      <trkpt lat="43.94519" lon="5.79189">
        <ele>520.4</ele>
        <time>2016-04-26T07:30:35Z</time>
      </trkpt>
      <trkpt lat="43.94566" lon="5.7916">
        <ele>522.5</ele>
        <time>2016-04-26T07:30:49Z</time>
      </trkpt>
      <trkpt lat="43.94618" lon="5.79155">
        <ele>525.56</ele>
        <time>2016-04-26T07:31:02Z</time>
      </trkpt>
      <trkpt lat="43.94664" lon="5.79154">
        <ele>528.48</ele>
        <time>2016-04-26T07:31:14Z</time>
      </trkpt>
      <trkpt lat="43.94703" lon="5.79146">
        <ele>531.1</ele>
        <time>2016-04-26T07:31:24Z</time>
      </trkpt>
      <trkpt lat="43.94739" lon="5.79136">
        <ele>532.96</ele>
        <time>2016-04-26T07:31:33Z</time>
      </trkpt>
      <trkpt lat="43.94786" lon="5.79118">
        <ele>534.94</ele>
        <time>2016-04-26T07:31:45Z</time>
      </trkpt>
      <trkpt lat="43.94835" lon="5.79106">
        <ele>537.41</ele>
        <time>2016-04-26T07:31:57Z</time>
      </trkpt>
      <trkpt lat="43.94887" lon="5.79103">
        <ele>540.12</ele>
        <time>2016-04-26T07:32:10Z</time>
      </trkpt>
      <trkpt lat="43.94936" lon="5.79105">
        <ele>541.61</ele>
        <time>2016-04-26T07:32:22Z</time>
      </trkpt>
      <trkpt lat="43.94988" lon="5.79099">
        <ele>542.99</ele>
        <time>2016-04-26T07:32:32Z</time>
      </trkpt>
      <trkpt lat="43.95026" lon="5.79088">
        <ele>543.86</ele>
        <time>2016-04-26T07:32:39Z</time>
      </trkpt>
      <trkpt lat="43.95084" lon="5.79075">
        <ele>543.69</ele>
        <time>2016-04-26T07:32:48Z</time>
      </trkpt>
      <trkpt lat="43.9512" lon="5.79062">
        <ele>545.18</ele>
        <time>2016-04-26T07:32:54Z</time>
      </trkpt>
      <trkpt lat="43.95171" lon="5.79038">
        <ele>545.38</ele>
        <time>2016-04-26T07:33:04Z</time>
      </trkpt>
      <trkpt lat="43.95204" lon="5.79017">
        <ele>547.03</ele>
        <time>2016-04-26T07:33:11Z</time>
      </trkpt>
      <trkpt lat="43.95242" lon="5.78968">
        <ele>548.77</ele>
        <time>2016-04-26T07:33:21Z</time>
      </trkpt>
      <trkpt lat="43.95274" lon="5.78908">
        <ele>550.67</ele>
        <time>2016-04-26T07:33:31Z</time>
      </trkpt>
      <trkpt lat="43.95302" lon="5.78871">
        <ele>551.21</ele>
        <time>2016-04-26T07:33:38Z</time>
      </trkpt>
      <trkpt lat="43.95352" lon="5.78834">
        <ele>549.46</ele>
        <time>2016-04-26T07:33:46Z</time>
      </trkpt>
      <trkpt lat="43.95365" lon="5.78824">
        <ele>548.78</ele>
        <time>2016-04-26T07:33:48Z</time>
      </trkpt>
      <trkpt lat="43.9537" lon="5.78818">
        <ele>548.78</ele>
        <time>2016-04-26T07:33:49Z</time>
      </trkpt>
      <trkpt lat="43.95376" lon="5.78811">
        <ele>548.94</ele>
        <time>2016-04-26T07:33:50Z</time>
      </trkpt>
      <trkpt lat="43.9538" lon="5.78803">
        <ele>548.98</ele>
        <time>2016-04-26T07:33:51Z</time>
      </trkpt>
      <trkpt lat="43.95383" lon="5.78794">
        <ele>549.05</ele>
        <time>2016-04-26T07:33:52Z</time>
      </trkpt>
      <trkpt lat="43.95386" lon="5.78785">
        <ele>549.31</ele>
        <time>2016-04-26T07:33:53Z</time>
      </trkpt>
      <trkpt lat="43.95388" lon="5.78776">
        <ele>549.47</ele>
        <time>2016-04-26T07:33:54Z</time>
      </trkpt>
      <trkpt lat="43.9539" lon="5.78767">
        <ele>549.49</ele>
        <time>2016-04-26T07:33:55Z</time>
      </trkpt>
      <trkpt lat="43.95393" lon="5.78759">
        <ele>549.42</ele>
        <time>2016-04-26T07:33:56Z</time>
      </trkpt>
      <trkpt lat="43.95396" lon="5.7875">
        <ele>549.63</ele>
        <time>2016-04-26T07:33:57Z</time>
      </trkpt>
      <trkpt lat="43.95398" lon="5.78742">
        <ele>550.06</ele>
        <time>2016-04-26T07:33:58Z</time>
      </trkpt>
      <trkpt lat="43.954" lon="5.78734">
        <ele>550.07</ele>
        <time>2016-04-26T07:33:59Z</time>
      </trkpt>
      <trkpt lat="43.95403" lon="5.78727">
        <ele>550.05</ele>
        <time>2016-04-26T07:34:00Z</time>
      </trkpt>
      <trkpt lat="43.95407" lon="5.7872">
        <ele>550.33</ele>
        <time>2016-04-26T07:34:01Z</time>
      </trkpt>
      <trkpt lat="43.9541" lon="5.78714">
        <ele>550.57</ele>
        <time>2016-04-26T07:34:02Z</time>
      </trkpt>
      <trkpt lat="43.95444" lon="5.78656">
        <ele>551.44</ele>
        <time>2016-04-26T07:34:11Z</time>
      </trkpt>
      <trkpt lat="43.9547" lon="5.78597">
        <ele>553.35</ele>
        <time>2016-04-26T07:34:21Z</time>
      </trkpt>
      <trkpt lat="43.95491" lon="5.78545">
        <ele>554.57</ele>
        <time>2016-04-26T07:34:29Z</time>
      </trkpt>
      <trkpt lat="43.95495" lon="5.78539">
        <ele>554.45</ele>
        <time>2016-04-26T07:34:30Z</time>
      </trkpt>
      <trkpt lat="43.95499" lon="5.78533">
        <ele>554.37</ele>
        <time>2016-04-26T07:34:31Z</time>
      </trkpt>
      <trkpt lat="43.95525" lon="5.78504">
        <ele>554.69</ele>
        <time>2016-04-26T07:34:37Z</time>
      </trkpt>
      <trkpt lat="43.95572" lon="5.78462">
        <ele>554.42</ele>
        <time>2016-04-26T07:34:47Z</time>
      </trkpt>
      <trkpt lat="43.95591" lon="5.78448">
        <ele>555.35</ele>
        <time>2016-04-26T07:34:51Z</time>
      </trkpt>
      <trkpt lat="43.95595" lon="5.78446">
        <ele>555.68</ele>
        <time>2016-04-26T07:34:52Z</time>
      </trkpt>
      <trkpt lat="43.95622" lon="5.78433">
        <ele>557.62</ele>
        <time>2016-04-26T07:34:58Z</time>
      </trkpt>
      <trkpt lat="43.9564" lon="5.7843">
        <ele>558.03</ele>
        <time>2016-04-26T07:35:02Z</time>
      </trkpt>
      <trkpt lat="43.95644" lon="5.78429">
        <ele>558.11</ele>
        <time>2016-04-26T07:35:03Z</time>
      </trkpt>
      <trkpt lat="43.95648" lon="5.78428">
        <ele>558.2</ele>
        <time>2016-04-26T07:35:04Z</time>
      </trkpt>
      <trkpt lat="43.95653" lon="5.78428">
        <ele>558.25</ele>
        <time>2016-04-26T07:35:05Z</time>
      </trkpt>
      <trkpt lat="43.95658" lon="5.78427">
        <ele>558.33</ele>
        <time>2016-04-26T07:35:06Z</time>
      </trkpt>
      <trkpt lat="43.95678" lon="5.78426">
        <ele>557.42</ele>
        <time>2016-04-26T07:35:10Z</time>
      </trkpt>
      <trkpt lat="43.95708" lon="5.78419">
        <ele>554.66</ele>
        <time>2016-04-26T07:35:15Z</time>
      </trkpt>
      <trkpt lat="43.95714" lon="5.78416">
        <ele>554.42</ele>
        <time>2016-04-26T07:35:16Z</time>
      </trkpt>
      <trkpt lat="43.95764" lon="5.7838">
        <ele>552.02</ele>
        <time>2016-04-26T07:35:24Z</time>
      </trkpt>
      <trkpt lat="43.95789" lon="5.78353">
        <ele>552.28</ele>
        <time>2016-04-26T07:35:29Z</time>
      </trkpt>
      <trkpt lat="43.95793" lon="5.78347">
        <ele>552.25</ele>
        <time>2016-04-26T07:35:30Z</time>
      </trkpt>
      <trkpt lat="43.95796" lon="5.7834">
        <ele>552.09</ele>
        <time>2016-04-26T07:35:31Z</time>
      </trkpt>
      <trkpt lat="43.95823" lon="5.78294">
        <ele>548.68</ele>
        <time>2016-04-26T07:35:41Z</time>
      </trkpt>
      <trkpt lat="43.95825" lon="5.78291">
        <ele>548.23</ele>
        <time>2016-04-26T07:35:43Z</time>
      </trkpt>
      <trkpt lat="43.95826" lon="5.7829">
        <ele>548.14</ele>
        <time>2016-04-26T07:35:44Z</time>
      </trkpt>
      <trkpt lat="43.95826" lon="5.78287">
        <ele>548.06</ele>
        <time>2016-04-26T07:35:45Z</time>
      </trkpt>
      <trkpt lat="43.95828" lon="5.78283">
        <ele>547.97</ele>
        <time>2016-04-26T07:35:46Z</time>
      </trkpt>
      <trkpt lat="43.9583" lon="5.78279">
        <ele>548.03</ele>
        <time>2016-04-26T07:35:47Z</time>
      </trkpt>
      <trkpt lat="43.95833" lon="5.78275">
        <ele>548.12</ele>
        <time>2016-04-26T07:35:48Z</time>
      </trkpt>
      <trkpt lat="43.9586" lon="5.78214">
        <ele>547.5</ele>
        <time>2016-04-26T07:35:59Z</time>
      </trkpt>
      <trkpt lat="43.95882" lon="5.78156">
        <ele>545.4</ele>
        <time>2016-04-26T07:36:13Z</time>
      </trkpt>
      <trkpt lat="43.959" lon="5.78148">
        <ele>543.24</ele>
        <time>2016-04-26T07:36:18Z</time>
      </trkpt>
      <trkpt lat="43.95903" lon="5.78145">
        <ele>542.97</ele>
        <time>2016-04-26T07:36:19Z</time>
      </trkpt>
      <trkpt lat="43.95905" lon="5.78142">
        <ele>542.94</ele>
        <time>2016-04-26T07:36:20Z</time>
      </trkpt>
      <trkpt lat="43.95905" lon="5.78139">
        <ele>543.02</ele>
        <time>2016-04-26T07:36:21Z</time>
      </trkpt>
      <trkpt lat="43.95905" lon="5.78136">
        <ele>543.13</ele>
        <time>2016-04-26T07:36:22Z</time>
      </trkpt>
      <trkpt lat="43.959" lon="5.78133">
        <ele>543.15</ele>
        <time>2016-04-26T07:36:23Z</time>
      </trkpt>
      <trkpt lat="43.95911" lon="5.781">
        <ele>540.98</ele>
        <time>2016-04-26T07:36:33Z</time>
      </trkpt>
      <trkpt lat="43.95914" lon="5.78099">
        <ele>540.1</ele>
        <time>2016-04-26T07:36:34Z</time>
      </trkpt>
      <trkpt lat="43.95917" lon="5.78099">
        <ele>539.29</ele>
        <time>2016-04-26T07:36:35Z</time>
      </trkpt>
      <trkpt lat="43.95921" lon="5.78096">
        <ele>538.71</ele>
        <time>2016-04-26T07:36:36Z</time>
      </trkpt>
      <trkpt lat="43.95922" lon="5.78094">
        <ele>538.08</ele>
        <time>2016-04-26T07:36:37Z</time>
      </trkpt>
      <trkpt lat="43.95932" lon="5.78094">
        <ele>537.27</ele>
        <time>2016-04-26T07:36:39Z</time>
      </trkpt>
      <trkpt lat="43.95934" lon="5.78094">
        <ele>537.17</ele>
        <time>2016-04-26T07:36:40Z</time>
      </trkpt>
      <trkpt lat="43.95939" lon="5.78094">
        <ele>537.2</ele>
        <time>2016-04-26T07:36:44Z</time>
      </trkpt>
      <trkpt lat="43.95941" lon="5.78094">
        <ele>537.25</ele>
        <time>2016-04-26T07:36:47Z</time>
      </trkpt>
      <trkpt lat="43.95943" lon="5.78093">
        <ele>536.73</ele>
        <time>2016-04-26T07:36:51Z</time>
      </trkpt>
      <trkpt lat="43.95983" lon="5.78044">
        <ele>536.55</ele>
        <time>2016-04-26T07:37:07Z</time>
      </trkpt>
      <trkpt lat="43.95988" lon="5.7804">
        <ele>536.37</ele>
        <time>2016-04-26T07:37:08Z</time>
      </trkpt>
      <trkpt lat="43.95992" lon="5.78035">
        <ele>536.02</ele>
        <time>2016-04-26T07:37:09Z</time>
      </trkpt>
      <trkpt lat="43.96019" lon="5.78011">
        <ele>533.29</ele>
        <time>2016-04-26T07:37:14Z</time>
      </trkpt>
      <trkpt lat="43.96038" lon="5.77991">
        <ele>533.41</ele>
        <time>2016-04-26T07:37:18Z</time>
      </trkpt>
      <trkpt lat="43.96043" lon="5.77987">
        <ele>533.52</ele>
        <time>2016-04-26T07:37:19Z</time>
      </trkpt>
      <trkpt lat="43.96048" lon="5.77982">
        <ele>533.63</ele>
        <time>2016-04-26T07:37:20Z</time>
      </trkpt>
      <trkpt lat="43.96052" lon="5.77977">
        <ele>533.69</ele>
        <time>2016-04-26T07:37:21Z</time>
      </trkpt>
      <trkpt lat="43.96056" lon="5.77971">
        <ele>533.72</ele>
        <time>2016-04-26T07:37:22Z</time>
      </trkpt>
      <trkpt lat="43.9606" lon="5.77966">
        <ele>533.73</ele>
        <time>2016-04-26T07:37:23Z</time>
      </trkpt>
      <trkpt lat="43.96069" lon="5.7795">
        <ele>534.17</ele>
        <time>2016-04-26T07:37:26Z</time>
      </trkpt>
      <trkpt lat="43.96072" lon="5.77945">
        <ele>534.42</ele>
        <time>2016-04-26T07:37:27Z</time>
      </trkpt>
      <trkpt lat="43.96094" lon="5.7788">
        <ele>537.21</ele>
        <time>2016-04-26T07:37:42Z</time>
      </trkpt>
      <trkpt lat="43.96108" lon="5.77843">
        <ele>540.32</ele>
        <time>2016-04-26T07:37:52Z</time>
      </trkpt>
      <trkpt lat="43.96128" lon="5.77801">
        <ele>543.45</ele>
        <time>2016-04-26T07:38:05Z</time>
      </trkpt>
      <trkpt lat="43.96131" lon="5.77796">
        <ele>543.74</ele>
        <time>2016-04-26T07:38:06Z</time>
      </trkpt>
      <trkpt lat="43.96133" lon="5.77793">
        <ele>543.97</ele>
        <time>2016-04-26T07:38:07Z</time>
      </trkpt>
      <trkpt lat="43.96134" lon="5.77789">
        <ele>544.4</ele>
        <time>2016-04-26T07:38:08Z</time>
      </trkpt>
      <trkpt lat="43.96136" lon="5.77786">
        <ele>544.73</ele>
        <time>2016-04-26T07:38:09Z</time>
      </trkpt>
      <trkpt lat="43.96139" lon="5.77785">
        <ele>545.18</ele>
        <time>2016-04-26T07:38:10Z</time>
      </trkpt>
      <trkpt lat="43.96141" lon="5.77784">
        <ele>545.66</ele>
        <time>2016-04-26T07:38:11Z</time>
      </trkpt>
      <trkpt lat="43.96177" lon="5.77798">
        <ele>548.9</ele>
        <time>2016-04-26T07:38:21Z</time>
      </trkpt>
      <trkpt lat="43.96184" lon="5.77802">
        <ele>549.76</ele>
        <time>2016-04-26T07:38:23Z</time>
      </trkpt>
      <trkpt lat="43.96221" lon="5.77844">
        <ele>551.74</ele>
        <time>2016-04-26T07:38:38Z</time>
      </trkpt>
      <trkpt lat="43.96226" lon="5.77852">
        <ele>552.68</ele>
        <time>2016-04-26T07:38:40Z</time>
      </trkpt>
      <trkpt lat="43.96255" lon="5.77909">
        <ele>555.68</ele>
        <time>2016-04-26T07:38:54Z</time>
      </trkpt>
      <trkpt lat="43.9629" lon="5.77965">
        <ele>558.52</ele>
        <time>2016-04-26T07:39:09Z</time>
      </trkpt>
      <trkpt lat="43.96331" lon="5.78008">
        <ele>561.88</ele>
        <time>2016-04-26T07:39:24Z</time>
      </trkpt>
      <trkpt lat="43.96373" lon="5.78044">
        <ele>564.89</ele>
        <time>2016-04-26T07:39:38Z</time>
      </trkpt>
      <trkpt lat="43.96418" lon="5.78067">
        <ele>567.94</ele>
        <time>2016-04-26T07:39:51Z</time>
      </trkpt>
      <trkpt lat="43.96462" lon="5.78083">
        <ele>571.03</ele>
        <time>2016-04-26T07:40:03Z</time>
      </trkpt>
      <trkpt lat="43.96512" lon="5.78101">
        <ele>573.89</ele>
        <time>2016-04-26T07:40:17Z</time>
      </trkpt>
      <trkpt lat="43.96561" lon="5.78117">
        <ele>576.53</ele>
        <time>2016-04-26T07:40:30Z</time>
      </trkpt>
      <trkpt lat="43.96606" lon="5.78115">
        <ele>579.71</ele>
        <time>2016-04-26T07:40:44Z</time>
      </trkpt>
      <trkpt lat="43.96631" lon="5.78063">
        <ele>581.24</ele>
        <time>2016-04-26T07:40:57Z</time>
      </trkpt>
      <trkpt lat="43.96663" lon="5.78005">
        <ele>583.91</ele>
        <time>2016-04-26T07:41:13Z</time>
      </trkpt>
      <trkpt lat="43.96702" lon="5.77979">
        <ele>586.96</ele>
        <time>2016-04-26T07:41:26Z</time>
      </trkpt>
      <trkpt lat="43.96738" lon="5.77939">
        <ele>590.18</ele>
        <time>2016-04-26T07:41:39Z</time>
      </trkpt>
      <trkpt lat="43.96777" lon="5.77896">
        <ele>592.2</ele>
        <time>2016-04-26T07:41:54Z</time>
      </trkpt>
      <trkpt lat="43.96814" lon="5.77851">
        <ele>594.56</ele>
        <time>2016-04-26T07:42:09Z</time>
      </trkpt>
      <trkpt lat="43.9685" lon="5.77807">
        <ele>597.36</ele>
        <time>2016-04-26T07:42:24Z</time>
      </trkpt>
      <trkpt lat="43.96887" lon="5.77768">
        <ele>600.37</ele>
        <time>2016-04-26T07:42:38Z</time>
      </trkpt>
      <trkpt lat="43.96924" lon="5.77728">
        <ele>602.64</ele>
        <time>2016-04-26T07:42:54Z</time>
      </trkpt>
      <trkpt lat="43.96963" lon="5.77691">
        <ele>605.74</ele>
        <time>2016-04-26T07:43:09Z</time>
      </trkpt>
      <trkpt lat="43.96997" lon="5.77671">
        <ele>607.52</ele>
        <time>2016-04-26T07:43:21Z</time>
      </trkpt>
      <trkpt lat="43.97" lon="5.77673">
        <ele>607.74</ele>
        <time>2016-04-26T07:43:22Z</time>
      </trkpt>
      <trkpt lat="43.97002" lon="5.77676">
        <ele>607.76</ele>
        <time>2016-04-26T07:43:23Z</time>
      </trkpt>
      <trkpt lat="43.97003" lon="5.7768">
        <ele>607.77</ele>
        <time>2016-04-26T07:43:24Z</time>
      </trkpt>
      <trkpt lat="43.97004" lon="5.77685">
        <ele>607.92</ele>
        <time>2016-04-26T07:43:25Z</time>
      </trkpt>
      <trkpt lat="43.97004" lon="5.77689">
        <ele>608.04</ele>
        <time>2016-04-26T07:43:26Z</time>
      </trkpt>
      <trkpt lat="43.97002" lon="5.77693">
        <ele>608.15</ele>
        <time>2016-04-26T07:43:27Z</time>
      </trkpt>
      <trkpt lat="43.97001" lon="5.77698">
        <ele>608.37</ele>
        <time>2016-04-26T07:43:28Z</time>
      </trkpt>
      <trkpt lat="43.97" lon="5.77701">
        <ele>608.56</ele>
        <time>2016-04-26T07:43:29Z</time>
      </trkpt>
      <trkpt lat="43.96998" lon="5.77705">
        <ele>608.61</ele>
        <time>2016-04-26T07:43:30Z</time>
      </trkpt>
      <trkpt lat="43.96997" lon="5.77709">
        <ele>608.62</ele>
        <time>2016-04-26T07:43:31Z</time>
      </trkpt>
      <trkpt lat="43.96977" lon="5.77773">
        <ele>610.9</ele>
        <time>2016-04-26T07:43:46Z</time>
      </trkpt>
      <trkpt lat="43.96963" lon="5.77837">
        <ele>613.47</ele>
        <time>2016-04-26T07:43:59Z</time>
      </trkpt>
      <trkpt lat="43.96948" lon="5.77901">
        <ele>616.5</ele>
        <time>2016-04-26T07:44:13Z</time>
      </trkpt>
      <trkpt lat="43.96957" lon="5.77955">
        <ele>619.08</ele>
        <time>2016-04-26T07:44:26Z</time>
      </trkpt>
      <trkpt lat="43.96961" lon="5.77954">
        <ele>619.3</ele>
        <time>2016-04-26T07:44:27Z</time>
      </trkpt>
      <trkpt lat="43.96964" lon="5.77952">
        <ele>619.67</ele>
        <time>2016-04-26T07:44:28Z</time>
      </trkpt>
      <trkpt lat="43.96968" lon="5.7795">
        <ele>620.03</ele>
        <time>2016-04-26T07:44:29Z</time>
      </trkpt>
      <trkpt lat="43.96971" lon="5.77948">
        <ele>620.26</ele>
        <time>2016-04-26T07:44:30Z</time>
      </trkpt>
      <trkpt lat="43.97011" lon="5.77906">
        <ele>622.78</ele>
        <time>2016-04-26T07:44:45Z</time>
      </trkpt>
      <trkpt lat="43.97047" lon="5.77867">
        <ele>625.95</ele>
        <time>2016-04-26T07:45:00Z</time>
      </trkpt>
      <trkpt lat="43.97084" lon="5.77824">
        <ele>628.45</ele>
        <time>2016-04-26T07:45:15Z</time>
      </trkpt>
      <trkpt lat="43.97119" lon="5.77778">
        <ele>630.54</ele>
        <time>2016-04-26T07:45:31Z</time>
      </trkpt>
      <trkpt lat="43.97151" lon="5.77731">
        <ele>633.74</ele>
        <time>2016-04-26T07:45:46Z</time>
      </trkpt>
      <trkpt lat="43.97185" lon="5.77686">
        <ele>635.98</ele>
        <time>2016-04-26T07:46:01Z</time>
      </trkpt>
      <trkpt lat="43.97219" lon="5.77638">
        <ele>637.74</ele>
        <time>2016-04-26T07:46:17Z</time>
      </trkpt>
      <trkpt lat="43.97251" lon="5.77591">
        <ele>640.97</ele>
        <time>2016-04-26T07:46:32Z</time>
      </trkpt>
      <trkpt lat="43.97298" lon="5.77587">
        <ele>643.01</ele>
        <time>2016-04-26T07:46:48Z</time>
      </trkpt>
      <trkpt lat="43.9734" lon="5.77627">
        <ele>646.15</ele>
        <time>2016-04-26T07:47:04Z</time>
      </trkpt>
      <trkpt lat="43.97381" lon="5.77664">
        <ele>648.62</ele>
        <time>2016-04-26T07:47:19Z</time>
      </trkpt>
      <trkpt lat="43.97422" lon="5.77698">
        <ele>651.55</ele>
        <time>2016-04-26T07:47:34Z</time>
      </trkpt>
      <trkpt lat="43.97463" lon="5.77711">
        <ele>654.8</ele>
        <time>2016-04-26T07:47:48Z</time>
      </trkpt>
      <trkpt lat="43.97513" lon="5.77722">
        <ele>656.33</ele>
        <time>2016-04-26T07:48:05Z</time>
      </trkpt>
      <trkpt lat="43.97551" lon="5.77705">
        <ele>659.43</ele>
        <time>2016-04-26T07:48:19Z</time>
      </trkpt>
      <trkpt lat="43.97588" lon="5.7766">
        <ele>662.14</ele>
        <time>2016-04-26T07:48:36Z</time>
      </trkpt>
      <trkpt lat="43.9761" lon="5.77631">
        <ele>663.44</ele>
        <time>2016-04-26T07:48:47Z</time>
      </trkpt>
      <trkpt lat="43.9765" lon="5.77589">
        <ele>666.02</ele>
        <time>2016-04-26T07:49:04Z</time>
      </trkpt>
      <trkpt lat="43.97668" lon="5.77573">
        <ele>668.61</ele>
        <time>2016-04-26T07:49:11Z</time>
      </trkpt>
      <trkpt lat="43.97706" lon="5.7753">
        <ele>670.85</ele>
        <time>2016-04-26T07:49:29Z</time>
      </trkpt>
      <trkpt lat="43.97741" lon="5.77478">
        <ele>673.23</ele>
        <time>2016-04-26T07:49:47Z</time>
      </trkpt>
      <trkpt lat="43.97785" lon="5.77485">
        <ele>674.2</ele>
        <time>2016-04-26T07:50:02Z</time>
      </trkpt>
      <trkpt lat="43.97819" lon="5.77528">
        <ele>677.02</ele>
        <time>2016-04-26T07:50:17Z</time>
      </trkpt>
      <trkpt lat="43.97834" lon="5.77582">
        <ele>678.85</ele>
        <time>2016-04-26T07:50:30Z</time>
      </trkpt>
      <trkpt lat="43.97848" lon="5.77614">
        <ele>679.87</ele>
        <time>2016-04-26T07:50:37Z</time>
      </trkpt>
      <trkpt lat="43.97878" lon="5.77669">
        <ele>680.99</ele>
        <time>2016-04-26T07:50:49Z</time>
      </trkpt>
      <trkpt lat="43.97903" lon="5.77729">
        <ele>681.49</ele>
        <time>2016-04-26T07:51:01Z</time>
      </trkpt>
      <trkpt lat="43.97907" lon="5.77741">
        <ele>681.46</ele>
        <time>2016-04-26T07:51:03Z</time>
      </trkpt>
      <trkpt lat="43.97918" lon="5.7776">
        <ele>682.34</ele>
        <time>2016-04-26T07:51:07Z</time>
      </trkpt>
      <trkpt lat="43.97921" lon="5.77763">
        <ele>682.59</ele>
        <time>2016-04-26T07:51:08Z</time>
      </trkpt>
      <trkpt lat="43.97925" lon="5.77766">
        <ele>682.68</ele>
        <time>2016-04-26T07:51:09Z</time>
      </trkpt>
      <trkpt lat="43.97929" lon="5.77769">
        <ele>682.62</ele>
        <time>2016-04-26T07:51:10Z</time>
      </trkpt>
      <trkpt lat="43.97933" lon="5.7777">
        <ele>682.54</ele>
        <time>2016-04-26T07:51:11Z</time>
      </trkpt>
      <trkpt lat="43.97938" lon="5.77771">
        <ele>682.49</ele>
        <time>2016-04-26T07:51:12Z</time>
      </trkpt>
      <trkpt lat="43.9796" lon="5.77774">
        <ele>682.29</ele>
        <time>2016-04-26T07:51:17Z</time>
      </trkpt>
      <trkpt lat="43.97965" lon="5.77777">
        <ele>682.06</ele>
        <time>2016-04-26T07:51:18Z</time>
      </trkpt>
      <trkpt lat="43.97969" lon="5.77779">
        <ele>681.9</ele>
        <time>2016-04-26T07:51:19Z</time>
      </trkpt>
      <trkpt lat="43.97973" lon="5.77782">
        <ele>681.78</ele>
        <time>2016-04-26T07:51:20Z</time>
      </trkpt>
      <trkpt lat="43.97977" lon="5.77786">
        <ele>681.74</ele>
        <time>2016-04-26T07:51:21Z</time>
      </trkpt>
      <trkpt lat="43.97981" lon="5.7779">
        <ele>681.76</ele>
        <time>2016-04-26T07:51:22Z</time>
      </trkpt>
      <trkpt lat="43.97984" lon="5.77794">
        <ele>681.84</ele>
        <time>2016-04-26T07:51:23Z</time>
      </trkpt>
      <trkpt lat="43.97987" lon="5.77799">
        <ele>681.85</ele>
        <time>2016-04-26T07:51:24Z</time>
      </trkpt>
      <trkpt lat="43.98005" lon="5.7783">
        <ele>681.78</ele>
        <time>2016-04-26T07:51:30Z</time>
      </trkpt>
      <trkpt lat="43.98009" lon="5.77834">
        <ele>681.88</ele>
        <time>2016-04-26T07:51:31Z</time>
      </trkpt>
      <trkpt lat="43.98013" lon="5.77837">
        <ele>681.86</ele>
        <time>2016-04-26T07:51:32Z</time>
      </trkpt>
      <trkpt lat="43.98017" lon="5.77839">
        <ele>681.76</ele>
        <time>2016-04-26T07:51:33Z</time>
      </trkpt>
      <trkpt lat="43.98022" lon="5.77841">
        <ele>681.69</ele>
        <time>2016-04-26T07:51:34Z</time>
      </trkpt>
      <trkpt lat="43.98027" lon="5.7784">
        <ele>681.68</ele>
        <time>2016-04-26T07:51:35Z</time>
      </trkpt>
      <trkpt lat="43.98031" lon="5.77839">
        <ele>681.86</ele>
        <time>2016-04-26T07:51:36Z</time>
      </trkpt>
      <trkpt lat="43.98036" lon="5.77835">
        <ele>682.26</ele>
        <time>2016-04-26T07:51:37Z</time>
      </trkpt>
      <trkpt lat="43.9804" lon="5.7783">
        <ele>682.71</ele>
        <time>2016-04-26T07:51:38Z</time>
      </trkpt>
      <trkpt lat="43.98043" lon="5.77824">
        <ele>683.08</ele>
        <time>2016-04-26T07:51:39Z</time>
      </trkpt>
      <trkpt lat="43.98046" lon="5.77818">
        <ele>683.37</ele>
        <time>2016-04-26T07:51:40Z</time>
      </trkpt>
      <trkpt lat="43.98074" lon="5.77759">
        <ele>681.29</ele>
        <time>2016-04-26T07:51:48Z</time>
      </trkpt>
      <trkpt lat="43.981" lon="5.77692">
        <ele>681.61</ele>
        <time>2016-04-26T07:51:56Z</time>
      </trkpt>
      <trkpt lat="43.98131" lon="5.77619">
        <ele>678.22</ele>
        <time>2016-04-26T07:52:05Z</time>
      </trkpt>
      <trkpt lat="43.98136" lon="5.77611">
        <ele>678.02</ele>
        <time>2016-04-26T07:52:06Z</time>
      </trkpt>
      <trkpt lat="43.98142" lon="5.77605">
        <ele>677.85</ele>
        <time>2016-04-26T07:52:07Z</time>
      </trkpt>
      <trkpt lat="43.98149" lon="5.77599">
        <ele>677.91</ele>
        <time>2016-04-26T07:52:08Z</time>
      </trkpt>
      <trkpt lat="43.98189" lon="5.77558">
        <ele>676.86</ele>
        <time>2016-04-26T07:52:15Z</time>
      </trkpt>
      <trkpt lat="43.98234" lon="5.77515">
        <ele>675.61</ele>
        <time>2016-04-26T07:52:24Z</time>
      </trkpt>
      <trkpt lat="43.98276" lon="5.77472">
        <ele>674.59</ele>
        <time>2016-04-26T07:52:32Z</time>
      </trkpt>
      <trkpt lat="43.983" lon="5.77442">
        <ele>674.34</ele>
        <time>2016-04-26T07:52:37Z</time>
      </trkpt>
      <trkpt lat="43.98306" lon="5.77437">
        <ele>673.84</ele>
        <time>2016-04-26T07:52:38Z</time>
      </trkpt>
      <trkpt lat="43.98352" lon="5.77407">
        <ele>673.05</ele>
        <time>2016-04-26T07:52:46Z</time>
      </trkpt>
      <trkpt lat="43.98359" lon="5.77404">
        <ele>673.02</ele>
        <time>2016-04-26T07:52:47Z</time>
      </trkpt>
      <trkpt lat="43.98365" lon="5.77404">
        <ele>673.06</ele>
        <time>2016-04-26T07:52:48Z</time>
      </trkpt>
      <trkpt lat="43.98371" lon="5.77408">
        <ele>672.89</ele>
        <time>2016-04-26T07:52:49Z</time>
      </trkpt>
      <trkpt lat="43.98374" lon="5.77415">
        <ele>672.64</ele>
        <time>2016-04-26T07:52:50Z</time>
      </trkpt>
      <trkpt lat="43.98377" lon="5.77423">
        <ele>672.22</ele>
        <time>2016-04-26T07:52:51Z</time>
      </trkpt>
      <trkpt lat="43.98379" lon="5.77432">
        <ele>671.9</ele>
        <time>2016-04-26T07:52:52Z</time>
      </trkpt>
      <trkpt lat="43.98379" lon="5.77442">
        <ele>671.66</ele>
        <time>2016-04-26T07:52:53Z</time>
      </trkpt>
      <trkpt lat="43.9838" lon="5.77452">
        <ele>671.36</ele>
        <time>2016-04-26T07:52:54Z</time>
      </trkpt>
      <trkpt lat="43.98385" lon="5.77526">
        <ele>672.11</ele>
        <time>2016-04-26T07:53:03Z</time>
      </trkpt>
      <trkpt lat="43.98386" lon="5.77533">
        <ele>672.34</ele>
        <time>2016-04-26T07:53:04Z</time>
      </trkpt>
      <trkpt lat="43.98388" lon="5.77539">
        <ele>672.61</ele>
        <time>2016-04-26T07:53:05Z</time>
      </trkpt>
      <trkpt lat="43.98394" lon="5.7755">
        <ele>672.59</ele>
        <time>2016-04-26T07:53:07Z</time>
      </trkpt>
      <trkpt lat="43.98397" lon="5.77555">
        <ele>672.48</ele>
        <time>2016-04-26T07:53:08Z</time>
      </trkpt>
      <trkpt lat="43.9843" lon="5.77609">
        <ele>673.29</ele>
        <time>2016-04-26T07:53:18Z</time>
      </trkpt>
      <trkpt lat="43.98455" lon="5.77647">
        <ele>673.54</ele>
        <time>2016-04-26T07:53:25Z</time>
      </trkpt>
      <trkpt lat="43.9846" lon="5.7765">
        <ele>673.28</ele>
        <time>2016-04-26T07:53:26Z</time>
      </trkpt>
      <trkpt lat="43.98465" lon="5.77651">
        <ele>673.2</ele>
        <time>2016-04-26T07:53:27Z</time>
      </trkpt>
      <trkpt lat="43.98471" lon="5.7765">
        <ele>673.51</ele>
        <time>2016-04-26T07:53:28Z</time>
      </trkpt>
      <trkpt lat="43.98476" lon="5.77646">
        <ele>673.98</ele>
        <time>2016-04-26T07:53:29Z</time>
      </trkpt>
      <trkpt lat="43.98481" lon="5.77642">
        <ele>674.17</ele>
        <time>2016-04-26T07:53:30Z</time>
      </trkpt>
      <trkpt lat="43.98486" lon="5.77637">
        <ele>673.82</ele>
        <time>2016-04-26T07:53:31Z</time>
      </trkpt>
      <trkpt lat="43.98525" lon="5.77588">
        <ele>672.9</ele>
        <time>2016-04-26T07:53:38Z</time>
      </trkpt>
      <trkpt lat="43.98538" lon="5.77576">
        <ele>672.22</ele>
        <time>2016-04-26T07:53:40Z</time>
      </trkpt>
      <trkpt lat="43.98545" lon="5.77572">
        <ele>671.79</ele>
        <time>2016-04-26T07:53:41Z</time>
      </trkpt>
      <trkpt lat="43.98552" lon="5.77569">
        <ele>671.54</ele>
        <time>2016-04-26T07:53:42Z</time>
      </trkpt>
      <trkpt lat="43.98559" lon="5.77567">
        <ele>671.66</ele>
        <time>2016-04-26T07:53:43Z</time>
      </trkpt>
      <trkpt lat="43.98567" lon="5.77566">
        <ele>671.78</ele>
        <time>2016-04-26T07:53:44Z</time>
      </trkpt>
      <trkpt lat="43.98622" lon="5.77556">
        <ele>671.61</ele>
        <time>2016-04-26T07:53:51Z</time>
      </trkpt>
      <trkpt lat="43.98647" lon="5.77556">
        <ele>669.14</ele>
        <time>2016-04-26T07:53:54Z</time>
      </trkpt>
      <trkpt lat="43.98655" lon="5.77559">
        <ele>668.05</ele>
        <time>2016-04-26T07:53:55Z</time>
      </trkpt>
      <trkpt lat="43.98662" lon="5.77565">
        <ele>667.15</ele>
        <time>2016-04-26T07:53:56Z</time>
      </trkpt>
      <trkpt lat="43.98667" lon="5.77573">
        <ele>665.68</ele>
        <time>2016-04-26T07:53:57Z</time>
      </trkpt>
      <trkpt lat="43.98669" lon="5.77583">
        <ele>664.73</ele>
        <time>2016-04-26T07:53:58Z</time>
      </trkpt>
      <trkpt lat="43.9867" lon="5.77594">
        <ele>664.52</ele>
        <time>2016-04-26T07:53:59Z</time>
      </trkpt>
      <trkpt lat="43.9867" lon="5.77604">
        <ele>664.42</ele>
        <time>2016-04-26T07:54:00Z</time>
      </trkpt>
      <trkpt lat="43.98672" lon="5.77635">
        <ele>665.09</ele>
        <time>2016-04-26T07:54:03Z</time>
      </trkpt>
      <trkpt lat="43.98674" lon="5.77645">
        <ele>665.41</ele>
        <time>2016-04-26T07:54:04Z</time>
      </trkpt>
      <trkpt lat="43.98677" lon="5.77654">
        <ele>665.41</ele>
        <time>2016-04-26T07:54:05Z</time>
      </trkpt>
      <trkpt lat="43.98681" lon="5.77662">
        <ele>664.85</ele>
        <time>2016-04-26T07:54:06Z</time>
      </trkpt>
      <trkpt lat="43.98686" lon="5.77671">
        <ele>664.41</ele>
        <time>2016-04-26T07:54:07Z</time>
      </trkpt>
      <trkpt lat="43.98692" lon="5.77679">
        <ele>664.31</ele>
        <time>2016-04-26T07:54:08Z</time>
      </trkpt>
      <trkpt lat="43.98699" lon="5.77685">
        <ele>664.36</ele>
        <time>2016-04-26T07:54:09Z</time>
      </trkpt>
      <trkpt lat="43.98706" lon="5.77692">
        <ele>664.17</ele>
        <time>2016-04-26T07:54:10Z</time>
      </trkpt>
      <trkpt lat="43.98714" lon="5.77699">
        <ele>663.87</ele>
        <time>2016-04-26T07:54:11Z</time>
      </trkpt>
      <trkpt lat="43.98721" lon="5.77707">
        <ele>663.5</ele>
        <time>2016-04-26T07:54:12Z</time>
      </trkpt>
      <trkpt lat="43.98726" lon="5.77716">
        <ele>663.05</ele>
        <time>2016-04-26T07:54:13Z</time>
      </trkpt>
      <trkpt lat="43.98731" lon="5.77725">
        <ele>662.7</ele>
        <time>2016-04-26T07:54:14Z</time>
      </trkpt>
      <trkpt lat="43.98735" lon="5.77734">
        <ele>662.42</ele>
        <time>2016-04-26T07:54:15Z</time>
      </trkpt>
      <trkpt lat="43.98765" lon="5.77794">
        <ele>662.32</ele>
        <time>2016-04-26T07:54:24Z</time>
      </trkpt>
      <trkpt lat="43.98801" lon="5.77841">
        <ele>662.48</ele>
        <time>2016-04-26T07:54:32Z</time>
      </trkpt>
      <trkpt lat="43.98829" lon="5.77877">
        <ele>660.71</ele>
        <time>2016-04-26T07:54:37Z</time>
      </trkpt>
      <trkpt lat="43.9886" lon="5.77916">
        <ele>659.02</ele>
        <time>2016-04-26T07:54:42Z</time>
      </trkpt>
      <trkpt lat="43.98891" lon="5.77959">
        <ele>658.46</ele>
        <time>2016-04-26T07:54:47Z</time>
      </trkpt>
      <trkpt lat="43.98896" lon="5.77968">
        <ele>658.56</ele>
        <time>2016-04-26T07:54:48Z</time>
      </trkpt>
      <trkpt lat="43.989" lon="5.77979">
        <ele>658.72</ele>
        <time>2016-04-26T07:54:49Z</time>
      </trkpt>
      <trkpt lat="43.98903" lon="5.77989">
        <ele>658.81</ele>
        <time>2016-04-26T07:54:50Z</time>
      </trkpt>
      <trkpt lat="43.98905" lon="5.77999">
        <ele>658.72</ele>
        <time>2016-04-26T07:54:51Z</time>
      </trkpt>
      <trkpt lat="43.98907" lon="5.7801">
        <ele>658.51</ele>
        <time>2016-04-26T07:54:52Z</time>
      </trkpt>
      <trkpt lat="43.98918" lon="5.78078">
        <ele>657.78</ele>
        <time>2016-04-26T07:54:59Z</time>
      </trkpt>
      <trkpt lat="43.98923" lon="5.78102">
        <ele>658.17</ele>
        <time>2016-04-26T07:55:02Z</time>
      </trkpt>
      <trkpt lat="43.98926" lon="5.78109">
        <ele>658.33</ele>
        <time>2016-04-26T07:55:03Z</time>
      </trkpt>
      <trkpt lat="43.98957" lon="5.78167">
        <ele>659.69</ele>
        <time>2016-04-26T07:55:13Z</time>
      </trkpt>
      <trkpt lat="43.9896" lon="5.78172">
        <ele>659.85</ele>
        <time>2016-04-26T07:55:14Z</time>
      </trkpt>
      <trkpt lat="43.98964" lon="5.78177">
        <ele>660.37</ele>
        <time>2016-04-26T07:55:15Z</time>
      </trkpt>
      <trkpt lat="43.98968" lon="5.78182">
        <ele>660.77</ele>
        <time>2016-04-26T07:55:16Z</time>
      </trkpt>
      <trkpt lat="43.98972" lon="5.78186">
        <ele>660.83</ele>
        <time>2016-04-26T07:55:17Z</time>
      </trkpt>
      <trkpt lat="43.98977" lon="5.7819">
        <ele>660.81</ele>
        <time>2016-04-26T07:55:18Z</time>
      </trkpt>
      <trkpt lat="43.98981" lon="5.78193">
        <ele>660.7</ele>
        <time>2016-04-26T07:55:19Z</time>
      </trkpt>
      <trkpt lat="43.98991" lon="5.78197">
        <ele>660.59</ele>
        <time>2016-04-26T07:55:21Z</time>
      </trkpt>
      <trkpt lat="43.98996" lon="5.78198">
        <ele>660.62</ele>
        <time>2016-04-26T07:55:22Z</time>
      </trkpt>
      <trkpt lat="43.99018" lon="5.78205">
        <ele>660.24</ele>
        <time>2016-04-26T07:55:26Z</time>
      </trkpt>
      <trkpt lat="43.99023" lon="5.78208">
        <ele>660.09</ele>
        <time>2016-04-26T07:55:27Z</time>
      </trkpt>
      <trkpt lat="43.99029" lon="5.78212">
        <ele>659.84</ele>
        <time>2016-04-26T07:55:28Z</time>
      </trkpt>
      <trkpt lat="43.99034" lon="5.78217">
        <ele>659.76</ele>
        <time>2016-04-26T07:55:29Z</time>
      </trkpt>
      <trkpt lat="43.99039" lon="5.78223">
        <ele>659.8</ele>
        <time>2016-04-26T07:55:30Z</time>
      </trkpt>
      <trkpt lat="43.99044" lon="5.78229">
        <ele>659.77</ele>
        <time>2016-04-26T07:55:31Z</time>
      </trkpt>
      <trkpt lat="43.99048" lon="5.78235">
        <ele>659.59</ele>
        <time>2016-04-26T07:55:32Z</time>
      </trkpt>
      <trkpt lat="43.99083" lon="5.78291">
        <ele>659.81</ele>
        <time>2016-04-26T07:55:41Z</time>
      </trkpt>
      <trkpt lat="43.99118" lon="5.78339">
        <ele>660.81</ele>
        <time>2016-04-26T07:55:50Z</time>
      </trkpt>
      <trkpt lat="43.99124" lon="5.78351">
        <ele>661.07</ele>
        <time>2016-04-26T07:55:52Z</time>
      </trkpt>
      <trkpt lat="43.99125" lon="5.78357">
        <ele>661.14</ele>
        <time>2016-04-26T07:55:53Z</time>
      </trkpt>
      <trkpt lat="43.99126" lon="5.78371">
        <ele>661.13</ele>
        <time>2016-04-26T07:55:55Z</time>
      </trkpt>
      <trkpt lat="43.99126" lon="5.78378">
        <ele>661.05</ele>
        <time>2016-04-26T07:55:56Z</time>
      </trkpt>
      <trkpt lat="43.99126" lon="5.78385">
        <ele>661.07</ele>
        <time>2016-04-26T07:55:57Z</time>
      </trkpt>
      <trkpt lat="43.99127" lon="5.78392">
        <ele>661.11</ele>
        <time>2016-04-26T07:55:58Z</time>
      </trkpt>
      <trkpt lat="43.99127" lon="5.78398">
        <ele>661.16</ele>
        <time>2016-04-26T07:55:59Z</time>
      </trkpt>
      <trkpt lat="43.99129" lon="5.78405">
        <ele>661.2</ele>
        <time>2016-04-26T07:56:00Z</time>
      </trkpt>
      <trkpt lat="43.99131" lon="5.78411">
        <ele>661.29</ele>
        <time>2016-04-26T07:56:01Z</time>
      </trkpt>
      <trkpt lat="43.99133" lon="5.78418">
        <ele>661.36</ele>
        <time>2016-04-26T07:56:02Z</time>
      </trkpt>
      <trkpt lat="43.99163" lon="5.78478">
        <ele>662.63</ele>
        <time>2016-04-26T07:56:12Z</time>
      </trkpt>
      <trkpt lat="43.99196" lon="5.78534">
        <ele>663.16</ele>
        <time>2016-04-26T07:56:21Z</time>
      </trkpt>
      <trkpt lat="43.99201" lon="5.7854">
        <ele>663.15</ele>
        <time>2016-04-26T07:56:22Z</time>
      </trkpt>
      <trkpt lat="43.99207" lon="5.78545">
        <ele>663.22</ele>
        <time>2016-04-26T07:56:23Z</time>
      </trkpt>
      <trkpt lat="43.99213" lon="5.7855">
        <ele>663.44</ele>
        <time>2016-04-26T07:56:24Z</time>
      </trkpt>
      <trkpt lat="43.99219" lon="5.78553">
        <ele>663.42</ele>
        <time>2016-04-26T07:56:25Z</time>
      </trkpt>
      <trkpt lat="43.99226" lon="5.78555">
        <ele>663.16</ele>
        <time>2016-04-26T07:56:26Z</time>
      </trkpt>
      <trkpt lat="43.99233" lon="5.78555">
        <ele>662.87</ele>
        <time>2016-04-26T07:56:27Z</time>
      </trkpt>
      <trkpt lat="43.99241" lon="5.78555">
        <ele>662.58</ele>
        <time>2016-04-26T07:56:28Z</time>
      </trkpt>
      <trkpt lat="43.99249" lon="5.78553">
        <ele>662.38</ele>
        <time>2016-04-26T07:56:29Z</time>
      </trkpt>
      <trkpt lat="43.99256" lon="5.78552">
        <ele>662.26</ele>
        <time>2016-04-26T07:56:30Z</time>
      </trkpt>
      <trkpt lat="43.99305" lon="5.78534">
        <ele>662.04</ele>
        <time>2016-04-26T07:56:37Z</time>
      </trkpt>
      <trkpt lat="43.99357" lon="5.78514">
        <ele>660.5</ele>
        <time>2016-04-26T07:56:46Z</time>
      </trkpt>
      <trkpt lat="43.99409" lon="5.78497">
        <ele>660.23</ele>
        <time>2016-04-26T07:56:56Z</time>
      </trkpt>
      <trkpt lat="43.99453" lon="5.78484">
        <ele>660.02</ele>
        <time>2016-04-26T07:57:06Z</time>
      </trkpt>
      <trkpt lat="43.99457" lon="5.78484">
        <ele>660.19</ele>
        <time>2016-04-26T07:57:07Z</time>
      </trkpt>
      <trkpt lat="43.99462" lon="5.78484">
        <ele>660.23</ele>
        <time>2016-04-26T07:57:08Z</time>
      </trkpt>
      <trkpt lat="43.99467" lon="5.78486">
        <ele>660.24</ele>
        <time>2016-04-26T07:57:09Z</time>
      </trkpt>
      <trkpt lat="43.99472" lon="5.78488">
        <ele>660.3</ele>
        <time>2016-04-26T07:57:10Z</time>
      </trkpt>
      <trkpt lat="43.99476" lon="5.78492">
        <ele>660.35</ele>
        <time>2016-04-26T07:57:11Z</time>
      </trkpt>
      <trkpt lat="43.9948" lon="5.78495">
        <ele>660.42</ele>
        <time>2016-04-26T07:57:12Z</time>
      </trkpt>
      <trkpt lat="43.99483" lon="5.785">
        <ele>660.39</ele>
        <time>2016-04-26T07:57:13Z</time>
      </trkpt>
      <trkpt lat="43.99486" lon="5.78505">
        <ele>659.92</ele>
        <time>2016-04-26T07:57:14Z</time>
      </trkpt>
      <trkpt lat="43.99488" lon="5.7851">
        <ele>659.6</ele>
        <time>2016-04-26T07:57:15Z</time>
      </trkpt>
      <trkpt lat="43.99494" lon="5.78525">
        <ele>659.7</ele>
        <time>2016-04-26T07:57:18Z</time>
      </trkpt>
      <trkpt lat="43.99496" lon="5.78531">
        <ele>659.91</ele>
        <time>2016-04-26T07:57:19Z</time>
      </trkpt>
      <trkpt lat="43.99496" lon="5.78537">
        <ele>659.95</ele>
        <time>2016-04-26T07:57:20Z</time>
      </trkpt>
      <trkpt lat="43.99496" lon="5.78543">
        <ele>659.82</ele>
        <time>2016-04-26T07:57:21Z</time>
      </trkpt>
      <trkpt lat="43.99496" lon="5.7855">
        <ele>659.82</ele>
        <time>2016-04-26T07:57:22Z</time>
      </trkpt>
      <trkpt lat="43.99494" lon="5.78556">
        <ele>659.88</ele>
        <time>2016-04-26T07:57:23Z</time>
      </trkpt>
      <trkpt lat="43.99491" lon="5.78561">
        <ele>659.91</ele>
        <time>2016-04-26T07:57:24Z</time>
      </trkpt>
      <trkpt lat="43.99488" lon="5.78567">
        <ele>659.95</ele>
        <time>2016-04-26T07:57:25Z</time>
      </trkpt>
      <trkpt lat="43.99477" lon="5.78587">
        <ele>660.17</ele>
        <time>2016-04-26T07:57:29Z</time>
      </trkpt>
      <trkpt lat="43.99466" lon="5.78612">
        <ele>661.21</ele>
        <time>2016-04-26T07:57:34Z</time>
      </trkpt>
      <trkpt lat="43.99465" lon="5.78617">
        <ele>661.44</ele>
        <time>2016-04-26T07:57:35Z</time>
      </trkpt>
      <trkpt lat="43.99463" lon="5.78622">
        <ele>661.62</ele>
        <time>2016-04-26T07:57:36Z</time>
      </trkpt>
      <trkpt lat="43.99461" lon="5.78626">
        <ele>661.67</ele>
        <time>2016-04-26T07:57:37Z</time>
      </trkpt>
      <trkpt lat="43.99459" lon="5.78631">
        <ele>661.68</ele>
        <time>2016-04-26T07:57:38Z</time>
      </trkpt>
      <trkpt lat="43.99451" lon="5.7865">
        <ele>662.18</ele>
        <time>2016-04-26T07:57:42Z</time>
      </trkpt>
      <trkpt lat="43.9943" lon="5.78709">
        <ele>664.3</ele>
        <time>2016-04-26T07:57:54Z</time>
      </trkpt>
      <trkpt lat="43.99423" lon="5.78784">
        <ele>665.81</ele>
        <time>2016-04-26T07:58:07Z</time>
      </trkpt>
      <trkpt lat="43.99431" lon="5.78817">
        <ele>667.2</ele>
        <time>2016-04-26T07:58:13Z</time>
      </trkpt>
      <trkpt lat="43.99457" lon="5.78875">
        <ele>669.15</ele>
        <time>2016-04-26T07:58:25Z</time>
      </trkpt>
      <trkpt lat="43.99482" lon="5.78931">
        <ele>671.16</ele>
        <time>2016-04-26T07:58:38Z</time>
      </trkpt>
      <trkpt lat="43.99507" lon="5.78979">
        <ele>673.31</ele>
        <time>2016-04-26T07:58:49Z</time>
      </trkpt>
      <trkpt lat="43.99553" lon="5.78999">
        <ele>675.29</ele>
        <time>2016-04-26T07:59:02Z</time>
      </trkpt>
      <trkpt lat="43.99603" lon="5.79012">
        <ele>678.09</ele>
        <time>2016-04-26T07:59:16Z</time>
      </trkpt>
      <trkpt lat="43.99652" lon="5.79018">
        <ele>679.75</ele>
        <time>2016-04-26T07:59:28Z</time>
      </trkpt>
      <trkpt lat="43.99702" lon="5.79027">
        <ele>680.42</ele>
        <time>2016-04-26T07:59:40Z</time>
      </trkpt>
      <trkpt lat="43.99713" lon="5.79036">
        <ele>680.89</ele>
        <time>2016-04-26T07:59:43Z</time>
      </trkpt>
      <trkpt lat="43.99754" lon="5.79081">
        <ele>680.72</ele>
        <time>2016-04-26T07:59:53Z</time>
      </trkpt>
      <trkpt lat="43.99789" lon="5.79115">
        <ele>681.32</ele>
        <time>2016-04-26T08:00:01Z</time>
      </trkpt>
      <trkpt lat="43.99834" lon="5.79136">
        <ele>683.15</ele>
        <time>2016-04-26T08:00:11Z</time>
      </trkpt>
      <trkpt lat="43.99887" lon="5.7914">
        <ele>683.66</ele>
        <time>2016-04-26T08:00:21Z</time>
      </trkpt>
      <trkpt lat="43.99937" lon="5.79137">
        <ele>683.84</ele>
        <time>2016-04-26T08:00:30Z</time>
      </trkpt>
      <trkpt lat="43.99987" lon="5.79134">
        <ele>684.64</ele>
        <time>2016-04-26T08:00:39Z</time>
      </trkpt>
      <trkpt lat="44.0004" lon="5.7913">
        <ele>685.01</ele>
        <time>2016-04-26T08:00:49Z</time>
      </trkpt>
      <trkpt lat="44.00071" lon="5.7913">
        <ele>684.99</ele>
        <time>2016-04-26T08:00:55Z</time>
      </trkpt>
      <trkpt lat="44.00076" lon="5.79131">
        <ele>685.05</ele>
        <time>2016-04-26T08:00:56Z</time>
      </trkpt>
      <trkpt lat="44.00091" lon="5.79137">
        <ele>685.02</ele>
        <time>2016-04-26T08:00:59Z</time>
      </trkpt>
      <trkpt lat="44.00142" lon="5.79152">
        <ele>687</ele>
        <time>2016-04-26T08:01:11Z</time>
      </trkpt>
      <trkpt lat="44.00194" lon="5.79148">
        <ele>688.62</ele>
        <time>2016-04-26T08:01:22Z</time>
      </trkpt>
      <trkpt lat="44.00243" lon="5.79158">
        <ele>687.29</ele>
        <time>2016-04-26T08:01:30Z</time>
      </trkpt>
      <trkpt lat="44.00256" lon="5.79167">
        <ele>686.16</ele>
        <time>2016-04-26T08:01:32Z</time>
      </trkpt>
      <trkpt lat="44.00262" lon="5.79173">
        <ele>685.79</ele>
        <time>2016-04-26T08:01:33Z</time>
      </trkpt>
      <trkpt lat="44.00305" lon="5.79217">
        <ele>686.16</ele>
        <time>2016-04-26T08:01:41Z</time>
      </trkpt>
      <trkpt lat="44.00346" lon="5.79261">
        <ele>687.36</ele>
        <time>2016-04-26T08:01:50Z</time>
      </trkpt>
      <trkpt lat="44.00377" lon="5.79301">
        <ele>688.21</ele>
        <time>2016-04-26T08:01:58Z</time>
      </trkpt>
      <trkpt lat="44.00401" lon="5.7933">
        <ele>690.06</ele>
        <time>2016-04-26T08:02:05Z</time>
      </trkpt>
      <trkpt lat="44.00405" lon="5.79333">
        <ele>690.28</ele>
        <time>2016-04-26T08:02:06Z</time>
      </trkpt>
      <trkpt lat="44.00409" lon="5.79336">
        <ele>690.45</ele>
        <time>2016-04-26T08:02:07Z</time>
      </trkpt>
      <trkpt lat="44.00413" lon="5.79338">
        <ele>690.53</ele>
        <time>2016-04-26T08:02:08Z</time>
      </trkpt>
      <trkpt lat="44.00419" lon="5.7934">
        <ele>690.81</ele>
        <time>2016-04-26T08:02:09Z</time>
      </trkpt>
      <trkpt lat="44.00424" lon="5.79341">
        <ele>691.11</ele>
        <time>2016-04-26T08:02:10Z</time>
      </trkpt>
      <trkpt lat="44.00429" lon="5.79342">
        <ele>691.22</ele>
        <time>2016-04-26T08:02:11Z</time>
      </trkpt>
      <trkpt lat="44.0048" lon="5.79341">
        <ele>692.26</ele>
        <time>2016-04-26T08:02:21Z</time>
      </trkpt>
      <trkpt lat="44.00535" lon="5.79336">
        <ele>692.92</ele>
        <time>2016-04-26T08:02:31Z</time>
      </trkpt>
      <trkpt lat="44.00588" lon="5.79331">
        <ele>693.78</ele>
        <time>2016-04-26T08:02:41Z</time>
      </trkpt>
      <trkpt lat="44.00613" lon="5.79325">
        <ele>695.07</ele>
        <time>2016-04-26T08:02:47Z</time>
      </trkpt>
      <trkpt lat="44.0065" lon="5.79299">
        <ele>698.12</ele>
        <time>2016-04-26T08:02:58Z</time>
      </trkpt>
      <trkpt lat="44.00664" lon="5.79286">
        <ele>700.3</ele>
        <time>2016-04-26T08:03:03Z</time>
      </trkpt>
      <trkpt lat="44.007" lon="5.79255">
        <ele>702.52</ele>
        <time>2016-04-26T08:03:13Z</time>
      </trkpt>
      <trkpt lat="44.00704" lon="5.79253">
        <ele>702.42</ele>
        <time>2016-04-26T08:03:14Z</time>
      </trkpt>
      <trkpt lat="44.00709" lon="5.79251">
        <ele>702.28</ele>
        <time>2016-04-26T08:03:15Z</time>
      </trkpt>
      <trkpt lat="44.00714" lon="5.79251">
        <ele>702.21</ele>
        <time>2016-04-26T08:03:16Z</time>
      </trkpt>
      <trkpt lat="44.00717" lon="5.79251">
        <ele>702.33</ele>
        <time>2016-04-26T08:03:17Z</time>
      </trkpt>
      <trkpt lat="44.00722" lon="5.79253">
        <ele>702.49</ele>
        <time>2016-04-26T08:03:18Z</time>
      </trkpt>
      <trkpt lat="44.00726" lon="5.79254">
        <ele>702.59</ele>
        <time>2016-04-26T08:03:19Z</time>
      </trkpt>
      <trkpt lat="44.00731" lon="5.79257">
        <ele>702.64</ele>
        <time>2016-04-26T08:03:20Z</time>
      </trkpt>
      <trkpt lat="44.00735" lon="5.79259">
        <ele>702.71</ele>
        <time>2016-04-26T08:03:21Z</time>
      </trkpt>
      <trkpt lat="44.00739" lon="5.79263">
        <ele>702.59</ele>
        <time>2016-04-26T08:03:22Z</time>
      </trkpt>
      <trkpt lat="44.00779" lon="5.79301">
        <ele>702.29</ele>
        <time>2016-04-26T08:03:32Z</time>
      </trkpt>
      <trkpt lat="44.00801" lon="5.79315">
        <ele>700.68</ele>
        <time>2016-04-26T08:03:36Z</time>
      </trkpt>
      <trkpt lat="44.00805" lon="5.7932">
        <ele>699.74</ele>
        <time>2016-04-26T08:03:37Z</time>
      </trkpt>
      <trkpt lat="44.00809" lon="5.79327">
        <ele>698.96</ele>
        <time>2016-04-26T08:03:38Z</time>
      </trkpt>
      <trkpt lat="44.00811" lon="5.79336">
        <ele>698.43</ele>
        <time>2016-04-26T08:03:39Z</time>
      </trkpt>
      <trkpt lat="44.00813" lon="5.79346">
        <ele>698.11</ele>
        <time>2016-04-26T08:03:40Z</time>
      </trkpt>
      <trkpt lat="44.00815" lon="5.79356">
        <ele>697.85</ele>
        <time>2016-04-26T08:03:41Z</time>
      </trkpt>
      <trkpt lat="44.00826" lon="5.79418">
        <ele>696.51</ele>
        <time>2016-04-26T08:03:47Z</time>
      </trkpt>
      <trkpt lat="44.00829" lon="5.79427">
        <ele>696.59</ele>
        <time>2016-04-26T08:03:48Z</time>
      </trkpt>
      <trkpt lat="44.00833" lon="5.79435">
        <ele>696.77</ele>
        <time>2016-04-26T08:03:49Z</time>
      </trkpt>
      <trkpt lat="44.00841" lon="5.79451">
        <ele>696.52</ele>
        <time>2016-04-26T08:03:51Z</time>
      </trkpt>
      <trkpt lat="44.00843" lon="5.79461">
        <ele>695.69</ele>
        <time>2016-04-26T08:03:52Z</time>
      </trkpt>
      <trkpt lat="44.00845" lon="5.7947">
        <ele>694.97</ele>
        <time>2016-04-26T08:03:53Z</time>
      </trkpt>
      <trkpt lat="44.00846" lon="5.79479">
        <ele>694.58</ele>
        <time>2016-04-26T08:03:54Z</time>
      </trkpt>
      <trkpt lat="44.00847" lon="5.79488">
        <ele>694.35</ele>
        <time>2016-04-26T08:03:55Z</time>
      </trkpt>
      <trkpt lat="44.00853" lon="5.79531">
        <ele>693.58</ele>
        <time>2016-04-26T08:04:00Z</time>
      </trkpt>
      <trkpt lat="44.00853" lon="5.79546">
        <ele>693.48</ele>
        <time>2016-04-26T08:04:02Z</time>
      </trkpt>
      <trkpt lat="44.00852" lon="5.79554">
        <ele>693.53</ele>
        <time>2016-04-26T08:04:03Z</time>
      </trkpt>
      <trkpt lat="44.00845" lon="5.79585">
        <ele>694.55</ele>
        <time>2016-04-26T08:04:08Z</time>
      </trkpt>
      <trkpt lat="44.00842" lon="5.7959">
        <ele>694.84</ele>
        <time>2016-04-26T08:04:09Z</time>
      </trkpt>
      <trkpt lat="44.00839" lon="5.79594">
        <ele>695.14</ele>
        <time>2016-04-26T08:04:10Z</time>
      </trkpt>
      <trkpt lat="44.00835" lon="5.79598">
        <ele>695.33</ele>
        <time>2016-04-26T08:04:11Z</time>
      </trkpt>
      <trkpt lat="44.00831" lon="5.79602">
        <ele>695.22</ele>
        <time>2016-04-26T08:04:12Z</time>
      </trkpt>
      <trkpt lat="44.00826" lon="5.79606">
        <ele>694.92</ele>
        <time>2016-04-26T08:04:13Z</time>
      </trkpt>
      <trkpt lat="44.00821" lon="5.79611">
        <ele>694.69</ele>
        <time>2016-04-26T08:04:14Z</time>
      </trkpt>
      <trkpt lat="44.00775" lon="5.79648">
        <ele>693.12</ele>
        <time>2016-04-26T08:04:21Z</time>
      </trkpt>
      <trkpt lat="44.00763" lon="5.79663">
        <ele>692.49</ele>
        <time>2016-04-26T08:04:23Z</time>
      </trkpt>
      <trkpt lat="44.00728" lon="5.79724">
        <ele>692.27</ele>
        <time>2016-04-26T08:04:30Z</time>
      </trkpt>
      <trkpt lat="44.00697" lon="5.79785">
        <ele>691.51</ele>
        <time>2016-04-26T08:04:37Z</time>
      </trkpt>
      <trkpt lat="44.00661" lon="5.79844">
        <ele>691.74</ele>
        <time>2016-04-26T08:04:44Z</time>
      </trkpt>
      <trkpt lat="44.00633" lon="5.79911">
        <ele>691.57</ele>
        <time>2016-04-26T08:04:51Z</time>
      </trkpt>
      <trkpt lat="44.0061" lon="5.7998">
        <ele>690.48</ele>
        <time>2016-04-26T08:04:58Z</time>
      </trkpt>
      <trkpt lat="44.00598" lon="5.80008">
        <ele>689.99</ele>
        <time>2016-04-26T08:05:01Z</time>
      </trkpt>
      <trkpt lat="44.00593" lon="5.80017">
        <ele>689.68</ele>
        <time>2016-04-26T08:05:02Z</time>
      </trkpt>
      <trkpt lat="44.00558" lon="5.80066">
        <ele>687.8</ele>
        <time>2016-04-26T08:05:08Z</time>
      </trkpt>
      <trkpt lat="44.00515" lon="5.80109">
        <ele>687.87</ele>
        <time>2016-04-26T08:05:15Z</time>
      </trkpt>
      <trkpt lat="44.00466" lon="5.80136">
        <ele>688.77</ele>
        <time>2016-04-26T08:05:22Z</time>
      </trkpt>
      <trkpt lat="44.00411" lon="5.80154">
        <ele>687.32</ele>
        <time>2016-04-26T08:05:29Z</time>
      </trkpt>
      <trkpt lat="44.00354" lon="5.80151">
        <ele>687.01</ele>
        <time>2016-04-26T08:05:36Z</time>
      </trkpt>
      <trkpt lat="44.00318" lon="5.80148">
        <ele>685.31</ele>
        <time>2016-04-26T08:05:40Z</time>
      </trkpt>
      <trkpt lat="44.00257" lon="5.80146">
        <ele>682.96</ele>
        <time>2016-04-26T08:05:46Z</time>
      </trkpt>
      <trkpt lat="44.00203" lon="5.80145">
        <ele>680.99</ele>
        <time>2016-04-26T08:05:51Z</time>
      </trkpt>
      <trkpt lat="44.00147" lon="5.8014">
        <ele>677.55</ele>
        <time>2016-04-26T08:05:56Z</time>
      </trkpt>
      <trkpt lat="44.0009" lon="5.80135">
        <ele>675.85</ele>
        <time>2016-04-26T08:06:01Z</time>
      </trkpt>
      <trkpt lat="44.00043" lon="5.80133">
        <ele>672.71</ele>
        <time>2016-04-26T08:06:05Z</time>
      </trkpt>
      <trkpt lat="44.00008" lon="5.8013">
        <ele>671.32</ele>
        <time>2016-04-26T08:06:08Z</time>
      </trkpt>
      <trkpt lat="43.9995" lon="5.80118">
        <ele>668.81</ele>
        <time>2016-04-26T08:06:13Z</time>
      </trkpt>
      <trkpt lat="43.99894" lon="5.80099">
        <ele>666.19</ele>
        <time>2016-04-26T08:06:18Z</time>
      </trkpt>
      <trkpt lat="43.9984" lon="5.80075">
        <ele>663.69</ele>
        <time>2016-04-26T08:06:23Z</time>
      </trkpt>
      <trkpt lat="43.99785" lon="5.80055">
        <ele>661.42</ele>
        <time>2016-04-26T08:06:28Z</time>
      </trkpt>
      <trkpt lat="43.99718" lon="5.80043">
        <ele>658.63</ele>
        <time>2016-04-26T08:06:34Z</time>
      </trkpt>
      <trkpt lat="43.99698" lon="5.80044">
        <ele>656.51</ele>
        <time>2016-04-26T08:06:36Z</time>
      </trkpt>
      <trkpt lat="43.99689" lon="5.80047">
        <ele>655.32</ele>
        <time>2016-04-26T08:06:37Z</time>
      </trkpt>
      <trkpt lat="43.99681" lon="5.80053">
        <ele>654.11</ele>
        <time>2016-04-26T08:06:38Z</time>
      </trkpt>
      <trkpt lat="43.99678" lon="5.80064">
        <ele>653.35</ele>
        <time>2016-04-26T08:06:39Z</time>
      </trkpt>
      <trkpt lat="43.99677" lon="5.80076">
        <ele>652.61</ele>
        <time>2016-04-26T08:06:40Z</time>
      </trkpt>
      <trkpt lat="43.99679" lon="5.80088">
        <ele>652.15</ele>
        <time>2016-04-26T08:06:41Z</time>
      </trkpt>
      <trkpt lat="43.99681" lon="5.801">
        <ele>651.76</ele>
        <time>2016-04-26T08:06:42Z</time>
      </trkpt>
      <trkpt lat="43.99684" lon="5.80113">
        <ele>651.44</ele>
        <time>2016-04-26T08:06:43Z</time>
      </trkpt>
      <trkpt lat="43.997" lon="5.80195">
        <ele>650.07</ele>
        <time>2016-04-26T08:06:49Z</time>
      </trkpt>
      <trkpt lat="43.99709" lon="5.80253">
        <ele>646.71</ele>
        <time>2016-04-26T08:06:53Z</time>
      </trkpt>
      <trkpt lat="43.99712" lon="5.80268">
        <ele>646.64</ele>
        <time>2016-04-26T08:06:54Z</time>
      </trkpt>
      <trkpt lat="43.99719" lon="5.80312">
        <ele>644.16</ele>
        <time>2016-04-26T08:06:57Z</time>
      </trkpt>
      <trkpt lat="43.99718" lon="5.80326">
        <ele>642.98</ele>
        <time>2016-04-26T08:06:58Z</time>
      </trkpt>
      <trkpt lat="43.99713" lon="5.80337">
        <ele>642.18</ele>
        <time>2016-04-26T08:06:59Z</time>
      </trkpt>
      <trkpt lat="43.99706" lon="5.80344">
        <ele>641.39</ele>
        <time>2016-04-26T08:07:00Z</time>
      </trkpt>
      <trkpt lat="43.99697" lon="5.80348">
        <ele>640.44</ele>
        <time>2016-04-26T08:07:01Z</time>
      </trkpt>
      <trkpt lat="43.99687" lon="5.8035">
        <ele>639.63</ele>
        <time>2016-04-26T08:07:02Z</time>
      </trkpt>
      <trkpt lat="43.99636" lon="5.80364">
        <ele>637.11</ele>
        <time>2016-04-26T08:07:07Z</time>
      </trkpt>
      <trkpt lat="43.99625" lon="5.80369">
        <ele>636.84</ele>
        <time>2016-04-26T08:07:08Z</time>
      </trkpt>
      <trkpt lat="43.99615" lon="5.80375">
        <ele>636.25</ele>
        <time>2016-04-26T08:07:09Z</time>
      </trkpt>
      <trkpt lat="43.99565" lon="5.80411">
        <ele>634.1</ele>
        <time>2016-04-26T08:07:14Z</time>
      </trkpt>
      <trkpt lat="43.99519" lon="5.80457">
        <ele>630.91</ele>
        <time>2016-04-26T08:07:19Z</time>
      </trkpt>
      <trkpt lat="43.99474" lon="5.8051">
        <ele>627.29</ele>
        <time>2016-04-26T08:07:24Z</time>
      </trkpt>
      <trkpt lat="43.99441" lon="5.80555">
        <ele>624.25</ele>
        <time>2016-04-26T08:07:28Z</time>
      </trkpt>
      <trkpt lat="43.99411" lon="5.80626">
        <ele>622.77</ele>
        <time>2016-04-26T08:07:33Z</time>
      </trkpt>
      <trkpt lat="43.99397" lon="5.80655">
        <ele>621.96</ele>
        <time>2016-04-26T08:07:35Z</time>
      </trkpt>
      <trkpt lat="43.99389" lon="5.80667">
        <ele>621.11</ele>
        <time>2016-04-26T08:07:36Z</time>
      </trkpt>
      <trkpt lat="43.99381" lon="5.80677">
        <ele>618.55</ele>
        <time>2016-04-26T08:07:37Z</time>
      </trkpt>
      <trkpt lat="43.99376" lon="5.80688">
        <ele>617.06</ele>
        <time>2016-04-26T08:07:38Z</time>
      </trkpt>
      <trkpt lat="43.99374" lon="5.80702">
        <ele>615.87</ele>
        <time>2016-04-26T08:07:39Z</time>
      </trkpt>
      <trkpt lat="43.99375" lon="5.80716">
        <ele>614.78</ele>
        <time>2016-04-26T08:07:40Z</time>
      </trkpt>
      <trkpt lat="43.99378" lon="5.80731">
        <ele>614.08</ele>
        <time>2016-04-26T08:07:41Z</time>
      </trkpt>
      <trkpt lat="43.99383" lon="5.80744">
        <ele>613.12</ele>
        <time>2016-04-26T08:07:42Z</time>
      </trkpt>
      <trkpt lat="43.99389" lon="5.80755">
        <ele>612.07</ele>
        <time>2016-04-26T08:07:43Z</time>
      </trkpt>
      <trkpt lat="43.99397" lon="5.80766">
        <ele>611.58</ele>
        <time>2016-04-26T08:07:44Z</time>
      </trkpt>
      <trkpt lat="43.99406" lon="5.80775">
        <ele>611.49</ele>
        <time>2016-04-26T08:07:45Z</time>
      </trkpt>
      <trkpt lat="43.99432" lon="5.80812">
        <ele>609.45</ele>
        <time>2016-04-26T08:07:49Z</time>
      </trkpt>
      <trkpt lat="43.99434" lon="5.80825">
        <ele>608.56</ele>
        <time>2016-04-26T08:07:50Z</time>
      </trkpt>
      <trkpt lat="43.9943" lon="5.80837">
        <ele>607.85</ele>
        <time>2016-04-26T08:07:51Z</time>
      </trkpt>
      <trkpt lat="43.99425" lon="5.80849">
        <ele>607.27</ele>
        <time>2016-04-26T08:07:52Z</time>
      </trkpt>
      <trkpt lat="43.99419" lon="5.80859">
        <ele>605.91</ele>
        <time>2016-04-26T08:07:53Z</time>
      </trkpt>
      <trkpt lat="43.99413" lon="5.8087">
        <ele>604.99</ele>
        <time>2016-04-26T08:07:54Z</time>
      </trkpt>
      <trkpt lat="43.99409" lon="5.8088">
        <ele>604.09</ele>
        <time>2016-04-26T08:07:55Z</time>
      </trkpt>
      <trkpt lat="43.99404" lon="5.80889">
        <ele>602.7</ele>
        <time>2016-04-26T08:07:56Z</time>
      </trkpt>
      <trkpt lat="43.99398" lon="5.80895">
        <ele>601.72</ele>
        <time>2016-04-26T08:07:57Z</time>
      </trkpt>
      <trkpt lat="43.9939" lon="5.80896">
        <ele>600.94</ele>
        <time>2016-04-26T08:07:58Z</time>
      </trkpt>
      <trkpt lat="43.99381" lon="5.80893">
        <ele>600.02</ele>
        <time>2016-04-26T08:07:59Z</time>
      </trkpt>
      <trkpt lat="43.99374" lon="5.80887">
        <ele>599.08</ele>
        <time>2016-04-26T08:08:00Z</time>
      </trkpt>
      <trkpt lat="43.99367" lon="5.80879">
        <ele>598.38</ele>
        <time>2016-04-26T08:08:01Z</time>
      </trkpt>
      <trkpt lat="43.99361" lon="5.80869">
        <ele>597.96</ele>
        <time>2016-04-26T08:08:02Z</time>
      </trkpt>
      <trkpt lat="43.99355" lon="5.80858">
        <ele>597.65</ele>
        <time>2016-04-26T08:08:03Z</time>
      </trkpt>
      <trkpt lat="43.99341" lon="5.80839">
        <ele>597.07</ele>
        <time>2016-04-26T08:08:05Z</time>
      </trkpt>
      <trkpt lat="43.99331" lon="5.80834">
        <ele>596.52</ele>
        <time>2016-04-26T08:08:06Z</time>
      </trkpt>
      <trkpt lat="43.99321" lon="5.80835">
        <ele>595.85</ele>
        <time>2016-04-26T08:08:07Z</time>
      </trkpt>
      <trkpt lat="43.99311" lon="5.8084">
        <ele>595.08</ele>
        <time>2016-04-26T08:08:08Z</time>
      </trkpt>
      <trkpt lat="43.99302" lon="5.80846">
        <ele>594.31</ele>
        <time>2016-04-26T08:08:09Z</time>
      </trkpt>
      <trkpt lat="43.99292" lon="5.80852">
        <ele>593.44</ele>
        <time>2016-04-26T08:08:10Z</time>
      </trkpt>
      <trkpt lat="43.99281" lon="5.80853">
        <ele>592.66</ele>
        <time>2016-04-26T08:08:11Z</time>
      </trkpt>
      <trkpt lat="43.99271" lon="5.8085">
        <ele>592.1</ele>
        <time>2016-04-26T08:08:12Z</time>
      </trkpt>
      <trkpt lat="43.99249" lon="5.80843">
        <ele>590.96</ele>
        <time>2016-04-26T08:08:14Z</time>
      </trkpt>
      <trkpt lat="43.99238" lon="5.80844">
        <ele>590.39</ele>
        <time>2016-04-26T08:08:15Z</time>
      </trkpt>
      <trkpt lat="43.99227" lon="5.80848">
        <ele>589.17</ele>
        <time>2016-04-26T08:08:16Z</time>
      </trkpt>
      <trkpt lat="43.99218" lon="5.80855">
        <ele>588.35</ele>
        <time>2016-04-26T08:08:17Z</time>
      </trkpt>
      <trkpt lat="43.99209" lon="5.80863">
        <ele>587.74</ele>
        <time>2016-04-26T08:08:18Z</time>
      </trkpt>
      <trkpt lat="43.99193" lon="5.80876">
        <ele>585.94</ele>
        <time>2016-04-26T08:08:20Z</time>
      </trkpt>
      <trkpt lat="43.99184" lon="5.80877">
        <ele>585.32</ele>
        <time>2016-04-26T08:08:21Z</time>
      </trkpt>
      <trkpt lat="43.99176" lon="5.80872">
        <ele>584.77</ele>
        <time>2016-04-26T08:08:22Z</time>
      </trkpt>
      <trkpt lat="43.99169" lon="5.80863">
        <ele>584.17</ele>
        <time>2016-04-26T08:08:23Z</time>
      </trkpt>
      <trkpt lat="43.99164" lon="5.80853">
        <ele>583.81</ele>
        <time>2016-04-26T08:08:24Z</time>
      </trkpt>
      <trkpt lat="43.99158" lon="5.80843">
        <ele>583.63</ele>
        <time>2016-04-26T08:08:25Z</time>
      </trkpt>
      <trkpt lat="43.99152" lon="5.80834">
        <ele>583.09</ele>
        <time>2016-04-26T08:08:26Z</time>
      </trkpt>
      <trkpt lat="43.99143" lon="5.8083">
        <ele>582.58</ele>
        <time>2016-04-26T08:08:27Z</time>
      </trkpt>
      <trkpt lat="43.99133" lon="5.80829">
        <ele>581.82</ele>
        <time>2016-04-26T08:08:28Z</time>
      </trkpt>
      <trkpt lat="43.99123" lon="5.80829">
        <ele>580.95</ele>
        <time>2016-04-26T08:08:29Z</time>
      </trkpt>
      <trkpt lat="43.99112" lon="5.80827">
        <ele>580.06</ele>
        <time>2016-04-26T08:08:30Z</time>
      </trkpt>
      <trkpt lat="43.99102" lon="5.80823">
        <ele>579.18</ele>
        <time>2016-04-26T08:08:31Z</time>
      </trkpt>
      <trkpt lat="43.99092" lon="5.80817">
        <ele>578.59</ele>
        <time>2016-04-26T08:08:32Z</time>
      </trkpt>
      <trkpt lat="43.99073" lon="5.80803">
        <ele>577.63</ele>
        <time>2016-04-26T08:08:34Z</time>
      </trkpt>
      <trkpt lat="43.99062" lon="5.80799">
        <ele>577.42</ele>
        <time>2016-04-26T08:08:35Z</time>
      </trkpt>
      <trkpt lat="43.99052" lon="5.80797">
        <ele>576.98</ele>
        <time>2016-04-26T08:08:36Z</time>
      </trkpt>
      <trkpt lat="43.99042" lon="5.80798">
        <ele>576.11</ele>
        <time>2016-04-26T08:08:37Z</time>
      </trkpt>
      <trkpt lat="43.99033" lon="5.80801">
        <ele>575.25</ele>
        <time>2016-04-26T08:08:38Z</time>
      </trkpt>
      <trkpt lat="43.99025" lon="5.80807">
        <ele>574.35</ele>
        <time>2016-04-26T08:08:39Z</time>
      </trkpt>
      <trkpt lat="43.99018" lon="5.80816">
        <ele>573.74</ele>
        <time>2016-04-26T08:08:40Z</time>
      </trkpt>
      <trkpt lat="43.99014" lon="5.80827">
        <ele>573.59</ele>
        <time>2016-04-26T08:08:41Z</time>
      </trkpt>
      <trkpt lat="43.99012" lon="5.8084">
        <ele>573.47</ele>
        <time>2016-04-26T08:08:42Z</time>
      </trkpt>
      <trkpt lat="43.99009" lon="5.80854">
        <ele>572.69</ele>
        <time>2016-04-26T08:08:43Z</time>
      </trkpt>
      <trkpt lat="43.99004" lon="5.80867">
        <ele>571.81</ele>
        <time>2016-04-26T08:08:44Z</time>
      </trkpt>
      <trkpt lat="43.98998" lon="5.80879">
        <ele>571.22</ele>
        <time>2016-04-26T08:08:45Z</time>
      </trkpt>
      <trkpt lat="43.98991" lon="5.80889">
        <ele>570.56</ele>
        <time>2016-04-26T08:08:46Z</time>
      </trkpt>
      <trkpt lat="43.98984" lon="5.80901">
        <ele>570.01</ele>
        <time>2016-04-26T08:08:47Z</time>
      </trkpt>
      <trkpt lat="43.98977" lon="5.80912">
        <ele>569.54</ele>
        <time>2016-04-26T08:08:48Z</time>
      </trkpt>
      <trkpt lat="43.98953" lon="5.80944">
        <ele>566.91</ele>
        <time>2016-04-26T08:08:51Z</time>
      </trkpt>
      <trkpt lat="43.98943" lon="5.80951">
        <ele>566.04</ele>
        <time>2016-04-26T08:08:52Z</time>
      </trkpt>
      <trkpt lat="43.98933" lon="5.80957">
        <ele>565.52</ele>
        <time>2016-04-26T08:08:53Z</time>
      </trkpt>
      <trkpt lat="43.98922" lon="5.80961">
        <ele>565.19</ele>
        <time>2016-04-26T08:08:54Z</time>
      </trkpt>
      <trkpt lat="43.98911" lon="5.80964">
        <ele>564.46</ele>
        <time>2016-04-26T08:08:55Z</time>
      </trkpt>
      <trkpt lat="43.9886" lon="5.80977">
        <ele>562.73</ele>
        <time>2016-04-26T08:09:00Z</time>
      </trkpt>
      <trkpt lat="43.98832" lon="5.80987">
        <ele>562.34</ele>
        <time>2016-04-26T08:09:03Z</time>
      </trkpt>
      <trkpt lat="43.98824" lon="5.80994">
        <ele>562.32</ele>
        <time>2016-04-26T08:09:04Z</time>
      </trkpt>
      <trkpt lat="43.98818" lon="5.81002">
        <ele>562.09</ele>
        <time>2016-04-26T08:09:05Z</time>
      </trkpt>
      <trkpt lat="43.98788" lon="5.81046">
        <ele>560.98</ele>
        <time>2016-04-26T08:09:10Z</time>
      </trkpt>
      <trkpt lat="43.98781" lon="5.81052">
        <ele>560.76</ele>
        <time>2016-04-26T08:09:11Z</time>
      </trkpt>
      <trkpt lat="43.98772" lon="5.81057">
        <ele>560.45</ele>
        <time>2016-04-26T08:09:12Z</time>
      </trkpt>
      <trkpt lat="43.98763" lon="5.8106">
        <ele>560.01</ele>
        <time>2016-04-26T08:09:13Z</time>
      </trkpt>
      <trkpt lat="43.98755" lon="5.81063">
        <ele>559.69</ele>
        <time>2016-04-26T08:09:14Z</time>
      </trkpt>
      <trkpt lat="43.98746" lon="5.81065">
        <ele>559.42</ele>
        <time>2016-04-26T08:09:15Z</time>
      </trkpt>
      <trkpt lat="43.98736" lon="5.81066">
        <ele>559.25</ele>
        <time>2016-04-26T08:09:16Z</time>
      </trkpt>
      <trkpt lat="43.98728" lon="5.81064">
        <ele>559.18</ele>
        <time>2016-04-26T08:09:17Z</time>
      </trkpt>
      <trkpt lat="43.98719" lon="5.81059">
        <ele>559.02</ele>
        <time>2016-04-26T08:09:18Z</time>
      </trkpt>
      <trkpt lat="43.98711" lon="5.81051">
        <ele>558.22</ele>
        <time>2016-04-26T08:09:19Z</time>
      </trkpt>
      <trkpt lat="43.98704" lon="5.81044">
        <ele>557.68</ele>
        <time>2016-04-26T08:09:20Z</time>
      </trkpt>
      <trkpt lat="43.98697" lon="5.81037">
        <ele>557.41</ele>
        <time>2016-04-26T08:09:21Z</time>
      </trkpt>
      <trkpt lat="43.98672" lon="5.81005">
        <ele>554.94</ele>
        <time>2016-04-26T08:09:26Z</time>
      </trkpt>
      <trkpt lat="43.98668" lon="5.81003">
        <ele>554.2</ele>
        <time>2016-04-26T08:09:27Z</time>
      </trkpt>
      <trkpt lat="43.98664" lon="5.81004">
        <ele>553.51</ele>
        <time>2016-04-26T08:09:28Z</time>
      </trkpt>
      <trkpt lat="43.98662" lon="5.81008">
        <ele>553.22</ele>
        <time>2016-04-26T08:09:29Z</time>
      </trkpt>
      <trkpt lat="43.98662" lon="5.81014">
        <ele>553.05</ele>
        <time>2016-04-26T08:09:30Z</time>
      </trkpt>
      <trkpt lat="43.98662" lon="5.8102">
        <ele>553.02</ele>
        <time>2016-04-26T08:09:31Z</time>
      </trkpt>
      <trkpt lat="43.98663" lon="5.81026">
        <ele>553.01</ele>
        <time>2016-04-26T08:09:32Z</time>
      </trkpt>
      <trkpt lat="43.98665" lon="5.81049">
        <ele>552.77</ele>
        <time>2016-04-26T08:09:35Z</time>
      </trkpt>
      <trkpt lat="43.98676" lon="5.81082">
        <ele>552.62</ele>
        <time>2016-04-26T08:09:39Z</time>
      </trkpt>
      <trkpt lat="43.98681" lon="5.8109">
        <ele>552.59</ele>
        <time>2016-04-26T08:09:40Z</time>
      </trkpt>
      <trkpt lat="43.98686" lon="5.81098">
        <ele>552.75</ele>
        <time>2016-04-26T08:09:41Z</time>
      </trkpt>
      <trkpt lat="43.98692" lon="5.81105">
        <ele>552.81</ele>
        <time>2016-04-26T08:09:42Z</time>
      </trkpt>
      <trkpt lat="43.98699" lon="5.81111">
        <ele>552.57</ele>
        <time>2016-04-26T08:09:43Z</time>
      </trkpt>
      <trkpt lat="43.98706" lon="5.81117">
        <ele>552.4</ele>
        <time>2016-04-26T08:09:44Z</time>
      </trkpt>
      <trkpt lat="43.98714" lon="5.81122">
        <ele>552.3</ele>
        <time>2016-04-26T08:09:45Z</time>
      </trkpt>
      <trkpt lat="43.98753" lon="5.81147">
        <ele>551.42</ele>
        <time>2016-04-26T08:09:50Z</time>
      </trkpt>
      <trkpt lat="43.98762" lon="5.81149">
        <ele>550.95</ele>
        <time>2016-04-26T08:09:51Z</time>
      </trkpt>
      <trkpt lat="43.98771" lon="5.81149">
        <ele>550.47</ele>
        <time>2016-04-26T08:09:52Z</time>
      </trkpt>
      <trkpt lat="43.9878" lon="5.81147">
        <ele>549.96</ele>
        <time>2016-04-26T08:09:53Z</time>
      </trkpt>
      <trkpt lat="43.98789" lon="5.81145">
        <ele>549.67</ele>
        <time>2016-04-26T08:09:54Z</time>
      </trkpt>
      <trkpt lat="43.98843" lon="5.81129">
        <ele>547.31</ele>
        <time>2016-04-26T08:10:00Z</time>
      </trkpt>
      <trkpt lat="43.9886" lon="5.81118">
        <ele>546.44</ele>
        <time>2016-04-26T08:10:02Z</time>
      </trkpt>
      <trkpt lat="43.98869" lon="5.81111">
        <ele>546.44</ele>
        <time>2016-04-26T08:10:03Z</time>
      </trkpt>
      <trkpt lat="43.98878" lon="5.81106">
        <ele>546.37</ele>
        <time>2016-04-26T08:10:04Z</time>
      </trkpt>
      <trkpt lat="43.98888" lon="5.81103">
        <ele>546.15</ele>
        <time>2016-04-26T08:10:05Z</time>
      </trkpt>
      <trkpt lat="43.98899" lon="5.81103">
        <ele>545.62</ele>
        <time>2016-04-26T08:10:06Z</time>
      </trkpt>
      <trkpt lat="43.98908" lon="5.81108">
        <ele>544.85</ele>
        <time>2016-04-26T08:10:07Z</time>
      </trkpt>
      <trkpt lat="43.98917" lon="5.81115">
        <ele>544.1</ele>
        <time>2016-04-26T08:10:08Z</time>
      </trkpt>
      <trkpt lat="43.98923" lon="5.81125">
        <ele>543.58</ele>
        <time>2016-04-26T08:10:09Z</time>
      </trkpt>
      <trkpt lat="43.98926" lon="5.81138">
        <ele>543.33</ele>
        <time>2016-04-26T08:10:10Z</time>
      </trkpt>
      <trkpt lat="43.98927" lon="5.81152">
        <ele>542.99</ele>
        <time>2016-04-26T08:10:11Z</time>
      </trkpt>
      <trkpt lat="43.98929" lon="5.81166">
        <ele>542.67</ele>
        <time>2016-04-26T08:10:12Z</time>
      </trkpt>
      <trkpt lat="43.98934" lon="5.81209">
        <ele>542.39</ele>
        <time>2016-04-26T08:10:15Z</time>
      </trkpt>
      <trkpt lat="43.98934" lon="5.81224">
        <ele>542.18</ele>
        <time>2016-04-26T08:10:16Z</time>
      </trkpt>
      <trkpt lat="43.98934" lon="5.81253">
        <ele>541.13</ele>
        <time>2016-04-26T08:10:18Z</time>
      </trkpt>
      <trkpt lat="43.98936" lon="5.81266">
        <ele>540.68</ele>
        <time>2016-04-26T08:10:19Z</time>
      </trkpt>
      <trkpt lat="43.98942" lon="5.81277">
        <ele>539.92</ele>
        <time>2016-04-26T08:10:20Z</time>
      </trkpt>
      <trkpt lat="43.9895" lon="5.81284">
        <ele>539.1</ele>
        <time>2016-04-26T08:10:21Z</time>
      </trkpt>
      <trkpt lat="43.98959" lon="5.81288">
        <ele>538.43</ele>
        <time>2016-04-26T08:10:22Z</time>
      </trkpt>
      <trkpt lat="43.98969" lon="5.81287">
        <ele>537.86</ele>
        <time>2016-04-26T08:10:23Z</time>
      </trkpt>
      <trkpt lat="43.98978" lon="5.81285">
        <ele>537.4</ele>
        <time>2016-04-26T08:10:24Z</time>
      </trkpt>
      <trkpt lat="43.98987" lon="5.8128">
        <ele>537.09</ele>
        <time>2016-04-26T08:10:25Z</time>
      </trkpt>
      <trkpt lat="43.98997" lon="5.81275">
        <ele>537.04</ele>
        <time>2016-04-26T08:10:26Z</time>
      </trkpt>
      <trkpt lat="43.99006" lon="5.81271">
        <ele>537.24</ele>
        <time>2016-04-26T08:10:27Z</time>
      </trkpt>
      <trkpt lat="43.99016" lon="5.81271">
        <ele>536.44</ele>
        <time>2016-04-26T08:10:28Z</time>
      </trkpt>
      <trkpt lat="43.99025" lon="5.81275">
        <ele>535.78</ele>
        <time>2016-04-26T08:10:29Z</time>
      </trkpt>
      <trkpt lat="43.99032" lon="5.81283">
        <ele>535.5</ele>
        <time>2016-04-26T08:10:30Z</time>
      </trkpt>
      <trkpt lat="43.99038" lon="5.81293">
        <ele>535.14</ele>
        <time>2016-04-26T08:10:31Z</time>
      </trkpt>
      <trkpt lat="43.99039" lon="5.81304">
        <ele>534.47</ele>
        <time>2016-04-26T08:10:32Z</time>
      </trkpt>
      <trkpt lat="43.9904" lon="5.81316">
        <ele>533.48</ele>
        <time>2016-04-26T08:10:33Z</time>
      </trkpt>
      <trkpt lat="43.9904" lon="5.81328">
        <ele>532.67</ele>
        <time>2016-04-26T08:10:34Z</time>
      </trkpt>
      <trkpt lat="43.99039" lon="5.8134">
        <ele>532.21</ele>
        <time>2016-04-26T08:10:35Z</time>
      </trkpt>
      <trkpt lat="43.99036" lon="5.81352">
        <ele>531.9</ele>
        <time>2016-04-26T08:10:36Z</time>
      </trkpt>
      <trkpt lat="43.99032" lon="5.81363">
        <ele>531.54</ele>
        <time>2016-04-26T08:10:37Z</time>
      </trkpt>
      <trkpt lat="43.99026" lon="5.81385">
        <ele>530.8</ele>
        <time>2016-04-26T08:10:39Z</time>
      </trkpt>
      <trkpt lat="43.99024" lon="5.81397">
        <ele>530.6</ele>
        <time>2016-04-26T08:10:40Z</time>
      </trkpt>
      <trkpt lat="43.99021" lon="5.81434">
        <ele>530.24</ele>
        <time>2016-04-26T08:10:43Z</time>
      </trkpt>
      <trkpt lat="43.99023" lon="5.81446">
        <ele>530.15</ele>
        <time>2016-04-26T08:10:44Z</time>
      </trkpt>
      <trkpt lat="43.99027" lon="5.81459">
        <ele>529.98</ele>
        <time>2016-04-26T08:10:45Z</time>
      </trkpt>
      <trkpt lat="43.99031" lon="5.8147">
        <ele>529.77</ele>
        <time>2016-04-26T08:10:46Z</time>
      </trkpt>
      <trkpt lat="43.99037" lon="5.81481">
        <ele>529.33</ele>
        <time>2016-04-26T08:10:47Z</time>
      </trkpt>
      <trkpt lat="43.99043" lon="5.81491">
        <ele>528.94</ele>
        <time>2016-04-26T08:10:48Z</time>
      </trkpt>
      <trkpt lat="43.99049" lon="5.815">
        <ele>528.64</ele>
        <time>2016-04-26T08:10:49Z</time>
      </trkpt>
      <trkpt lat="43.99057" lon="5.81506">
        <ele>528.17</ele>
        <time>2016-04-26T08:10:50Z</time>
      </trkpt>
      <trkpt lat="43.99065" lon="5.81511">
        <ele>527.77</ele>
        <time>2016-04-26T08:10:51Z</time>
      </trkpt>
      <trkpt lat="43.99074" lon="5.81516">
        <ele>527.49</ele>
        <time>2016-04-26T08:10:52Z</time>
      </trkpt>
      <trkpt lat="43.99083" lon="5.81522">
        <ele>527.35</ele>
        <time>2016-04-26T08:10:53Z</time>
      </trkpt>
      <trkpt lat="43.9909" lon="5.81531">
        <ele>527.21</ele>
        <time>2016-04-26T08:10:54Z</time>
      </trkpt>
      <trkpt lat="43.99095" lon="5.81543">
        <ele>526.93</ele>
        <time>2016-04-26T08:10:55Z</time>
      </trkpt>
      <trkpt lat="43.99098" lon="5.81556">
        <ele>526.4</ele>
        <time>2016-04-26T08:10:56Z</time>
      </trkpt>
      <trkpt lat="43.991" lon="5.81569">
        <ele>525.75</ele>
        <time>2016-04-26T08:10:57Z</time>
      </trkpt>
      <trkpt lat="43.99101" lon="5.81583">
        <ele>525.21</ele>
        <time>2016-04-26T08:10:58Z</time>
      </trkpt>
      <trkpt lat="43.99103" lon="5.81597">
        <ele>524.31</ele>
        <time>2016-04-26T08:10:59Z</time>
      </trkpt>
      <trkpt lat="43.99106" lon="5.81624">
        <ele>523.42</ele>
        <time>2016-04-26T08:11:01Z</time>
      </trkpt>
      <trkpt lat="43.99117" lon="5.81695">
        <ele>520.96</ele>
        <time>2016-04-26T08:11:06Z</time>
      </trkpt>
      <trkpt lat="43.99126" lon="5.81768">
        <ele>517.99</ele>
        <time>2016-04-26T08:11:11Z</time>
      </trkpt>
      <trkpt lat="43.99136" lon="5.81842">
        <ele>516.36</ele>
        <time>2016-04-26T08:11:16Z</time>
      </trkpt>
      <trkpt lat="43.99156" lon="5.81915">
        <ele>514.27</ele>
        <time>2016-04-26T08:11:21Z</time>
      </trkpt>
      <trkpt lat="43.99178" lon="5.81987">
        <ele>512.51</ele>
        <time>2016-04-26T08:11:26Z</time>
      </trkpt>
      <trkpt lat="43.99183" lon="5.81999">
        <ele>512.37</ele>
        <time>2016-04-26T08:11:27Z</time>
      </trkpt>
      <trkpt lat="43.99189" lon="5.82011">
        <ele>512.3</ele>
        <time>2016-04-26T08:11:28Z</time>
      </trkpt>
      <trkpt lat="43.99197" lon="5.82019">
        <ele>512.18</ele>
        <time>2016-04-26T08:11:29Z</time>
      </trkpt>
      <trkpt lat="43.99206" lon="5.82025">
        <ele>511.61</ele>
        <time>2016-04-26T08:11:30Z</time>
      </trkpt>
      <trkpt lat="43.99216" lon="5.82028">
        <ele>510.8</ele>
        <time>2016-04-26T08:11:31Z</time>
      </trkpt>
      <trkpt lat="43.99226" lon="5.82029">
        <ele>509.84</ele>
        <time>2016-04-26T08:11:32Z</time>
      </trkpt>
      <trkpt lat="43.99236" lon="5.82031">
        <ele>508.76</ele>
        <time>2016-04-26T08:11:33Z</time>
      </trkpt>
      <trkpt lat="43.99288" lon="5.82041">
        <ele>506.91</ele>
        <time>2016-04-26T08:11:38Z</time>
      </trkpt>
      <trkpt lat="43.99329" lon="5.82058">
        <ele>505.59</ele>
        <time>2016-04-26T08:11:42Z</time>
      </trkpt>
      <trkpt lat="43.99385" lon="5.82087">
        <ele>503.6</ele>
        <time>2016-04-26T08:11:48Z</time>
      </trkpt>
      <trkpt lat="43.99393" lon="5.82095">
        <ele>502.17</ele>
        <time>2016-04-26T08:11:49Z</time>
      </trkpt>
      <trkpt lat="43.99401" lon="5.82104">
        <ele>500.79</ele>
        <time>2016-04-26T08:11:50Z</time>
      </trkpt>
      <trkpt lat="43.99407" lon="5.82117">
        <ele>500.29</ele>
        <time>2016-04-26T08:11:51Z</time>
      </trkpt>
      <trkpt lat="43.99411" lon="5.8213">
        <ele>500.15</ele>
        <time>2016-04-26T08:11:52Z</time>
      </trkpt>
      <trkpt lat="43.99414" lon="5.82144">
        <ele>499.99</ele>
        <time>2016-04-26T08:11:53Z</time>
      </trkpt>
      <trkpt lat="43.99418" lon="5.82157">
        <ele>499.91</ele>
        <time>2016-04-26T08:11:54Z</time>
      </trkpt>
      <trkpt lat="43.99423" lon="5.8217">
        <ele>499.74</ele>
        <time>2016-04-26T08:11:55Z</time>
      </trkpt>
      <trkpt lat="43.99428" lon="5.82182">
        <ele>499.28</ele>
        <time>2016-04-26T08:11:56Z</time>
      </trkpt>
      <trkpt lat="43.99434" lon="5.82194">
        <ele>498.86</ele>
        <time>2016-04-26T08:11:57Z</time>
      </trkpt>
      <trkpt lat="43.99459" lon="5.82237">
        <ele>495.42</ele>
        <time>2016-04-26T08:12:01Z</time>
      </trkpt>
      <trkpt lat="43.99466" lon="5.82248">
        <ele>495.17</ele>
        <time>2016-04-26T08:12:02Z</time>
      </trkpt>
      <trkpt lat="43.9948" lon="5.8227">
        <ele>495</ele>
        <time>2016-04-26T08:12:04Z</time>
      </trkpt>
      <trkpt lat="43.99488" lon="5.82279">
        <ele>494.58</ele>
        <time>2016-04-26T08:12:05Z</time>
      </trkpt>
      <trkpt lat="43.99532" lon="5.8232">
        <ele>492.18</ele>
        <time>2016-04-26T08:12:10Z</time>
      </trkpt>
      <trkpt lat="43.99577" lon="5.8237">
        <ele>490.75</ele>
        <time>2016-04-26T08:12:16Z</time>
      </trkpt>
      <trkpt lat="43.99583" lon="5.8238">
        <ele>490.45</ele>
        <time>2016-04-26T08:12:17Z</time>
      </trkpt>
      <trkpt lat="43.99613" lon="5.82442">
        <ele>488.56</ele>
        <time>2016-04-26T08:12:23Z</time>
      </trkpt>
      <trkpt lat="43.99644" lon="5.82504">
        <ele>487.98</ele>
        <time>2016-04-26T08:12:29Z</time>
      </trkpt>
      <trkpt lat="43.99658" lon="5.82533">
        <ele>487.76</ele>
        <time>2016-04-26T08:12:32Z</time>
      </trkpt>
      <trkpt lat="43.99675" lon="5.82598">
        <ele>485.87</ele>
        <time>2016-04-26T08:12:38Z</time>
      </trkpt>
      <trkpt lat="43.99691" lon="5.82675">
        <ele>484.06</ele>
        <time>2016-04-26T08:12:45Z</time>
      </trkpt>
      <trkpt lat="43.997" lon="5.82743">
        <ele>481.09</ele>
        <time>2016-04-26T08:12:51Z</time>
      </trkpt>
      <trkpt lat="43.99696" lon="5.82821">
        <ele>480.46</ele>
        <time>2016-04-26T08:12:58Z</time>
      </trkpt>
      <trkpt lat="43.99697" lon="5.82895">
        <ele>480.4</ele>
        <time>2016-04-26T08:13:05Z</time>
      </trkpt>
      <trkpt lat="43.99697" lon="5.82971">
        <ele>480.52</ele>
        <time>2016-04-26T08:13:13Z</time>
      </trkpt>
      <trkpt lat="43.99705" lon="5.83039">
        <ele>480.84</ele>
        <time>2016-04-26T08:13:20Z</time>
      </trkpt>
      <trkpt lat="43.9972" lon="5.83109">
        <ele>479.83</ele>
        <time>2016-04-26T08:13:27Z</time>
      </trkpt>
      <trkpt lat="43.9973" lon="5.83159">
        <ele>479.35</ele>
        <time>2016-04-26T08:13:32Z</time>
      </trkpt>
      <trkpt lat="43.99745" lon="5.83228">
        <ele>479.89</ele>
        <time>2016-04-26T08:13:39Z</time>
      </trkpt>
      <trkpt lat="43.99762" lon="5.83304">
        <ele>481.37</ele>
        <time>2016-04-26T08:13:47Z</time>
      </trkpt>
      <trkpt lat="43.99775" lon="5.83372">
        <ele>481.3</ele>
        <time>2016-04-26T08:13:55Z</time>
      </trkpt>
      <trkpt lat="43.99781" lon="5.83446">
        <ele>481.1</ele>
        <time>2016-04-26T08:14:03Z</time>
      </trkpt>
      <trkpt lat="43.9978" lon="5.83519">
        <ele>482.56</ele>
        <time>2016-04-26T08:14:11Z</time>
      </trkpt>
      <trkpt lat="43.99782" lon="5.83587">
        <ele>483.92</ele>
        <time>2016-04-26T08:14:19Z</time>
      </trkpt>
      <trkpt lat="43.99799" lon="5.83653">
        <ele>484.72</ele>
        <time>2016-04-26T08:14:27Z</time>
      </trkpt>
      <trkpt lat="43.99804" lon="5.83672">
        <ele>484.08</ele>
        <time>2016-04-26T08:14:29Z</time>
      </trkpt>
      <trkpt lat="43.99825" lon="5.83744">
        <ele>483.54</ele>
        <time>2016-04-26T08:14:36Z</time>
      </trkpt>
      <trkpt lat="43.99838" lon="5.83789">
        <ele>481.39</ele>
        <time>2016-04-26T08:14:40Z</time>
      </trkpt>
      <trkpt lat="43.99846" lon="5.83822">
        <ele>480.43</ele>
        <time>2016-04-26T08:14:43Z</time>
      </trkpt>
      <trkpt lat="43.99848" lon="5.83865">
        <ele>480.34</ele>
        <time>2016-04-26T08:14:47Z</time>
      </trkpt>
      <trkpt lat="43.99847" lon="5.83874">
        <ele>480.29</ele>
        <time>2016-04-26T08:14:48Z</time>
      </trkpt>
      <trkpt lat="43.99845" lon="5.83883">
        <ele>479.62</ele>
        <time>2016-04-26T08:14:49Z</time>
      </trkpt>
      <trkpt lat="43.99841" lon="5.83899">
        <ele>478.88</ele>
        <time>2016-04-26T08:14:51Z</time>
      </trkpt>
      <trkpt lat="43.99835" lon="5.83943">
        <ele>479.57</ele>
        <time>2016-04-26T08:14:57Z</time>
      </trkpt>
      <trkpt lat="43.99817" lon="5.84007">
        <ele>482.72</ele>
        <time>2016-04-26T08:15:11Z</time>
      </trkpt>
      <trkpt lat="43.9981" lon="5.84052">
        <ele>484.99</ele>
        <time>2016-04-26T08:15:21Z</time>
      </trkpt>
      <trkpt lat="43.99812" lon="5.84055">
        <ele>484.97</ele>
        <time>2016-04-26T08:15:22Z</time>
      </trkpt>
      <trkpt lat="43.99814" lon="5.84058">
        <ele>485.04</ele>
        <time>2016-04-26T08:15:23Z</time>
      </trkpt>
      <trkpt lat="43.99816" lon="5.8406">
        <ele>485.07</ele>
        <time>2016-04-26T08:15:24Z</time>
      </trkpt>
      <trkpt lat="43.9982" lon="5.8406">
        <ele>485.1</ele>
        <time>2016-04-26T08:15:25Z</time>
      </trkpt>
      <trkpt lat="43.99822" lon="5.8406">
        <ele>485.17</ele>
        <time>2016-04-26T08:15:26Z</time>
      </trkpt>
      <trkpt lat="43.99873" lon="5.84066">
        <ele>487.63</ele>
        <time>2016-04-26T08:15:42Z</time>
      </trkpt>
      <trkpt lat="43.99923" lon="5.84076">
        <ele>489.72</ele>
        <time>2016-04-26T08:15:56Z</time>
      </trkpt>
      <trkpt lat="43.99942" lon="5.84089">
        <ele>490.47</ele>
        <time>2016-04-26T08:16:01Z</time>
      </trkpt>
      <trkpt lat="43.99978" lon="5.84141">
        <ele>491.65</ele>
        <time>2016-04-26T08:16:12Z</time>
      </trkpt>
      <trkpt lat="43.99983" lon="5.84144">
        <ele>491.69</ele>
        <time>2016-04-26T08:16:13Z</time>
      </trkpt>
      <trkpt lat="43.99988" lon="5.84147">
        <ele>491.64</ele>
        <time>2016-04-26T08:16:14Z</time>
      </trkpt>
      <trkpt lat="43.99992" lon="5.84149">
        <ele>491.72</ele>
        <time>2016-04-26T08:16:15Z</time>
      </trkpt>
      <trkpt lat="43.99998" lon="5.8415">
        <ele>491.79</ele>
        <time>2016-04-26T08:16:16Z</time>
      </trkpt>
      <trkpt lat="44.00003" lon="5.84151">
        <ele>491.75</ele>
        <time>2016-04-26T08:16:17Z</time>
      </trkpt>
      <trkpt lat="44.00008" lon="5.84151">
        <ele>491.67</ele>
        <time>2016-04-26T08:16:18Z</time>
      </trkpt>
      <trkpt lat="44.00013" lon="5.84152">
        <ele>491.64</ele>
        <time>2016-04-26T08:16:19Z</time>
      </trkpt>
      <trkpt lat="44.00064" lon="5.84153">
        <ele>491.87</ele>
        <time>2016-04-26T08:16:28Z</time>
      </trkpt>
      <trkpt lat="44.00116" lon="5.84163">
        <ele>491.62</ele>
        <time>2016-04-26T08:16:36Z</time>
      </trkpt>
      <trkpt lat="44.00164" lon="5.84176">
        <ele>490.77</ele>
        <time>2016-04-26T08:16:43Z</time>
      </trkpt>
      <trkpt lat="44.00212" lon="5.84189">
        <ele>490.15</ele>
        <time>2016-04-26T08:16:50Z</time>
      </trkpt>
      <trkpt lat="44.00245" lon="5.84206">
        <ele>489.41</ele>
        <time>2016-04-26T08:16:55Z</time>
      </trkpt>
      <trkpt lat="44.00251" lon="5.84211">
        <ele>489.31</ele>
        <time>2016-04-26T08:16:56Z</time>
      </trkpt>
      <trkpt lat="44.00256" lon="5.84216">
        <ele>489.6</ele>
        <time>2016-04-26T08:16:57Z</time>
      </trkpt>
      <trkpt lat="44.00261" lon="5.84223">
        <ele>490.14</ele>
        <time>2016-04-26T08:16:58Z</time>
      </trkpt>
      <trkpt lat="44.00265" lon="5.8423">
        <ele>490.43</ele>
        <time>2016-04-26T08:16:59Z</time>
      </trkpt>
      <trkpt lat="44.00295" lon="5.84293">
        <ele>491.04</ele>
        <time>2016-04-26T08:17:07Z</time>
      </trkpt>
      <trkpt lat="44.00322" lon="5.84352">
        <ele>492.14</ele>
        <time>2016-04-26T08:17:15Z</time>
      </trkpt>
      <trkpt lat="44.00338" lon="5.84392">
        <ele>492.77</ele>
        <time>2016-04-26T08:17:21Z</time>
      </trkpt>
      <trkpt lat="44.0034" lon="5.84399">
        <ele>493.08</ele>
        <time>2016-04-26T08:17:22Z</time>
      </trkpt>
      <trkpt lat="44.00341" lon="5.84406">
        <ele>493.25</ele>
        <time>2016-04-26T08:17:23Z</time>
      </trkpt>
      <trkpt lat="44.00342" lon="5.84413">
        <ele>493.29</ele>
        <time>2016-04-26T08:17:24Z</time>
      </trkpt>
      <trkpt lat="44.00343" lon="5.84421">
        <ele>493.29</ele>
        <time>2016-04-26T08:17:25Z</time>
      </trkpt>
      <trkpt lat="44.00347" lon="5.84466">
        <ele>493.83</ele>
        <time>2016-04-26T08:17:32Z</time>
      </trkpt>
      <trkpt lat="44.00359" lon="5.84515">
        <ele>495.51</ele>
        <time>2016-04-26T08:17:41Z</time>
      </trkpt>
      <trkpt lat="44.00361" lon="5.84522">
        <ele>495.7</ele>
        <time>2016-04-26T08:17:42Z</time>
      </trkpt>
      <trkpt lat="44.00361" lon="5.84528">
        <ele>495.87</ele>
        <time>2016-04-26T08:17:43Z</time>
      </trkpt>
      <trkpt lat="44.00362" lon="5.84534">
        <ele>496.11</ele>
        <time>2016-04-26T08:17:44Z</time>
      </trkpt>
      <trkpt lat="44.00362" lon="5.8454">
        <ele>496.29</ele>
        <time>2016-04-26T08:17:45Z</time>
      </trkpt>
      <trkpt lat="44.00367" lon="5.84564">
        <ele>497.7</ele>
        <time>2016-04-26T08:17:49Z</time>
      </trkpt>
      <trkpt lat="44.0037" lon="5.8457">
        <ele>498.06</ele>
        <time>2016-04-26T08:17:50Z</time>
      </trkpt>
      <trkpt lat="44.00373" lon="5.84575">
        <ele>498.44</ele>
        <time>2016-04-26T08:17:51Z</time>
      </trkpt>
      <trkpt lat="44.00376" lon="5.84579">
        <ele>498.75</ele>
        <time>2016-04-26T08:17:52Z</time>
      </trkpt>
      <trkpt lat="44.00378" lon="5.84584">
        <ele>498.98</ele>
        <time>2016-04-26T08:17:53Z</time>
      </trkpt>
      <trkpt lat="44.00404" lon="5.84625">
        <ele>502</ele>
        <time>2016-04-26T08:18:03Z</time>
      </trkpt>
      <trkpt lat="44.00416" lon="5.8466">
        <ele>503.95</ele>
        <time>2016-04-26T08:18:10Z</time>
      </trkpt>
      <trkpt lat="44.00417" lon="5.84666">
        <ele>504.12</ele>
        <time>2016-04-26T08:18:11Z</time>
      </trkpt>
      <trkpt lat="44.00427" lon="5.84737">
        <ele>505.41</ele>
        <time>2016-04-26T08:18:22Z</time>
      </trkpt>
      <trkpt lat="44.00431" lon="5.84751">
        <ele>505.63</ele>
        <time>2016-04-26T08:18:24Z</time>
      </trkpt>
      <trkpt lat="44.00433" lon="5.84757">
        <ele>505.88</ele>
        <time>2016-04-26T08:18:25Z</time>
      </trkpt>
      <trkpt lat="44.00436" lon="5.84763">
        <ele>506.26</ele>
        <time>2016-04-26T08:18:26Z</time>
      </trkpt>
      <trkpt lat="44.00439" lon="5.84767">
        <ele>506.59</ele>
        <time>2016-04-26T08:18:27Z</time>
      </trkpt>
      <trkpt lat="44.00443" lon="5.84771">
        <ele>506.86</ele>
        <time>2016-04-26T08:18:28Z</time>
      </trkpt>
      <trkpt lat="44.00447" lon="5.84775">
        <ele>507.03</ele>
        <time>2016-04-26T08:18:29Z</time>
      </trkpt>
      <trkpt lat="44.00451" lon="5.84778">
        <ele>506.74</ele>
        <time>2016-04-26T08:18:30Z</time>
      </trkpt>
      <trkpt lat="44.00464" lon="5.84787">
        <ele>506.33</ele>
        <time>2016-04-26T08:18:33Z</time>
      </trkpt>
      <trkpt lat="44.00469" lon="5.84791">
        <ele>506.25</ele>
        <time>2016-04-26T08:18:34Z</time>
      </trkpt>
      <trkpt lat="44.00494" lon="5.84816">
        <ele>505.21</ele>
        <time>2016-04-26T08:18:39Z</time>
      </trkpt>
      <trkpt lat="44.0051" lon="5.84842">
        <ele>504.37</ele>
        <time>2016-04-26T08:18:42Z</time>
      </trkpt>
      <trkpt lat="44.0054" lon="5.84903">
        <ele>503.42</ele>
        <time>2016-04-26T08:18:48Z</time>
      </trkpt>
      <trkpt lat="44.00544" lon="5.84914">
        <ele>503.32</ele>
        <time>2016-04-26T08:18:49Z</time>
      </trkpt>
      <trkpt lat="44.00561" lon="5.84989">
        <ele>502.4</ele>
        <time>2016-04-26T08:18:56Z</time>
      </trkpt>
      <trkpt lat="44.00577" lon="5.85058">
        <ele>503.67</ele>
        <time>2016-04-26T08:19:05Z</time>
      </trkpt>
      <trkpt lat="44.00586" lon="5.85093">
        <ele>505.97</ele>
        <time>2016-04-26T08:19:11Z</time>
      </trkpt>
      <trkpt lat="44.00589" lon="5.85099">
        <ele>506.1</ele>
        <time>2016-04-26T08:19:12Z</time>
      </trkpt>
      <trkpt lat="44.006" lon="5.85123">
        <ele>507.48</ele>
        <time>2016-04-26T08:19:16Z</time>
      </trkpt>
      <trkpt lat="44.00603" lon="5.85129">
        <ele>507.76</ele>
        <time>2016-04-26T08:19:17Z</time>
      </trkpt>
      <trkpt lat="44.00619" lon="5.85156">
        <ele>508.29</ele>
        <time>2016-04-26T08:19:22Z</time>
      </trkpt>
      <trkpt lat="44.00644" lon="5.85217">
        <ele>509.63</ele>
        <time>2016-04-26T08:19:33Z</time>
      </trkpt>
      <trkpt lat="44.00668" lon="5.8527">
        <ele>510.85</ele>
        <time>2016-04-26T08:19:43Z</time>
      </trkpt>
      <trkpt lat="44.00695" lon="5.85328">
        <ele>512</ele>
        <time>2016-04-26T08:19:54Z</time>
      </trkpt>
      <trkpt lat="44.0072" lon="5.85391">
        <ele>515.24</ele>
        <time>2016-04-26T08:20:06Z</time>
      </trkpt>
      <trkpt lat="44.00738" lon="5.85443">
        <ele>518.57</ele>
        <time>2016-04-26T08:20:16Z</time>
      </trkpt>
      <trkpt lat="44.00755" lon="5.85501">
        <ele>521.81</ele>
        <time>2016-04-26T08:20:27Z</time>
      </trkpt>
      <trkpt lat="44.00767" lon="5.85551">
        <ele>524.91</ele>
        <time>2016-04-26T08:20:36Z</time>
      </trkpt>
      <trkpt lat="44.0078" lon="5.85621">
        <ele>524.28</ele>
        <time>2016-04-26T08:20:45Z</time>
      </trkpt>
      <trkpt lat="44.00796" lon="5.85694">
        <ele>522.79</ele>
        <time>2016-04-26T08:20:52Z</time>
      </trkpt>
      <trkpt lat="44.0081" lon="5.85737">
        <ele>521.27</ele>
        <time>2016-04-26T08:20:56Z</time>
      </trkpt>
      <trkpt lat="44.00815" lon="5.85745">
        <ele>521.24</ele>
        <time>2016-04-26T08:20:57Z</time>
      </trkpt>
      <trkpt lat="44.0082" lon="5.85751">
        <ele>521</ele>
        <time>2016-04-26T08:20:58Z</time>
      </trkpt>
      <trkpt lat="44.00827" lon="5.85755">
        <ele>520.72</ele>
        <time>2016-04-26T08:20:59Z</time>
      </trkpt>
      <trkpt lat="44.00835" lon="5.85757">
        <ele>519.87</ele>
        <time>2016-04-26T08:21:00Z</time>
      </trkpt>
      <trkpt lat="44.00843" lon="5.8576">
        <ele>519.34</ele>
        <time>2016-04-26T08:21:01Z</time>
      </trkpt>
      <trkpt lat="44.00851" lon="5.85764">
        <ele>518.96</ele>
        <time>2016-04-26T08:21:02Z</time>
      </trkpt>
      <trkpt lat="44.00857" lon="5.85769">
        <ele>518.67</ele>
        <time>2016-04-26T08:21:03Z</time>
      </trkpt>
      <trkpt lat="44.00863" lon="5.85776">
        <ele>518.42</ele>
        <time>2016-04-26T08:21:04Z</time>
      </trkpt>
      <trkpt lat="44.00868" lon="5.85783">
        <ele>518.36</ele>
        <time>2016-04-26T08:21:05Z</time>
      </trkpt>
      <trkpt lat="44.00868" lon="5.8579">
        <ele>518.22</ele>
        <time>2016-04-26T08:21:06Z</time>
      </trkpt>
      <trkpt lat="44.00862" lon="5.858">
        <ele>518.16</ele>
        <time>2016-04-26T08:21:07Z</time>
      </trkpt>
      <trkpt lat="44.00857" lon="5.85805">
        <ele>518.05</ele>
        <time>2016-04-26T08:21:08Z</time>
      </trkpt>
      <trkpt lat="44.00851" lon="5.85809">
        <ele>517.79</ele>
        <time>2016-04-26T08:21:09Z</time>
      </trkpt>
      <trkpt lat="44.00846" lon="5.85814">
        <ele>517.58</ele>
        <time>2016-04-26T08:21:10Z</time>
      </trkpt>
      <trkpt lat="44.00831" lon="5.85827">
        <ele>517.75</ele>
        <time>2016-04-26T08:21:13Z</time>
      </trkpt>
      <trkpt lat="44.00827" lon="5.85833">
        <ele>517.72</ele>
        <time>2016-04-26T08:21:14Z</time>
      </trkpt>
      <trkpt lat="44.00824" lon="5.8584">
        <ele>518.04</ele>
        <time>2016-04-26T08:21:15Z</time>
      </trkpt>
      <trkpt lat="44.00822" lon="5.85848">
        <ele>518.37</ele>
        <time>2016-04-26T08:21:16Z</time>
      </trkpt>
      <trkpt lat="44.0082" lon="5.85857">
        <ele>518.77</ele>
        <time>2016-04-26T08:21:17Z</time>
      </trkpt>
      <trkpt lat="44.00818" lon="5.85866">
        <ele>518.94</ele>
        <time>2016-04-26T08:21:18Z</time>
      </trkpt>
      <trkpt lat="44.00817" lon="5.85874">
        <ele>519.15</ele>
        <time>2016-04-26T08:21:19Z</time>
      </trkpt>
      <trkpt lat="44.00816" lon="5.85883">
        <ele>519.44</ele>
        <time>2016-04-26T08:21:20Z</time>
      </trkpt>
      <trkpt lat="44.00824" lon="5.85954">
        <ele>519.85</ele>
        <time>2016-04-26T08:21:29Z</time>
      </trkpt>
      <trkpt lat="44.00828" lon="5.86024">
        <ele>520.51</ele>
        <time>2016-04-26T08:21:38Z</time>
      </trkpt>
      <trkpt lat="44.00826" lon="5.86048">
        <ele>521.83</ele>
        <time>2016-04-26T08:21:41Z</time>
      </trkpt>
      <trkpt lat="44.00826" lon="5.86055">
        <ele>521.84</ele>
        <time>2016-04-26T08:21:42Z</time>
      </trkpt>
      <trkpt lat="44.00827" lon="5.86076">
        <ele>521.67</ele>
        <time>2016-04-26T08:21:45Z</time>
      </trkpt>
      <trkpt lat="44.00828" lon="5.86083">
        <ele>521.52</ele>
        <time>2016-04-26T08:21:46Z</time>
      </trkpt>
      <trkpt lat="44.00836" lon="5.86123">
        <ele>521.13</ele>
        <time>2016-04-26T08:21:51Z</time>
      </trkpt>
      <trkpt lat="44.00838" lon="5.86132">
        <ele>520.96</ele>
        <time>2016-04-26T08:21:52Z</time>
      </trkpt>
      <trkpt lat="44.00847" lon="5.86169">
        <ele>520.31</ele>
        <time>2016-04-26T08:21:56Z</time>
      </trkpt>
      <trkpt lat="44.0085" lon="5.86178">
        <ele>520.13</ele>
        <time>2016-04-26T08:21:57Z</time>
      </trkpt>
      <trkpt lat="44.00865" lon="5.86216">
        <ele>519.14</ele>
        <time>2016-04-26T08:22:01Z</time>
      </trkpt>
      <trkpt lat="44.00866" lon="5.86227">
        <ele>518.17</ele>
        <time>2016-04-26T08:22:02Z</time>
      </trkpt>
      <trkpt lat="44.00866" lon="5.86238">
        <ele>517.57</ele>
        <time>2016-04-26T08:22:03Z</time>
      </trkpt>
      <trkpt lat="44.00865" lon="5.86249">
        <ele>517.09</ele>
        <time>2016-04-26T08:22:04Z</time>
      </trkpt>
      <trkpt lat="44.00862" lon="5.8626">
        <ele>516.73</ele>
        <time>2016-04-26T08:22:05Z</time>
      </trkpt>
      <trkpt lat="44.0086" lon="5.8627">
        <ele>516.35</ele>
        <time>2016-04-26T08:22:06Z</time>
      </trkpt>
      <trkpt lat="44.00861" lon="5.86281">
        <ele>516.06</ele>
        <time>2016-04-26T08:22:07Z</time>
      </trkpt>
      <trkpt lat="44.00864" lon="5.86291">
        <ele>515.73</ele>
        <time>2016-04-26T08:22:08Z</time>
      </trkpt>
      <trkpt lat="44.00869" lon="5.863">
        <ele>515.37</ele>
        <time>2016-04-26T08:22:09Z</time>
      </trkpt>
      <trkpt lat="44.00876" lon="5.86307">
        <ele>515.22</ele>
        <time>2016-04-26T08:22:10Z</time>
      </trkpt>
      <trkpt lat="44.00883" lon="5.86313">
        <ele>514.96</ele>
        <time>2016-04-26T08:22:11Z</time>
      </trkpt>
      <trkpt lat="44.00891" lon="5.86318">
        <ele>514.46</ele>
        <time>2016-04-26T08:22:12Z</time>
      </trkpt>
      <trkpt lat="44.00899" lon="5.86324">
        <ele>513.87</ele>
        <time>2016-04-26T08:22:13Z</time>
      </trkpt>
      <trkpt lat="44.00908" lon="5.86329">
        <ele>513.68</ele>
        <time>2016-04-26T08:22:14Z</time>
      </trkpt>
      <trkpt lat="44.00916" lon="5.86336">
        <ele>513.59</ele>
        <time>2016-04-26T08:22:15Z</time>
      </trkpt>
      <trkpt lat="44.00923" lon="5.86346">
        <ele>513.41</ele>
        <time>2016-04-26T08:22:16Z</time>
      </trkpt>
      <trkpt lat="44.00929" lon="5.86356">
        <ele>513.16</ele>
        <time>2016-04-26T08:22:17Z</time>
      </trkpt>
      <trkpt lat="44.00935" lon="5.86365">
        <ele>512.68</ele>
        <time>2016-04-26T08:22:18Z</time>
      </trkpt>
      <trkpt lat="44.00943" lon="5.86371">
        <ele>511.82</ele>
        <time>2016-04-26T08:22:19Z</time>
      </trkpt>
      <trkpt lat="44.00951" lon="5.86372">
        <ele>510.96</ele>
        <time>2016-04-26T08:22:20Z</time>
      </trkpt>
      <trkpt lat="44.00958" lon="5.86367">
        <ele>510.17</ele>
        <time>2016-04-26T08:22:21Z</time>
      </trkpt>
      <trkpt lat="44.00965" lon="5.86359">
        <ele>509.65</ele>
        <time>2016-04-26T08:22:22Z</time>
      </trkpt>
      <trkpt lat="44.0097" lon="5.86349">
        <ele>508.96</ele>
        <time>2016-04-26T08:22:23Z</time>
      </trkpt>
      <trkpt lat="44.00975" lon="5.86338">
        <ele>508.53</ele>
        <time>2016-04-26T08:22:24Z</time>
      </trkpt>
      <trkpt lat="44.00979" lon="5.86327">
        <ele>508.28</ele>
        <time>2016-04-26T08:22:25Z</time>
      </trkpt>
      <trkpt lat="44.00984" lon="5.86316">
        <ele>507.94</ele>
        <time>2016-04-26T08:22:26Z</time>
      </trkpt>
      <trkpt lat="44.00991" lon="5.86307">
        <ele>507.78</ele>
        <time>2016-04-26T08:22:27Z</time>
      </trkpt>
      <trkpt lat="44.00999" lon="5.86302">
        <ele>507.33</ele>
        <time>2016-04-26T08:22:28Z</time>
      </trkpt>
      <trkpt lat="44.01008" lon="5.86301">
        <ele>507.11</ele>
        <time>2016-04-26T08:22:29Z</time>
      </trkpt>
      <trkpt lat="44.01015" lon="5.86305">
        <ele>506.77</ele>
        <time>2016-04-26T08:22:30Z</time>
      </trkpt>
      <trkpt lat="44.01022" lon="5.86312">
        <ele>506.85</ele>
        <time>2016-04-26T08:22:31Z</time>
      </trkpt>
      <trkpt lat="44.01027" lon="5.86319">
        <ele>506.85</ele>
        <time>2016-04-26T08:22:32Z</time>
      </trkpt>
      <trkpt lat="44.01028" lon="5.86325">
        <ele>506.89</ele>
        <time>2016-04-26T08:22:33Z</time>
      </trkpt>
      <trkpt lat="44.01021" lon="5.86336">
        <ele>507.26</ele>
        <time>2016-04-26T08:22:34Z</time>
      </trkpt>
      <trkpt lat="44.01013" lon="5.86355">
        <ele>507.24</ele>
        <time>2016-04-26T08:22:36Z</time>
      </trkpt>
      <trkpt lat="44.01008" lon="5.86375">
        <ele>507</ele>
        <time>2016-04-26T08:22:38Z</time>
      </trkpt>
      <trkpt lat="44.01004" lon="5.86397">
        <ele>506.65</ele>
        <time>2016-04-26T08:22:40Z</time>
      </trkpt>
      <trkpt lat="44.01" lon="5.86468">
        <ele>505.89</ele>
        <time>2016-04-26T08:22:46Z</time>
      </trkpt>
      <trkpt lat="44.00998" lon="5.86479">
        <ele>505.82</ele>
        <time>2016-04-26T08:22:47Z</time>
      </trkpt>
      <trkpt lat="44.00994" lon="5.8649">
        <ele>505.45</ele>
        <time>2016-04-26T08:22:48Z</time>
      </trkpt>
      <trkpt lat="44.00969" lon="5.86558">
        <ele>502.69</ele>
        <time>2016-04-26T08:22:54Z</time>
      </trkpt>
      <trkpt lat="44.00966" lon="5.86571">
        <ele>502.57</ele>
        <time>2016-04-26T08:22:55Z</time>
      </trkpt>
      <trkpt lat="44.00967" lon="5.86584">
        <ele>502.29</ele>
        <time>2016-04-26T08:22:56Z</time>
      </trkpt>
      <trkpt lat="44.00969" lon="5.86596">
        <ele>501.29</ele>
        <time>2016-04-26T08:22:57Z</time>
      </trkpt>
      <trkpt lat="44.00976" lon="5.86612">
        <ele>498.65</ele>
        <time>2016-04-26T08:22:59Z</time>
      </trkpt>
      <trkpt lat="44.00982" lon="5.86611">
        <ele>497.73</ele>
        <time>2016-04-26T08:23:00Z</time>
      </trkpt>
      <trkpt lat="44.00995" lon="5.86599">
        <ele>497.06</ele>
        <time>2016-04-26T08:23:01Z</time>
      </trkpt>
      <trkpt lat="44.01011" lon="5.86583">
        <ele>496.74</ele>
        <time>2016-04-26T08:23:03Z</time>
      </trkpt>
      <trkpt lat="44.0102" lon="5.86576">
        <ele>496.7</ele>
        <time>2016-04-26T08:23:04Z</time>
      </trkpt>
      <trkpt lat="44.01029" lon="5.86571">
        <ele>496.13</ele>
        <time>2016-04-26T08:23:05Z</time>
      </trkpt>
      <trkpt lat="44.0104" lon="5.86568">
        <ele>495.73</ele>
        <time>2016-04-26T08:23:06Z</time>
      </trkpt>
      <trkpt lat="44.0105" lon="5.86566">
        <ele>495.47</ele>
        <time>2016-04-26T08:23:07Z</time>
      </trkpt>
      <trkpt lat="44.0106" lon="5.86567">
        <ele>495.02</ele>
        <time>2016-04-26T08:23:08Z</time>
      </trkpt>
      <trkpt lat="44.0107" lon="5.86571">
        <ele>494.21</ele>
        <time>2016-04-26T08:23:09Z</time>
      </trkpt>
      <trkpt lat="44.01077" lon="5.86579">
        <ele>493.43</ele>
        <time>2016-04-26T08:23:10Z</time>
      </trkpt>
      <trkpt lat="44.01084" lon="5.86589">
        <ele>492.66</ele>
        <time>2016-04-26T08:23:11Z</time>
      </trkpt>
      <trkpt lat="44.01087" lon="5.86602">
        <ele>492.27</ele>
        <time>2016-04-26T08:23:12Z</time>
      </trkpt>
      <trkpt lat="44.01087" lon="5.86616">
        <ele>491.16</ele>
        <time>2016-04-26T08:23:13Z</time>
      </trkpt>
      <trkpt lat="44.0109" lon="5.86629">
        <ele>490.58</ele>
        <time>2016-04-26T08:23:14Z</time>
      </trkpt>
      <trkpt lat="44.01093" lon="5.86641">
        <ele>490.09</ele>
        <time>2016-04-26T08:23:15Z</time>
      </trkpt>
      <trkpt lat="44.01098" lon="5.86651">
        <ele>489.63</ele>
        <time>2016-04-26T08:23:16Z</time>
      </trkpt>
      <trkpt lat="44.01105" lon="5.86661">
        <ele>489.31</ele>
        <time>2016-04-26T08:23:17Z</time>
      </trkpt>
      <trkpt lat="44.01111" lon="5.86671">
        <ele>489.01</ele>
        <time>2016-04-26T08:23:18Z</time>
      </trkpt>
      <trkpt lat="44.01119" lon="5.8668">
        <ele>488.63</ele>
        <time>2016-04-26T08:23:19Z</time>
      </trkpt>
      <trkpt lat="44.01127" lon="5.86688">
        <ele>488.16</ele>
        <time>2016-04-26T08:23:20Z</time>
      </trkpt>
      <trkpt lat="44.01137" lon="5.86695">
        <ele>487.64</ele>
        <time>2016-04-26T08:23:21Z</time>
      </trkpt>
      <trkpt lat="44.01147" lon="5.86701">
        <ele>487.3</ele>
        <time>2016-04-26T08:23:22Z</time>
      </trkpt>
      <trkpt lat="44.01199" lon="5.8673">
        <ele>484.99</ele>
        <time>2016-04-26T08:23:27Z</time>
      </trkpt>
      <trkpt lat="44.01251" lon="5.86755">
        <ele>482.97</ele>
        <time>2016-04-26T08:23:32Z</time>
      </trkpt>
      <trkpt lat="44.0129" lon="5.8678">
        <ele>481.18</ele>
        <time>2016-04-26T08:23:36Z</time>
      </trkpt>
      <trkpt lat="44.01327" lon="5.86803">
        <ele>480.37</ele>
        <time>2016-04-26T08:23:40Z</time>
      </trkpt>
      <trkpt lat="44.01337" lon="5.86805">
        <ele>479.9</ele>
        <time>2016-04-26T08:23:41Z</time>
      </trkpt>
      <trkpt lat="44.01348" lon="5.86805">
        <ele>479.33</ele>
        <time>2016-04-26T08:23:42Z</time>
      </trkpt>
      <trkpt lat="44.01358" lon="5.86802">
        <ele>478.6</ele>
        <time>2016-04-26T08:23:43Z</time>
      </trkpt>
      <trkpt lat="44.01367" lon="5.86796">
        <ele>478.12</ele>
        <time>2016-04-26T08:23:44Z</time>
      </trkpt>
      <trkpt lat="44.01376" lon="5.86788">
        <ele>477.97</ele>
        <time>2016-04-26T08:23:45Z</time>
      </trkpt>
      <trkpt lat="44.01386" lon="5.86783">
        <ele>477.97</ele>
        <time>2016-04-26T08:23:46Z</time>
      </trkpt>
      <trkpt lat="44.01396" lon="5.86779">
        <ele>477.79</ele>
        <time>2016-04-26T08:23:47Z</time>
      </trkpt>
      <trkpt lat="44.01406" lon="5.86779">
        <ele>476.75</ele>
        <time>2016-04-26T08:23:48Z</time>
      </trkpt>
      <trkpt lat="44.01416" lon="5.86783">
        <ele>475.41</ele>
        <time>2016-04-26T08:23:49Z</time>
      </trkpt>
      <trkpt lat="44.01425" lon="5.8679">
        <ele>474.85</ele>
        <time>2016-04-26T08:23:50Z</time>
      </trkpt>
      <trkpt lat="44.01435" lon="5.86797">
        <ele>474.58</ele>
        <time>2016-04-26T08:23:51Z</time>
      </trkpt>
      <trkpt lat="44.01443" lon="5.86807">
        <ele>474.37</ele>
        <time>2016-04-26T08:23:52Z</time>
      </trkpt>
      <trkpt lat="44.01451" lon="5.86816">
        <ele>473.79</ele>
        <time>2016-04-26T08:23:53Z</time>
      </trkpt>
      <trkpt lat="44.01495" lon="5.86866">
        <ele>471.9</ele>
        <time>2016-04-26T08:23:59Z</time>
      </trkpt>
      <trkpt lat="44.01507" lon="5.86879">
        <ele>472.85</ele>
        <time>2016-04-26T08:24:01Z</time>
      </trkpt>
      <trkpt lat="44.01513" lon="5.86883">
        <ele>473.26</ele>
        <time>2016-04-26T08:24:02Z</time>
      </trkpt>
      <trkpt lat="44.01518" lon="5.86885">
        <ele>473.36</ele>
        <time>2016-04-26T08:24:03Z</time>
      </trkpt>
      <trkpt lat="44.01523" lon="5.86886">
        <ele>473.26</ele>
        <time>2016-04-26T08:24:04Z</time>
      </trkpt>
      <trkpt lat="44.01527" lon="5.86886">
        <ele>473.09</ele>
        <time>2016-04-26T08:24:05Z</time>
      </trkpt>
      <trkpt lat="44.0153" lon="5.86885">
        <ele>473.19</ele>
        <time>2016-04-26T08:24:06Z</time>
      </trkpt>
      <trkpt lat="44.01535" lon="5.86883">
        <ele>473.49</ele>
        <time>2016-04-26T08:24:07Z</time>
      </trkpt>
      <trkpt lat="44.01538" lon="5.8688">
        <ele>473.82</ele>
        <time>2016-04-26T08:24:08Z</time>
      </trkpt>
      <trkpt lat="44.01541" lon="5.86877">
        <ele>473.99</ele>
        <time>2016-04-26T08:24:09Z</time>
      </trkpt>
      <trkpt lat="44.01545" lon="5.86874">
        <ele>474.26</ele>
        <time>2016-04-26T08:24:10Z</time>
      </trkpt>
      <trkpt lat="44.01555" lon="5.86862">
        <ele>475.59</ele>
        <time>2016-04-26T08:24:13Z</time>
      </trkpt>
      <trkpt lat="44.01558" lon="5.86859">
        <ele>476</ele>
        <time>2016-04-26T08:24:14Z</time>
      </trkpt>
      <trkpt lat="44.01562" lon="5.86856">
        <ele>476.26</ele>
        <time>2016-04-26T08:24:15Z</time>
      </trkpt>
      <trkpt lat="44.01565" lon="5.86854">
        <ele>476.47</ele>
        <time>2016-04-26T08:24:16Z</time>
      </trkpt>
      <trkpt lat="44.01569" lon="5.86853">
        <ele>476.63</ele>
        <time>2016-04-26T08:24:17Z</time>
      </trkpt>
      <trkpt lat="44.01577" lon="5.86851">
        <ele>476.99</ele>
        <time>2016-04-26T08:24:19Z</time>
      </trkpt>
      <trkpt lat="44.01582" lon="5.86852">
        <ele>477.29</ele>
        <time>2016-04-26T08:24:20Z</time>
      </trkpt>
      <trkpt lat="44.01587" lon="5.86852">
        <ele>477.6</ele>
        <time>2016-04-26T08:24:21Z</time>
      </trkpt>
      <trkpt lat="44.01597" lon="5.86853">
        <ele>478.2</ele>
        <time>2016-04-26T08:24:23Z</time>
      </trkpt>
      <trkpt lat="44.01647" lon="5.8686">
        <ele>480.7</ele>
        <time>2016-04-26T08:24:35Z</time>
      </trkpt>
      <trkpt lat="44.017" lon="5.86849">
        <ele>482.56</ele>
        <time>2016-04-26T08:24:47Z</time>
      </trkpt>
      <trkpt lat="44.01749" lon="5.86836">
        <ele>482.82</ele>
        <time>2016-04-26T08:24:57Z</time>
      </trkpt>
      <trkpt lat="44.01764" lon="5.86824">
        <ele>482.96</ele>
        <time>2016-04-26T08:25:00Z</time>
      </trkpt>
      <trkpt lat="44.01805" lon="5.86784">
        <ele>481.61</ele>
        <time>2016-04-26T08:25:07Z</time>
      </trkpt>
      <trkpt lat="44.01827" lon="5.86768">
        <ele>481.15</ele>
        <time>2016-04-26T08:25:10Z</time>
      </trkpt>
      <trkpt lat="44.01835" lon="5.86764">
        <ele>480.65</ele>
        <time>2016-04-26T08:25:11Z</time>
      </trkpt>
      <trkpt lat="44.01843" lon="5.86761">
        <ele>480.28</ele>
        <time>2016-04-26T08:25:12Z</time>
      </trkpt>
      <trkpt lat="44.01886" lon="5.86752">
        <ele>479.07</ele>
        <time>2016-04-26T08:25:17Z</time>
      </trkpt>
      <trkpt lat="44.01894" lon="5.86751">
        <ele>479.16</ele>
        <time>2016-04-26T08:25:18Z</time>
      </trkpt>
      <trkpt lat="44.01902" lon="5.86752">
        <ele>479.28</ele>
        <time>2016-04-26T08:25:19Z</time>
      </trkpt>
      <trkpt lat="44.01958" lon="5.86755">
        <ele>479.45</ele>
        <time>2016-04-26T08:25:26Z</time>
      </trkpt>
      <trkpt lat="44.02011" lon="5.86759">
        <ele>479.42</ele>
        <time>2016-04-26T08:25:33Z</time>
      </trkpt>
      <trkpt lat="44.02064" lon="5.8677">
        <ele>478.98</ele>
        <time>2016-04-26T08:25:40Z</time>
      </trkpt>
      <trkpt lat="44.02078" lon="5.86773">
        <ele>479.17</ele>
        <time>2016-04-26T08:25:42Z</time>
      </trkpt>
      <trkpt lat="44.02116" lon="5.86771">
        <ele>479.31</ele>
        <time>2016-04-26T08:25:47Z</time>
      </trkpt>
      <trkpt lat="44.02124" lon="5.86767">
        <ele>479.02</ele>
        <time>2016-04-26T08:25:48Z</time>
      </trkpt>
      <trkpt lat="44.02132" lon="5.86764">
        <ele>478.72</ele>
        <time>2016-04-26T08:25:49Z</time>
      </trkpt>
      <trkpt lat="44.02174" lon="5.86734">
        <ele>478.59</ele>
        <time>2016-04-26T08:25:55Z</time>
      </trkpt>
      <trkpt lat="44.02186" lon="5.86724">
        <ele>479.4</ele>
        <time>2016-04-26T08:25:57Z</time>
      </trkpt>
      <trkpt lat="44.02224" lon="5.86679">
        <ele>481.09</ele>
        <time>2016-04-26T08:26:05Z</time>
      </trkpt>
      <trkpt lat="44.02232" lon="5.86664">
        <ele>481.2</ele>
        <time>2016-04-26T08:26:07Z</time>
      </trkpt>
      <trkpt lat="44.02235" lon="5.86656">
        <ele>481.18</ele>
        <time>2016-04-26T08:26:08Z</time>
      </trkpt>
      <trkpt lat="44.02237" lon="5.86647">
        <ele>481.19</ele>
        <time>2016-04-26T08:26:09Z</time>
      </trkpt>
      <trkpt lat="44.02251" lon="5.86578">
        <ele>482.23</ele>
        <time>2016-04-26T08:26:17Z</time>
      </trkpt>
      <trkpt lat="44.02264" lon="5.86513">
        <ele>484.65</ele>
        <time>2016-04-26T08:26:28Z</time>
      </trkpt>
      <trkpt lat="44.02289" lon="5.86455">
        <ele>487.6</ele>
        <time>2016-04-26T08:26:41Z</time>
      </trkpt>
      <trkpt lat="44.02324" lon="5.86476">
        <ele>490.79</ele>
        <time>2016-04-26T08:26:52Z</time>
      </trkpt>
      <trkpt lat="44.02357" lon="5.86499">
        <ele>493.02</ele>
        <time>2016-04-26T08:27:01Z</time>
      </trkpt>
      <trkpt lat="44.024" lon="5.86531">
        <ele>495.96</ele>
        <time>2016-04-26T08:27:11Z</time>
      </trkpt>
      <trkpt lat="44.02422" lon="5.86542">
        <ele>496.31</ele>
        <time>2016-04-26T08:27:15Z</time>
      </trkpt>
      <trkpt lat="44.02428" lon="5.86543">
        <ele>496.29</ele>
        <time>2016-04-26T08:27:16Z</time>
      </trkpt>
      <trkpt lat="44.02434" lon="5.86542">
        <ele>496.24</ele>
        <time>2016-04-26T08:27:17Z</time>
      </trkpt>
      <trkpt lat="44.02448" lon="5.8654">
        <ele>496.05</ele>
        <time>2016-04-26T08:27:19Z</time>
      </trkpt>
      <trkpt lat="44.02502" lon="5.86525">
        <ele>495.17</ele>
        <time>2016-04-26T08:27:27Z</time>
      </trkpt>
      <trkpt lat="44.02538" lon="5.86513">
        <ele>495.4</ele>
        <time>2016-04-26T08:27:33Z</time>
      </trkpt>
      <trkpt lat="44.02542" lon="5.8651">
        <ele>495.44</ele>
        <time>2016-04-26T08:27:34Z</time>
      </trkpt>
      <trkpt lat="44.02547" lon="5.86506">
        <ele>495.57</ele>
        <time>2016-04-26T08:27:35Z</time>
      </trkpt>
      <trkpt lat="44.02551" lon="5.86501">
        <ele>495.86</ele>
        <time>2016-04-26T08:27:36Z</time>
      </trkpt>
      <trkpt lat="44.02555" lon="5.86497">
        <ele>496.02</ele>
        <time>2016-04-26T08:27:37Z</time>
      </trkpt>
      <trkpt lat="44.02592" lon="5.8645">
        <ele>496.71</ele>
        <time>2016-04-26T08:27:45Z</time>
      </trkpt>
      <trkpt lat="44.02615" lon="5.8642">
        <ele>497.68</ele>
        <time>2016-04-26T08:27:50Z</time>
      </trkpt>
      <trkpt lat="44.0262" lon="5.86415">
        <ele>497.89</ele>
        <time>2016-04-26T08:27:51Z</time>
      </trkpt>
      <trkpt lat="44.0263" lon="5.86406">
        <ele>498.32</ele>
        <time>2016-04-26T08:27:53Z</time>
      </trkpt>
      <trkpt lat="44.02635" lon="5.86402">
        <ele>498.56</ele>
        <time>2016-04-26T08:27:54Z</time>
      </trkpt>
      <trkpt lat="44.02641" lon="5.864">
        <ele>498.82</ele>
        <time>2016-04-26T08:27:55Z</time>
      </trkpt>
      <trkpt lat="44.02647" lon="5.86398">
        <ele>499.03</ele>
        <time>2016-04-26T08:27:56Z</time>
      </trkpt>
      <trkpt lat="44.02652" lon="5.86397">
        <ele>499.23</ele>
        <time>2016-04-26T08:27:57Z</time>
      </trkpt>
      <trkpt lat="44.02658" lon="5.86397">
        <ele>499.55</ele>
        <time>2016-04-26T08:27:58Z</time>
      </trkpt>
      <trkpt lat="44.02664" lon="5.86397">
        <ele>499.75</ele>
        <time>2016-04-26T08:27:59Z</time>
      </trkpt>
      <trkpt lat="44.0267" lon="5.86399">
        <ele>500.06</ele>
        <time>2016-04-26T08:28:00Z</time>
      </trkpt>
      <trkpt lat="44.02676" lon="5.864">
        <ele>500.45</ele>
        <time>2016-04-26T08:28:01Z</time>
      </trkpt>
      <trkpt lat="44.02682" lon="5.86402">
        <ele>500.68</ele>
        <time>2016-04-26T08:28:02Z</time>
      </trkpt>
      <trkpt lat="44.02695" lon="5.86403">
        <ele>500.76</ele>
        <time>2016-04-26T08:28:04Z</time>
      </trkpt>
      <trkpt lat="44.02702" lon="5.86402">
        <ele>500.75</ele>
        <time>2016-04-26T08:28:05Z</time>
      </trkpt>
      <trkpt lat="44.02709" lon="5.864">
        <ele>500.86</ele>
        <time>2016-04-26T08:28:06Z</time>
      </trkpt>
      <trkpt lat="44.02716" lon="5.86398">
        <ele>500.89</ele>
        <time>2016-04-26T08:28:07Z</time>
      </trkpt>
      <trkpt lat="44.02723" lon="5.86395">
        <ele>500.75</ele>
        <time>2016-04-26T08:28:08Z</time>
      </trkpt>
      <trkpt lat="44.02769" lon="5.86376">
        <ele>500.44</ele>
        <time>2016-04-26T08:28:14Z</time>
      </trkpt>
      <trkpt lat="44.02777" lon="5.86371">
        <ele>500.18</ele>
        <time>2016-04-26T08:28:15Z</time>
      </trkpt>
      <trkpt lat="44.02784" lon="5.86364">
        <ele>499.97</ele>
        <time>2016-04-26T08:28:16Z</time>
      </trkpt>
      <trkpt lat="44.02789" lon="5.86356">
        <ele>499.77</ele>
        <time>2016-04-26T08:28:17Z</time>
      </trkpt>
      <trkpt lat="44.02793" lon="5.86346">
        <ele>499.44</ele>
        <time>2016-04-26T08:28:18Z</time>
      </trkpt>
      <trkpt lat="44.02794" lon="5.86336">
        <ele>499.18</ele>
        <time>2016-04-26T08:28:19Z</time>
      </trkpt>
      <trkpt lat="44.02794" lon="5.86326">
        <ele>498.93</ele>
        <time>2016-04-26T08:28:20Z</time>
      </trkpt>
      <trkpt lat="44.02794" lon="5.86316">
        <ele>498.8</ele>
        <time>2016-04-26T08:28:21Z</time>
      </trkpt>
      <trkpt lat="44.02793" lon="5.86306">
        <ele>498.79</ele>
        <time>2016-04-26T08:28:22Z</time>
      </trkpt>
      <trkpt lat="44.02794" lon="5.86296">
        <ele>498.88</ele>
        <time>2016-04-26T08:28:23Z</time>
      </trkpt>
      <trkpt lat="44.02796" lon="5.86287">
        <ele>498.92</ele>
        <time>2016-04-26T08:28:24Z</time>
      </trkpt>
      <trkpt lat="44.02798" lon="5.86279">
        <ele>499.08</ele>
        <time>2016-04-26T08:28:25Z</time>
      </trkpt>
      <trkpt lat="44.02808" lon="5.86249">
        <ele>499.25</ele>
        <time>2016-04-26T08:28:29Z</time>
      </trkpt>
      <trkpt lat="44.02816" lon="5.86212">
        <ele>499.99</ele>
        <time>2016-04-26T08:28:34Z</time>
      </trkpt>
      <trkpt lat="44.02818" lon="5.86204">
        <ele>500.28</ele>
        <time>2016-04-26T08:28:35Z</time>
      </trkpt>
      <trkpt lat="44.02832" lon="5.86171">
        <ele>501.15</ele>
        <time>2016-04-26T08:28:40Z</time>
      </trkpt>
      <trkpt lat="44.02836" lon="5.86165">
        <ele>501.31</ele>
        <time>2016-04-26T08:28:41Z</time>
      </trkpt>
      <trkpt lat="44.02874" lon="5.8612">
        <ele>502.45</ele>
        <time>2016-04-26T08:28:50Z</time>
      </trkpt>
      <trkpt lat="44.02909" lon="5.8608">
        <ele>502.98</ele>
        <time>2016-04-26T08:28:58Z</time>
      </trkpt>
      <trkpt lat="44.02914" lon="5.86075">
        <ele>503.05</ele>
        <time>2016-04-26T08:28:59Z</time>
      </trkpt>
      <trkpt lat="44.02919" lon="5.86072">
        <ele>503.02</ele>
        <time>2016-04-26T08:29:00Z</time>
      </trkpt>
      <trkpt lat="44.02926" lon="5.86069">
        <ele>502.99</ele>
        <time>2016-04-26T08:29:01Z</time>
      </trkpt>
      <trkpt lat="44.02932" lon="5.86068">
        <ele>502.99</ele>
        <time>2016-04-26T08:29:02Z</time>
      </trkpt>
      <trkpt lat="44.02939" lon="5.86068">
        <ele>502.98</ele>
        <time>2016-04-26T08:29:03Z</time>
      </trkpt>
      <trkpt lat="44.02946" lon="5.86069">
        <ele>502.98</ele>
        <time>2016-04-26T08:29:04Z</time>
      </trkpt>
      <trkpt lat="44.02953" lon="5.86069">
        <ele>502.98</ele>
        <time>2016-04-26T08:29:05Z</time>
      </trkpt>
      <trkpt lat="44.0296" lon="5.86067">
        <ele>502.98</ele>
        <time>2016-04-26T08:29:06Z</time>
      </trkpt>
      <trkpt lat="44.02967" lon="5.86063">
        <ele>502.81</ele>
        <time>2016-04-26T08:29:07Z</time>
      </trkpt>
      <trkpt lat="44.02973" lon="5.86056">
        <ele>502.61</ele>
        <time>2016-04-26T08:29:08Z</time>
      </trkpt>
      <trkpt lat="44.02978" lon="5.86048">
        <ele>502.42</ele>
        <time>2016-04-26T08:29:09Z</time>
      </trkpt>
      <trkpt lat="44.02981" lon="5.86039">
        <ele>502.29</ele>
        <time>2016-04-26T08:29:10Z</time>
      </trkpt>
      <trkpt lat="44.02984" lon="5.86029">
        <ele>502.22</ele>
        <time>2016-04-26T08:29:11Z</time>
      </trkpt>
      <trkpt lat="44.02987" lon="5.86019">
        <ele>502.11</ele>
        <time>2016-04-26T08:29:12Z</time>
      </trkpt>
      <trkpt lat="44.02993" lon="5.86002">
        <ele>502.09</ele>
        <time>2016-04-26T08:29:14Z</time>
      </trkpt>
      <trkpt lat="44.02997" lon="5.85995">
        <ele>502.09</ele>
        <time>2016-04-26T08:29:15Z</time>
      </trkpt>
      <trkpt lat="44.03002" lon="5.8599">
        <ele>502.16</ele>
        <time>2016-04-26T08:29:16Z</time>
      </trkpt>
      <trkpt lat="44.03008" lon="5.85986">
        <ele>502.42</ele>
        <time>2016-04-26T08:29:17Z</time>
      </trkpt>
      <trkpt lat="44.03013" lon="5.85982">
        <ele>502.73</ele>
        <time>2016-04-26T08:29:18Z</time>
      </trkpt>
      <trkpt lat="44.03018" lon="5.85979">
        <ele>502.97</ele>
        <time>2016-04-26T08:29:19Z</time>
      </trkpt>
      <trkpt lat="44.03023" lon="5.85977">
        <ele>503.12</ele>
        <time>2016-04-26T08:29:20Z</time>
      </trkpt>
      <trkpt lat="44.03055" lon="5.85963">
        <ele>504.48</ele>
        <time>2016-04-26T08:29:27Z</time>
      </trkpt>
      <trkpt lat="44.03108" lon="5.8596">
        <ele>507.16</ele>
        <time>2016-04-26T08:29:39Z</time>
      </trkpt>
      <trkpt lat="44.03156" lon="5.8595">
        <ele>509.01</ele>
        <time>2016-04-26T08:29:50Z</time>
      </trkpt>
      <trkpt lat="44.03197" lon="5.85936">
        <ele>510.49</ele>
        <time>2016-04-26T08:29:59Z</time>
      </trkpt>
      <trkpt lat="44.03249" lon="5.85923">
        <ele>513.72</ele>
        <time>2016-04-26T08:30:12Z</time>
      </trkpt>
      <trkpt lat="44.03264" lon="5.85918">
        <ele>515.01</ele>
        <time>2016-04-26T08:30:16Z</time>
      </trkpt>
      <trkpt lat="44.03268" lon="5.85917">
        <ele>515.24</ele>
        <time>2016-04-26T08:30:17Z</time>
      </trkpt>
      <trkpt lat="44.03316" lon="5.85897">
        <ele>517.34</ele>
        <time>2016-04-26T08:30:28Z</time>
      </trkpt>
      <trkpt lat="44.03339" lon="5.85882">
        <ele>516.31</ele>
        <time>2016-04-26T08:30:32Z</time>
      </trkpt>
      <trkpt lat="44.03344" lon="5.85875">
        <ele>516.12</ele>
        <time>2016-04-26T08:30:33Z</time>
      </trkpt>
      <trkpt lat="44.03348" lon="5.85866">
        <ele>515.86</ele>
        <time>2016-04-26T08:30:34Z</time>
      </trkpt>
      <trkpt lat="44.03364" lon="5.85835">
        <ele>515.63</ele>
        <time>2016-04-26T08:30:38Z</time>
      </trkpt>
      <trkpt lat="44.0337" lon="5.8583">
        <ele>515.41</ele>
        <time>2016-04-26T08:30:39Z</time>
      </trkpt>
      <trkpt lat="44.03376" lon="5.85826">
        <ele>515.38</ele>
        <time>2016-04-26T08:30:40Z</time>
      </trkpt>
      <trkpt lat="44.03381" lon="5.85824">
        <ele>515.51</ele>
        <time>2016-04-26T08:30:41Z</time>
      </trkpt>
      <trkpt lat="44.03387" lon="5.85823">
        <ele>515.71</ele>
        <time>2016-04-26T08:30:42Z</time>
      </trkpt>
      <trkpt lat="44.03392" lon="5.85823">
        <ele>515.95</ele>
        <time>2016-04-26T08:30:43Z</time>
      </trkpt>
      <trkpt lat="44.03397" lon="5.85823">
        <ele>516.11</ele>
        <time>2016-04-26T08:30:44Z</time>
      </trkpt>
      <trkpt lat="44.03422" lon="5.85825">
        <ele>517.57</ele>
        <time>2016-04-26T08:30:49Z</time>
      </trkpt>
      <trkpt lat="44.03459" lon="5.8583">
        <ele>519.71</ele>
        <time>2016-04-26T08:30:57Z</time>
      </trkpt>
      <trkpt lat="44.03463" lon="5.8583">
        <ele>519.97</ele>
        <time>2016-04-26T08:30:58Z</time>
      </trkpt>
      <trkpt lat="44.03468" lon="5.8583">
        <ele>520.22</ele>
        <time>2016-04-26T08:30:59Z</time>
      </trkpt>
      <trkpt lat="44.03488" lon="5.85827">
        <ele>521.39</ele>
        <time>2016-04-26T08:31:04Z</time>
      </trkpt>
      <trkpt lat="44.03507" lon="5.85815">
        <ele>522.88</ele>
        <time>2016-04-26T08:31:09Z</time>
      </trkpt>
      <trkpt lat="44.0351" lon="5.8581">
        <ele>523.14</ele>
        <time>2016-04-26T08:31:10Z</time>
      </trkpt>
      <trkpt lat="44.03513" lon="5.85804">
        <ele>523.38</ele>
        <time>2016-04-26T08:31:11Z</time>
      </trkpt>
      <trkpt lat="44.0353" lon="5.85772">
        <ele>525.07</ele>
        <time>2016-04-26T08:31:16Z</time>
      </trkpt>
      <trkpt lat="44.03561" lon="5.85727">
        <ele>525.3</ele>
        <time>2016-04-26T08:31:23Z</time>
      </trkpt>
      <trkpt lat="44.03566" lon="5.85723">
        <ele>525.17</ele>
        <time>2016-04-26T08:31:24Z</time>
      </trkpt>
      <trkpt lat="44.03614" lon="5.85691">
        <ele>525.91</ele>
        <time>2016-04-26T08:31:33Z</time>
      </trkpt>
      <trkpt lat="44.03619" lon="5.85687">
        <ele>526.1</ele>
        <time>2016-04-26T08:31:34Z</time>
      </trkpt>
      <trkpt lat="44.03657" lon="5.85636">
        <ele>526.59</ele>
        <time>2016-04-26T08:31:43Z</time>
      </trkpt>
      <trkpt lat="44.03685" lon="5.85594">
        <ele>527.47</ele>
        <time>2016-04-26T08:31:50Z</time>
      </trkpt>
      <trkpt lat="44.03689" lon="5.85586">
        <ele>527.53</ele>
        <time>2016-04-26T08:31:51Z</time>
      </trkpt>
      <trkpt lat="44.03692" lon="5.85578">
        <ele>527.58</ele>
        <time>2016-04-26T08:31:52Z</time>
      </trkpt>
      <trkpt lat="44.03715" lon="5.85509">
        <ele>527.92</ele>
        <time>2016-04-26T08:32:00Z</time>
      </trkpt>
      <trkpt lat="44.03737" lon="5.85445">
        <ele>527.18</ele>
        <time>2016-04-26T08:32:07Z</time>
      </trkpt>
      <trkpt lat="44.03761" lon="5.85377">
        <ele>526.74</ele>
        <time>2016-04-26T08:32:15Z</time>
      </trkpt>
      <trkpt lat="44.03782" lon="5.85316">
        <ele>528.02</ele>
        <time>2016-04-26T08:32:23Z</time>
      </trkpt>
      <trkpt lat="44.03785" lon="5.85309">
        <ele>528.23</ele>
        <time>2016-04-26T08:32:24Z</time>
      </trkpt>
      <trkpt lat="44.03789" lon="5.85302">
        <ele>528.4</ele>
        <time>2016-04-26T08:32:25Z</time>
      </trkpt>
      <trkpt lat="44.03793" lon="5.85297">
        <ele>528.55</ele>
        <time>2016-04-26T08:32:26Z</time>
      </trkpt>
      <trkpt lat="44.03798" lon="5.85292">
        <ele>528.7</ele>
        <time>2016-04-26T08:32:27Z</time>
      </trkpt>
      <trkpt lat="44.03803" lon="5.85289">
        <ele>528.86</ele>
        <time>2016-04-26T08:32:28Z</time>
      </trkpt>
      <trkpt lat="44.03809" lon="5.85286">
        <ele>528.97</ele>
        <time>2016-04-26T08:32:29Z</time>
      </trkpt>
      <trkpt lat="44.03815" lon="5.85285">
        <ele>528.96</ele>
        <time>2016-04-26T08:32:30Z</time>
      </trkpt>
      <trkpt lat="44.03821" lon="5.85283">
        <ele>528.83</ele>
        <time>2016-04-26T08:32:31Z</time>
      </trkpt>
      <trkpt lat="44.03856" lon="5.85275">
        <ele>529.04</ele>
        <time>2016-04-26T08:32:37Z</time>
      </trkpt>
      <trkpt lat="44.03861" lon="5.85272">
        <ele>529.05</ele>
        <time>2016-04-26T08:32:38Z</time>
      </trkpt>
      <trkpt lat="44.03866" lon="5.85269">
        <ele>529.05</ele>
        <time>2016-04-26T08:32:39Z</time>
      </trkpt>
      <trkpt lat="44.03871" lon="5.85265">
        <ele>528.93</ele>
        <time>2016-04-26T08:32:40Z</time>
      </trkpt>
      <trkpt lat="44.03875" lon="5.8526">
        <ele>528.83</ele>
        <time>2016-04-26T08:32:41Z</time>
      </trkpt>
      <trkpt lat="44.03878" lon="5.85255">
        <ele>528.89</ele>
        <time>2016-04-26T08:32:42Z</time>
      </trkpt>
      <trkpt lat="44.03882" lon="5.8525">
        <ele>529.15</ele>
        <time>2016-04-26T08:32:43Z</time>
      </trkpt>
      <trkpt lat="44.03885" lon="5.85245">
        <ele>529.32</ele>
        <time>2016-04-26T08:32:44Z</time>
      </trkpt>
      <trkpt lat="44.03919" lon="5.85185">
        <ele>532.27</ele>
        <time>2016-04-26T08:32:54Z</time>
      </trkpt>
      <trkpt lat="44.0396" lon="5.85126">
        <ele>533.65</ele>
        <time>2016-04-26T08:33:06Z</time>
      </trkpt>
      <trkpt lat="44.03965" lon="5.85125">
        <ele>533.73</ele>
        <time>2016-04-26T08:33:07Z</time>
      </trkpt>
      <trkpt lat="44.0397" lon="5.85124">
        <ele>533.93</ele>
        <time>2016-04-26T08:33:08Z</time>
      </trkpt>
      <trkpt lat="44.04005" lon="5.85122">
        <ele>535.18</ele>
        <time>2016-04-26T08:33:15Z</time>
      </trkpt>
      <trkpt lat="44.0401" lon="5.85122">
        <ele>535.33</ele>
        <time>2016-04-26T08:33:16Z</time>
      </trkpt>
      <trkpt lat="44.04025" lon="5.8512">
        <ele>535.9</ele>
        <time>2016-04-26T08:33:19Z</time>
      </trkpt>
      <trkpt lat="44.0403" lon="5.85118">
        <ele>536.15</ele>
        <time>2016-04-26T08:33:20Z</time>
      </trkpt>
      <trkpt lat="44.04034" lon="5.85115">
        <ele>536.33</ele>
        <time>2016-04-26T08:33:21Z</time>
      </trkpt>
      <trkpt lat="44.04038" lon="5.8511">
        <ele>536.53</ele>
        <time>2016-04-26T08:33:22Z</time>
      </trkpt>
      <trkpt lat="44.04041" lon="5.85105">
        <ele>536.63</ele>
        <time>2016-04-26T08:33:23Z</time>
      </trkpt>
      <trkpt lat="44.04044" lon="5.851">
        <ele>536.85</ele>
        <time>2016-04-26T08:33:24Z</time>
      </trkpt>
      <trkpt lat="44.04047" lon="5.85093">
        <ele>537.11</ele>
        <time>2016-04-26T08:33:25Z</time>
      </trkpt>
      <trkpt lat="44.0405" lon="5.85087">
        <ele>537.22</ele>
        <time>2016-04-26T08:33:26Z</time>
      </trkpt>
      <trkpt lat="44.04052" lon="5.8508">
        <ele>537.32</ele>
        <time>2016-04-26T08:33:27Z</time>
      </trkpt>
      <trkpt lat="44.04054" lon="5.85074">
        <ele>537.38</ele>
        <time>2016-04-26T08:33:28Z</time>
      </trkpt>
      <trkpt lat="44.04076" lon="5.85008">
        <ele>538.67</ele>
        <time>2016-04-26T08:33:38Z</time>
      </trkpt>
      <trkpt lat="44.041" lon="5.84942">
        <ele>540.05</ele>
        <time>2016-04-26T08:33:48Z</time>
      </trkpt>
      <trkpt lat="44.04109" lon="5.84925">
        <ele>540.48</ele>
        <time>2016-04-26T08:33:51Z</time>
      </trkpt>
      <trkpt lat="44.04113" lon="5.8492">
        <ele>540.61</ele>
        <time>2016-04-26T08:33:52Z</time>
      </trkpt>
      <trkpt lat="44.04116" lon="5.84915">
        <ele>540.72</ele>
        <time>2016-04-26T08:33:53Z</time>
      </trkpt>
      <trkpt lat="44.0412" lon="5.8491">
        <ele>540.93</ele>
        <time>2016-04-26T08:33:54Z</time>
      </trkpt>
      <trkpt lat="44.04123" lon="5.84904">
        <ele>541.1</ele>
        <time>2016-04-26T08:33:55Z</time>
      </trkpt>
      <trkpt lat="44.04161" lon="5.84852">
        <ele>542.6</ele>
        <time>2016-04-26T08:34:05Z</time>
      </trkpt>
      <trkpt lat="44.04196" lon="5.84805">
        <ele>544.19</ele>
        <time>2016-04-26T08:34:15Z</time>
      </trkpt>
      <trkpt lat="44.04213" lon="5.84781">
        <ele>545.22</ele>
        <time>2016-04-26T08:34:20Z</time>
      </trkpt>
      <trkpt lat="44.04218" lon="5.8477">
        <ele>545.42</ele>
        <time>2016-04-26T08:34:22Z</time>
      </trkpt>
      <trkpt lat="44.04221" lon="5.84764">
        <ele>545.56</ele>
        <time>2016-04-26T08:34:23Z</time>
      </trkpt>
      <trkpt lat="44.04223" lon="5.84758">
        <ele>545.65</ele>
        <time>2016-04-26T08:34:24Z</time>
      </trkpt>
      <trkpt lat="44.0423" lon="5.84729">
        <ele>545.85</ele>
        <time>2016-04-26T08:34:29Z</time>
      </trkpt>
      <trkpt lat="44.04244" lon="5.84667">
        <ele>548.16</ele>
        <time>2016-04-26T08:34:40Z</time>
      </trkpt>
      <trkpt lat="44.04269" lon="5.84606">
        <ele>550.86</ele>
        <time>2016-04-26T08:34:51Z</time>
      </trkpt>
      <trkpt lat="44.04297" lon="5.84553">
        <ele>552.85</ele>
        <time>2016-04-26T08:35:02Z</time>
      </trkpt>
      <trkpt lat="44.04326" lon="5.845">
        <ele>555.26</ele>
        <time>2016-04-26T08:35:13Z</time>
      </trkpt>
      <trkpt lat="44.04339" lon="5.84476">
        <ele>555.88</ele>
        <time>2016-04-26T08:35:18Z</time>
      </trkpt>
      <trkpt lat="44.04368" lon="5.84419">
        <ele>557.77</ele>
        <time>2016-04-26T08:35:30Z</time>
      </trkpt>
      <trkpt lat="44.04399" lon="5.84367">
        <ele>560.57</ele>
        <time>2016-04-26T08:35:42Z</time>
      </trkpt>
      <trkpt lat="44.04437" lon="5.84335">
        <ele>562.54</ele>
        <time>2016-04-26T08:35:52Z</time>
      </trkpt>
      <trkpt lat="44.04487" lon="5.84321">
        <ele>564.17</ele>
        <time>2016-04-26T08:36:02Z</time>
      </trkpt>
      <trkpt lat="44.04538" lon="5.84314">
        <ele>565.02</ele>
        <time>2016-04-26T08:36:12Z</time>
      </trkpt>
      <trkpt lat="44.0459" lon="5.8431">
        <ele>566.79</ele>
        <time>2016-04-26T08:36:22Z</time>
      </trkpt>
      <trkpt lat="44.04626" lon="5.8431">
        <ele>567.08</ele>
        <time>2016-04-26T08:36:29Z</time>
      </trkpt>
      <trkpt lat="44.04631" lon="5.84309">
        <ele>567.22</ele>
        <time>2016-04-26T08:36:30Z</time>
      </trkpt>
      <trkpt lat="44.04636" lon="5.84307">
        <ele>567.57</ele>
        <time>2016-04-26T08:36:31Z</time>
      </trkpt>
      <trkpt lat="44.0464" lon="5.84304">
        <ele>568.08</ele>
        <time>2016-04-26T08:36:32Z</time>
      </trkpt>
      <trkpt lat="44.04645" lon="5.843">
        <ele>568.42</ele>
        <time>2016-04-26T08:36:33Z</time>
      </trkpt>
      <trkpt lat="44.04649" lon="5.84297">
        <ele>568.51</ele>
        <time>2016-04-26T08:36:34Z</time>
      </trkpt>
      <trkpt lat="44.04693" lon="5.84267">
        <ele>569.3</ele>
        <time>2016-04-26T08:36:43Z</time>
      </trkpt>
      <trkpt lat="44.04709" lon="5.84262">
        <ele>569.36</ele>
        <time>2016-04-26T08:36:46Z</time>
      </trkpt>
      <trkpt lat="44.0476" lon="5.84245">
        <ele>570.23</ele>
        <time>2016-04-26T08:36:55Z</time>
      </trkpt>
      <trkpt lat="44.04782" lon="5.84241">
        <ele>570.27</ele>
        <time>2016-04-26T08:36:59Z</time>
      </trkpt>
      <trkpt lat="44.04788" lon="5.84242">
        <ele>570.14</ele>
        <time>2016-04-26T08:37:00Z</time>
      </trkpt>
      <trkpt lat="44.04793" lon="5.84245">
        <ele>570.06</ele>
        <time>2016-04-26T08:37:01Z</time>
      </trkpt>
      <trkpt lat="44.04799" lon="5.8425">
        <ele>570.11</ele>
        <time>2016-04-26T08:37:02Z</time>
      </trkpt>
      <trkpt lat="44.04803" lon="5.84256">
        <ele>570.23</ele>
        <time>2016-04-26T08:37:03Z</time>
      </trkpt>
      <trkpt lat="44.04807" lon="5.84263">
        <ele>570.41</ele>
        <time>2016-04-26T08:37:04Z</time>
      </trkpt>
      <trkpt lat="44.04841" lon="5.84322">
        <ele>572.24</ele>
        <time>2016-04-26T08:37:13Z</time>
      </trkpt>
      <trkpt lat="44.04876" lon="5.84376">
        <ele>574.16</ele>
        <time>2016-04-26T08:37:22Z</time>
      </trkpt>
      <trkpt lat="44.04911" lon="5.84423">
        <ele>575.35</ele>
        <time>2016-04-26T08:37:31Z</time>
      </trkpt>
      <trkpt lat="44.0492" lon="5.84431">
        <ele>575.61</ele>
        <time>2016-04-26T08:37:33Z</time>
      </trkpt>
      <trkpt lat="44.04924" lon="5.84433">
        <ele>575.72</ele>
        <time>2016-04-26T08:37:34Z</time>
      </trkpt>
      <trkpt lat="44.04929" lon="5.84434">
        <ele>575.86</ele>
        <time>2016-04-26T08:37:35Z</time>
      </trkpt>
      <trkpt lat="44.04934" lon="5.84433">
        <ele>575.99</ele>
        <time>2016-04-26T08:37:36Z</time>
      </trkpt>
      <trkpt lat="44.04938" lon="5.84431">
        <ele>576.15</ele>
        <time>2016-04-26T08:37:37Z</time>
      </trkpt>
      <trkpt lat="44.04943" lon="5.84429">
        <ele>576.3</ele>
        <time>2016-04-26T08:37:38Z</time>
      </trkpt>
      <trkpt lat="44.04948" lon="5.84427">
        <ele>576.46</ele>
        <time>2016-04-26T08:37:39Z</time>
      </trkpt>
      <trkpt lat="44.04966" lon="5.84418">
        <ele>577.38</ele>
        <time>2016-04-26T08:37:43Z</time>
      </trkpt>
      <trkpt lat="44.05014" lon="5.84395">
        <ele>579.93</ele>
        <time>2016-04-26T08:37:54Z</time>
      </trkpt>
      <trkpt lat="44.05061" lon="5.84372">
        <ele>583.06</ele>
        <time>2016-04-26T08:38:06Z</time>
      </trkpt>
      <trkpt lat="44.05107" lon="5.84345">
        <ele>585.02</ele>
        <time>2016-04-26T08:38:18Z</time>
      </trkpt>
      <trkpt lat="44.0515" lon="5.84315">
        <ele>588.01</ele>
        <time>2016-04-26T08:38:30Z</time>
      </trkpt>
      <trkpt lat="44.05191" lon="5.84278">
        <ele>590.44</ele>
        <time>2016-04-26T08:38:42Z</time>
      </trkpt>
      <trkpt lat="44.05231" lon="5.84236">
        <ele>592.51</ele>
        <time>2016-04-26T08:38:55Z</time>
      </trkpt>
      <trkpt lat="44.05274" lon="5.84199">
        <ele>594.99</ele>
        <time>2016-04-26T08:39:09Z</time>
      </trkpt>
      <trkpt lat="44.05317" lon="5.84175">
        <ele>597.92</ele>
        <time>2016-04-26T08:39:22Z</time>
      </trkpt>
      <trkpt lat="44.0536" lon="5.84143">
        <ele>601.06</ele>
        <time>2016-04-26T08:39:36Z</time>
      </trkpt>
      <trkpt lat="44.05391" lon="5.84095">
        <ele>604.38</ele>
        <time>2016-04-26T08:39:50Z</time>
      </trkpt>
      <trkpt lat="44.054" lon="5.84031">
        <ele>607.22</ele>
        <time>2016-04-26T08:40:04Z</time>
      </trkpt>
      <trkpt lat="44.05419" lon="5.8397">
        <ele>610.05</ele>
        <time>2016-04-26T08:40:19Z</time>
      </trkpt>
      <trkpt lat="44.05444" lon="5.83935">
        <ele>613.23</ele>
        <time>2016-04-26T08:40:32Z</time>
      </trkpt>
      <trkpt lat="44.05467" lon="5.83896">
        <ele>616.49</ele>
        <time>2016-04-26T08:40:47Z</time>
      </trkpt>
      <trkpt lat="44.05485" lon="5.8386">
        <ele>619.67</ele>
        <time>2016-04-26T08:41:00Z</time>
      </trkpt>
      <trkpt lat="44.05512" lon="5.83833">
        <ele>622.7</ele>
        <time>2016-04-26T08:41:13Z</time>
      </trkpt>
      <trkpt lat="44.05536" lon="5.83806">
        <ele>625.81</ele>
        <time>2016-04-26T08:41:25Z</time>
      </trkpt>
      <trkpt lat="44.05563" lon="5.83774">
        <ele>628.99</ele>
        <time>2016-04-26T08:41:36Z</time>
      </trkpt>
      <trkpt lat="44.05586" lon="5.8373">
        <ele>632.17</ele>
        <time>2016-04-26T08:41:50Z</time>
      </trkpt>
      <trkpt lat="44.05596" lon="5.83682">
        <ele>635.22</ele>
        <time>2016-04-26T08:42:03Z</time>
      </trkpt>
      <trkpt lat="44.05594" lon="5.8362">
        <ele>638.44</ele>
        <time>2016-04-26T08:42:20Z</time>
      </trkpt>
      <trkpt lat="44.05596" lon="5.83579">
        <ele>641.5</ele>
        <time>2016-04-26T08:42:32Z</time>
      </trkpt>
      <trkpt lat="44.05618" lon="5.83551">
        <ele>644.83</ele>
        <time>2016-04-26T08:42:43Z</time>
      </trkpt>
      <trkpt lat="44.05659" lon="5.83521">
        <ele>648.01</ele>
        <time>2016-04-26T08:42:58Z</time>
      </trkpt>
      <trkpt lat="44.05703" lon="5.835">
        <ele>651.1</ele>
        <time>2016-04-26T08:43:13Z</time>
      </trkpt>
      <trkpt lat="44.05746" lon="5.8348">
        <ele>654.28</ele>
        <time>2016-04-26T08:43:28Z</time>
      </trkpt>
      <trkpt lat="44.05789" lon="5.83453">
        <ele>657.2</ele>
        <time>2016-04-26T08:43:45Z</time>
      </trkpt>
      <trkpt lat="44.05809" lon="5.83404">
        <ele>660.33</ele>
        <time>2016-04-26T08:44:01Z</time>
      </trkpt>
      <trkpt lat="44.05836" lon="5.8336">
        <ele>663.58</ele>
        <time>2016-04-26T08:44:17Z</time>
      </trkpt>
      <trkpt lat="44.05869" lon="5.83345">
        <ele>666.63</ele>
        <time>2016-04-26T08:44:29Z</time>
      </trkpt>
      <trkpt lat="44.05906" lon="5.83334">
        <ele>669.84</ele>
        <time>2016-04-26T08:44:43Z</time>
      </trkpt>
      <trkpt lat="44.05936" lon="5.83324">
        <ele>672.92</ele>
        <time>2016-04-26T08:44:57Z</time>
      </trkpt>
      <trkpt lat="44.05963" lon="5.8331">
        <ele>675.94</ele>
        <time>2016-04-26T08:45:09Z</time>
      </trkpt>
      <trkpt lat="44.05998" lon="5.83297">
        <ele>679.1</ele>
        <time>2016-04-26T08:45:22Z</time>
      </trkpt>
      <trkpt lat="44.06043" lon="5.83312">
        <ele>682.11</ele>
        <time>2016-04-26T08:45:38Z</time>
      </trkpt>
      <trkpt lat="44.06072" lon="5.83312">
        <ele>685.18</ele>
        <time>2016-04-26T08:45:49Z</time>
      </trkpt>
      <trkpt lat="44.06111" lon="5.83346">
        <ele>687.26</ele>
        <time>2016-04-26T08:46:03Z</time>
      </trkpt>
      <trkpt lat="44.06138" lon="5.83406">
        <ele>689.23</ele>
        <time>2016-04-26T08:46:17Z</time>
      </trkpt>
      <trkpt lat="44.06161" lon="5.8344">
        <ele>690.77</ele>
        <time>2016-04-26T08:46:27Z</time>
      </trkpt>
      <trkpt lat="44.0616" lon="5.83444">
        <ele>690.95</ele>
        <time>2016-04-26T08:46:28Z</time>
      </trkpt>
      <trkpt lat="44.06159" lon="5.83448">
        <ele>691.26</ele>
        <time>2016-04-26T08:46:29Z</time>
      </trkpt>
      <trkpt lat="44.06158" lon="5.83502">
        <ele>694.29</ele>
        <time>2016-04-26T08:46:42Z</time>
      </trkpt>
      <trkpt lat="44.06173" lon="5.83569">
        <ele>696.84</ele>
        <time>2016-04-26T08:46:58Z</time>
      </trkpt>
      <trkpt lat="44.06191" lon="5.8361">
        <ele>697.93</ele>
        <time>2016-04-26T08:47:08Z</time>
      </trkpt>
      <trkpt lat="44.06194" lon="5.83611">
        <ele>698</ele>
        <time>2016-04-26T08:47:09Z</time>
      </trkpt>
      <trkpt lat="44.06197" lon="5.83611">
        <ele>698.34</ele>
        <time>2016-04-26T08:47:10Z</time>
      </trkpt>
      <trkpt lat="44.062" lon="5.83612">
        <ele>698.77</ele>
        <time>2016-04-26T08:47:11Z</time>
      </trkpt>
      <trkpt lat="44.06203" lon="5.83612">
        <ele>698.99</ele>
        <time>2016-04-26T08:47:12Z</time>
      </trkpt>
      <trkpt lat="44.06245" lon="5.83638">
        <ele>701.6</ele>
        <time>2016-04-26T08:47:28Z</time>
      </trkpt>
      <trkpt lat="44.06247" lon="5.83638">
        <ele>701.78</ele>
        <time>2016-04-26T08:47:29Z</time>
      </trkpt>
      <trkpt lat="44.06251" lon="5.83637">
        <ele>702.16</ele>
        <time>2016-04-26T08:47:30Z</time>
      </trkpt>
      <trkpt lat="44.06254" lon="5.83636">
        <ele>702.74</ele>
        <time>2016-04-26T08:47:31Z</time>
      </trkpt>
      <trkpt lat="44.06257" lon="5.83635">
        <ele>703.18</ele>
        <time>2016-04-26T08:47:32Z</time>
      </trkpt>
      <trkpt lat="44.06278" lon="5.83629">
        <ele>702.68</ele>
        <time>2016-04-26T08:47:40Z</time>
      </trkpt>
      <trkpt lat="44.06279" lon="5.83631">
        <ele>702.71</ele>
        <time>2016-04-26T08:47:41Z</time>
      </trkpt>
      <trkpt lat="44.0628" lon="5.83635">
        <ele>702.73</ele>
        <time>2016-04-26T08:47:42Z</time>
      </trkpt>
      <trkpt lat="44.06281" lon="5.83638">
        <ele>702.65</ele>
        <time>2016-04-26T08:47:43Z</time>
      </trkpt>
      <trkpt lat="44.06282" lon="5.83641">
        <ele>702.45</ele>
        <time>2016-04-26T08:47:44Z</time>
      </trkpt>
      <trkpt lat="44.06296" lon="5.83708">
        <ele>703.37</ele>
        <time>2016-04-26T08:47:58Z</time>
      </trkpt>
      <trkpt lat="44.06297" lon="5.8372">
        <ele>703.25</ele>
        <time>2016-04-26T08:48:00Z</time>
      </trkpt>
      <trkpt lat="44.06298" lon="5.83726">
        <ele>703.23</ele>
        <time>2016-04-26T08:48:01Z</time>
      </trkpt>
      <trkpt lat="44.063" lon="5.83755">
        <ele>702.87</ele>
        <time>2016-04-26T08:48:06Z</time>
      </trkpt>
      <trkpt lat="44.06301" lon="5.8376">
        <ele>702.75</ele>
        <time>2016-04-26T08:48:07Z</time>
      </trkpt>
      <trkpt lat="44.06302" lon="5.83766">
        <ele>702.69</ele>
        <time>2016-04-26T08:48:08Z</time>
      </trkpt>
      <trkpt lat="44.0631" lon="5.83834">
        <ele>702.37</ele>
        <time>2016-04-26T08:48:20Z</time>
      </trkpt>
      <trkpt lat="44.06315" lon="5.83861">
        <ele>701.52</ele>
        <time>2016-04-26T08:50:04Z</time>
      </trkpt>
      <trkpt lat="44.06316" lon="5.83862">
        <ele>701.06</ele>
        <time>2016-04-26T08:50:51Z</time>
      </trkpt>
      <trkpt lat="44.06316" lon="5.83862">
        <ele>700.93</ele>
        <time>2016-04-26T08:51:34Z</time>
      </trkpt>
      <trkpt lat="44.06314" lon="5.83865">
        <ele>700.66</ele>
        <time>2016-04-26T08:52:37Z</time>
      </trkpt>
      <trkpt lat="44.0632" lon="5.83927">
        <ele>701.19</ele>
        <time>2016-04-26T08:53:52Z</time>
      </trkpt>
      <trkpt lat="44.0632" lon="5.83933">
        <ele>701.33</ele>
        <time>2016-04-26T08:53:53Z</time>
      </trkpt>
      <trkpt lat="44.06314" lon="5.84">
        <ele>703.49</ele>
        <time>2016-04-26T08:54:03Z</time>
      </trkpt>
      <trkpt lat="44.06312" lon="5.84019">
        <ele>703.61</ele>
        <time>2016-04-26T08:54:06Z</time>
      </trkpt>
      <trkpt lat="44.06311" lon="5.84026">
        <ele>703.6</ele>
        <time>2016-04-26T08:54:07Z</time>
      </trkpt>
      <trkpt lat="44.06305" lon="5.84094">
        <ele>703.01</ele>
        <time>2016-04-26T08:54:16Z</time>
      </trkpt>
      <trkpt lat="44.06293" lon="5.84168">
        <ele>702.8</ele>
        <time>2016-04-26T08:54:25Z</time>
      </trkpt>
      <trkpt lat="44.06279" lon="5.84233">
        <ele>701.88</ele>
        <time>2016-04-26T08:54:33Z</time>
      </trkpt>
      <trkpt lat="44.06265" lon="5.843">
        <ele>702.98</ele>
        <time>2016-04-26T08:54:41Z</time>
      </trkpt>
      <trkpt lat="44.06251" lon="5.84367">
        <ele>703.2</ele>
        <time>2016-04-26T08:54:48Z</time>
      </trkpt>
      <trkpt lat="44.06245" lon="5.84424">
        <ele>703.29</ele>
        <time>2016-04-26T08:54:54Z</time>
      </trkpt>
      <trkpt lat="44.06245" lon="5.84434">
        <ele>703.19</ele>
        <time>2016-04-26T08:54:55Z</time>
      </trkpt>
      <trkpt lat="44.06247" lon="5.84443">
        <ele>703.18</ele>
        <time>2016-04-26T08:54:56Z</time>
      </trkpt>
      <trkpt lat="44.06249" lon="5.84452">
        <ele>703.4</ele>
        <time>2016-04-26T08:54:57Z</time>
      </trkpt>
      <trkpt lat="44.06251" lon="5.84462">
        <ele>703.5</ele>
        <time>2016-04-26T08:54:58Z</time>
      </trkpt>
      <trkpt lat="44.06273" lon="5.84526">
        <ele>703.25</ele>
        <time>2016-04-26T08:55:05Z</time>
      </trkpt>
      <trkpt lat="44.06291" lon="5.84581">
        <ele>703.27</ele>
        <time>2016-04-26T08:55:11Z</time>
      </trkpt>
      <trkpt lat="44.06292" lon="5.84591">
        <ele>703.24</ele>
        <time>2016-04-26T08:55:12Z</time>
      </trkpt>
      <trkpt lat="44.06293" lon="5.84601">
        <ele>703.19</ele>
        <time>2016-04-26T08:55:13Z</time>
      </trkpt>
      <trkpt lat="44.06293" lon="5.8461">
        <ele>703.23</ele>
        <time>2016-04-26T08:55:14Z</time>
      </trkpt>
      <trkpt lat="44.06293" lon="5.8462">
        <ele>703.23</ele>
        <time>2016-04-26T08:55:15Z</time>
      </trkpt>
      <trkpt lat="44.06289" lon="5.84697">
        <ele>703.58</ele>
        <time>2016-04-26T08:55:23Z</time>
      </trkpt>
      <trkpt lat="44.0629" lon="5.84746">
        <ele>704.01</ele>
        <time>2016-04-26T08:55:28Z</time>
      </trkpt>
      <trkpt lat="44.06293" lon="5.84764">
        <ele>703.88</ele>
        <time>2016-04-26T08:55:30Z</time>
      </trkpt>
      <trkpt lat="44.06296" lon="5.84774">
        <ele>703.98</ele>
        <time>2016-04-26T08:55:31Z</time>
      </trkpt>
      <trkpt lat="44.06312" lon="5.8484">
        <ele>703.44</ele>
        <time>2016-04-26T08:55:38Z</time>
      </trkpt>
      <trkpt lat="44.0633" lon="5.84911">
        <ele>703.74</ele>
        <time>2016-04-26T08:55:46Z</time>
      </trkpt>
      <trkpt lat="44.06348" lon="5.84981">
        <ele>703.62</ele>
        <time>2016-04-26T08:55:54Z</time>
      </trkpt>
      <trkpt lat="44.06352" lon="5.85009">
        <ele>703.53</ele>
        <time>2016-04-26T08:55:57Z</time>
      </trkpt>
      <trkpt lat="44.06351" lon="5.85085">
        <ele>703.64</ele>
        <time>2016-04-26T08:56:05Z</time>
      </trkpt>
      <trkpt lat="44.06349" lon="5.85161">
        <ele>703.43</ele>
        <time>2016-04-26T08:56:13Z</time>
      </trkpt>
      <trkpt lat="44.06354" lon="5.85239">
        <ele>703.4</ele>
        <time>2016-04-26T08:56:21Z</time>
      </trkpt>
      <trkpt lat="44.06373" lon="5.85302">
        <ele>703.12</ele>
        <time>2016-04-26T08:56:28Z</time>
      </trkpt>
      <trkpt lat="44.06396" lon="5.85367">
        <ele>703.7</ele>
        <time>2016-04-26T08:56:36Z</time>
      </trkpt>
      <trkpt lat="44.06427" lon="5.85422">
        <ele>704.15</ele>
        <time>2016-04-26T08:56:44Z</time>
      </trkpt>
      <trkpt lat="44.0646" lon="5.85477">
        <ele>703.17</ele>
        <time>2016-04-26T08:56:52Z</time>
      </trkpt>
      <trkpt lat="44.06492" lon="5.85535">
        <ele>702.74</ele>
        <time>2016-04-26T08:57:00Z</time>
      </trkpt>
      <trkpt lat="44.06515" lon="5.85601">
        <ele>702.71</ele>
        <time>2016-04-26T08:57:08Z</time>
      </trkpt>
      <trkpt lat="44.06547" lon="5.85658">
        <ele>702.61</ele>
        <time>2016-04-26T08:57:16Z</time>
      </trkpt>
      <trkpt lat="44.06582" lon="5.85715">
        <ele>703.28</ele>
        <time>2016-04-26T08:57:24Z</time>
      </trkpt>
      <trkpt lat="44.06588" lon="5.85731">
        <ele>703.21</ele>
        <time>2016-04-26T08:57:26Z</time>
      </trkpt>
      <trkpt lat="44.0659" lon="5.8574">
        <ele>703.28</ele>
        <time>2016-04-26T08:57:27Z</time>
      </trkpt>
      <trkpt lat="44.06592" lon="5.85748">
        <ele>703.32</ele>
        <time>2016-04-26T08:57:28Z</time>
      </trkpt>
      <trkpt lat="44.06591" lon="5.85757">
        <ele>703.36</ele>
        <time>2016-04-26T08:57:29Z</time>
      </trkpt>
      <trkpt lat="44.0659" lon="5.85766">
        <ele>703.4</ele>
        <time>2016-04-26T08:57:30Z</time>
      </trkpt>
      <trkpt lat="44.06588" lon="5.85774">
        <ele>703.22</ele>
        <time>2016-04-26T08:57:31Z</time>
      </trkpt>
      <trkpt lat="44.06585" lon="5.85782">
        <ele>702.94</ele>
        <time>2016-04-26T08:57:32Z</time>
      </trkpt>
      <trkpt lat="44.06583" lon="5.85789">
        <ele>702.72</ele>
        <time>2016-04-26T08:57:33Z</time>
      </trkpt>
      <trkpt lat="44.06571" lon="5.8583">
        <ele>703.17</ele>
        <time>2016-04-26T08:57:38Z</time>
      </trkpt>
      <trkpt lat="44.06566" lon="5.859">
        <ele>703.18</ele>
        <time>2016-04-26T08:57:45Z</time>
      </trkpt>
      <trkpt lat="44.06566" lon="5.85974">
        <ele>703.03</ele>
        <time>2016-04-26T08:57:52Z</time>
      </trkpt>
      <trkpt lat="44.06564" lon="5.86047">
        <ele>703.08</ele>
        <time>2016-04-26T08:57:59Z</time>
      </trkpt>
      <trkpt lat="44.06558" lon="5.86117">
        <ele>703.79</ele>
        <time>2016-04-26T08:58:06Z</time>
      </trkpt>
      <trkpt lat="44.06554" lon="5.86169">
        <ele>703.86</ele>
        <time>2016-04-26T08:58:12Z</time>
      </trkpt>
      <trkpt lat="44.06556" lon="5.86178">
        <ele>703.87</ele>
        <time>2016-04-26T08:58:13Z</time>
      </trkpt>
      <trkpt lat="44.06573" lon="5.86245">
        <ele>703.97</ele>
        <time>2016-04-26T08:58:21Z</time>
      </trkpt>
      <trkpt lat="44.0658" lon="5.8628">
        <ele>703.65</ele>
        <time>2016-04-26T08:58:25Z</time>
      </trkpt>
      <trkpt lat="44.0658" lon="5.86289">
        <ele>703.74</ele>
        <time>2016-04-26T08:58:26Z</time>
      </trkpt>
      <trkpt lat="44.06577" lon="5.86363">
        <ele>703.84</ele>
        <time>2016-04-26T08:58:34Z</time>
      </trkpt>
      <trkpt lat="44.06579" lon="5.86408">
        <ele>704.31</ele>
        <time>2016-04-26T08:58:39Z</time>
      </trkpt>
      <trkpt lat="44.06581" lon="5.86417">
        <ele>704.11</ele>
        <time>2016-04-26T08:58:40Z</time>
      </trkpt>
      <trkpt lat="44.06583" lon="5.86425">
        <ele>703.96</ele>
        <time>2016-04-26T08:58:41Z</time>
      </trkpt>
      <trkpt lat="44.06596" lon="5.865">
        <ele>704.15</ele>
        <time>2016-04-26T08:58:49Z</time>
      </trkpt>
      <trkpt lat="44.06592" lon="5.8657">
        <ele>704.1</ele>
        <time>2016-04-26T08:58:56Z</time>
      </trkpt>
      <trkpt lat="44.06586" lon="5.86616">
        <ele>704.41</ele>
        <time>2016-04-26T08:59:01Z</time>
      </trkpt>
      <trkpt lat="44.06583" lon="5.8666">
        <ele>704.32</ele>
        <time>2016-04-26T08:59:06Z</time>
      </trkpt>
      <trkpt lat="44.06594" lon="5.86736">
        <ele>704.23</ele>
        <time>2016-04-26T08:59:14Z</time>
      </trkpt>
      <trkpt lat="44.06597" lon="5.86766">
        <ele>704.69</ele>
        <time>2016-04-26T08:59:17Z</time>
      </trkpt>
      <trkpt lat="44.06597" lon="5.86785">
        <ele>704.56</ele>
        <time>2016-04-26T08:59:19Z</time>
      </trkpt>
      <trkpt lat="44.06596" lon="5.86804">
        <ele>704.22</ele>
        <time>2016-04-26T08:59:21Z</time>
      </trkpt>
      <trkpt lat="44.06594" lon="5.86813">
        <ele>704.31</ele>
        <time>2016-04-26T08:59:22Z</time>
      </trkpt>
      <trkpt lat="44.06577" lon="5.8688">
        <ele>704.34</ele>
        <time>2016-04-26T08:59:30Z</time>
      </trkpt>
      <trkpt lat="44.06574" lon="5.86947">
        <ele>703.48</ele>
        <time>2016-04-26T08:59:37Z</time>
      </trkpt>
      <trkpt lat="44.0657" lon="5.87025">
        <ele>703.35</ele>
        <time>2016-04-26T08:59:45Z</time>
      </trkpt>
      <trkpt lat="44.06571" lon="5.87102">
        <ele>703.91</ele>
        <time>2016-04-26T08:59:53Z</time>
      </trkpt>
      <trkpt lat="44.06572" lon="5.87122">
        <ele>703.88</ele>
        <time>2016-04-26T08:59:55Z</time>
      </trkpt>
      <trkpt lat="44.06572" lon="5.87132">
        <ele>703.73</ele>
        <time>2016-04-26T08:59:56Z</time>
      </trkpt>
      <trkpt lat="44.0657" lon="5.87142">
        <ele>703.58</ele>
        <time>2016-04-26T08:59:57Z</time>
      </trkpt>
      <trkpt lat="44.06568" lon="5.87152">
        <ele>703.45</ele>
        <time>2016-04-26T08:59:58Z</time>
      </trkpt>
      <trkpt lat="44.06564" lon="5.87161">
        <ele>703.4</ele>
        <time>2016-04-26T08:59:59Z</time>
      </trkpt>
      <trkpt lat="44.06561" lon="5.87171">
        <ele>703.49</ele>
        <time>2016-04-26T09:00:00Z</time>
      </trkpt>
      <trkpt lat="44.06544" lon="5.87237">
        <ele>704.01</ele>
        <time>2016-04-26T09:00:07Z</time>
      </trkpt>
      <trkpt lat="44.06543" lon="5.87247">
        <ele>704.01</ele>
        <time>2016-04-26T09:00:08Z</time>
      </trkpt>
      <trkpt lat="44.06538" lon="5.87296">
        <ele>704.8</ele>
        <time>2016-04-26T09:00:13Z</time>
      </trkpt>
      <trkpt lat="44.06539" lon="5.8737">
        <ele>704.36</ele>
        <time>2016-04-26T09:00:21Z</time>
      </trkpt>
      <trkpt lat="44.06541" lon="5.8738">
        <ele>704.74</ele>
        <time>2016-04-26T09:00:22Z</time>
      </trkpt>
      <trkpt lat="44.06549" lon="5.87419">
        <ele>705.22</ele>
        <time>2016-04-26T09:00:26Z</time>
      </trkpt>
      <trkpt lat="44.0655" lon="5.87429">
        <ele>705.14</ele>
        <time>2016-04-26T09:00:27Z</time>
      </trkpt>
      <trkpt lat="44.0655" lon="5.87439">
        <ele>705.03</ele>
        <time>2016-04-26T09:00:28Z</time>
      </trkpt>
      <trkpt lat="44.06548" lon="5.87449">
        <ele>704.9</ele>
        <time>2016-04-26T09:00:29Z</time>
      </trkpt>
      <trkpt lat="44.06546" lon="5.87458">
        <ele>704.78</ele>
        <time>2016-04-26T09:00:30Z</time>
      </trkpt>
      <trkpt lat="44.06544" lon="5.87467">
        <ele>704.7</ele>
        <time>2016-04-26T09:00:31Z</time>
      </trkpt>
      <trkpt lat="44.0653" lon="5.87521">
        <ele>705.08</ele>
        <time>2016-04-26T09:00:37Z</time>
      </trkpt>
      <trkpt lat="44.06529" lon="5.8753">
        <ele>704.96</ele>
        <time>2016-04-26T09:00:38Z</time>
      </trkpt>
      <trkpt lat="44.06529" lon="5.87539">
        <ele>704.81</ele>
        <time>2016-04-26T09:00:39Z</time>
      </trkpt>
      <trkpt lat="44.0653" lon="5.87548">
        <ele>704.7</ele>
        <time>2016-04-26T09:00:40Z</time>
      </trkpt>
      <trkpt lat="44.06531" lon="5.87557">
        <ele>704.65</ele>
        <time>2016-04-26T09:00:41Z</time>
      </trkpt>
      <trkpt lat="44.06534" lon="5.87565">
        <ele>704.92</ele>
        <time>2016-04-26T09:00:42Z</time>
      </trkpt>
      <trkpt lat="44.06538" lon="5.87572">
        <ele>705.12</ele>
        <time>2016-04-26T09:00:43Z</time>
      </trkpt>
      <trkpt lat="44.06543" lon="5.87579">
        <ele>705.13</ele>
        <time>2016-04-26T09:00:44Z</time>
      </trkpt>
      <trkpt lat="44.06548" lon="5.87585">
        <ele>705.05</ele>
        <time>2016-04-26T09:00:45Z</time>
      </trkpt>
      <trkpt lat="44.06554" lon="5.8759">
        <ele>704.99</ele>
        <time>2016-04-26T09:00:46Z</time>
      </trkpt>
      <trkpt lat="44.0656" lon="5.87595">
        <ele>704.87</ele>
        <time>2016-04-26T09:00:47Z</time>
      </trkpt>
      <trkpt lat="44.06566" lon="5.87599">
        <ele>704.65</ele>
        <time>2016-04-26T09:00:48Z</time>
      </trkpt>
      <trkpt lat="44.06572" lon="5.87602">
        <ele>704.46</ele>
        <time>2016-04-26T09:00:49Z</time>
      </trkpt>
      <trkpt lat="44.06622" lon="5.87629">
        <ele>704.17</ele>
        <time>2016-04-26T09:00:57Z</time>
      </trkpt>
      <trkpt lat="44.06641" lon="5.8764">
        <ele>704.4</ele>
        <time>2016-04-26T09:01:00Z</time>
      </trkpt>
      <trkpt lat="44.06647" lon="5.87644">
        <ele>704.47</ele>
        <time>2016-04-26T09:01:01Z</time>
      </trkpt>
      <trkpt lat="44.06652" lon="5.87651">
        <ele>704.53</ele>
        <time>2016-04-26T09:01:02Z</time>
      </trkpt>
      <trkpt lat="44.06654" lon="5.87659">
        <ele>704.4</ele>
        <time>2016-04-26T09:01:03Z</time>
      </trkpt>
      <trkpt lat="44.06655" lon="5.87668">
        <ele>704.39</ele>
        <time>2016-04-26T09:01:04Z</time>
      </trkpt>
      <trkpt lat="44.06654" lon="5.87677">
        <ele>704.52</ele>
        <time>2016-04-26T09:01:05Z</time>
      </trkpt>
      <trkpt lat="44.06652" lon="5.87686">
        <ele>704.48</ele>
        <time>2016-04-26T09:01:06Z</time>
      </trkpt>
      <trkpt lat="44.06647" lon="5.87694">
        <ele>704.33</ele>
        <time>2016-04-26T09:01:07Z</time>
      </trkpt>
      <trkpt lat="44.06642" lon="5.87701">
        <ele>704.22</ele>
        <time>2016-04-26T09:01:08Z</time>
      </trkpt>
      <trkpt lat="44.0662" lon="5.87737">
        <ele>704.7</ele>
        <time>2016-04-26T09:01:13Z</time>
      </trkpt>
      <trkpt lat="44.0661" lon="5.8776">
        <ele>705.26</ele>
        <time>2016-04-26T09:01:16Z</time>
      </trkpt>
      <trkpt lat="44.06607" lon="5.87767">
        <ele>705.29</ele>
        <time>2016-04-26T09:01:17Z</time>
      </trkpt>
      <trkpt lat="44.0658" lon="5.87831">
        <ele>705.86</ele>
        <time>2016-04-26T09:01:25Z</time>
      </trkpt>
      <trkpt lat="44.06578" lon="5.87839">
        <ele>706.03</ele>
        <time>2016-04-26T09:01:26Z</time>
      </trkpt>
      <trkpt lat="44.06577" lon="5.87847">
        <ele>706.22</ele>
        <time>2016-04-26T09:01:27Z</time>
      </trkpt>
      <trkpt lat="44.06576" lon="5.87856">
        <ele>706.23</ele>
        <time>2016-04-26T09:01:28Z</time>
      </trkpt>
      <trkpt lat="44.06576" lon="5.87865">
        <ele>705.91</ele>
        <time>2016-04-26T09:01:29Z</time>
      </trkpt>
      <trkpt lat="44.06577" lon="5.87874">
        <ele>705.6</ele>
        <time>2016-04-26T09:01:30Z</time>
      </trkpt>
      <trkpt lat="44.06578" lon="5.87884">
        <ele>705.3</ele>
        <time>2016-04-26T09:01:31Z</time>
      </trkpt>
      <trkpt lat="44.06579" lon="5.87905">
        <ele>705.04</ele>
        <time>2016-04-26T09:01:33Z</time>
      </trkpt>
      <trkpt lat="44.06577" lon="5.87914">
        <ele>704.9</ele>
        <time>2016-04-26T09:01:34Z</time>
      </trkpt>
      <trkpt lat="44.06573" lon="5.87922">
        <ele>704.56</ele>
        <time>2016-04-26T09:01:35Z</time>
      </trkpt>
      <trkpt lat="44.06568" lon="5.87927">
        <ele>704.36</ele>
        <time>2016-04-26T09:01:36Z</time>
      </trkpt>
      <trkpt lat="44.06561" lon="5.8793">
        <ele>704.29</ele>
        <time>2016-04-26T09:01:37Z</time>
      </trkpt>
      <trkpt lat="44.06555" lon="5.8793">
        <ele>704.29</ele>
        <time>2016-04-26T09:01:38Z</time>
      </trkpt>
      <trkpt lat="44.06548" lon="5.8793">
        <ele>704.24</ele>
        <time>2016-04-26T09:01:39Z</time>
      </trkpt>
      <trkpt lat="44.06522" lon="5.87929">
        <ele>704.19</ele>
        <time>2016-04-26T09:01:43Z</time>
      </trkpt>
      <trkpt lat="44.06515" lon="5.87929">
        <ele>704.12</ele>
        <time>2016-04-26T09:01:44Z</time>
      </trkpt>
      <trkpt lat="44.06502" lon="5.8793">
        <ele>704.04</ele>
        <time>2016-04-26T09:01:46Z</time>
      </trkpt>
      <trkpt lat="44.06482" lon="5.87935">
        <ele>704.38</ele>
        <time>2016-04-26T09:01:49Z</time>
      </trkpt>
      <trkpt lat="44.06475" lon="5.87938">
        <ele>704.44</ele>
        <time>2016-04-26T09:01:50Z</time>
      </trkpt>
      <trkpt lat="44.06468" lon="5.87942">
        <ele>704.64</ele>
        <time>2016-04-26T09:01:51Z</time>
      </trkpt>
      <trkpt lat="44.06463" lon="5.87947">
        <ele>704.85</ele>
        <time>2016-04-26T09:01:52Z</time>
      </trkpt>
      <trkpt lat="44.06457" lon="5.87952">
        <ele>704.72</ele>
        <time>2016-04-26T09:01:53Z</time>
      </trkpt>
      <trkpt lat="44.06451" lon="5.87959">
        <ele>704.22</ele>
        <time>2016-04-26T09:01:54Z</time>
      </trkpt>
      <trkpt lat="44.06446" lon="5.87966">
        <ele>704.06</ele>
        <time>2016-04-26T09:01:55Z</time>
      </trkpt>
      <trkpt lat="44.06441" lon="5.87973">
        <ele>704.27</ele>
        <time>2016-04-26T09:01:56Z</time>
      </trkpt>
      <trkpt lat="44.06437" lon="5.87982">
        <ele>704.55</ele>
        <time>2016-04-26T09:01:57Z</time>
      </trkpt>
      <trkpt lat="44.06433" lon="5.8799">
        <ele>704.77</ele>
        <time>2016-04-26T09:01:58Z</time>
      </trkpt>
      <trkpt lat="44.06429" lon="5.88">
        <ele>704.92</ele>
        <time>2016-04-26T09:01:59Z</time>
      </trkpt>
      <trkpt lat="44.06405" lon="5.88068">
        <ele>704.52</ele>
        <time>2016-04-26T09:02:06Z</time>
      </trkpt>
      <trkpt lat="44.06379" lon="5.88136">
        <ele>703.58</ele>
        <time>2016-04-26T09:02:13Z</time>
      </trkpt>
      <trkpt lat="44.06347" lon="5.88199">
        <ele>702.88</ele>
        <time>2016-04-26T09:02:20Z</time>
      </trkpt>
      <trkpt lat="44.0633" lon="5.88235">
        <ele>703.87</ele>
        <time>2016-04-26T09:02:24Z</time>
      </trkpt>
      <trkpt lat="44.06327" lon="5.88245">
        <ele>704.26</ele>
        <time>2016-04-26T09:02:25Z</time>
      </trkpt>
      <trkpt lat="44.06308" lon="5.88319">
        <ele>704.15</ele>
        <time>2016-04-26T09:02:32Z</time>
      </trkpt>
      <trkpt lat="44.06292" lon="5.88394">
        <ele>703.28</ele>
        <time>2016-04-26T09:02:39Z</time>
      </trkpt>
      <trkpt lat="44.06281" lon="5.8847">
        <ele>703.93</ele>
        <time>2016-04-26T09:02:46Z</time>
      </trkpt>
      <trkpt lat="44.06281" lon="5.88481">
        <ele>704.02</ele>
        <time>2016-04-26T09:02:47Z</time>
      </trkpt>
      <trkpt lat="44.0629" lon="5.88558">
        <ele>703.59</ele>
        <time>2016-04-26T09:02:54Z</time>
      </trkpt>
      <trkpt lat="44.06298" lon="5.88621">
        <ele>703.62</ele>
        <time>2016-04-26T09:03:00Z</time>
      </trkpt>
      <trkpt lat="44.06305" lon="5.88651">
        <ele>703.49</ele>
        <time>2016-04-26T09:03:03Z</time>
      </trkpt>
      <trkpt lat="44.06327" lon="5.88695">
        <ele>705.62</ele>
        <time>2016-04-26T09:03:08Z</time>
      </trkpt>
      <trkpt lat="44.06333" lon="5.88701">
        <ele>706.29</ele>
        <time>2016-04-26T09:03:09Z</time>
      </trkpt>
      <trkpt lat="44.06365" lon="5.88731">
        <ele>703.85</ele>
        <time>2016-04-26T09:03:14Z</time>
      </trkpt>
      <trkpt lat="44.06378" lon="5.88742">
        <ele>703.73</ele>
        <time>2016-04-26T09:03:16Z</time>
      </trkpt>
      <trkpt lat="44.06385" lon="5.88745">
        <ele>703.92</ele>
        <time>2016-04-26T09:03:17Z</time>
      </trkpt>
      <trkpt lat="44.06392" lon="5.88747">
        <ele>704.27</ele>
        <time>2016-04-26T09:03:18Z</time>
      </trkpt>
      <trkpt lat="44.06399" lon="5.88747">
        <ele>704.42</ele>
        <time>2016-04-26T09:03:19Z</time>
      </trkpt>
      <trkpt lat="44.06407" lon="5.88746">
        <ele>704.4</ele>
        <time>2016-04-26T09:03:20Z</time>
      </trkpt>
      <trkpt lat="44.06414" lon="5.88743">
        <ele>704.41</ele>
        <time>2016-04-26T09:03:21Z</time>
      </trkpt>
      <trkpt lat="44.06421" lon="5.88739">
        <ele>704.69</ele>
        <time>2016-04-26T09:03:22Z</time>
      </trkpt>
      <trkpt lat="44.06428" lon="5.88735">
        <ele>705</ele>
        <time>2016-04-26T09:03:23Z</time>
      </trkpt>
      <trkpt lat="44.06467" lon="5.88705">
        <ele>705.8</ele>
        <time>2016-04-26T09:03:29Z</time>
      </trkpt>
      <trkpt lat="44.06473" lon="5.887">
        <ele>705.92</ele>
        <time>2016-04-26T09:03:30Z</time>
      </trkpt>
      <trkpt lat="44.06479" lon="5.88693">
        <ele>706.01</ele>
        <time>2016-04-26T09:03:31Z</time>
      </trkpt>
      <trkpt lat="44.06484" lon="5.88686">
        <ele>706.3</ele>
        <time>2016-04-26T09:03:32Z</time>
      </trkpt>
      <trkpt lat="44.06489" lon="5.88679">
        <ele>706.36</ele>
        <time>2016-04-26T09:03:33Z</time>
      </trkpt>
      <trkpt lat="44.06519" lon="5.88638">
        <ele>704.92</ele>
        <time>2016-04-26T09:03:39Z</time>
      </trkpt>
      <trkpt lat="44.06527" lon="5.88636">
        <ele>704.73</ele>
        <time>2016-04-26T09:03:40Z</time>
      </trkpt>
      <trkpt lat="44.06533" lon="5.88638">
        <ele>704.61</ele>
        <time>2016-04-26T09:03:41Z</time>
      </trkpt>
      <trkpt lat="44.06539" lon="5.88644">
        <ele>704.53</ele>
        <time>2016-04-26T09:03:42Z</time>
      </trkpt>
      <trkpt lat="44.06543" lon="5.88652">
        <ele>704.19</ele>
        <time>2016-04-26T09:03:43Z</time>
      </trkpt>
      <trkpt lat="44.06545" lon="5.88662">
        <ele>704.03</ele>
        <time>2016-04-26T09:03:44Z</time>
      </trkpt>
      <trkpt lat="44.06547" lon="5.88672">
        <ele>703.91</ele>
        <time>2016-04-26T09:03:45Z</time>
      </trkpt>
      <trkpt lat="44.06548" lon="5.88682">
        <ele>703.54</ele>
        <time>2016-04-26T09:03:46Z</time>
      </trkpt>
      <trkpt lat="44.06549" lon="5.88693">
        <ele>703.12</ele>
        <time>2016-04-26T09:03:47Z</time>
      </trkpt>
      <trkpt lat="44.06557" lon="5.88761">
        <ele>702.61</ele>
        <time>2016-04-26T09:03:54Z</time>
      </trkpt>
      <trkpt lat="44.06557" lon="5.88804">
        <ele>703</ele>
        <time>2016-04-26T09:03:58Z</time>
      </trkpt>
      <trkpt lat="44.06555" lon="5.88814">
        <ele>703.17</ele>
        <time>2016-04-26T09:03:59Z</time>
      </trkpt>
      <trkpt lat="44.06545" lon="5.88887">
        <ele>703.66</ele>
        <time>2016-04-26T09:04:06Z</time>
      </trkpt>
      <trkpt lat="44.06549" lon="5.88963">
        <ele>702.47</ele>
        <time>2016-04-26T09:04:13Z</time>
      </trkpt>
      <trkpt lat="44.0656" lon="5.89038">
        <ele>703.08</ele>
        <time>2016-04-26T09:04:20Z</time>
      </trkpt>
      <trkpt lat="44.06573" lon="5.8911">
        <ele>703.66</ele>
        <time>2016-04-26T09:04:27Z</time>
      </trkpt>
      <trkpt lat="44.06591" lon="5.89183">
        <ele>703.46</ele>
        <time>2016-04-26T09:04:34Z</time>
      </trkpt>
      <trkpt lat="44.06608" lon="5.89249">
        <ele>703.36</ele>
        <time>2016-04-26T09:04:40Z</time>
      </trkpt>
      <trkpt lat="44.06632" lon="5.89321">
        <ele>704.01</ele>
        <time>2016-04-26T09:04:47Z</time>
      </trkpt>
      <trkpt lat="44.06634" lon="5.89331">
        <ele>704.15</ele>
        <time>2016-04-26T09:04:48Z</time>
      </trkpt>
      <trkpt lat="44.06638" lon="5.89364">
        <ele>704.48</ele>
        <time>2016-04-26T09:04:51Z</time>
      </trkpt>
      <trkpt lat="44.06638" lon="5.89375">
        <ele>704.37</ele>
        <time>2016-04-26T09:04:52Z</time>
      </trkpt>
      <trkpt lat="44.0663" lon="5.89452">
        <ele>703.88</ele>
        <time>2016-04-26T09:04:59Z</time>
      </trkpt>
      <trkpt lat="44.06624" lon="5.89514">
        <ele>703.41</ele>
        <time>2016-04-26T09:05:05Z</time>
      </trkpt>
      <trkpt lat="44.06618" lon="5.89584">
        <ele>703.82</ele>
        <time>2016-04-26T09:05:12Z</time>
      </trkpt>
      <trkpt lat="44.06611" lon="5.89653">
        <ele>703.15</ele>
        <time>2016-04-26T09:05:19Z</time>
      </trkpt>
      <trkpt lat="44.06612" lon="5.89703">
        <ele>703.33</ele>
        <time>2016-04-26T09:05:24Z</time>
      </trkpt>
      <trkpt lat="44.06615" lon="5.89722">
        <ele>703.5</ele>
        <time>2016-04-26T09:05:26Z</time>
      </trkpt>
      <trkpt lat="44.06636" lon="5.89788">
        <ele>702.28</ele>
        <time>2016-04-26T09:05:33Z</time>
      </trkpt>
      <trkpt lat="44.0664" lon="5.89797">
        <ele>701.85</ele>
        <time>2016-04-26T09:05:34Z</time>
      </trkpt>
      <trkpt lat="44.06646" lon="5.89806">
        <ele>701.58</ele>
        <time>2016-04-26T09:05:35Z</time>
      </trkpt>
      <trkpt lat="44.06651" lon="5.89814">
        <ele>701.38</ele>
        <time>2016-04-26T09:05:36Z</time>
      </trkpt>
      <trkpt lat="44.06659" lon="5.8982">
        <ele>701.24</ele>
        <time>2016-04-26T09:05:37Z</time>
      </trkpt>
      <trkpt lat="44.06667" lon="5.89824">
        <ele>701.22</ele>
        <time>2016-04-26T09:05:38Z</time>
      </trkpt>
      <trkpt lat="44.06675" lon="5.89828">
        <ele>701.2</ele>
        <time>2016-04-26T09:05:39Z</time>
      </trkpt>
      <trkpt lat="44.06684" lon="5.8983">
        <ele>701.03</ele>
        <time>2016-04-26T09:05:40Z</time>
      </trkpt>
      <trkpt lat="44.0674" lon="5.89838">
        <ele>699.36</ele>
        <time>2016-04-26T09:05:46Z</time>
      </trkpt>
      <trkpt lat="44.06783" lon="5.89835">
        <ele>697.65</ele>
        <time>2016-04-26T09:05:50Z</time>
      </trkpt>
      <trkpt lat="44.06793" lon="5.89837">
        <ele>696.86</ele>
        <time>2016-04-26T09:05:51Z</time>
      </trkpt>
      <trkpt lat="44.06803" lon="5.89843">
        <ele>696.43</ele>
        <time>2016-04-26T09:05:52Z</time>
      </trkpt>
      <trkpt lat="44.06812" lon="5.89849">
        <ele>695.83</ele>
        <time>2016-04-26T09:05:53Z</time>
      </trkpt>
      <trkpt lat="44.06821" lon="5.89857">
        <ele>695.29</ele>
        <time>2016-04-26T09:05:54Z</time>
      </trkpt>
      <trkpt lat="44.06829" lon="5.89866">
        <ele>695.11</ele>
        <time>2016-04-26T09:05:55Z</time>
      </trkpt>
      <trkpt lat="44.06837" lon="5.89876">
        <ele>695.08</ele>
        <time>2016-04-26T09:05:56Z</time>
      </trkpt>
      <trkpt lat="44.06843" lon="5.89887">
        <ele>694.81</ele>
        <time>2016-04-26T09:05:57Z</time>
      </trkpt>
      <trkpt lat="44.06849" lon="5.899">
        <ele>694.35</ele>
        <time>2016-04-26T09:05:58Z</time>
      </trkpt>
      <trkpt lat="44.06855" lon="5.89912">
        <ele>693.87</ele>
        <time>2016-04-26T09:05:59Z</time>
      </trkpt>
      <trkpt lat="44.06874" lon="5.89948">
        <ele>693.04</ele>
        <time>2016-04-26T09:06:02Z</time>
      </trkpt>
      <trkpt lat="44.06882" lon="5.89957">
        <ele>692.88</ele>
        <time>2016-04-26T09:06:03Z</time>
      </trkpt>
      <trkpt lat="44.06891" lon="5.89963">
        <ele>692.37</ele>
        <time>2016-04-26T09:06:04Z</time>
      </trkpt>
      <trkpt lat="44.0691" lon="5.89976">
        <ele>691.65</ele>
        <time>2016-04-26T09:06:06Z</time>
      </trkpt>
      <trkpt lat="44.06956" lon="5.90007">
        <ele>688.1</ele>
        <time>2016-04-26T09:06:11Z</time>
      </trkpt>
      <trkpt lat="44.07004" lon="5.90038">
        <ele>685.57</ele>
        <time>2016-04-26T09:06:16Z</time>
      </trkpt>
      <trkpt lat="44.07053" lon="5.90069">
        <ele>683.01</ele>
        <time>2016-04-26T09:06:21Z</time>
      </trkpt>
      <trkpt lat="44.07063" lon="5.90076">
        <ele>682.71</ele>
        <time>2016-04-26T09:06:22Z</time>
      </trkpt>
      <trkpt lat="44.07091" lon="5.90092">
        <ele>681.28</ele>
        <time>2016-04-26T09:06:25Z</time>
      </trkpt>
      <trkpt lat="44.07143" lon="5.90115">
        <ele>677.92</ele>
        <time>2016-04-26T09:06:30Z</time>
      </trkpt>
      <trkpt lat="44.07196" lon="5.90135">
        <ele>674.85</ele>
        <time>2016-04-26T09:06:35Z</time>
      </trkpt>
      <trkpt lat="44.07252" lon="5.90155">
        <ele>671.89</ele>
        <time>2016-04-26T09:06:40Z</time>
      </trkpt>
      <trkpt lat="44.07262" lon="5.90161">
        <ele>671.66</ele>
        <time>2016-04-26T09:06:41Z</time>
      </trkpt>
      <trkpt lat="44.07272" lon="5.90168">
        <ele>671.69</ele>
        <time>2016-04-26T09:06:42Z</time>
      </trkpt>
      <trkpt lat="44.07282" lon="5.90176">
        <ele>671.7</ele>
        <time>2016-04-26T09:06:43Z</time>
      </trkpt>
      <trkpt lat="44.0729" lon="5.90185">
        <ele>671.38</ele>
        <time>2016-04-26T09:06:44Z</time>
      </trkpt>
      <trkpt lat="44.07323" lon="5.90225">
        <ele>668.37</ele>
        <time>2016-04-26T09:06:48Z</time>
      </trkpt>
      <trkpt lat="44.07364" lon="5.90277">
        <ele>664.74</ele>
        <time>2016-04-26T09:06:53Z</time>
      </trkpt>
      <trkpt lat="44.07403" lon="5.90327">
        <ele>662.25</ele>
        <time>2016-04-26T09:06:58Z</time>
      </trkpt>
      <trkpt lat="44.07447" lon="5.90383">
        <ele>661.41</ele>
        <time>2016-04-26T09:07:04Z</time>
      </trkpt>
      <trkpt lat="44.07487" lon="5.90438">
        <ele>659.93</ele>
        <time>2016-04-26T09:07:10Z</time>
      </trkpt>
      <trkpt lat="44.07519" lon="5.90499">
        <ele>658.66</ele>
        <time>2016-04-26T09:07:16Z</time>
      </trkpt>
      <trkpt lat="44.07524" lon="5.9051">
        <ele>658.43</ele>
        <time>2016-04-26T09:07:17Z</time>
      </trkpt>
      <trkpt lat="44.07549" lon="5.90577">
        <ele>657.17</ele>
        <time>2016-04-26T09:07:23Z</time>
      </trkpt>
      <trkpt lat="44.07564" lon="5.90647">
        <ele>655.97</ele>
        <time>2016-04-26T09:07:29Z</time>
      </trkpt>
      <trkpt lat="44.07573" lon="5.90719">
        <ele>655.35</ele>
        <time>2016-04-26T09:07:35Z</time>
      </trkpt>
      <trkpt lat="44.07572" lon="5.90731">
        <ele>655.31</ele>
        <time>2016-04-26T09:07:36Z</time>
      </trkpt>
      <trkpt lat="44.07571" lon="5.90754">
        <ele>655.31</ele>
        <time>2016-04-26T09:07:38Z</time>
      </trkpt>
      <trkpt lat="44.07569" lon="5.90766">
        <ele>655.34</ele>
        <time>2016-04-26T09:07:39Z</time>
      </trkpt>
      <trkpt lat="44.07553" lon="5.90839">
        <ele>654.47</ele>
        <time>2016-04-26T09:07:46Z</time>
      </trkpt>
      <trkpt lat="44.07545" lon="5.90873">
        <ele>653.97</ele>
        <time>2016-04-26T09:07:49Z</time>
      </trkpt>
      <trkpt lat="44.07541" lon="5.90911">
        <ele>652.65</ele>
        <time>2016-04-26T09:07:52Z</time>
      </trkpt>
      <trkpt lat="44.07543" lon="5.90982">
        <ele>649.73</ele>
        <time>2016-04-26T09:07:57Z</time>
      </trkpt>
      <trkpt lat="44.07548" lon="5.91059">
        <ele>646.63</ele>
        <time>2016-04-26T09:08:02Z</time>
      </trkpt>
      <trkpt lat="44.07549" lon="5.91074">
        <ele>646.36</ele>
        <time>2016-04-26T09:08:03Z</time>
      </trkpt>
      <trkpt lat="44.07558" lon="5.91152">
        <ele>643.91</ele>
        <time>2016-04-26T09:08:08Z</time>
      </trkpt>
      <trkpt lat="44.07559" lon="5.91181">
        <ele>642.88</ele>
        <time>2016-04-26T09:08:10Z</time>
      </trkpt>
      <trkpt lat="44.07558" lon="5.91225">
        <ele>639.65</ele>
        <time>2016-04-26T09:08:13Z</time>
      </trkpt>
      <trkpt lat="44.07557" lon="5.91269">
        <ele>638.1</ele>
        <time>2016-04-26T09:08:16Z</time>
      </trkpt>
      <trkpt lat="44.07563" lon="5.91346">
        <ele>634.94</ele>
        <time>2016-04-26T09:08:21Z</time>
      </trkpt>
      <trkpt lat="44.07571" lon="5.91429">
        <ele>631.99</ele>
        <time>2016-04-26T09:08:26Z</time>
      </trkpt>
      <trkpt lat="44.07579" lon="5.91499">
        <ele>628.35</ele>
        <time>2016-04-26T09:08:30Z</time>
      </trkpt>
      <trkpt lat="44.07581" lon="5.91516">
        <ele>628.09</ele>
        <time>2016-04-26T09:08:31Z</time>
      </trkpt>
      <trkpt lat="44.07588" lon="5.91604">
        <ele>628.21</ele>
        <time>2016-04-26T09:08:36Z</time>
      </trkpt>
      <trkpt lat="44.07585" lon="5.91621">
        <ele>627.29</ele>
        <time>2016-04-26T09:08:37Z</time>
      </trkpt>
      <trkpt lat="44.07582" lon="5.91638">
        <ele>626.27</ele>
        <time>2016-04-26T09:08:38Z</time>
      </trkpt>
      <trkpt lat="44.07577" lon="5.91654">
        <ele>625.79</ele>
        <time>2016-04-26T09:08:39Z</time>
      </trkpt>
      <trkpt lat="44.07572" lon="5.91671">
        <ele>625.29</ele>
        <time>2016-04-26T09:08:40Z</time>
      </trkpt>
      <trkpt lat="44.07548" lon="5.91751">
        <ele>622.03</ele>
        <time>2016-04-26T09:08:45Z</time>
      </trkpt>
      <trkpt lat="44.07526" lon="5.91813">
        <ele>618.67</ele>
        <time>2016-04-26T09:08:49Z</time>
      </trkpt>
      <trkpt lat="44.07512" lon="5.9186">
        <ele>617.39</ele>
        <time>2016-04-26T09:08:52Z</time>
      </trkpt>
      <trkpt lat="44.07501" lon="5.91906">
        <ele>614.09</ele>
        <time>2016-04-26T09:08:55Z</time>
      </trkpt>
      <trkpt lat="44.07494" lon="5.91935">
        <ele>611.5</ele>
        <time>2016-04-26T09:08:57Z</time>
      </trkpt>
      <trkpt lat="44.07488" lon="5.91948">
        <ele>611.21</ele>
        <time>2016-04-26T09:08:58Z</time>
      </trkpt>
      <trkpt lat="44.07479" lon="5.91958">
        <ele>610.87</ele>
        <time>2016-04-26T09:08:59Z</time>
      </trkpt>
      <trkpt lat="44.0747" lon="5.91966">
        <ele>609.93</ele>
        <time>2016-04-26T09:09:00Z</time>
      </trkpt>
      <trkpt lat="44.0746" lon="5.91974">
        <ele>608.97</ele>
        <time>2016-04-26T09:09:01Z</time>
      </trkpt>
      <trkpt lat="44.07441" lon="5.91991">
        <ele>608.35</ele>
        <time>2016-04-26T09:09:03Z</time>
      </trkpt>
      <trkpt lat="44.07399" lon="5.92047">
        <ele>607.52</ele>
        <time>2016-04-26T09:09:08Z</time>
      </trkpt>
      <trkpt lat="44.07377" lon="5.92085">
        <ele>605.85</ele>
        <time>2016-04-26T09:09:11Z</time>
      </trkpt>
      <trkpt lat="44.07366" lon="5.92111">
        <ele>604.7</ele>
        <time>2016-04-26T09:09:13Z</time>
      </trkpt>
      <trkpt lat="44.07362" lon="5.92125">
        <ele>603.63</ele>
        <time>2016-04-26T09:09:14Z</time>
      </trkpt>
      <trkpt lat="44.07357" lon="5.92138">
        <ele>603.23</ele>
        <time>2016-04-26T09:09:15Z</time>
      </trkpt>
      <trkpt lat="44.0735" lon="5.92149">
        <ele>602.52</ele>
        <time>2016-04-26T09:09:16Z</time>
      </trkpt>
      <trkpt lat="44.07341" lon="5.92157">
        <ele>601.79</ele>
        <time>2016-04-26T09:09:17Z</time>
      </trkpt>
      <trkpt lat="44.07332" lon="5.92164">
        <ele>601.03</ele>
        <time>2016-04-26T09:09:18Z</time>
      </trkpt>
      <trkpt lat="44.07324" lon="5.92172">
        <ele>600.42</ele>
        <time>2016-04-26T09:09:19Z</time>
      </trkpt>
      <trkpt lat="44.07315" lon="5.92181">
        <ele>599.94</ele>
        <time>2016-04-26T09:09:20Z</time>
      </trkpt>
      <trkpt lat="44.07277" lon="5.92236">
        <ele>596.87</ele>
        <time>2016-04-26T09:09:25Z</time>
      </trkpt>
      <trkpt lat="44.07243" lon="5.92303">
        <ele>594.01</ele>
        <time>2016-04-26T09:09:30Z</time>
      </trkpt>
      <trkpt lat="44.07213" lon="5.92377">
        <ele>593.59</ele>
        <time>2016-04-26T09:09:35Z</time>
      </trkpt>
      <trkpt lat="44.07205" lon="5.92389">
        <ele>593.17</ele>
        <time>2016-04-26T09:09:36Z</time>
      </trkpt>
      <trkpt lat="44.07196" lon="5.924">
        <ele>592.19</ele>
        <time>2016-04-26T09:09:37Z</time>
      </trkpt>
      <trkpt lat="44.07187" lon="5.92411">
        <ele>590.78</ele>
        <time>2016-04-26T09:09:38Z</time>
      </trkpt>
      <trkpt lat="44.07179" lon="5.92423">
        <ele>589.94</ele>
        <time>2016-04-26T09:09:39Z</time>
      </trkpt>
      <trkpt lat="44.07171" lon="5.92435">
        <ele>589.64</ele>
        <time>2016-04-26T09:09:40Z</time>
      </trkpt>
      <trkpt lat="44.07161" lon="5.92445">
        <ele>589.46</ele>
        <time>2016-04-26T09:09:41Z</time>
      </trkpt>
      <trkpt lat="44.07149" lon="5.92452">
        <ele>588.7</ele>
        <time>2016-04-26T09:09:42Z</time>
      </trkpt>
      <trkpt lat="44.07137" lon="5.92457">
        <ele>586.64</ele>
        <time>2016-04-26T09:09:43Z</time>
      </trkpt>
      <trkpt lat="44.07125" lon="5.92462">
        <ele>585.45</ele>
        <time>2016-04-26T09:09:44Z</time>
      </trkpt>
      <trkpt lat="44.07114" lon="5.92468">
        <ele>584.95</ele>
        <time>2016-04-26T09:09:45Z</time>
      </trkpt>
      <trkpt lat="44.07103" lon="5.92474">
        <ele>584.73</ele>
        <time>2016-04-26T09:09:46Z</time>
      </trkpt>
      <trkpt lat="44.07071" lon="5.92496">
        <ele>581.67</ele>
        <time>2016-04-26T09:09:49Z</time>
      </trkpt>
      <trkpt lat="44.07014" lon="5.92529">
        <ele>578.68</ele>
        <time>2016-04-26T09:09:54Z</time>
      </trkpt>
      <trkpt lat="44.06964" lon="5.92543">
        <ele>578.79</ele>
        <time>2016-04-26T09:09:58Z</time>
      </trkpt>
      <trkpt lat="44.06952" lon="5.92542">
        <ele>578.37</ele>
        <time>2016-04-26T09:09:59Z</time>
      </trkpt>
      <trkpt lat="44.0694" lon="5.9254">
        <ele>577.54</ele>
        <time>2016-04-26T09:10:00Z</time>
      </trkpt>
      <trkpt lat="44.06916" lon="5.92534">
        <ele>574.92</ele>
        <time>2016-04-26T09:10:02Z</time>
      </trkpt>
      <trkpt lat="44.06905" lon="5.92534">
        <ele>573.91</ele>
        <time>2016-04-26T09:10:03Z</time>
      </trkpt>
      <trkpt lat="44.06894" lon="5.92536">
        <ele>572.63</ele>
        <time>2016-04-26T09:10:04Z</time>
      </trkpt>
      <trkpt lat="44.06883" lon="5.92541">
        <ele>571.78</ele>
        <time>2016-04-26T09:10:05Z</time>
      </trkpt>
      <trkpt lat="44.06873" lon="5.92548">
        <ele>571</ele>
        <time>2016-04-26T09:10:06Z</time>
      </trkpt>
      <trkpt lat="44.06863" lon="5.92556">
        <ele>570.67</ele>
        <time>2016-04-26T09:10:07Z</time>
      </trkpt>
      <trkpt lat="44.06853" lon="5.92565">
        <ele>570.66</ele>
        <time>2016-04-26T09:10:08Z</time>
      </trkpt>
      <trkpt lat="44.06844" lon="5.92575">
        <ele>570.73</ele>
        <time>2016-04-26T09:10:09Z</time>
      </trkpt>
      <trkpt lat="44.06794" lon="5.9262">
        <ele>568.23</ele>
        <time>2016-04-26T09:10:14Z</time>
      </trkpt>
      <trkpt lat="44.06756" lon="5.92656">
        <ele>564.77</ele>
        <time>2016-04-26T09:10:18Z</time>
      </trkpt>
      <trkpt lat="44.06747" lon="5.92666">
        <ele>564.6</ele>
        <time>2016-04-26T09:10:19Z</time>
      </trkpt>
      <trkpt lat="44.06738" lon="5.92677">
        <ele>564.47</ele>
        <time>2016-04-26T09:10:20Z</time>
      </trkpt>
      <trkpt lat="44.06731" lon="5.92688">
        <ele>564.45</ele>
        <time>2016-04-26T09:10:21Z</time>
      </trkpt>
      <trkpt lat="44.06724" lon="5.92701">
        <ele>564.1</ele>
        <time>2016-04-26T09:10:22Z</time>
      </trkpt>
      <trkpt lat="44.06706" lon="5.92741">
        <ele>561.66</ele>
        <time>2016-04-26T09:10:25Z</time>
      </trkpt>
      <trkpt lat="44.06677" lon="5.92809">
        <ele>558.73</ele>
        <time>2016-04-26T09:10:30Z</time>
      </trkpt>
      <trkpt lat="44.06646" lon="5.92875">
        <ele>555.12</ele>
        <time>2016-04-26T09:10:35Z</time>
      </trkpt>
      <trkpt lat="44.06629" lon="5.92932">
        <ele>553.43</ele>
        <time>2016-04-26T09:10:39Z</time>
      </trkpt>
      <trkpt lat="44.06628" lon="5.92945">
        <ele>553.46</ele>
        <time>2016-04-26T09:10:40Z</time>
      </trkpt>
      <trkpt lat="44.06626" lon="5.92958">
        <ele>553.1</ele>
        <time>2016-04-26T09:10:41Z</time>
      </trkpt>
      <trkpt lat="44.06621" lon="5.92968">
        <ele>552.52</ele>
        <time>2016-04-26T09:10:42Z</time>
      </trkpt>
      <trkpt lat="44.06616" lon="5.92977">
        <ele>552.22</ele>
        <time>2016-04-26T09:10:43Z</time>
      </trkpt>
      <trkpt lat="44.0661" lon="5.92983">
        <ele>551.85</ele>
        <time>2016-04-26T09:10:44Z</time>
      </trkpt>
      <trkpt lat="44.06599" lon="5.92988">
        <ele>551.41</ele>
        <time>2016-04-26T09:10:45Z</time>
      </trkpt>
      <trkpt lat="44.0659" lon="5.92994">
        <ele>550.81</ele>
        <time>2016-04-26T09:10:46Z</time>
      </trkpt>
      <trkpt lat="44.06582" lon="5.93">
        <ele>550.25</ele>
        <time>2016-04-26T09:10:47Z</time>
      </trkpt>
      <trkpt lat="44.06573" lon="5.93008">
        <ele>549.4</ele>
        <time>2016-04-26T09:10:48Z</time>
      </trkpt>
      <trkpt lat="44.06565" lon="5.93017">
        <ele>548.77</ele>
        <time>2016-04-26T09:10:49Z</time>
      </trkpt>
      <trkpt lat="44.06557" lon="5.93027">
        <ele>548.65</ele>
        <time>2016-04-26T09:10:50Z</time>
      </trkpt>
      <trkpt lat="44.0655" lon="5.93036">
        <ele>548.06</ele>
        <time>2016-04-26T09:10:51Z</time>
      </trkpt>
      <trkpt lat="44.06518" lon="5.93091">
        <ele>546.38</ele>
        <time>2016-04-26T09:10:56Z</time>
      </trkpt>
      <trkpt lat="44.06494" lon="5.93153">
        <ele>546.36</ele>
        <time>2016-04-26T09:11:01Z</time>
      </trkpt>
      <trkpt lat="44.06477" lon="5.93189">
        <ele>545.97</ele>
        <time>2016-04-26T09:11:04Z</time>
      </trkpt>
      <trkpt lat="44.06436" lon="5.93244">
        <ele>544.17</ele>
        <time>2016-04-26T09:11:10Z</time>
      </trkpt>
      <trkpt lat="44.06396" lon="5.93297">
        <ele>545.08</ele>
        <time>2016-04-26T09:11:16Z</time>
      </trkpt>
      <trkpt lat="44.06392" lon="5.93306">
        <ele>544.83</ele>
        <time>2016-04-26T09:11:17Z</time>
      </trkpt>
      <trkpt lat="44.0639" lon="5.93317">
        <ele>544.26</ele>
        <time>2016-04-26T09:11:18Z</time>
      </trkpt>
      <trkpt lat="44.06394" lon="5.93328">
        <ele>543.97</ele>
        <time>2016-04-26T09:11:19Z</time>
      </trkpt>
      <trkpt lat="44.06399" lon="5.93337">
        <ele>543.62</ele>
        <time>2016-04-26T09:11:20Z</time>
      </trkpt>
      <trkpt lat="44.06405" lon="5.93343">
        <ele>543.22</ele>
        <time>2016-04-26T09:11:21Z</time>
      </trkpt>
      <trkpt lat="44.06412" lon="5.93347">
        <ele>543.11</ele>
        <time>2016-04-26T09:11:22Z</time>
      </trkpt>
      <trkpt lat="44.06419" lon="5.9335">
        <ele>543.27</ele>
        <time>2016-04-26T09:11:23Z</time>
      </trkpt>
      <trkpt lat="44.06426" lon="5.93353">
        <ele>543.19</ele>
        <time>2016-04-26T09:11:24Z</time>
      </trkpt>
      <trkpt lat="44.06434" lon="5.93354">
        <ele>543.24</ele>
        <time>2016-04-26T09:11:25Z</time>
      </trkpt>
      <trkpt lat="44.06442" lon="5.93357">
        <ele>543.41</ele>
        <time>2016-04-26T09:11:26Z</time>
      </trkpt>
      <trkpt lat="44.06447" lon="5.93363">
        <ele>543.31</ele>
        <time>2016-04-26T09:11:27Z</time>
      </trkpt>
      <trkpt lat="44.06449" lon="5.93372">
        <ele>542.6</ele>
        <time>2016-04-26T09:11:28Z</time>
      </trkpt>
      <trkpt lat="44.06449" lon="5.9338">
        <ele>542.01</ele>
        <time>2016-04-26T09:11:29Z</time>
      </trkpt>
      <trkpt lat="44.06444" lon="5.93386">
        <ele>541.87</ele>
        <time>2016-04-26T09:11:30Z</time>
      </trkpt>
      <trkpt lat="44.06439" lon="5.93389">
        <ele>541.9</ele>
        <time>2016-04-26T09:11:31Z</time>
      </trkpt>
      <trkpt lat="44.06432" lon="5.93392">
        <ele>541.89</ele>
        <time>2016-04-26T09:11:32Z</time>
      </trkpt>
      <trkpt lat="44.06425" lon="5.93393">
        <ele>541.84</ele>
        <time>2016-04-26T09:11:33Z</time>
      </trkpt>
      <trkpt lat="44.06417" lon="5.93395">
        <ele>541.86</ele>
        <time>2016-04-26T09:11:34Z</time>
      </trkpt>
      <trkpt lat="44.06403" lon="5.93401">
        <ele>541.9</ele>
        <time>2016-04-26T09:11:36Z</time>
      </trkpt>
      <trkpt lat="44.06395" lon="5.93406">
        <ele>541.87</ele>
        <time>2016-04-26T09:11:37Z</time>
      </trkpt>
      <trkpt lat="44.06388" lon="5.93411">
        <ele>541.87</ele>
        <time>2016-04-26T09:11:38Z</time>
      </trkpt>
      <trkpt lat="44.0638" lon="5.93418">
        <ele>541.7</ele>
        <time>2016-04-26T09:11:39Z</time>
      </trkpt>
      <trkpt lat="44.06373" lon="5.93426">
        <ele>541.4</ele>
        <time>2016-04-26T09:11:40Z</time>
      </trkpt>
      <trkpt lat="44.06366" lon="5.93434">
        <ele>541.22</ele>
        <time>2016-04-26T09:11:41Z</time>
      </trkpt>
      <trkpt lat="44.0636" lon="5.93443">
        <ele>540.89</ele>
        <time>2016-04-26T09:11:42Z</time>
      </trkpt>
      <trkpt lat="44.06319" lon="5.93503">
        <ele>538.53</ele>
        <time>2016-04-26T09:11:48Z</time>
      </trkpt>
      <trkpt lat="44.06313" lon="5.93515">
        <ele>538.49</ele>
        <time>2016-04-26T09:11:49Z</time>
      </trkpt>
      <trkpt lat="44.06307" lon="5.93528">
        <ele>538.68</ele>
        <time>2016-04-26T09:11:50Z</time>
      </trkpt>
      <trkpt lat="44.06305" lon="5.93543">
        <ele>538.75</ele>
        <time>2016-04-26T09:11:51Z</time>
      </trkpt>
      <trkpt lat="44.06305" lon="5.93558">
        <ele>538.65</ele>
        <time>2016-04-26T09:11:52Z</time>
      </trkpt>
      <trkpt lat="44.06307" lon="5.93573">
        <ele>538.44</ele>
        <time>2016-04-26T09:11:53Z</time>
      </trkpt>
      <trkpt lat="44.0631" lon="5.93587">
        <ele>537.83</ele>
        <time>2016-04-26T09:11:54Z</time>
      </trkpt>
      <trkpt lat="44.06313" lon="5.93601">
        <ele>537.24</ele>
        <time>2016-04-26T09:11:55Z</time>
      </trkpt>
      <trkpt lat="44.06315" lon="5.93616">
        <ele>536.85</ele>
        <time>2016-04-26T09:11:56Z</time>
      </trkpt>
      <trkpt lat="44.06314" lon="5.9363">
        <ele>536.57</ele>
        <time>2016-04-26T09:11:57Z</time>
      </trkpt>
      <trkpt lat="44.06311" lon="5.93643">
        <ele>536.37</ele>
        <time>2016-04-26T09:11:58Z</time>
      </trkpt>
      <trkpt lat="44.06296" lon="5.93661">
        <ele>535.74</ele>
        <time>2016-04-26T09:12:00Z</time>
      </trkpt>
      <trkpt lat="44.06287" lon="5.93667">
        <ele>535.54</ele>
        <time>2016-04-26T09:12:01Z</time>
      </trkpt>
      <trkpt lat="44.06238" lon="5.93709">
        <ele>533.32</ele>
        <time>2016-04-26T09:12:07Z</time>
      </trkpt>
      <trkpt lat="44.06199" lon="5.93756">
        <ele>531.52</ele>
        <time>2016-04-26T09:12:12Z</time>
      </trkpt>
      <trkpt lat="44.06156" lon="5.93805">
        <ele>529.62</ele>
        <time>2016-04-26T09:12:17Z</time>
      </trkpt>
      <trkpt lat="44.06115" lon="5.93863">
        <ele>527.83</ele>
        <time>2016-04-26T09:12:22Z</time>
      </trkpt>
      <trkpt lat="44.06073" lon="5.93926">
        <ele>524.73</ele>
        <time>2016-04-26T09:12:27Z</time>
      </trkpt>
      <trkpt lat="44.06057" lon="5.9395">
        <ele>522.32</ele>
        <time>2016-04-26T09:12:29Z</time>
      </trkpt>
      <trkpt lat="44.06049" lon="5.9396">
        <ele>521.77</ele>
        <time>2016-04-26T09:12:30Z</time>
      </trkpt>
      <trkpt lat="44.06026" lon="5.93985">
        <ele>517.74</ele>
        <time>2016-04-26T09:12:33Z</time>
      </trkpt>
      <trkpt lat="44.0602" lon="5.93994">
        <ele>516.89</ele>
        <time>2016-04-26T09:12:34Z</time>
      </trkpt>
      <trkpt lat="44.0602" lon="5.94004">
        <ele>516.49</ele>
        <time>2016-04-26T09:12:35Z</time>
      </trkpt>
      <trkpt lat="44.0602" lon="5.94014">
        <ele>516.36</ele>
        <time>2016-04-26T09:12:36Z</time>
      </trkpt>
      <trkpt lat="44.06024" lon="5.94023">
        <ele>516.05</ele>
        <time>2016-04-26T09:12:37Z</time>
      </trkpt>
      <trkpt lat="44.0603" lon="5.9403">
        <ele>515.44</ele>
        <time>2016-04-26T09:12:38Z</time>
      </trkpt>
      <trkpt lat="44.06037" lon="5.94033">
        <ele>514.76</ele>
        <time>2016-04-26T09:12:39Z</time>
      </trkpt>
      <trkpt lat="44.06046" lon="5.94034">
        <ele>514.51</ele>
        <time>2016-04-26T09:12:40Z</time>
      </trkpt>
      <trkpt lat="44.06055" lon="5.94034">
        <ele>513.99</ele>
        <time>2016-04-26T09:12:41Z</time>
      </trkpt>
      <trkpt lat="44.06064" lon="5.94033">
        <ele>513.46</ele>
        <time>2016-04-26T09:12:42Z</time>
      </trkpt>
      <trkpt lat="44.06121" lon="5.94022">
        <ele>511.91</ele>
        <time>2016-04-26T09:12:48Z</time>
      </trkpt>
      <trkpt lat="44.06131" lon="5.94021">
        <ele>511.91</ele>
        <time>2016-04-26T09:12:49Z</time>
      </trkpt>
      <trkpt lat="44.06142" lon="5.94021">
        <ele>511.35</ele>
        <time>2016-04-26T09:12:50Z</time>
      </trkpt>
      <trkpt lat="44.06152" lon="5.94022">
        <ele>510.65</ele>
        <time>2016-04-26T09:12:51Z</time>
      </trkpt>
      <trkpt lat="44.06193" lon="5.94026">
        <ele>507.65</ele>
        <time>2016-04-26T09:12:55Z</time>
      </trkpt>
      <trkpt lat="44.06249" lon="5.94029">
        <ele>505.44</ele>
        <time>2016-04-26T09:13:00Z</time>
      </trkpt>
      <trkpt lat="44.06273" lon="5.94028">
        <ele>503.54</ele>
        <time>2016-04-26T09:13:02Z</time>
      </trkpt>
      <trkpt lat="44.06285" lon="5.94025">
        <ele>502.44</ele>
        <time>2016-04-26T09:13:03Z</time>
      </trkpt>
      <trkpt lat="44.06297" lon="5.94022">
        <ele>502.32</ele>
        <time>2016-04-26T09:13:04Z</time>
      </trkpt>
      <trkpt lat="44.06309" lon="5.94017">
        <ele>502.2</ele>
        <time>2016-04-26T09:13:05Z</time>
      </trkpt>
      <trkpt lat="44.0632" lon="5.94011">
        <ele>502.11</ele>
        <time>2016-04-26T09:13:06Z</time>
      </trkpt>
      <trkpt lat="44.06331" lon="5.94005">
        <ele>502.18</ele>
        <time>2016-04-26T09:13:07Z</time>
      </trkpt>
      <trkpt lat="44.06382" lon="5.93965">
        <ele>499.35</ele>
        <time>2016-04-26T09:13:12Z</time>
      </trkpt>
      <trkpt lat="44.06392" lon="5.93959">
        <ele>498.81</ele>
        <time>2016-04-26T09:13:13Z</time>
      </trkpt>
      <trkpt lat="44.06402" lon="5.93956">
        <ele>498.5</ele>
        <time>2016-04-26T09:13:14Z</time>
      </trkpt>
      <trkpt lat="44.06412" lon="5.93954">
        <ele>498.3</ele>
        <time>2016-04-26T09:13:15Z</time>
      </trkpt>
      <trkpt lat="44.06422" lon="5.93954">
        <ele>498.14</ele>
        <time>2016-04-26T09:13:16Z</time>
      </trkpt>
      <trkpt lat="44.06431" lon="5.93955">
        <ele>497.47</ele>
        <time>2016-04-26T09:13:17Z</time>
      </trkpt>
      <trkpt lat="44.06437" lon="5.9396">
        <ele>496.77</ele>
        <time>2016-04-26T09:13:18Z</time>
      </trkpt>
      <trkpt lat="44.06441" lon="5.93968">
        <ele>496.15</ele>
        <time>2016-04-26T09:13:19Z</time>
      </trkpt>
      <trkpt lat="44.06441" lon="5.93976">
        <ele>495.58</ele>
        <time>2016-04-26T09:13:20Z</time>
      </trkpt>
      <trkpt lat="44.06439" lon="5.93985">
        <ele>494.96</ele>
        <time>2016-04-26T09:13:21Z</time>
      </trkpt>
      <trkpt lat="44.06435" lon="5.93993">
        <ele>494.09</ele>
        <time>2016-04-26T09:13:22Z</time>
      </trkpt>
      <trkpt lat="44.06427" lon="5.93995">
        <ele>493.1</ele>
        <time>2016-04-26T09:13:23Z</time>
      </trkpt>
      <trkpt lat="44.06417" lon="5.93995">
        <ele>492.51</ele>
        <time>2016-04-26T09:13:24Z</time>
      </trkpt>
      <trkpt lat="44.06408" lon="5.93995">
        <ele>492.11</ele>
        <time>2016-04-26T09:13:25Z</time>
      </trkpt>
      <trkpt lat="44.06399" lon="5.93996">
        <ele>491.83</ele>
        <time>2016-04-26T09:13:26Z</time>
      </trkpt>
      <trkpt lat="44.06364" lon="5.94005">
        <ele>490.77</ele>
        <time>2016-04-26T09:13:30Z</time>
      </trkpt>
      <trkpt lat="44.06347" lon="5.94016">
        <ele>490.42</ele>
        <time>2016-04-26T09:13:32Z</time>
      </trkpt>
      <trkpt lat="44.06292" lon="5.94053">
        <ele>487.65</ele>
        <time>2016-04-26T09:13:38Z</time>
      </trkpt>
      <trkpt lat="44.06281" lon="5.94057">
        <ele>486.9</ele>
        <time>2016-04-26T09:13:39Z</time>
      </trkpt>
      <trkpt lat="44.0627" lon="5.9406">
        <ele>486</ele>
        <time>2016-04-26T09:13:40Z</time>
      </trkpt>
      <trkpt lat="44.06247" lon="5.94064">
        <ele>485.25</ele>
        <time>2016-04-26T09:13:42Z</time>
      </trkpt>
      <trkpt lat="44.06189" lon="5.94075">
        <ele>483.46</ele>
        <time>2016-04-26T09:13:47Z</time>
      </trkpt>
      <trkpt lat="44.06129" lon="5.94099">
        <ele>481.11</ele>
        <time>2016-04-26T09:13:52Z</time>
      </trkpt>
      <trkpt lat="44.06065" lon="5.94119">
        <ele>477.71</ele>
        <time>2016-04-26T09:13:57Z</time>
      </trkpt>
      <trkpt lat="44.06002" lon="5.94132">
        <ele>474.1</ele>
        <time>2016-04-26T09:14:02Z</time>
      </trkpt>
      <trkpt lat="44.05966" lon="5.94135">
        <ele>471.61</ele>
        <time>2016-04-26T09:14:05Z</time>
      </trkpt>
      <trkpt lat="44.05955" lon="5.94132">
        <ele>470.72</ele>
        <time>2016-04-26T09:14:06Z</time>
      </trkpt>
      <trkpt lat="44.05945" lon="5.94128">
        <ele>469.67</ele>
        <time>2016-04-26T09:14:07Z</time>
      </trkpt>
      <trkpt lat="44.05937" lon="5.9412">
        <ele>468.8</ele>
        <time>2016-04-26T09:14:08Z</time>
      </trkpt>
      <trkpt lat="44.05932" lon="5.94109">
        <ele>468.06</ele>
        <time>2016-04-26T09:14:09Z</time>
      </trkpt>
      <trkpt lat="44.05929" lon="5.94098">
        <ele>466.98</ele>
        <time>2016-04-26T09:14:10Z</time>
      </trkpt>
      <trkpt lat="44.05928" lon="5.94087">
        <ele>465.9</ele>
        <time>2016-04-26T09:14:11Z</time>
      </trkpt>
      <trkpt lat="44.05927" lon="5.94077">
        <ele>464.92</ele>
        <time>2016-04-26T09:14:12Z</time>
      </trkpt>
      <trkpt lat="44.05923" lon="5.94067">
        <ele>463.95</ele>
        <time>2016-04-26T09:14:13Z</time>
      </trkpt>
      <trkpt lat="44.05917" lon="5.94064">
        <ele>463.17</ele>
        <time>2016-04-26T09:14:14Z</time>
      </trkpt>
      <trkpt lat="44.05911" lon="5.94065">
        <ele>462.35</ele>
        <time>2016-04-26T09:14:15Z</time>
      </trkpt>
      <trkpt lat="44.05907" lon="5.94071">
        <ele>461.3</ele>
        <time>2016-04-26T09:14:16Z</time>
      </trkpt>
      <trkpt lat="44.05904" lon="5.94081">
        <ele>460.6</ele>
        <time>2016-04-26T09:14:17Z</time>
      </trkpt>
      <trkpt lat="44.05903" lon="5.94091">
        <ele>460.19</ele>
        <time>2016-04-26T09:14:18Z</time>
      </trkpt>
      <trkpt lat="44.05901" lon="5.94103">
        <ele>459.8</ele>
        <time>2016-04-26T09:14:19Z</time>
      </trkpt>
      <trkpt lat="44.05897" lon="5.94114">
        <ele>459.62</ele>
        <time>2016-04-26T09:14:20Z</time>
      </trkpt>
      <trkpt lat="44.05891" lon="5.94124">
        <ele>459.2</ele>
        <time>2016-04-26T09:14:21Z</time>
      </trkpt>
      <trkpt lat="44.05883" lon="5.94134">
        <ele>458.65</ele>
        <time>2016-04-26T09:14:22Z</time>
      </trkpt>
      <trkpt lat="44.05875" lon="5.94143">
        <ele>458.08</ele>
        <time>2016-04-26T09:14:23Z</time>
      </trkpt>
      <trkpt lat="44.05834" lon="5.94183">
        <ele>456.13</ele>
        <time>2016-04-26T09:14:27Z</time>
      </trkpt>
      <trkpt lat="44.05785" lon="5.94218">
        <ele>453.99</ele>
        <time>2016-04-26T09:14:31Z</time>
      </trkpt>
      <trkpt lat="44.05751" lon="5.94246">
        <ele>450.63</ele>
        <time>2016-04-26T09:14:34Z</time>
      </trkpt>
      <trkpt lat="44.0574" lon="5.94255">
        <ele>448.97</ele>
        <time>2016-04-26T09:14:35Z</time>
      </trkpt>
      <trkpt lat="44.05702" lon="5.94289">
        <ele>445.25</ele>
        <time>2016-04-26T09:14:39Z</time>
      </trkpt>
      <trkpt lat="44.05693" lon="5.94297">
        <ele>444.99</ele>
        <time>2016-04-26T09:14:40Z</time>
      </trkpt>
      <trkpt lat="44.05684" lon="5.94307">
        <ele>444.99</ele>
        <time>2016-04-26T09:14:41Z</time>
      </trkpt>
      <trkpt lat="44.05677" lon="5.94319">
        <ele>444.8</ele>
        <time>2016-04-26T09:14:42Z</time>
      </trkpt>
      <trkpt lat="44.0566" lon="5.94357">
        <ele>443.35</ele>
        <time>2016-04-26T09:14:45Z</time>
      </trkpt>
      <trkpt lat="44.05661" lon="5.94372">
        <ele>442.82</ele>
        <time>2016-04-26T09:14:46Z</time>
      </trkpt>
      <trkpt lat="44.05662" lon="5.94387">
        <ele>442.2</ele>
        <time>2016-04-26T09:14:47Z</time>
      </trkpt>
      <trkpt lat="44.0567" lon="5.94501">
        <ele>439.81</ele>
        <time>2016-04-26T09:14:54Z</time>
      </trkpt>
      <trkpt lat="44.05678" lon="5.94587">
        <ele>436.78</ele>
        <time>2016-04-26T09:14:59Z</time>
      </trkpt>
      <trkpt lat="44.0569" lon="5.94664">
        <ele>435.41</ele>
        <time>2016-04-26T09:15:04Z</time>
      </trkpt>
      <trkpt lat="44.0569" lon="5.94679">
        <ele>435.03</ele>
        <time>2016-04-26T09:15:05Z</time>
      </trkpt>
      <trkpt lat="44.05687" lon="5.94692">
        <ele>434.67</ele>
        <time>2016-04-26T09:15:06Z</time>
      </trkpt>
      <trkpt lat="44.05682" lon="5.94706">
        <ele>433.94</ele>
        <time>2016-04-26T09:15:07Z</time>
      </trkpt>
      <trkpt lat="44.05678" lon="5.94719">
        <ele>433.22</ele>
        <time>2016-04-26T09:15:08Z</time>
      </trkpt>
      <trkpt lat="44.05668" lon="5.94745">
        <ele>432.31</ele>
        <time>2016-04-26T09:15:10Z</time>
      </trkpt>
      <trkpt lat="44.05646" lon="5.94814">
        <ele>432.43</ele>
        <time>2016-04-26T09:15:15Z</time>
      </trkpt>
      <trkpt lat="44.05639" lon="5.94826">
        <ele>432.09</ele>
        <time>2016-04-26T09:15:16Z</time>
      </trkpt>
      <trkpt lat="44.05632" lon="5.94836">
        <ele>431.71</ele>
        <time>2016-04-26T09:15:17Z</time>
      </trkpt>
      <trkpt lat="44.05623" lon="5.94845">
        <ele>431.27</ele>
        <time>2016-04-26T09:15:18Z</time>
      </trkpt>
      <trkpt lat="44.05613" lon="5.94851">
        <ele>430.98</ele>
        <time>2016-04-26T09:15:19Z</time>
      </trkpt>
      <trkpt lat="44.05603" lon="5.94856">
        <ele>430.77</ele>
        <time>2016-04-26T09:15:20Z</time>
      </trkpt>
      <trkpt lat="44.05593" lon="5.94857">
        <ele>430.64</ele>
        <time>2016-04-26T09:15:21Z</time>
      </trkpt>
      <trkpt lat="44.05582" lon="5.94858">
        <ele>430.29</ele>
        <time>2016-04-26T09:15:22Z</time>
      </trkpt>
      <trkpt lat="44.05571" lon="5.94857">
        <ele>429.86</ele>
        <time>2016-04-26T09:15:23Z</time>
      </trkpt>
      <trkpt lat="44.0556" lon="5.94856">
        <ele>429.64</ele>
        <time>2016-04-26T09:15:24Z</time>
      </trkpt>
      <trkpt lat="44.05507" lon="5.94852">
        <ele>428.52</ele>
        <time>2016-04-26T09:15:29Z</time>
      </trkpt>
      <trkpt lat="44.05497" lon="5.94854">
        <ele>428.3</ele>
        <time>2016-04-26T09:15:30Z</time>
      </trkpt>
      <trkpt lat="44.05487" lon="5.94858">
        <ele>428.12</ele>
        <time>2016-04-26T09:15:31Z</time>
      </trkpt>
      <trkpt lat="44.05477" lon="5.94862">
        <ele>428</ele>
        <time>2016-04-26T09:15:32Z</time>
      </trkpt>
      <trkpt lat="44.05468" lon="5.94867">
        <ele>428.08</ele>
        <time>2016-04-26T09:15:33Z</time>
      </trkpt>
      <trkpt lat="44.05459" lon="5.94873">
        <ele>428.97</ele>
        <time>2016-04-26T09:15:34Z</time>
      </trkpt>
      <trkpt lat="44.05451" lon="5.9488">
        <ele>429.39</ele>
        <time>2016-04-26T09:15:35Z</time>
      </trkpt>
      <trkpt lat="44.05402" lon="5.94914">
        <ele>428.54</ele>
        <time>2016-04-26T09:15:41Z</time>
      </trkpt>
      <trkpt lat="44.05352" lon="5.94949">
        <ele>428.04</ele>
        <time>2016-04-26T09:15:48Z</time>
      </trkpt>
      <trkpt lat="44.05329" lon="5.94961">
        <ele>427.42</ele>
        <time>2016-04-26T09:15:51Z</time>
      </trkpt>
      <trkpt lat="44.05321" lon="5.94962">
        <ele>427.28</ele>
        <time>2016-04-26T09:15:52Z</time>
      </trkpt>
      <trkpt lat="44.05295" lon="5.94969">
        <ele>426.02</ele>
        <time>2016-04-26T09:15:55Z</time>
      </trkpt>
      <trkpt lat="44.05235" lon="5.94986">
        <ele>426.85</ele>
        <time>2016-04-26T09:16:01Z</time>
      </trkpt>
      <trkpt lat="44.05206" lon="5.94999">
        <ele>423.56</ele>
        <time>2016-04-26T09:16:04Z</time>
      </trkpt>
      <trkpt lat="44.05177" lon="5.95015">
        <ele>421.9</ele>
        <time>2016-04-26T09:16:07Z</time>
      </trkpt>
      <trkpt lat="44.05123" lon="5.95048">
        <ele>420.4</ele>
        <time>2016-04-26T09:16:13Z</time>
      </trkpt>
      <trkpt lat="44.05087" lon="5.95067">
        <ele>418.65</ele>
        <time>2016-04-26T09:16:17Z</time>
      </trkpt>
      <trkpt lat="44.05035" lon="5.95095">
        <ele>418.79</ele>
        <time>2016-04-26T09:16:23Z</time>
      </trkpt>
      <trkpt lat="44.04989" lon="5.95132">
        <ele>418.44</ele>
        <time>2016-04-26T09:16:29Z</time>
      </trkpt>
      <trkpt lat="44.04941" lon="5.95169">
        <ele>419.74</ele>
        <time>2016-04-26T09:16:36Z</time>
      </trkpt>
      <trkpt lat="44.04894" lon="5.95193">
        <ele>420.75</ele>
        <time>2016-04-26T09:16:43Z</time>
      </trkpt>
      <trkpt lat="44.04843" lon="5.95212">
        <ele>421.02</ele>
        <time>2016-04-26T09:16:50Z</time>
      </trkpt>
      <trkpt lat="44.04835" lon="5.95213">
        <ele>421.11</ele>
        <time>2016-04-26T09:16:51Z</time>
      </trkpt>
      <trkpt lat="44.04827" lon="5.95212">
        <ele>421.19</ele>
        <time>2016-04-26T09:16:52Z</time>
      </trkpt>
      <trkpt lat="44.04783" lon="5.95205">
        <ele>421.08</ele>
        <time>2016-04-26T09:16:58Z</time>
      </trkpt>
      <trkpt lat="44.04753" lon="5.95201">
        <ele>421.43</ele>
        <time>2016-04-26T09:17:02Z</time>
      </trkpt>
      <trkpt lat="44.04697" lon="5.95206">
        <ele>421.9</ele>
        <time>2016-04-26T09:17:09Z</time>
      </trkpt>
      <trkpt lat="44.04681" lon="5.95211">
        <ele>422.28</ele>
        <time>2016-04-26T09:17:11Z</time>
      </trkpt>
      <trkpt lat="44.04674" lon="5.95214">
        <ele>422.14</ele>
        <time>2016-04-26T09:17:12Z</time>
      </trkpt>
      <trkpt lat="44.04666" lon="5.95219">
        <ele>421.48</ele>
        <time>2016-04-26T09:17:13Z</time>
      </trkpt>
      <trkpt lat="44.04659" lon="5.95225">
        <ele>420.67</ele>
        <time>2016-04-26T09:17:14Z</time>
      </trkpt>
      <trkpt lat="44.04652" lon="5.95232">
        <ele>419.88</ele>
        <time>2016-04-26T09:17:15Z</time>
      </trkpt>
      <trkpt lat="44.04644" lon="5.9524">
        <ele>419.41</ele>
        <time>2016-04-26T09:17:16Z</time>
      </trkpt>
      <trkpt lat="44.04637" lon="5.95248">
        <ele>418.96</ele>
        <time>2016-04-26T09:17:17Z</time>
      </trkpt>
      <trkpt lat="44.04594" lon="5.95299">
        <ele>416.13</ele>
        <time>2016-04-26T09:17:23Z</time>
      </trkpt>
      <trkpt lat="44.04579" lon="5.95318">
        <ele>415.91</ele>
        <time>2016-04-26T09:17:25Z</time>
      </trkpt>
      <trkpt lat="44.04569" lon="5.95324">
        <ele>415.55</ele>
        <time>2016-04-26T09:17:26Z</time>
      </trkpt>
      <trkpt lat="44.04559" lon="5.95328">
        <ele>414.96</ele>
        <time>2016-04-26T09:17:27Z</time>
      </trkpt>
      <trkpt lat="44.04548" lon="5.9533">
        <ele>414.07</ele>
        <time>2016-04-26T09:17:28Z</time>
      </trkpt>
      <trkpt lat="44.04537" lon="5.95331">
        <ele>413.15</ele>
        <time>2016-04-26T09:17:29Z</time>
      </trkpt>
      <trkpt lat="44.04526" lon="5.9533">
        <ele>412.36</ele>
        <time>2016-04-26T09:17:30Z</time>
      </trkpt>
      <trkpt lat="44.04516" lon="5.95328">
        <ele>411.81</ele>
        <time>2016-04-26T09:17:31Z</time>
      </trkpt>
      <trkpt lat="44.04506" lon="5.95325">
        <ele>411.53</ele>
        <time>2016-04-26T09:17:32Z</time>
      </trkpt>
      <trkpt lat="44.04463" lon="5.95318">
        <ele>410.23</ele>
        <time>2016-04-26T09:17:37Z</time>
      </trkpt>
      <trkpt lat="44.04457" lon="5.9532">
        <ele>409.97</ele>
        <time>2016-04-26T09:17:38Z</time>
      </trkpt>
      <trkpt lat="44.04451" lon="5.95323">
        <ele>409.86</ele>
        <time>2016-04-26T09:17:39Z</time>
      </trkpt>
      <trkpt lat="44.04426" lon="5.95333">
        <ele>408.79</ele>
        <time>2016-04-26T09:17:44Z</time>
      </trkpt>
      <trkpt lat="44.04422" lon="5.95333">
        <ele>408.84</ele>
        <time>2016-04-26T09:17:45Z</time>
      </trkpt>
      <trkpt lat="44.04398" lon="5.9533">
        <ele>409.12</ele>
        <time>2016-04-26T09:17:50Z</time>
      </trkpt>
      <trkpt lat="44.04394" lon="5.95332">
        <ele>409.1</ele>
        <time>2016-04-26T09:17:51Z</time>
      </trkpt>
      <trkpt lat="44.04389" lon="5.95334">
        <ele>409.11</ele>
        <time>2016-04-26T09:17:52Z</time>
      </trkpt>
      <trkpt lat="44.04385" lon="5.95337">
        <ele>409.1</ele>
        <time>2016-04-26T09:17:53Z</time>
      </trkpt>
      <trkpt lat="44.04381" lon="5.95341">
        <ele>409.01</ele>
        <time>2016-04-26T09:17:54Z</time>
      </trkpt>
      <trkpt lat="44.04371" lon="5.95347">
        <ele>408.67</ele>
        <time>2016-04-26T09:17:56Z</time>
      </trkpt>
      <trkpt lat="44.04365" lon="5.95348">
        <ele>408.43</ele>
        <time>2016-04-26T09:17:57Z</time>
      </trkpt>
      <trkpt lat="44.04359" lon="5.95347">
        <ele>408.23</ele>
        <time>2016-04-26T09:17:58Z</time>
      </trkpt>
      <trkpt lat="44.04353" lon="5.95345">
        <ele>408.06</ele>
        <time>2016-04-26T09:17:59Z</time>
      </trkpt>
      <trkpt lat="44.04346" lon="5.95343">
        <ele>408.01</ele>
        <time>2016-04-26T09:18:00Z</time>
      </trkpt>
      <trkpt lat="44.0434" lon="5.95339">
        <ele>407.96</ele>
        <time>2016-04-26T09:18:01Z</time>
      </trkpt>
      <trkpt lat="44.04333" lon="5.95336">
        <ele>407.91</ele>
        <time>2016-04-26T09:18:02Z</time>
      </trkpt>
      <trkpt lat="44.0428" lon="5.95312">
        <ele>408.46</ele>
        <time>2016-04-26T09:18:09Z</time>
      </trkpt>
      <trkpt lat="44.04232" lon="5.9529">
        <ele>408.44</ele>
        <time>2016-04-26T09:18:15Z</time>
      </trkpt>
      <trkpt lat="44.04179" lon="5.95266">
        <ele>408.18</ele>
        <time>2016-04-26T09:18:21Z</time>
      </trkpt>
      <trkpt lat="44.04133" lon="5.95245">
        <ele>405.85</ele>
        <time>2016-04-26T09:18:26Z</time>
      </trkpt>
      <trkpt lat="44.04077" lon="5.9522">
        <ele>405.04</ele>
        <time>2016-04-26T09:18:32Z</time>
      </trkpt>
      <trkpt lat="44.04022" lon="5.95192">
        <ele>403.2</ele>
        <time>2016-04-26T09:18:38Z</time>
      </trkpt>
      <trkpt lat="44.03973" lon="5.95155">
        <ele>401.93</ele>
        <time>2016-04-26T09:18:44Z</time>
      </trkpt>
      <trkpt lat="44.0393" lon="5.95111">
        <ele>401.46</ele>
        <time>2016-04-26T09:18:50Z</time>
      </trkpt>
      <trkpt lat="44.03887" lon="5.95067">
        <ele>400.48</ele>
        <time>2016-04-26T09:18:56Z</time>
      </trkpt>
      <trkpt lat="44.03841" lon="5.95023">
        <ele>402.15</ele>
        <time>2016-04-26T09:19:02Z</time>
      </trkpt>
      <trkpt lat="44.03797" lon="5.94975">
        <ele>401.35</ele>
        <time>2016-04-26T09:19:08Z</time>
      </trkpt>
      <trkpt lat="44.03755" lon="5.94927">
        <ele>401.14</ele>
        <time>2016-04-26T09:19:14Z</time>
      </trkpt>
      <trkpt lat="44.03713" lon="5.94882">
        <ele>400.73</ele>
        <time>2016-04-26T09:19:20Z</time>
      </trkpt>
      <trkpt lat="44.03672" lon="5.94838">
        <ele>399.26</ele>
        <time>2016-04-26T09:19:26Z</time>
      </trkpt>
      <trkpt lat="44.03631" lon="5.94794">
        <ele>398.15</ele>
        <time>2016-04-26T09:19:32Z</time>
      </trkpt>
      <trkpt lat="44.0359" lon="5.94754">
        <ele>398.23</ele>
        <time>2016-04-26T09:19:38Z</time>
      </trkpt>
      <trkpt lat="44.0355" lon="5.94715">
        <ele>397.53</ele>
        <time>2016-04-26T09:19:44Z</time>
      </trkpt>
      <trkpt lat="44.03504" lon="5.94671">
        <ele>396.22</ele>
        <time>2016-04-26T09:19:51Z</time>
      </trkpt>
      <trkpt lat="44.0346" lon="5.94628">
        <ele>395.4</ele>
        <time>2016-04-26T09:19:58Z</time>
      </trkpt>
      <trkpt lat="44.03413" lon="5.94584">
        <ele>394.98</ele>
        <time>2016-04-26T09:20:05Z</time>
      </trkpt>
      <trkpt lat="44.03366" lon="5.9454">
        <ele>394.34</ele>
        <time>2016-04-26T09:20:12Z</time>
      </trkpt>
      <trkpt lat="44.03325" lon="5.94501">
        <ele>394.08</ele>
        <time>2016-04-26T09:20:18Z</time>
      </trkpt>
      <trkpt lat="44.03283" lon="5.94462">
        <ele>393.91</ele>
        <time>2016-04-26T09:20:24Z</time>
      </trkpt>
      <trkpt lat="44.03242" lon="5.94425">
        <ele>393.26</ele>
        <time>2016-04-26T09:20:30Z</time>
      </trkpt>
      <trkpt lat="44.03197" lon="5.94382">
        <ele>392.68</ele>
        <time>2016-04-26T09:20:37Z</time>
      </trkpt>
      <trkpt lat="44.03153" lon="5.94339">
        <ele>392.83</ele>
        <time>2016-04-26T09:20:44Z</time>
      </trkpt>
      <trkpt lat="44.03107" lon="5.94298">
        <ele>391.7</ele>
        <time>2016-04-26T09:20:51Z</time>
      </trkpt>
      <trkpt lat="44.03063" lon="5.94257">
        <ele>391.61</ele>
        <time>2016-04-26T09:20:58Z</time>
      </trkpt>
      <trkpt lat="44.03017" lon="5.94215">
        <ele>390.58</ele>
        <time>2016-04-26T09:21:05Z</time>
      </trkpt>
      <trkpt lat="44.02971" lon="5.94173">
        <ele>390.94</ele>
        <time>2016-04-26T09:21:12Z</time>
      </trkpt>
      <trkpt lat="44.02926" lon="5.94135">
        <ele>390.12</ele>
        <time>2016-04-26T09:21:19Z</time>
      </trkpt>
      <trkpt lat="44.02884" lon="5.94099">
        <ele>388.41</ele>
        <time>2016-04-26T09:21:26Z</time>
      </trkpt>
      <trkpt lat="44.02867" lon="5.94085">
        <ele>387.72</ele>
        <time>2016-04-26T09:21:29Z</time>
      </trkpt>
      <trkpt lat="44.02834" lon="5.94052">
        <ele>386.9</ele>
        <time>2016-04-26T09:21:35Z</time>
      </trkpt>
      <trkpt lat="44.02829" lon="5.94046">
        <ele>387.04</ele>
        <time>2016-04-26T09:21:36Z</time>
      </trkpt>
      <trkpt lat="44.02823" lon="5.94042">
        <ele>387.17</ele>
        <time>2016-04-26T09:21:37Z</time>
      </trkpt>
      <trkpt lat="44.02779" lon="5.94009">
        <ele>387.8</ele>
        <time>2016-04-26T09:21:44Z</time>
      </trkpt>
      <trkpt lat="44.02735" lon="5.93971">
        <ele>388.41</ele>
        <time>2016-04-26T09:21:52Z</time>
      </trkpt>
      <trkpt lat="44.02692" lon="5.93934">
        <ele>389.18</ele>
        <time>2016-04-26T09:22:01Z</time>
      </trkpt>
      <trkpt lat="44.02665" lon="5.93895">
        <ele>390.75</ele>
        <time>2016-04-26T09:22:09Z</time>
      </trkpt>
      <trkpt lat="44.02664" lon="5.93889">
        <ele>391.12</ele>
        <time>2016-04-26T09:22:10Z</time>
      </trkpt>
      <trkpt lat="44.0266" lon="5.93877">
        <ele>391.57</ele>
        <time>2016-04-26T09:22:12Z</time>
      </trkpt>
      <trkpt lat="44.02657" lon="5.93864">
        <ele>392.18</ele>
        <time>2016-04-26T09:22:14Z</time>
      </trkpt>
      <trkpt lat="44.02642" lon="5.93797">
        <ele>394.36</ele>
        <time>2016-04-26T09:22:25Z</time>
      </trkpt>
      <trkpt lat="44.02629" lon="5.93728">
        <ele>395.51</ele>
        <time>2016-04-26T09:22:35Z</time>
      </trkpt>
      <trkpt lat="44.02616" lon="5.93656">
        <ele>397.26</ele>
        <time>2016-04-26T09:22:45Z</time>
      </trkpt>
      <trkpt lat="44.02613" lon="5.93637">
        <ele>397.76</ele>
        <time>2016-04-26T09:22:48Z</time>
      </trkpt>
      <trkpt lat="44.02611" lon="5.93632">
        <ele>397.96</ele>
        <time>2016-04-26T09:22:49Z</time>
      </trkpt>
      <trkpt lat="44.02596" lon="5.93584">
        <ele>398.93</ele>
        <time>2016-04-26T09:22:56Z</time>
      </trkpt>
      <trkpt lat="44.02585" lon="5.93562">
        <ele>399.08</ele>
        <time>2016-04-26T09:22:59Z</time>
      </trkpt>
      <trkpt lat="44.02573" lon="5.93544">
        <ele>399.12</ele>
        <time>2016-04-26T09:23:02Z</time>
      </trkpt>
      <trkpt lat="44.02531" lon="5.93498">
        <ele>399.49</ele>
        <time>2016-04-26T09:23:11Z</time>
      </trkpt>
      <trkpt lat="44.02489" lon="5.93455">
        <ele>400.16</ele>
        <time>2016-04-26T09:23:20Z</time>
      </trkpt>
      <trkpt lat="44.0245" lon="5.93416">
        <ele>399.96</ele>
        <time>2016-04-26T09:23:28Z</time>
      </trkpt>
      <trkpt lat="44.02446" lon="5.9341">
        <ele>399.92</ele>
        <time>2016-04-26T09:23:29Z</time>
      </trkpt>
      <trkpt lat="44.02437" lon="5.93396">
        <ele>399.8</ele>
        <time>2016-04-26T09:23:31Z</time>
      </trkpt>
      <trkpt lat="44.02433" lon="5.93389">
        <ele>399.74</ele>
        <time>2016-04-26T09:23:32Z</time>
      </trkpt>
      <trkpt lat="44.0243" lon="5.9338">
        <ele>399.69</ele>
        <time>2016-04-26T09:23:33Z</time>
      </trkpt>
      <trkpt lat="44.02427" lon="5.93372">
        <ele>399.63</ele>
        <time>2016-04-26T09:23:34Z</time>
      </trkpt>
      <trkpt lat="44.02425" lon="5.93363">
        <ele>399.53</ele>
        <time>2016-04-26T09:23:35Z</time>
      </trkpt>
      <trkpt lat="44.02424" lon="5.93355">
        <ele>399.43</ele>
        <time>2016-04-26T09:23:36Z</time>
      </trkpt>
      <trkpt lat="44.02419" lon="5.93329">
        <ele>398.96</ele>
        <time>2016-04-26T09:23:39Z</time>
      </trkpt>
      <trkpt lat="44.02406" lon="5.9326">
        <ele>399.28</ele>
        <time>2016-04-26T09:23:47Z</time>
      </trkpt>
      <trkpt lat="44.0239" lon="5.93194">
        <ele>399.79</ele>
        <time>2016-04-26T09:23:55Z</time>
      </trkpt>
      <trkpt lat="44.0236" lon="5.9313">
        <ele>400.21</ele>
        <time>2016-04-26T09:24:03Z</time>
      </trkpt>
      <trkpt lat="44.02315" lon="5.93084">
        <ele>399.58</ele>
        <time>2016-04-26T09:24:11Z</time>
      </trkpt>
      <trkpt lat="44.02265" lon="5.93056">
        <ele>398.48</ele>
        <time>2016-04-26T09:24:18Z</time>
      </trkpt>
      <trkpt lat="44.0221" lon="5.93031">
        <ele>396.66</ele>
        <time>2016-04-26T09:24:25Z</time>
      </trkpt>
      <trkpt lat="44.02159" lon="5.9301">
        <ele>395.76</ele>
        <time>2016-04-26T09:24:31Z</time>
      </trkpt>
      <trkpt lat="44.02107" lon="5.92988">
        <ele>393.41</ele>
        <time>2016-04-26T09:24:37Z</time>
      </trkpt>
      <trkpt lat="44.02053" lon="5.92965">
        <ele>391.23</ele>
        <time>2016-04-26T09:24:43Z</time>
      </trkpt>
      <trkpt lat="44.01998" lon="5.92943">
        <ele>389.9</ele>
        <time>2016-04-26T09:24:49Z</time>
      </trkpt>
      <trkpt lat="44.01941" lon="5.92914">
        <ele>389.44</ele>
        <time>2016-04-26T09:24:55Z</time>
      </trkpt>
      <trkpt lat="44.01897" lon="5.92882">
        <ele>386.96</ele>
        <time>2016-04-26T09:25:00Z</time>
      </trkpt>
      <trkpt lat="44.01841" lon="5.92848">
        <ele>385.02</ele>
        <time>2016-04-26T09:25:06Z</time>
      </trkpt>
      <trkpt lat="44.0179" lon="5.92814">
        <ele>383.69</ele>
        <time>2016-04-26T09:25:12Z</time>
      </trkpt>
      <trkpt lat="44.01765" lon="5.92798">
        <ele>382.2</ele>
        <time>2016-04-26T09:25:15Z</time>
      </trkpt>
      <trkpt lat="44.01715" lon="5.92765">
        <ele>381.01</ele>
        <time>2016-04-26T09:25:21Z</time>
      </trkpt>
      <trkpt lat="44.01666" lon="5.92731">
        <ele>380.41</ele>
        <time>2016-04-26T09:25:27Z</time>
      </trkpt>
      <trkpt lat="44.01615" lon="5.92696">
        <ele>381.03</ele>
        <time>2016-04-26T09:25:34Z</time>
      </trkpt>
      <trkpt lat="44.01568" lon="5.92666">
        <ele>382.12</ele>
        <time>2016-04-26T09:25:41Z</time>
      </trkpt>
      <trkpt lat="44.01519" lon="5.92641">
        <ele>383.15</ele>
        <time>2016-04-26T09:25:48Z</time>
      </trkpt>
      <trkpt lat="44.01482" lon="5.92628">
        <ele>383.85</ele>
        <time>2016-04-26T09:25:53Z</time>
      </trkpt>
      <trkpt lat="44.01432" lon="5.92622">
        <ele>384.72</ele>
        <time>2016-04-26T09:25:59Z</time>
      </trkpt>
      <trkpt lat="44.01387" lon="5.92621">
        <ele>381.5</ele>
        <time>2016-04-26T09:26:04Z</time>
      </trkpt>
      <trkpt lat="44.01333" lon="5.92615">
        <ele>382.24</ele>
        <time>2016-04-26T09:26:10Z</time>
      </trkpt>
      <trkpt lat="44.01306" lon="5.9261">
        <ele>379.12</ele>
        <time>2016-04-26T09:26:13Z</time>
      </trkpt>
      <trkpt lat="44.0128" lon="5.92604">
        <ele>377.28</ele>
        <time>2016-04-26T09:26:16Z</time>
      </trkpt>
      <trkpt lat="44.01229" lon="5.92594">
        <ele>376.19</ele>
        <time>2016-04-26T09:26:22Z</time>
      </trkpt>
      <trkpt lat="44.01179" lon="5.92582">
        <ele>375.18</ele>
        <time>2016-04-26T09:26:28Z</time>
      </trkpt>
      <trkpt lat="44.01129" lon="5.92566">
        <ele>374.71</ele>
        <time>2016-04-26T09:26:34Z</time>
      </trkpt>
      <trkpt lat="44.01079" lon="5.92539">
        <ele>375.03</ele>
        <time>2016-04-26T09:26:40Z</time>
      </trkpt>
      <trkpt lat="44.0103" lon="5.92508">
        <ele>375.2</ele>
        <time>2016-04-26T09:26:46Z</time>
      </trkpt>
      <trkpt lat="44.00981" lon="5.92478">
        <ele>375.22</ele>
        <time>2016-04-26T09:26:52Z</time>
      </trkpt>
      <trkpt lat="44.00935" lon="5.92448">
        <ele>375.56</ele>
        <time>2016-04-26T09:26:58Z</time>
      </trkpt>
      <trkpt lat="44.00888" lon="5.92416">
        <ele>375.05</ele>
        <time>2016-04-26T09:27:04Z</time>
      </trkpt>
      <trkpt lat="44.0088" lon="5.9241">
        <ele>374.86</ele>
        <time>2016-04-26T09:27:05Z</time>
      </trkpt>
      <trkpt lat="44.00833" lon="5.92371">
        <ele>373.74</ele>
        <time>2016-04-26T09:27:11Z</time>
      </trkpt>
      <trkpt lat="44.00788" lon="5.92339">
        <ele>374.19</ele>
        <time>2016-04-26T09:27:17Z</time>
      </trkpt>
      <trkpt lat="44.00734" lon="5.92319">
        <ele>376.88</ele>
        <time>2016-04-26T09:27:24Z</time>
      </trkpt>
      <trkpt lat="44.00682" lon="5.92308">
        <ele>375.26</ele>
        <time>2016-04-26T09:27:31Z</time>
      </trkpt>
      <trkpt lat="44.00629" lon="5.92299">
        <ele>374.51</ele>
        <time>2016-04-26T09:27:38Z</time>
      </trkpt>
      <trkpt lat="44.00574" lon="5.92288">
        <ele>374.23</ele>
        <time>2016-04-26T09:27:45Z</time>
      </trkpt>
      <trkpt lat="44.00525" lon="5.92278">
        <ele>375.43</ele>
        <time>2016-04-26T09:27:51Z</time>
      </trkpt>
      <trkpt lat="44.0047" lon="5.92268">
        <ele>375.52</ele>
        <time>2016-04-26T09:27:58Z</time>
      </trkpt>
      <trkpt lat="44.00415" lon="5.92258">
        <ele>378.55</ele>
        <time>2016-04-26T09:28:05Z</time>
      </trkpt>
      <trkpt lat="44.00364" lon="5.92248">
        <ele>377.94</ele>
        <time>2016-04-26T09:28:12Z</time>
      </trkpt>
      <trkpt lat="44.00316" lon="5.92236">
        <ele>377.7</ele>
        <time>2016-04-26T09:28:19Z</time>
      </trkpt>
      <trkpt lat="44.00269" lon="5.92211">
        <ele>378.51</ele>
        <time>2016-04-26T09:28:26Z</time>
      </trkpt>
      <trkpt lat="44.00229" lon="5.9217">
        <ele>379.11</ele>
        <time>2016-04-26T09:28:33Z</time>
      </trkpt>
      <trkpt lat="44.00186" lon="5.92118">
        <ele>379.3</ele>
        <time>2016-04-26T09:28:41Z</time>
      </trkpt>
      <trkpt lat="44.00146" lon="5.92075">
        <ele>380.13</ele>
        <time>2016-04-26T09:28:48Z</time>
      </trkpt>
      <trkpt lat="44.00103" lon="5.92031">
        <ele>378.12</ele>
        <time>2016-04-26T09:28:55Z</time>
      </trkpt>
      <trkpt lat="44.00058" lon="5.91991">
        <ele>376.61</ele>
        <time>2016-04-26T09:29:02Z</time>
      </trkpt>
      <trkpt lat="44.00008" lon="5.91961">
        <ele>375.92</ele>
        <time>2016-04-26T09:29:09Z</time>
      </trkpt>
      <trkpt lat="43.99952" lon="5.91947">
        <ele>375.06</ele>
        <time>2016-04-26T09:29:16Z</time>
      </trkpt>
      <trkpt lat="43.99903" lon="5.91929">
        <ele>372.68</ele>
        <time>2016-04-26T09:29:22Z</time>
      </trkpt>
      <trkpt lat="43.99857" lon="5.91906">
        <ele>372.62</ele>
        <time>2016-04-26T09:29:28Z</time>
      </trkpt>
      <trkpt lat="43.99805" lon="5.91877">
        <ele>371.38</ele>
        <time>2016-04-26T09:29:35Z</time>
      </trkpt>
      <trkpt lat="43.99755" lon="5.91848">
        <ele>370.01</ele>
        <time>2016-04-26T09:29:42Z</time>
      </trkpt>
      <trkpt lat="43.99707" lon="5.91818">
        <ele>370.81</ele>
        <time>2016-04-26T09:29:49Z</time>
      </trkpt>
      <trkpt lat="43.99653" lon="5.91792">
        <ele>369.05</ele>
        <time>2016-04-26T09:29:56Z</time>
      </trkpt>
      <trkpt lat="43.99603" lon="5.91771">
        <ele>369.39</ele>
        <time>2016-04-26T09:30:02Z</time>
      </trkpt>
      <trkpt lat="43.99557" lon="5.91745">
        <ele>368.67</ele>
        <time>2016-04-26T09:30:08Z</time>
      </trkpt>
      <trkpt lat="43.99505" lon="5.91716">
        <ele>367.83</ele>
        <time>2016-04-26T09:30:15Z</time>
      </trkpt>
      <trkpt lat="43.99451" lon="5.91693">
        <ele>368.24</ele>
        <time>2016-04-26T09:30:22Z</time>
      </trkpt>
      <trkpt lat="43.99404" lon="5.91673">
        <ele>369.72</ele>
        <time>2016-04-26T09:30:29Z</time>
      </trkpt>
      <trkpt lat="43.99354" lon="5.91658">
        <ele>371.02</ele>
        <time>2016-04-26T09:30:36Z</time>
      </trkpt>
      <trkpt lat="43.99305" lon="5.91628">
        <ele>371.31</ele>
        <time>2016-04-26T09:30:43Z</time>
      </trkpt>
      <trkpt lat="43.9929" lon="5.91619">
        <ele>371.5</ele>
        <time>2016-04-26T09:30:45Z</time>
      </trkpt>
      <trkpt lat="43.99241" lon="5.91587">
        <ele>372.09</ele>
        <time>2016-04-26T09:30:52Z</time>
      </trkpt>
      <trkpt lat="43.99193" lon="5.91548">
        <ele>371.46</ele>
        <time>2016-04-26T09:30:59Z</time>
      </trkpt>
      <trkpt lat="43.99148" lon="5.91499">
        <ele>371.48</ele>
        <time>2016-04-26T09:31:06Z</time>
      </trkpt>
      <trkpt lat="43.99108" lon="5.91452">
        <ele>371.52</ele>
        <time>2016-04-26T09:31:12Z</time>
      </trkpt>
      <trkpt lat="43.99065" lon="5.91411">
        <ele>370.94</ele>
        <time>2016-04-26T09:31:18Z</time>
      </trkpt>
      <trkpt lat="43.99018" lon="5.91376">
        <ele>372.45</ele>
        <time>2016-04-26T09:31:24Z</time>
      </trkpt>
      <trkpt lat="43.9901" lon="5.9137">
        <ele>372.69</ele>
        <time>2016-04-26T09:31:25Z</time>
      </trkpt>
      <trkpt lat="43.98962" lon="5.91334">
        <ele>372.21</ele>
        <time>2016-04-26T09:31:31Z</time>
      </trkpt>
      <trkpt lat="43.98909" lon="5.91301">
        <ele>371.9</ele>
        <time>2016-04-26T09:31:37Z</time>
      </trkpt>
      <trkpt lat="43.98856" lon="5.91273">
        <ele>371.8</ele>
        <time>2016-04-26T09:31:43Z</time>
      </trkpt>
      <trkpt lat="43.98808" lon="5.91249">
        <ele>371.27</ele>
        <time>2016-04-26T09:31:49Z</time>
      </trkpt>
      <trkpt lat="43.98754" lon="5.91221">
        <ele>371.34</ele>
        <time>2016-04-26T09:31:56Z</time>
      </trkpt>
      <trkpt lat="43.98703" lon="5.91195">
        <ele>372.11</ele>
        <time>2016-04-26T09:32:03Z</time>
      </trkpt>
      <trkpt lat="43.98647" lon="5.9118">
        <ele>373.07</ele>
        <time>2016-04-26T09:32:10Z</time>
      </trkpt>
      <trkpt lat="43.98596" lon="5.91176">
        <ele>373.15</ele>
        <time>2016-04-26T09:32:16Z</time>
      </trkpt>
      <trkpt lat="43.98547" lon="5.91166">
        <ele>373.3</ele>
        <time>2016-04-26T09:32:22Z</time>
      </trkpt>
      <trkpt lat="43.98493" lon="5.91145">
        <ele>372.41</ele>
        <time>2016-04-26T09:32:29Z</time>
      </trkpt>
      <trkpt lat="43.98445" lon="5.91122">
        <ele>372.19</ele>
        <time>2016-04-26T09:32:35Z</time>
      </trkpt>
      <trkpt lat="43.98395" lon="5.91091">
        <ele>371.53</ele>
        <time>2016-04-26T09:32:41Z</time>
      </trkpt>
      <trkpt lat="43.98344" lon="5.91053">
        <ele>370.99</ele>
        <time>2016-04-26T09:32:47Z</time>
      </trkpt>
      <trkpt lat="43.98293" lon="5.91013">
        <ele>370.54</ele>
        <time>2016-04-26T09:32:53Z</time>
      </trkpt>
      <trkpt lat="43.98247" lon="5.90977">
        <ele>369.58</ele>
        <time>2016-04-26T09:32:59Z</time>
      </trkpt>
      <trkpt lat="43.982" lon="5.90938">
        <ele>369.91</ele>
        <time>2016-04-26T09:33:06Z</time>
      </trkpt>
      <trkpt lat="43.98158" lon="5.90903">
        <ele>370.77</ele>
        <time>2016-04-26T09:33:13Z</time>
      </trkpt>
      <trkpt lat="43.9811" lon="5.90878">
        <ele>371.69</ele>
        <time>2016-04-26T09:33:20Z</time>
      </trkpt>
      <trkpt lat="43.98056" lon="5.90862">
        <ele>372.84</ele>
        <time>2016-04-26T09:33:27Z</time>
      </trkpt>
      <trkpt lat="43.98003" lon="5.90853">
        <ele>373.99</ele>
        <time>2016-04-26T09:33:34Z</time>
      </trkpt>
      <trkpt lat="43.97953" lon="5.90864">
        <ele>374.01</ele>
        <time>2016-04-26T09:33:41Z</time>
      </trkpt>
      <trkpt lat="43.97904" lon="5.90882">
        <ele>373.92</ele>
        <time>2016-04-26T09:33:48Z</time>
      </trkpt>
      <trkpt lat="43.97853" lon="5.90891">
        <ele>374.81</ele>
        <time>2016-04-26T09:33:55Z</time>
      </trkpt>
      <trkpt lat="43.97798" lon="5.90896">
        <ele>375.89</ele>
        <time>2016-04-26T09:34:03Z</time>
      </trkpt>
      <trkpt lat="43.97743" lon="5.90899">
        <ele>375.82</ele>
        <time>2016-04-26T09:34:11Z</time>
      </trkpt>
      <trkpt lat="43.9769" lon="5.90885">
        <ele>375.52</ele>
        <time>2016-04-26T09:34:18Z</time>
      </trkpt>
      <trkpt lat="43.9764" lon="5.90863">
        <ele>374.54</ele>
        <time>2016-04-26T09:34:24Z</time>
      </trkpt>
      <trkpt lat="43.97595" lon="5.90837">
        <ele>373.81</ele>
        <time>2016-04-26T09:34:30Z</time>
      </trkpt>
      <trkpt lat="43.97544" lon="5.90803">
        <ele>373.27</ele>
        <time>2016-04-26T09:34:37Z</time>
      </trkpt>
      <trkpt lat="43.97494" lon="5.90766">
        <ele>371.78</ele>
        <time>2016-04-26T09:34:44Z</time>
      </trkpt>
      <trkpt lat="43.97452" lon="5.90729">
        <ele>370.75</ele>
        <time>2016-04-26T09:34:50Z</time>
      </trkpt>
      <trkpt lat="43.97415" lon="5.90697">
        <ele>368.73</ele>
        <time>2016-04-26T09:34:55Z</time>
      </trkpt>
      <trkpt lat="43.97369" lon="5.90661">
        <ele>368.17</ele>
        <time>2016-04-26T09:35:01Z</time>
      </trkpt>
      <trkpt lat="43.97317" lon="5.90633">
        <ele>368.08</ele>
        <time>2016-04-26T09:35:08Z</time>
      </trkpt>
      <trkpt lat="43.97269" lon="5.90604">
        <ele>368.71</ele>
        <time>2016-04-26T09:35:15Z</time>
      </trkpt>
      <trkpt lat="43.97224" lon="5.90573">
        <ele>366.87</ele>
        <time>2016-04-26T09:35:21Z</time>
      </trkpt>
      <trkpt lat="43.97178" lon="5.9054">
        <ele>366.52</ele>
        <time>2016-04-26T09:35:27Z</time>
      </trkpt>
      <trkpt lat="43.97132" lon="5.90509">
        <ele>366.89</ele>
        <time>2016-04-26T09:35:33Z</time>
      </trkpt>
      <trkpt lat="43.97079" lon="5.90478">
        <ele>366.08</ele>
        <time>2016-04-26T09:35:40Z</time>
      </trkpt>
      <trkpt lat="43.97029" lon="5.90449">
        <ele>366.45</ele>
        <time>2016-04-26T09:35:47Z</time>
      </trkpt>
      <trkpt lat="43.96987" lon="5.90414">
        <ele>366.47</ele>
        <time>2016-04-26T09:35:54Z</time>
      </trkpt>
      <trkpt lat="43.96943" lon="5.9038">
        <ele>366.77</ele>
        <time>2016-04-26T09:36:01Z</time>
      </trkpt>
      <trkpt lat="43.96902" lon="5.90348">
        <ele>366.75</ele>
        <time>2016-04-26T09:36:08Z</time>
      </trkpt>
      <trkpt lat="43.96858" lon="5.90317">
        <ele>366.89</ele>
        <time>2016-04-26T09:36:15Z</time>
      </trkpt>
      <trkpt lat="43.96812" lon="5.90289">
        <ele>366.8</ele>
        <time>2016-04-26T09:36:22Z</time>
      </trkpt>
      <trkpt lat="43.96763" lon="5.90264">
        <ele>367.63</ele>
        <time>2016-04-26T09:36:30Z</time>
      </trkpt>
      <trkpt lat="43.96717" lon="5.90243">
        <ele>369.39</ele>
        <time>2016-04-26T09:36:38Z</time>
      </trkpt>
      <trkpt lat="43.96667" lon="5.9023">
        <ele>371.11</ele>
        <time>2016-04-26T09:36:47Z</time>
      </trkpt>
      <trkpt lat="43.96614" lon="5.90219">
        <ele>373.06</ele>
        <time>2016-04-26T09:36:57Z</time>
      </trkpt>
      <trkpt lat="43.96562" lon="5.90208">
        <ele>374.58</ele>
        <time>2016-04-26T09:37:07Z</time>
      </trkpt>
      <trkpt lat="43.9651" lon="5.90198">
        <ele>376.77</ele>
        <time>2016-04-26T09:37:17Z</time>
      </trkpt>
      <trkpt lat="43.96459" lon="5.90187">
        <ele>378.97</ele>
        <time>2016-04-26T09:37:27Z</time>
      </trkpt>
      <trkpt lat="43.96411" lon="5.90175">
        <ele>380.24</ele>
        <time>2016-04-26T09:37:38Z</time>
      </trkpt>
      <trkpt lat="43.96363" lon="5.90161">
        <ele>382.95</ele>
        <time>2016-04-26T09:37:49Z</time>
      </trkpt>
      <trkpt lat="43.96316" lon="5.90143">
        <ele>385.06</ele>
        <time>2016-04-26T09:37:59Z</time>
      </trkpt>
      <trkpt lat="43.96271" lon="5.90118">
        <ele>387.68</ele>
        <time>2016-04-26T09:38:09Z</time>
      </trkpt>
      <trkpt lat="43.96224" lon="5.90086">
        <ele>389.65</ele>
        <time>2016-04-26T09:38:19Z</time>
      </trkpt>
      <trkpt lat="43.96179" lon="5.90051">
        <ele>391.52</ele>
        <time>2016-04-26T09:38:29Z</time>
      </trkpt>
      <trkpt lat="43.96138" lon="5.90013">
        <ele>392.84</ele>
        <time>2016-04-26T09:38:38Z</time>
      </trkpt>
      <trkpt lat="43.961" lon="5.89971">
        <ele>393.85</ele>
        <time>2016-04-26T09:38:47Z</time>
      </trkpt>
      <trkpt lat="43.96061" lon="5.89924">
        <ele>393.84</ele>
        <time>2016-04-26T09:38:56Z</time>
      </trkpt>
      <trkpt lat="43.96021" lon="5.89875">
        <ele>394.73</ele>
        <time>2016-04-26T09:39:05Z</time>
      </trkpt>
      <trkpt lat="43.95983" lon="5.89829">
        <ele>395.34</ele>
        <time>2016-04-26T09:39:13Z</time>
      </trkpt>
      <trkpt lat="43.95945" lon="5.89787">
        <ele>394.72</ele>
        <time>2016-04-26T09:39:21Z</time>
      </trkpt>
      <trkpt lat="43.95907" lon="5.89744">
        <ele>396.12</ele>
        <time>2016-04-26T09:39:29Z</time>
      </trkpt>
      <trkpt lat="43.95871" lon="5.897">
        <ele>395.93</ele>
        <time>2016-04-26T09:39:37Z</time>
      </trkpt>
      <trkpt lat="43.95832" lon="5.89656">
        <ele>395.64</ele>
        <time>2016-04-26T09:39:45Z</time>
      </trkpt>
      <trkpt lat="43.95794" lon="5.89608">
        <ele>396.32</ele>
        <time>2016-04-26T09:39:53Z</time>
      </trkpt>
      <trkpt lat="43.95757" lon="5.89563">
        <ele>397.07</ele>
        <time>2016-04-26T09:40:01Z</time>
      </trkpt>
      <trkpt lat="43.95718" lon="5.89519">
        <ele>397.53</ele>
        <time>2016-04-26T09:40:09Z</time>
      </trkpt>
      <trkpt lat="43.95681" lon="5.89474">
        <ele>398.37</ele>
        <time>2016-04-26T09:40:17Z</time>
      </trkpt>
      <trkpt lat="43.95643" lon="5.89431">
        <ele>399.24</ele>
        <time>2016-04-26T09:40:25Z</time>
      </trkpt>
      <trkpt lat="43.956" lon="5.89383">
        <ele>399.38</ele>
        <time>2016-04-26T09:40:34Z</time>
      </trkpt>
      <trkpt lat="43.95562" lon="5.89341">
        <ele>399.78</ele>
        <time>2016-04-26T09:40:42Z</time>
      </trkpt>
      <trkpt lat="43.95516" lon="5.89298">
        <ele>399.81</ele>
        <time>2016-04-26T09:40:51Z</time>
      </trkpt>
      <trkpt lat="43.95471" lon="5.89257">
        <ele>401.28</ele>
        <time>2016-04-26T09:41:00Z</time>
      </trkpt>
      <trkpt lat="43.95428" lon="5.89222">
        <ele>401.33</ele>
        <time>2016-04-26T09:41:09Z</time>
      </trkpt>
      <trkpt lat="43.95386" lon="5.89191">
        <ele>400.33</ele>
        <time>2016-04-26T09:41:17Z</time>
      </trkpt>
      <trkpt lat="43.95339" lon="5.89159">
        <ele>401.37</ele>
        <time>2016-04-26T09:41:25Z</time>
      </trkpt>
      <trkpt lat="43.95292" lon="5.89132">
        <ele>401.59</ele>
        <time>2016-04-26T09:41:33Z</time>
      </trkpt>
      <trkpt lat="43.95243" lon="5.89105">
        <ele>401.73</ele>
        <time>2016-04-26T09:41:41Z</time>
      </trkpt>
      <trkpt lat="43.95192" lon="5.8908">
        <ele>401.07</ele>
        <time>2016-04-26T09:41:49Z</time>
      </trkpt>
      <trkpt lat="43.95143" lon="5.8906">
        <ele>401.16</ele>
        <time>2016-04-26T09:41:56Z</time>
      </trkpt>
      <trkpt lat="43.9509" lon="5.89038">
        <ele>399.47</ele>
        <time>2016-04-26T09:42:04Z</time>
      </trkpt>
      <trkpt lat="43.95043" lon="5.8902">
        <ele>399.68</ele>
        <time>2016-04-26T09:42:11Z</time>
      </trkpt>
      <trkpt lat="43.9499" lon="5.89001">
        <ele>399.18</ele>
        <time>2016-04-26T09:42:19Z</time>
      </trkpt>
      <trkpt lat="43.94942" lon="5.88984">
        <ele>399.43</ele>
        <time>2016-04-26T09:42:26Z</time>
      </trkpt>
      <trkpt lat="43.94894" lon="5.88969">
        <ele>399</ele>
        <time>2016-04-26T09:42:33Z</time>
      </trkpt>
      <trkpt lat="43.94844" lon="5.88954">
        <ele>399.19</ele>
        <time>2016-04-26T09:42:40Z</time>
      </trkpt>
      <trkpt lat="43.94794" lon="5.88941">
        <ele>398.78</ele>
        <time>2016-04-26T09:42:47Z</time>
      </trkpt>
      <trkpt lat="43.94745" lon="5.88928">
        <ele>397.74</ele>
        <time>2016-04-26T09:42:54Z</time>
      </trkpt>
      <trkpt lat="43.94696" lon="5.88917">
        <ele>398.07</ele>
        <time>2016-04-26T09:43:01Z</time>
      </trkpt>
      <trkpt lat="43.94647" lon="5.88906">
        <ele>398.17</ele>
        <time>2016-04-26T09:43:08Z</time>
      </trkpt>
      <trkpt lat="43.94593" lon="5.88896">
        <ele>396.8</ele>
        <time>2016-04-26T09:43:16Z</time>
      </trkpt>
      <trkpt lat="43.94543" lon="5.88887">
        <ele>396.48</ele>
        <time>2016-04-26T09:43:23Z</time>
      </trkpt>
      <trkpt lat="43.94494" lon="5.88879">
        <ele>396.87</ele>
        <time>2016-04-26T09:43:30Z</time>
      </trkpt>
      <trkpt lat="43.9444" lon="5.88873">
        <ele>395.5</ele>
        <time>2016-04-26T09:43:38Z</time>
      </trkpt>
      <trkpt lat="43.9439" lon="5.88868">
        <ele>395.12</ele>
        <time>2016-04-26T09:43:45Z</time>
      </trkpt>
      <trkpt lat="43.94338" lon="5.88867">
        <ele>394.47</ele>
        <time>2016-04-26T09:43:52Z</time>
      </trkpt>
      <trkpt lat="43.94283" lon="5.88869">
        <ele>395.5</ele>
        <time>2016-04-26T09:43:59Z</time>
      </trkpt>
      <trkpt lat="43.94237" lon="5.88878">
        <ele>394.92</ele>
        <time>2016-04-26T09:44:05Z</time>
      </trkpt>
      <trkpt lat="43.94183" lon="5.88889">
        <ele>394.83</ele>
        <time>2016-04-26T09:44:12Z</time>
      </trkpt>
      <trkpt lat="43.94122" lon="5.88903">
        <ele>394.74</ele>
        <time>2016-04-26T09:44:20Z</time>
      </trkpt>
      <trkpt lat="43.94074" lon="5.88913">
        <ele>394.12</ele>
        <time>2016-04-26T09:44:26Z</time>
      </trkpt>
      <trkpt lat="43.94024" lon="5.88921">
        <ele>391.96</ele>
        <time>2016-04-26T09:44:32Z</time>
      </trkpt>
      <trkpt lat="43.93972" lon="5.88928">
        <ele>390.71</ele>
        <time>2016-04-26T09:44:38Z</time>
      </trkpt>
      <trkpt lat="43.93919" lon="5.88935">
        <ele>389.67</ele>
        <time>2016-04-26T09:44:44Z</time>
      </trkpt>
      <trkpt lat="43.93868" lon="5.88941">
        <ele>387.71</ele>
        <time>2016-04-26T09:44:50Z</time>
      </trkpt>
      <trkpt lat="43.93816" lon="5.88947">
        <ele>387.76</ele>
        <time>2016-04-26T09:44:57Z</time>
      </trkpt>
      <trkpt lat="43.93762" lon="5.88954">
        <ele>388.65</ele>
        <time>2016-04-26T09:45:05Z</time>
      </trkpt>
      <trkpt lat="43.93708" lon="5.88961">
        <ele>389.52</ele>
        <time>2016-04-26T09:45:13Z</time>
      </trkpt>
      <trkpt lat="43.93654" lon="5.88967">
        <ele>388.8</ele>
        <time>2016-04-26T09:45:20Z</time>
      </trkpt>
      <trkpt lat="43.93599" lon="5.88974">
        <ele>387.83</ele>
        <time>2016-04-26T09:45:27Z</time>
      </trkpt>
      <trkpt lat="43.93567" lon="5.88978">
        <ele>386.17</ele>
        <time>2016-04-26T09:45:31Z</time>
      </trkpt>
      <trkpt lat="43.93518" lon="5.88984">
        <ele>387.41</ele>
        <time>2016-04-26T09:45:37Z</time>
      </trkpt>
      <trkpt lat="43.93469" lon="5.8899">
        <ele>386.64</ele>
        <time>2016-04-26T09:45:43Z</time>
      </trkpt>
      <trkpt lat="43.9342" lon="5.88997">
        <ele>386.47</ele>
        <time>2016-04-26T09:45:49Z</time>
      </trkpt>
      <trkpt lat="43.9338" lon="5.89001">
        <ele>384.7</ele>
        <time>2016-04-26T09:45:54Z</time>
      </trkpt>
      <trkpt lat="43.93324" lon="5.89009">
        <ele>384.7</ele>
        <time>2016-04-26T09:46:01Z</time>
      </trkpt>
      <trkpt lat="43.93268" lon="5.89016">
        <ele>384.05</ele>
        <time>2016-04-26T09:46:08Z</time>
      </trkpt>
      <trkpt lat="43.93213" lon="5.89021">
        <ele>382.6</ele>
        <time>2016-04-26T09:46:15Z</time>
      </trkpt>
      <trkpt lat="43.93192" lon="5.89022">
        <ele>382.11</ele>
        <time>2016-04-26T09:46:18Z</time>
      </trkpt>
      <trkpt lat="43.93185" lon="5.8902">
        <ele>381.91</ele>
        <time>2016-04-26T09:46:19Z</time>
      </trkpt>
      <trkpt lat="43.93179" lon="5.89019">
        <ele>381.14</ele>
        <time>2016-04-26T09:46:20Z</time>
      </trkpt>
      <trkpt lat="43.93172" lon="5.89019">
        <ele>380.88</ele>
        <time>2016-04-26T09:46:21Z</time>
      </trkpt>
      <trkpt lat="43.93165" lon="5.8902">
        <ele>380.94</ele>
        <time>2016-04-26T09:46:22Z</time>
      </trkpt>
      <trkpt lat="43.93158" lon="5.89023">
        <ele>381</ele>
        <time>2016-04-26T09:46:23Z</time>
      </trkpt>
      <trkpt lat="43.93151" lon="5.89026">
        <ele>381.28</ele>
        <time>2016-04-26T09:46:24Z</time>
      </trkpt>
      <trkpt lat="43.93144" lon="5.89028">
        <ele>381.78</ele>
        <time>2016-04-26T09:46:25Z</time>
      </trkpt>
      <trkpt lat="43.93137" lon="5.8903">
        <ele>381.99</ele>
        <time>2016-04-26T09:46:26Z</time>
      </trkpt>
      <trkpt lat="43.93086" lon="5.89038">
        <ele>380.98</ele>
        <time>2016-04-26T09:46:33Z</time>
      </trkpt>
      <trkpt lat="43.93035" lon="5.89046">
        <ele>380.84</ele>
        <time>2016-04-26T09:46:40Z</time>
      </trkpt>
      <trkpt lat="43.92984" lon="5.89052">
        <ele>380.53</ele>
        <time>2016-04-26T09:46:47Z</time>
      </trkpt>
      <trkpt lat="43.92929" lon="5.89058">
        <ele>377.51</ele>
        <time>2016-04-26T09:46:54Z</time>
      </trkpt>
      <trkpt lat="43.92878" lon="5.89061">
        <ele>375.92</ele>
        <time>2016-04-26T09:47:00Z</time>
      </trkpt>
      <trkpt lat="43.92823" lon="5.89062">
        <ele>373.64</ele>
        <time>2016-04-26T09:47:06Z</time>
      </trkpt>
      <trkpt lat="43.92779" lon="5.89065">
        <ele>370.43</ele>
        <time>2016-04-26T09:47:11Z</time>
      </trkpt>
      <trkpt lat="43.92751" lon="5.89066">
        <ele>369.07</ele>
        <time>2016-04-26T09:47:14Z</time>
      </trkpt>
      <trkpt lat="43.92694" lon="5.89069">
        <ele>366.3</ele>
        <time>2016-04-26T09:47:20Z</time>
      </trkpt>
      <trkpt lat="43.92674" lon="5.89069">
        <ele>365.63</ele>
        <time>2016-04-26T09:47:22Z</time>
      </trkpt>
      <trkpt lat="43.92622" lon="5.89071">
        <ele>364.15</ele>
        <time>2016-04-26T09:47:27Z</time>
      </trkpt>
      <trkpt lat="43.92571" lon="5.89066">
        <ele>362.75</ele>
        <time>2016-04-26T09:47:32Z</time>
      </trkpt>
      <trkpt lat="43.92522" lon="5.89049">
        <ele>362.16</ele>
        <time>2016-04-26T09:47:37Z</time>
      </trkpt>
      <trkpt lat="43.92474" lon="5.8903">
        <ele>360.59</ele>
        <time>2016-04-26T09:47:42Z</time>
      </trkpt>
      <trkpt lat="43.92417" lon="5.89009">
        <ele>358.44</ele>
        <time>2016-04-26T09:47:48Z</time>
      </trkpt>
      <trkpt lat="43.92363" lon="5.8899">
        <ele>357.56</ele>
        <time>2016-04-26T09:47:55Z</time>
      </trkpt>
      <trkpt lat="43.92315" lon="5.88975">
        <ele>358.1</ele>
        <time>2016-04-26T09:48:03Z</time>
      </trkpt>
      <trkpt lat="43.92267" lon="5.88959">
        <ele>357.98</ele>
        <time>2016-04-26T09:48:11Z</time>
      </trkpt>
      <trkpt lat="43.92212" lon="5.88945">
        <ele>358.12</ele>
        <time>2016-04-26T09:48:19Z</time>
      </trkpt>
      <trkpt lat="43.92179" lon="5.88933">
        <ele>357.88</ele>
        <time>2016-04-26T09:48:24Z</time>
      </trkpt>
      <trkpt lat="43.92161" lon="5.8892">
        <ele>358.13</ele>
        <time>2016-04-26T09:48:27Z</time>
      </trkpt>
      <trkpt lat="43.9215" lon="5.8891">
        <ele>358.65</ele>
        <time>2016-04-26T09:48:29Z</time>
      </trkpt>
      <trkpt lat="43.92144" lon="5.88907">
        <ele>358.55</ele>
        <time>2016-04-26T09:48:30Z</time>
      </trkpt>
      <trkpt lat="43.92137" lon="5.88907">
        <ele>358.02</ele>
        <time>2016-04-26T09:48:31Z</time>
      </trkpt>
      <trkpt lat="43.9213" lon="5.88908">
        <ele>357.44</ele>
        <time>2016-04-26T09:48:32Z</time>
      </trkpt>
      <trkpt lat="43.92123" lon="5.88909">
        <ele>357.1</ele>
        <time>2016-04-26T09:48:33Z</time>
      </trkpt>
      <trkpt lat="43.92115" lon="5.8891">
        <ele>356.94</ele>
        <time>2016-04-26T09:48:34Z</time>
      </trkpt>
      <trkpt lat="43.92108" lon="5.88909">
        <ele>356.93</ele>
        <time>2016-04-26T09:48:35Z</time>
      </trkpt>
      <trkpt lat="43.92057" lon="5.88897">
        <ele>356.32</ele>
        <time>2016-04-26T09:48:42Z</time>
      </trkpt>
      <trkpt lat="43.92003" lon="5.8888">
        <ele>357.29</ele>
        <time>2016-04-26T09:48:49Z</time>
      </trkpt>
      <trkpt lat="43.91949" lon="5.88863">
        <ele>357.53</ele>
        <time>2016-04-26T09:48:56Z</time>
      </trkpt>
      <trkpt lat="43.91897" lon="5.88846">
        <ele>357.53</ele>
        <time>2016-04-26T09:49:03Z</time>
      </trkpt>
      <trkpt lat="43.91847" lon="5.88831">
        <ele>357.43</ele>
        <time>2016-04-26T09:49:09Z</time>
      </trkpt>
      <trkpt lat="43.91797" lon="5.88815">
        <ele>357.34</ele>
        <time>2016-04-26T09:49:15Z</time>
      </trkpt>
      <trkpt lat="43.91747" lon="5.888">
        <ele>356.75</ele>
        <time>2016-04-26T09:49:21Z</time>
      </trkpt>
      <trkpt lat="43.91699" lon="5.88783">
        <ele>356.22</ele>
        <time>2016-04-26T09:49:27Z</time>
      </trkpt>
      <trkpt lat="43.91691" lon="5.88779">
        <ele>356.17</ele>
        <time>2016-04-26T09:49:28Z</time>
      </trkpt>
      <trkpt lat="43.91684" lon="5.88774">
        <ele>356.15</ele>
        <time>2016-04-26T09:49:29Z</time>
      </trkpt>
      <trkpt lat="43.91677" lon="5.88768">
        <ele>356.13</ele>
        <time>2016-04-26T09:49:30Z</time>
      </trkpt>
      <trkpt lat="43.9167" lon="5.88761">
        <ele>356.12</ele>
        <time>2016-04-26T09:49:31Z</time>
      </trkpt>
      <trkpt lat="43.91664" lon="5.88753">
        <ele>356.18</ele>
        <time>2016-04-26T09:49:32Z</time>
      </trkpt>
      <trkpt lat="43.91658" lon="5.88743">
        <ele>356.16</ele>
        <time>2016-04-26T09:49:33Z</time>
      </trkpt>
      <trkpt lat="43.91654" lon="5.88733">
        <ele>356</ele>
        <time>2016-04-26T09:49:34Z</time>
      </trkpt>
      <trkpt lat="43.9165" lon="5.88722">
        <ele>355.8</ele>
        <time>2016-04-26T09:49:35Z</time>
      </trkpt>
      <trkpt lat="43.91646" lon="5.8871">
        <ele>356.25</ele>
        <time>2016-04-26T09:49:36Z</time>
      </trkpt>
      <trkpt lat="43.91644" lon="5.88698">
        <ele>356.84</ele>
        <time>2016-04-26T09:49:37Z</time>
      </trkpt>
      <trkpt lat="43.91643" lon="5.88685">
        <ele>356.9</ele>
        <time>2016-04-26T09:49:38Z</time>
      </trkpt>
      <trkpt lat="43.91642" lon="5.88673">
        <ele>356.7</ele>
        <time>2016-04-26T09:49:39Z</time>
      </trkpt>
      <trkpt lat="43.91641" lon="5.8866">
        <ele>356.55</ele>
        <time>2016-04-26T09:49:40Z</time>
      </trkpt>
      <trkpt lat="43.91642" lon="5.88647">
        <ele>356.42</ele>
        <time>2016-04-26T09:49:41Z</time>
      </trkpt>
      <trkpt lat="43.91643" lon="5.88634">
        <ele>356.22</ele>
        <time>2016-04-26T09:49:42Z</time>
      </trkpt>
      <trkpt lat="43.91646" lon="5.88621">
        <ele>355.07</ele>
        <time>2016-04-26T09:49:43Z</time>
      </trkpt>
      <trkpt lat="43.91649" lon="5.88609">
        <ele>354.17</ele>
        <time>2016-04-26T09:49:44Z</time>
      </trkpt>
      <trkpt lat="43.91652" lon="5.88596">
        <ele>353.47</ele>
        <time>2016-04-26T09:49:45Z</time>
      </trkpt>
      <trkpt lat="43.91668" lon="5.88537">
        <ele>349.79</ele>
        <time>2016-04-26T09:49:50Z</time>
      </trkpt>
      <trkpt lat="43.91671" lon="5.88525">
        <ele>347.58</ele>
        <time>2016-04-26T09:49:51Z</time>
      </trkpt>
      <trkpt lat="43.91672" lon="5.88512">
        <ele>346.59</ele>
        <time>2016-04-26T09:49:52Z</time>
      </trkpt>
      <trkpt lat="43.91672" lon="5.88499">
        <ele>346.49</ele>
        <time>2016-04-26T09:49:53Z</time>
      </trkpt>
      <trkpt lat="43.91669" lon="5.88486">
        <ele>346.12</ele>
        <time>2016-04-26T09:49:54Z</time>
      </trkpt>
      <trkpt lat="43.91666" lon="5.88474">
        <ele>345.19</ele>
        <time>2016-04-26T09:49:55Z</time>
      </trkpt>
      <trkpt lat="43.91661" lon="5.88462">
        <ele>344.59</ele>
        <time>2016-04-26T09:49:56Z</time>
      </trkpt>
      <trkpt lat="43.91652" lon="5.88454">
        <ele>344.06</ele>
        <time>2016-04-26T09:49:57Z</time>
      </trkpt>
      <trkpt lat="43.91644" lon="5.88447">
        <ele>343.57</ele>
        <time>2016-04-26T09:49:58Z</time>
      </trkpt>
      <trkpt lat="43.91634" lon="5.88443">
        <ele>343.38</ele>
        <time>2016-04-26T09:49:59Z</time>
      </trkpt>
      <trkpt lat="43.91625" lon="5.88441">
        <ele>343.18</ele>
        <time>2016-04-26T09:50:00Z</time>
      </trkpt>
      <trkpt lat="43.91615" lon="5.88441">
        <ele>342.71</ele>
        <time>2016-04-26T09:50:01Z</time>
      </trkpt>
      <trkpt lat="43.91606" lon="5.88443">
        <ele>342.31</ele>
        <time>2016-04-26T09:50:02Z</time>
      </trkpt>
      <trkpt lat="43.91596" lon="5.88445">
        <ele>342.17</ele>
        <time>2016-04-26T09:50:03Z</time>
      </trkpt>
      <trkpt lat="43.91586" lon="5.88447">
        <ele>341.78</ele>
        <time>2016-04-26T09:50:04Z</time>
      </trkpt>
      <trkpt lat="43.91577" lon="5.88449">
        <ele>341.38</ele>
        <time>2016-04-26T09:50:05Z</time>
      </trkpt>
      <trkpt lat="43.9152" lon="5.88458">
        <ele>340.14</ele>
        <time>2016-04-26T09:50:11Z</time>
      </trkpt>
      <trkpt lat="43.91468" lon="5.88464">
        <ele>339.42</ele>
        <time>2016-04-26T09:50:17Z</time>
      </trkpt>
      <trkpt lat="43.91416" lon="5.88468">
        <ele>338.85</ele>
        <time>2016-04-26T09:50:23Z</time>
      </trkpt>
      <trkpt lat="43.91366" lon="5.8847">
        <ele>338.18</ele>
        <time>2016-04-26T09:50:29Z</time>
      </trkpt>
      <trkpt lat="43.91314" lon="5.88465">
        <ele>339.13</ele>
        <time>2016-04-26T09:50:36Z</time>
      </trkpt>
      <trkpt lat="43.91307" lon="5.88463">
        <ele>339.43</ele>
        <time>2016-04-26T09:50:37Z</time>
      </trkpt>
      <trkpt lat="43.91288" lon="5.88455">
        <ele>339.24</ele>
        <time>2016-04-26T09:50:40Z</time>
      </trkpt>
      <trkpt lat="43.91281" lon="5.88454">
        <ele>339.33</ele>
        <time>2016-04-26T09:50:41Z</time>
      </trkpt>
      <trkpt lat="43.91231" lon="5.88447">
        <ele>340.89</ele>
        <time>2016-04-26T09:50:51Z</time>
      </trkpt>
      <trkpt lat="43.91222" lon="5.88445">
        <ele>340.86</ele>
        <time>2016-04-26T09:50:53Z</time>
      </trkpt>
      <trkpt lat="43.91219" lon="5.88443">
        <ele>341.04</ele>
        <time>2016-04-26T09:50:54Z</time>
      </trkpt>
      <trkpt lat="43.91215" lon="5.88439">
        <ele>341.38</ele>
        <time>2016-04-26T09:50:55Z</time>
      </trkpt>
      <trkpt lat="43.91214" lon="5.88435">
        <ele>341.69</ele>
        <time>2016-04-26T09:50:56Z</time>
      </trkpt>
      <trkpt lat="43.91213" lon="5.8843">
        <ele>341.92</ele>
        <time>2016-04-26T09:50:57Z</time>
      </trkpt>
      <trkpt lat="43.91212" lon="5.88425">
        <ele>342.19</ele>
        <time>2016-04-26T09:50:58Z</time>
      </trkpt>
      <trkpt lat="43.91213" lon="5.8842">
        <ele>342.65</ele>
        <time>2016-04-26T09:50:59Z</time>
      </trkpt>
      <trkpt lat="43.91213" lon="5.88415">
        <ele>343.07</ele>
        <time>2016-04-26T09:51:00Z</time>
      </trkpt>
      <trkpt lat="43.91213" lon="5.8841">
        <ele>343.38</ele>
        <time>2016-04-26T09:51:01Z</time>
      </trkpt>
      <trkpt lat="43.91213" lon="5.88405">
        <ele>343.69</ele>
        <time>2016-04-26T09:51:02Z</time>
      </trkpt>
      <trkpt lat="43.91221" lon="5.88361">
        <ele>346.47</ele>
        <time>2016-04-26T09:51:11Z</time>
      </trkpt>
      <trkpt lat="43.91219" lon="5.88357">
        <ele>346.72</ele>
        <time>2016-04-26T09:51:12Z</time>
      </trkpt>
      <trkpt lat="43.91216" lon="5.88354">
        <ele>346.92</ele>
        <time>2016-04-26T09:51:13Z</time>
      </trkpt>
      <trkpt lat="43.91213" lon="5.88352">
        <ele>347.05</ele>
        <time>2016-04-26T09:51:14Z</time>
      </trkpt>
      <trkpt lat="43.9121" lon="5.8835">
        <ele>347.13</ele>
        <time>2016-04-26T09:51:15Z</time>
      </trkpt>
      <trkpt lat="43.91206" lon="5.88348">
        <ele>347.27</ele>
        <time>2016-04-26T09:51:16Z</time>
      </trkpt>
      <trkpt lat="43.91203" lon="5.88347">
        <ele>347.4</ele>
        <time>2016-04-26T09:51:17Z</time>
      </trkpt>
      <trkpt lat="43.91199" lon="5.88347">
        <ele>347.51</ele>
        <time>2016-04-26T09:51:18Z</time>
      </trkpt>
      <trkpt lat="43.91148" lon="5.88333">
        <ele>350.59</ele>
        <time>2016-04-26T09:51:33Z</time>
      </trkpt>
      <trkpt lat="43.91101" lon="5.88315">
        <ele>352.65</ele>
        <time>2016-04-26T09:51:47Z</time>
      </trkpt>
      <trkpt lat="43.91066" lon="5.8828">
        <ele>355.75</ele>
        <time>2016-04-26T09:52:02Z</time>
      </trkpt>
      <trkpt lat="43.91056" lon="5.88239">
        <ele>358.89</ele>
        <time>2016-04-26T09:52:13Z</time>
      </trkpt>
      <trkpt lat="43.91044" lon="5.88189">
        <ele>361.99</ele>
        <time>2016-04-26T09:52:27Z</time>
      </trkpt>
      <trkpt lat="43.91021" lon="5.88156">
        <ele>364.99</ele>
        <time>2016-04-26T09:52:38Z</time>
      </trkpt>
      <trkpt lat="43.90986" lon="5.88104">
        <ele>366.99</ele>
        <time>2016-04-26T09:52:53Z</time>
      </trkpt>
      <trkpt lat="43.90955" lon="5.88067">
        <ele>367.99</ele>
        <time>2016-04-26T09:53:03Z</time>
      </trkpt>
      <trkpt lat="43.90951" lon="5.88065">
        <ele>367.81</ele>
        <time>2016-04-26T09:53:04Z</time>
      </trkpt>
      <trkpt lat="43.90947" lon="5.88062">
        <ele>367.57</ele>
        <time>2016-04-26T09:53:05Z</time>
      </trkpt>
      <trkpt lat="43.909" lon="5.88029">
        <ele>367.2</ele>
        <time>2016-04-26T09:53:16Z</time>
      </trkpt>
      <trkpt lat="43.90856" lon="5.88003">
        <ele>369.05</ele>
        <time>2016-04-26T09:53:28Z</time>
      </trkpt>
      <trkpt lat="43.90814" lon="5.87971">
        <ele>371.87</ele>
        <time>2016-04-26T09:53:41Z</time>
      </trkpt>
      <trkpt lat="43.90784" lon="5.87921">
        <ele>372.64</ele>
        <time>2016-04-26T09:53:53Z</time>
      </trkpt>
      <trkpt lat="43.90778" lon="5.87906">
        <ele>372.85</ele>
        <time>2016-04-26T09:53:56Z</time>
      </trkpt>
      <trkpt lat="43.9077" lon="5.87892">
        <ele>373.05</ele>
        <time>2016-04-26T09:53:59Z</time>
      </trkpt>
      <trkpt lat="43.90768" lon="5.87887">
        <ele>373.13</ele>
        <time>2016-04-26T09:54:00Z</time>
      </trkpt>
      <trkpt lat="43.90763" lon="5.87877">
        <ele>373.54</ele>
        <time>2016-04-26T09:54:02Z</time>
      </trkpt>
      <trkpt lat="43.9075" lon="5.87848">
        <ele>374.54</ele>
        <time>2016-04-26T09:54:08Z</time>
      </trkpt>
      <trkpt lat="43.90732" lon="5.87785">
        <ele>376.24</ele>
        <time>2016-04-26T09:54:21Z</time>
      </trkpt>
      <trkpt lat="43.90731" lon="5.87757">
        <ele>377.85</ele>
        <time>2016-04-26T09:54:26Z</time>
      </trkpt>
      <trkpt lat="43.90734" lon="5.87731">
        <ele>379.29</ele>
        <time>2016-04-26T09:54:30Z</time>
      </trkpt>
      <trkpt lat="43.90734" lon="5.87724">
        <ele>379.16</ele>
        <time>2016-04-26T09:54:31Z</time>
      </trkpt>
      <trkpt lat="43.90731" lon="5.87712">
        <ele>378.94</ele>
        <time>2016-04-26T09:54:33Z</time>
      </trkpt>
      <trkpt lat="43.90712" lon="5.87646">
        <ele>379.74</ele>
        <time>2016-04-26T09:54:45Z</time>
      </trkpt>
      <trkpt lat="43.90704" lon="5.87603">
        <ele>380.32</ele>
        <time>2016-04-26T09:54:52Z</time>
      </trkpt>
      <trkpt lat="43.90702" lon="5.87597">
        <ele>380.56</ele>
        <time>2016-04-26T09:54:53Z</time>
      </trkpt>
      <trkpt lat="43.90698" lon="5.87585">
        <ele>380.33</ele>
        <time>2016-04-26T09:54:55Z</time>
      </trkpt>
      <trkpt lat="43.90692" lon="5.87573">
        <ele>379.91</ele>
        <time>2016-04-26T09:54:57Z</time>
      </trkpt>
      <trkpt lat="43.90653" lon="5.87529">
        <ele>380.83</ele>
        <time>2016-04-26T09:55:09Z</time>
      </trkpt>
      <trkpt lat="43.90637" lon="5.87483">
        <ele>383.32</ele>
        <time>2016-04-26T09:55:20Z</time>
      </trkpt>
      <trkpt lat="43.90635" lon="5.87477">
        <ele>383.51</ele>
        <time>2016-04-26T09:55:21Z</time>
      </trkpt>
      <trkpt lat="43.90633" lon="5.87472">
        <ele>383.75</ele>
        <time>2016-04-26T09:55:22Z</time>
      </trkpt>
      <trkpt lat="43.90631" lon="5.87467">
        <ele>384.09</ele>
        <time>2016-04-26T09:55:23Z</time>
      </trkpt>
      <trkpt lat="43.90628" lon="5.87463">
        <ele>384.51</ele>
        <time>2016-04-26T09:55:24Z</time>
      </trkpt>
      <trkpt lat="43.90592" lon="5.87413">
        <ele>386.93</ele>
        <time>2016-04-26T09:55:37Z</time>
      </trkpt>
      <trkpt lat="43.90543" lon="5.87389">
        <ele>388.62</ele>
        <time>2016-04-26T09:55:49Z</time>
      </trkpt>
      <trkpt lat="43.90499" lon="5.87355">
        <ele>389.72</ele>
        <time>2016-04-26T09:56:00Z</time>
      </trkpt>
      <trkpt lat="43.90468" lon="5.87324">
        <ele>388.7</ele>
        <time>2016-04-26T09:56:08Z</time>
      </trkpt>
      <trkpt lat="43.90462" lon="5.87321">
        <ele>388.16</ele>
        <time>2016-04-26T09:56:09Z</time>
      </trkpt>
      <trkpt lat="43.90456" lon="5.8732">
        <ele>387.31</ele>
        <time>2016-04-26T09:56:10Z</time>
      </trkpt>
      <trkpt lat="43.90449" lon="5.87318">
        <ele>386.24</ele>
        <time>2016-04-26T09:56:11Z</time>
      </trkpt>
      <trkpt lat="43.9044" lon="5.87317">
        <ele>385.18</ele>
        <time>2016-04-26T09:56:12Z</time>
      </trkpt>
      <trkpt lat="43.90431" lon="5.87317">
        <ele>384.43</ele>
        <time>2016-04-26T09:56:13Z</time>
      </trkpt>
      <trkpt lat="43.90423" lon="5.87317">
        <ele>384</ele>
        <time>2016-04-26T09:56:14Z</time>
      </trkpt>
      <trkpt lat="43.90414" lon="5.87318">
        <ele>383.77</ele>
        <time>2016-04-26T09:56:15Z</time>
      </trkpt>
      <trkpt lat="43.90397" lon="5.87317">
        <ele>382.59</ele>
        <time>2016-04-26T09:56:17Z</time>
      </trkpt>
      <trkpt lat="43.90388" lon="5.87315">
        <ele>381.71</ele>
        <time>2016-04-26T09:56:18Z</time>
      </trkpt>
      <trkpt lat="43.9038" lon="5.87312">
        <ele>381.01</ele>
        <time>2016-04-26T09:56:19Z</time>
      </trkpt>
      <trkpt lat="43.90371" lon="5.87308">
        <ele>380.02</ele>
        <time>2016-04-26T09:56:20Z</time>
      </trkpt>
      <trkpt lat="43.90362" lon="5.87302">
        <ele>379.15</ele>
        <time>2016-04-26T09:56:21Z</time>
      </trkpt>
      <trkpt lat="43.90355" lon="5.87295">
        <ele>378.24</ele>
        <time>2016-04-26T09:56:22Z</time>
      </trkpt>
      <trkpt lat="43.90348" lon="5.87289">
        <ele>376.85</ele>
        <time>2016-04-26T09:56:23Z</time>
      </trkpt>
      <trkpt lat="43.90341" lon="5.87283">
        <ele>375.68</ele>
        <time>2016-04-26T09:56:24Z</time>
      </trkpt>
      <trkpt lat="43.90332" lon="5.8728">
        <ele>374.59</ele>
        <time>2016-04-26T09:56:25Z</time>
      </trkpt>
      <trkpt lat="43.90323" lon="5.87277">
        <ele>373.47</ele>
        <time>2016-04-26T09:56:26Z</time>
      </trkpt>
      <trkpt lat="43.90314" lon="5.87276">
        <ele>372.5</ele>
        <time>2016-04-26T09:56:27Z</time>
      </trkpt>
      <trkpt lat="43.90305" lon="5.87276">
        <ele>371.68</ele>
        <time>2016-04-26T09:56:28Z</time>
      </trkpt>
      <trkpt lat="43.90294" lon="5.87279">
        <ele>370.85</ele>
        <time>2016-04-26T09:56:29Z</time>
      </trkpt>
      <trkpt lat="43.90283" lon="5.87283">
        <ele>370.26</ele>
        <time>2016-04-26T09:56:30Z</time>
      </trkpt>
      <trkpt lat="43.90272" lon="5.87286">
        <ele>369.76</ele>
        <time>2016-04-26T09:56:31Z</time>
      </trkpt>
      <trkpt lat="43.90261" lon="5.87288">
        <ele>369.29</ele>
        <time>2016-04-26T09:56:32Z</time>
      </trkpt>
      <trkpt lat="43.9025" lon="5.87289">
        <ele>368.88</ele>
        <time>2016-04-26T09:56:33Z</time>
      </trkpt>
      <trkpt lat="43.9024" lon="5.87286">
        <ele>367.94</ele>
        <time>2016-04-26T09:56:34Z</time>
      </trkpt>
      <trkpt lat="43.90231" lon="5.87283">
        <ele>367.2</ele>
        <time>2016-04-26T09:56:35Z</time>
      </trkpt>
      <trkpt lat="43.90223" lon="5.87278">
        <ele>366.88</ele>
        <time>2016-04-26T09:56:36Z</time>
      </trkpt>
      <trkpt lat="43.90206" lon="5.87262">
        <ele>368.24</ele>
        <time>2016-04-26T09:56:39Z</time>
      </trkpt>
      <trkpt lat="43.90203" lon="5.87257">
        <ele>368.83</ele>
        <time>2016-04-26T09:56:40Z</time>
      </trkpt>
      <trkpt lat="43.902" lon="5.87252">
        <ele>369.35</ele>
        <time>2016-04-26T09:56:41Z</time>
      </trkpt>
      <trkpt lat="43.90198" lon="5.87246">
        <ele>369.98</ele>
        <time>2016-04-26T09:56:42Z</time>
      </trkpt>
      <trkpt lat="43.90196" lon="5.87241">
        <ele>370.72</ele>
        <time>2016-04-26T09:56:43Z</time>
      </trkpt>
      <trkpt lat="43.9019" lon="5.87219">
        <ele>373.76</ele>
        <time>2016-04-26T09:56:47Z</time>
      </trkpt>
      <trkpt lat="43.90186" lon="5.87202">
        <ele>375.91</ele>
        <time>2016-04-26T09:56:51Z</time>
      </trkpt>
      <trkpt lat="43.90178" lon="5.87166">
        <ele>377.04</ele>
        <time>2016-04-26T09:56:59Z</time>
      </trkpt>
      <trkpt lat="43.90174" lon="5.87155">
        <ele>376.85</ele>
        <time>2016-04-26T09:57:01Z</time>
      </trkpt>
      <trkpt lat="43.90172" lon="5.8715">
        <ele>376.91</ele>
        <time>2016-04-26T09:57:02Z</time>
      </trkpt>
      <trkpt lat="43.90169" lon="5.87146">
        <ele>376.56</ele>
        <time>2016-04-26T09:57:03Z</time>
      </trkpt>
      <trkpt lat="43.90166" lon="5.87142">
        <ele>376.17</ele>
        <time>2016-04-26T09:57:04Z</time>
      </trkpt>
      <trkpt lat="43.90163" lon="5.87138">
        <ele>375.94</ele>
        <time>2016-04-26T09:57:05Z</time>
      </trkpt>
      <trkpt lat="43.90126" lon="5.87091">
        <ele>376.74</ele>
        <time>2016-04-26T09:57:20Z</time>
      </trkpt>
      <trkpt lat="43.90099" lon="5.87048">
        <ele>379.81</ele>
        <time>2016-04-26T09:57:34Z</time>
      </trkpt>
      <trkpt lat="43.90071" lon="5.87006">
        <ele>383.01</ele>
        <time>2016-04-26T09:57:47Z</time>
      </trkpt>
      <trkpt lat="43.90049" lon="5.86974">
        <ele>386.36</ele>
        <time>2016-04-26T09:57:57Z</time>
      </trkpt>
      <trkpt lat="43.90045" lon="5.86967">
        <ele>387.16</ele>
        <time>2016-04-26T09:57:59Z</time>
      </trkpt>
      <trkpt lat="43.90003" lon="5.86922">
        <ele>389.05</ele>
        <time>2016-04-26T09:58:13Z</time>
      </trkpt>
      <trkpt lat="43.8999" lon="5.86911">
        <ele>389.23</ele>
        <time>2016-04-26T09:58:16Z</time>
      </trkpt>
      <trkpt lat="43.89986" lon="5.86908">
        <ele>389.34</ele>
        <time>2016-04-26T09:58:17Z</time>
      </trkpt>
      <trkpt lat="43.89981" lon="5.86904">
        <ele>389.59</ele>
        <time>2016-04-26T09:58:18Z</time>
      </trkpt>
      <trkpt lat="43.89972" lon="5.86894">
        <ele>389.92</ele>
        <time>2016-04-26T09:58:20Z</time>
      </trkpt>
      <trkpt lat="43.8993" lon="5.86852">
        <ele>389.44</ele>
        <time>2016-04-26T09:58:30Z</time>
      </trkpt>
      <trkpt lat="43.89887" lon="5.86814">
        <ele>389.62</ele>
        <time>2016-04-26T09:58:40Z</time>
      </trkpt>
      <trkpt lat="43.89883" lon="5.8681">
        <ele>389.6</ele>
        <time>2016-04-26T09:58:41Z</time>
      </trkpt>
      <trkpt lat="43.89843" lon="5.86779">
        <ele>390.64</ele>
        <time>2016-04-26T09:58:50Z</time>
      </trkpt>
      <trkpt lat="43.89802" lon="5.8674">
        <ele>392.75</ele>
        <time>2016-04-26T09:59:00Z</time>
      </trkpt>
      <trkpt lat="43.89774" lon="5.86712">
        <ele>389.61</ele>
        <time>2016-04-26T09:59:08Z</time>
      </trkpt>
      <trkpt lat="43.89772" lon="5.86709">
        <ele>389.41</ele>
        <time>2016-04-26T09:59:09Z</time>
      </trkpt>
      <trkpt lat="43.8977" lon="5.86698">
        <ele>389.5</ele>
        <time>2016-04-26T09:59:13Z</time>
      </trkpt>
      <trkpt lat="43.89771" lon="5.86697">
        <ele>389.75</ele>
        <time>2016-04-26T09:59:14Z</time>
      </trkpt>
      <trkpt lat="43.89773" lon="5.86696">
        <ele>389.98</ele>
        <time>2016-04-26T09:59:15Z</time>
      </trkpt>
      <trkpt lat="43.89774" lon="5.86695">
        <ele>390.17</ele>
        <time>2016-04-26T09:59:16Z</time>
      </trkpt>
      <trkpt lat="43.89775" lon="5.86694">
        <ele>390.26</ele>
        <time>2016-04-26T09:59:17Z</time>
      </trkpt>
      <trkpt lat="43.89793" lon="5.86662">
        <ele>393.36</ele>
        <time>2016-04-26T09:59:34Z</time>
      </trkpt>
      <trkpt lat="43.89809" lon="5.8663">
        <ele>396.93</ele>
        <time>2016-04-26T09:59:46Z</time>
      </trkpt>
      <trkpt lat="43.89821" lon="5.86606">
        <ele>400.29</ele>
        <time>2016-04-26T09:59:54Z</time>
      </trkpt>
      <trkpt lat="43.89825" lon="5.866">
        <ele>400.94</ele>
        <time>2016-04-26T09:59:56Z</time>
      </trkpt>
      <trkpt lat="43.89838" lon="5.86578">
        <ele>404.06</ele>
        <time>2016-04-26T10:00:04Z</time>
      </trkpt>
      <trkpt lat="43.89848" lon="5.86548">
        <ele>407.21</ele>
        <time>2016-04-26T10:00:14Z</time>
      </trkpt>
      <trkpt lat="43.89847" lon="5.86546">
        <ele>407.33</ele>
        <time>2016-04-26T10:00:15Z</time>
      </trkpt>
      <trkpt lat="43.89846" lon="5.86544">
        <ele>407.48</ele>
        <time>2016-04-26T10:00:16Z</time>
      </trkpt>
      <trkpt lat="43.89845" lon="5.86543">
        <ele>407.57</ele>
        <time>2016-04-26T10:00:17Z</time>
      </trkpt>
      <trkpt lat="43.89843" lon="5.86541">
        <ele>407.49</ele>
        <time>2016-04-26T10:00:18Z</time>
      </trkpt>
      <trkpt lat="43.89841" lon="5.86539">
        <ele>407.33</ele>
        <time>2016-04-26T10:00:19Z</time>
      </trkpt>
      <trkpt lat="43.89839" lon="5.86536">
        <ele>407.62</ele>
        <time>2016-04-26T10:00:20Z</time>
      </trkpt>
      <trkpt lat="43.89838" lon="5.86535">
        <ele>407.88</ele>
        <time>2016-04-26T10:00:21Z</time>
      </trkpt>
      <trkpt lat="43.89836" lon="5.86533">
        <ele>407.89</ele>
        <time>2016-04-26T10:00:22Z</time>
      </trkpt>
      <trkpt lat="43.89834" lon="5.86531">
        <ele>407.75</ele>
        <time>2016-04-26T10:00:23Z</time>
      </trkpt>
      <trkpt lat="43.89832" lon="5.86529">
        <ele>407.61</ele>
        <time>2016-04-26T10:00:24Z</time>
      </trkpt>
      <trkpt lat="43.8983" lon="5.86527">
        <ele>407.35</ele>
        <time>2016-04-26T10:00:25Z</time>
      </trkpt>
      <trkpt lat="43.89829" lon="5.86525">
        <ele>407.2</ele>
        <time>2016-04-26T10:00:26Z</time>
      </trkpt>
      <trkpt lat="43.89816" lon="5.86503">
        <ele>405.49</ele>
        <time>2016-04-26T10:00:40Z</time>
      </trkpt>
    </trkseg>
  </trk>
</gpx>